# Wetter Temperatur Luftdruck Luftfeuchtigkeit Sichtweite Windgeschwindigkeit Windrichtung Zeit
1 Clouds 6 1010 90 10000 12.38 286 14:22 01.02.2023
2 Clouds 4 1011 90 10000 18.15 291 13:20 01.02.2023
3 Rain 4 1011 85 10000 14.33 279 12:48 01.02.2023
4 Clouds 6 1011 88 10000 10.77 261 11:56 01.02.2023
5 Clouds 6 1012 86 10000 10.71 280 08:43 01.02.2023
6 Clouds 6 1014 82 10000 10.01 273 00:43 01.02.2023
7 Clouds 6 1015 79 10000 10.55 277 21:38 31.01.2023
8 Clear 6 1016 81 10000 10.63 279 19:48 31.01.2023
9 Clouds 6 1015 80 10000 10.63 284 18:50 31.01.2023
10 Clouds 8 1014 85 10000 11.89 287 15:36 31.01.2023
11 Clouds 8 1014 86 10000 10.78 273 15:18 31.01.2023
12 Clouds 8 1014 89 10000 10.6 271 14:19 31.01.2023
13 Clouds 6 1015 90 10000 10.03 262 12:19 31.01.2023
14 Clouds 6 1015 89 10000 9.16 256 11:19 31.01.2023
15 Clouds 6 1016 88 10000 9.48 253 09:52 31.01.2023
16 Clouds 5 1016 88 10000 9.2 246 08:59 31.01.2023
17 Clouds 5 1016 88 10000 9.2 246 08:35 31.01.2023
18 Clouds 4 1018 89 10000 7.02 241 05:39 31.01.2023
19 Clouds 5 1020 85 10000 8.25 288 23:56 30.01.2023
20 Clear 5 1019 83 10000 8.19 295 22:51 30.01.2023
21 Clear 5 1019 83 10000 8.19 295 22:30 30.01.2023
22 Clear 5 1019 81 10000 9.51 301 20:59 30.01.2023
23 Clear 5 1018 82 10000 9.54 301 20:27 30.01.2023
24 Clear 6 1017 83 10000 9.99 309 17:54 30.01.2023
25 Clear 7 1016 84 10000 10.74 311 16:33 30.01.2023
26 Clear 7 1012 80 10000 12.59 300 14:27 30.01.2023
27 Clouds 7 1012 80 10000 13.06 300 12:44 30.01.2023
28 Rain 7 1010 82 10000 12.79 293 11:27 30.01.2023
29 Clouds 6 1010 82 10000 12.65 290 09:54 30.01.2023
30 Clouds 6 1010 84 10000 12.15 288 08:57 30.01.2023
31 Clouds 6 1010 85 10000 11.01 285 07:29 30.01.2023
32 Clouds 6 1011 90 8787 10.33 261 01:42 30.01.2023
33 Clouds 5 1013 91 10000 9.87 245 23:35 29.01.2023
34 Clouds 5 1014 91 10000 9.57 240 22:37 29.01.2023
35 Clouds 5 1015 92 10000 9.3 240 21:41 29.01.2023
36 Clouds 4 1015 92 10000 9.13 240 20:41 29.01.2023
37 Clouds 4 1016 92 10000 9.06 236 19:48 29.01.2023
38 Clouds 4 1017 92 10000 8.61 236 19:27 29.01.2023
39 Clouds 4 1017 92 10000 8.61 233 17:49 29.01.2023
40 Clouds 4 1019 92 10000 8.06 231 16:21 29.01.2023
41 Clouds 5 1020 92 10000 7.99 232 15:29 29.01.2023
42 Rain 5 1021 91 10000 7.68 233 13:30 29.01.2023
43 Rain 4 1022 91 10000 7.45 233 12:45 29.01.2023
44 Rain 4 1023 91 10000 7.23 231 12:23 29.01.2023
45 Rain 4 1023 91 10000 7.23 231 11:58 29.01.2023
46 Clouds 4 1023 91 10000 7.04 232 11:28 29.01.2023
47 Clouds 4 1024 91 10000 6.84 233 10:19 29.01.2023
48 Clouds 3 1024 91 10000 8.02 233 07:48 29.01.2023
49 Clouds 4 1026 88 10000 4.89 241 03:42 29.01.2023
50 Clouds 3 1028 87 10000 4.19 258 23:46 28.01.2023
51 Clouds 3 1028 87 10000 4.11 261 20:50 28.01.2023
52 Clouds 3 1028 86 10000 4.08 265 19:54 28.01.2023
53 Rain 4 1028 85 10000 3.38 260 18:49 28.01.2023
54 Clouds 4 1028 84 10000 3.12 263 17:24 28.01.2023
55 Clouds 4 1029 82 10000 3.25 291 16:28 28.01.2023
56 Clouds 4 1029 82 10000 3.25 291 15:59 28.01.2023
57 Clouds 4 1028 80 10000 3.65 288 15:22 28.01.2023
58 Clouds 4 1028 80 10000 3.52 282 13:47 28.01.2023
59 Clouds 4 1029 81 10000 2.95 295 12:21 28.01.2023
60 Clouds 2 1029 84 10000 2.32 286 10:35 28.01.2023
61 Clouds 0 1029 86 10000 2.08 276 09:30 28.01.2023
62 Clouds 1 1029 82 10000 0.53 15 02:27 28.01.2023
63 Clouds 1 1030 82 10000 1.23 36 00:28 28.01.2023
64 Clouds 2 1030 82 10000 1.5 55 22:46 27.01.2023
65 Clouds 3 1029 82 10000 2.51 37 19:48 27.01.2023
66 Clouds 3 1029 84 10000 3.04 42 17:58 27.01.2023
67 Clouds 3 1029 83 10000 3.29 37 17:21 27.01.2023
68 Clouds 3 1029 83 10000 3.29 37 16:55 27.01.2023
69 Clouds 3 1028 83 10000 4.05 51 15:27 27.01.2023
70 Clouds 4 1028 83 10000 4.3 58 14:27 27.01.2023
71 Clouds 4 1028 85 10000 4.3 58 13:36 27.01.2023
72 Clouds 3 1028 88 10000 4.46 47 10:20 27.01.2023
73 Clouds 3 1028 86 10000 4.44 43 08:35 27.01.2023
74 Clouds 4 1026 90 10000 6.74 47 00:40 27.01.2023
75 Clear 4 1025 91 10000 4.91 39 22:43 26.01.2023
76 Clear 4 1025 90 10000 5.41 35 20:57 26.01.2023
77 Clear 4 1025 90 10000 5.41 35 20:30 26.01.2023
78 Clear 5 1023 89 10000 4.41 3 18:20 26.01.2023
79 Clear 6 1023 86 10000 4.09 345 16:57 26.01.2023
80 Clear 6 1023 86 10000 4.8 336 16:24 26.01.2023
81 Clear 7 1023 85 10000 4.8 336 15:43 26.01.2023
82 Clear 7 1023 86 10000 5.19 346 15:25 26.01.2023
83 Clear 7 1024 87 10000 6.27 348 13:56 26.01.2023
84 Clouds 7 1024 87 10000 5.19 349 12:35 26.01.2023
85 Clouds 6 1024 92 10000 3.91 352 11:25 26.01.2023
86 Clouds 4 1024 94 10000 3.22 359 10:27 26.01.2023
87 Clouds 3 1024 94 10000 3.22 359 09:44 26.01.2023
88 Clouds 4 1024 94 10000 3.1 358 08:25 26.01.2023
89 Clouds -1 1023 93 10000 3.9 207 23:58 25.01.2023
90 Clouds -1 1023 93 10000 3.9 207 23:37 25.01.2023
91 Clouds -1 1024 93 10000 4.33 197 21:56 25.01.2023
92 Clouds -1 1025 93 10000 4.58 188 21:20 25.01.2023
93 Clouds -1 1025 92 10000 3.26 213 18:41 25.01.2023
94 Clouds -1 1026 92 10000 3.24 233 18:21 25.01.2023
95 Clouds 0 1028 92 10000 3.15 231 15:44 25.01.2023
96 Clouds 0 1031 91 10000 3.83 229 12:58 25.01.2023
97 Clouds -1 1033 91 10000 3.1 229 11:20 25.01.2023
98 Clouds -1 1033 91 10000 2.63 236 09:45 25.01.2023
99 Clouds -1 1034 91 10000 2.59 239 07:45 25.01.2023
100 Clouds 0 1037 89 10000 1.42 168 01:36 25.01.2023
101 Clear 0 1038 89 10000 1.68 181 00:23 25.01.2023
102 Clear 1 1038 88 10000 2 160 21:34 24.01.2023
103 Clear 1 1038 87 10000 1.72 143 20:23 24.01.2023
104 Clouds 1 1038 85 10000 1.62 122 18:47 24.01.2023
105 Clouds 1 1038 84 10000 1.32 117 17:31 24.01.2023
106 Clouds 2 1038 84 10000 1.48 122 16:53 24.01.2023
107 Clouds 2 1039 84 10000 1.72 113 16:29 24.01.2023
108 Clouds 3 1039 84 10000 2.6 126 13:46 24.01.2023
109 Clouds 3 1040 84 10000 1.91 112 11:46 24.01.2023
110 Clouds 2 1040 86 10000 2.09 90 08:43 24.01.2023
111 Clouds 2 1040 86 10000 2.11 86 08:18 24.01.2023
112 Clouds 2 1040 86 10000 2.11 86 07:48 24.01.2023
113 Clouds 2 1040 87 10000 2.17 108 02:43 24.01.2023
114 Clouds 2 1040 85 10000 1.91 97 00:40 24.01.2023
115 Clouds 2 1039 83 10000 1.67 116 22:32 23.01.2023
116 Clouds 3 1039 81 10000 2.02 111 20:45 23.01.2023
117 Clouds 3 1039 81 10000 1.9 86 19:23 23.01.2023
118 Clouds 3 1038 80 10000 2.3 103 17:20 23.01.2023
119 Clouds 3 1038 82 10000 2.33 97 15:32 23.01.2023
120 Clouds 4 1038 86 10000 2.24 67 13:56 23.01.2023
121 Clouds 3 1038 87 10000 2.74 84 12:56 23.01.2023
122 Clouds 3 1038 88 10000 3.07 93 12:21 23.01.2023
123 Clouds 3 1038 88 10000 2.95 84 11:29 23.01.2023
124 Clouds 2 1036 88 10000 2.93 85 08:25 23.01.2023
125 Clouds 3 1036 88 10000 2.73 48 02:23 23.01.2023
126 Clouds 3 1035 88 10000 3.63 65 22:49 22.01.2023
127 Clouds 2 1034 88 10000 4.14 63 21:19 22.01.2023
128 Clouds 2 1035 88 10000 5.92 68 20:24 22.01.2023
129 Clouds 2 1035 88 10000 4.02 47 19:45 22.01.2023
130 Clouds 2 1035 88 10000 3.97 47 18:53 22.01.2023
131 Clouds 2 1034 88 10000 4.21 48 17:57 22.01.2023
132 Clouds 2 1033 87 10000 4.47 47 17:26 22.01.2023
133 Clouds 2 1033 87 10000 4.57 43 15:51 22.01.2023
134 Clouds 2 1033 86 10000 4.64 45 14:54 22.01.2023
135 Clouds 2 1033 86 10000 4.76 40 13:40 22.01.2023
136 Clouds 2 1033 85 10000 4.7 42 12:47 22.01.2023
137 Clouds 1 1034 86 10000 5.27 52 11:35 22.01.2023
138 Clouds 0 1034 86 10000 4.26 49 09:35 22.01.2023
139 Clouds 0 1033 85 10000 3.97 36 07:39 22.01.2023
140 Clouds 0 1033 88 10000 4.49 38 02:37 22.01.2023
141 Clouds 1 1034 84 10000 3.75 31 23:33 21.01.2023
142 Clouds 0 1034 87 10000 3.5 32 22:35 21.01.2023
143 Clouds -1 1034 87 10000 3.42 32 20:21 21.01.2023
144 Clouds 1 1033 84 10000 3.39 33 17:51 21.01.2023
145 Clouds 4 1033 77 10000 2.44 43 14:42 21.01.2023
146 Clouds 3 1033 82 10000 3.49 54 12:58 21.01.2023
147 Clouds 3 1033 83 10000 3.49 54 12:36 21.01.2023
148 Clouds 1 1033 91 10000 3.46 65 11:27 21.01.2023
149 Clouds 0 1032 87 10000 2.95 67 09:56 21.01.2023
150 Clouds -1 1029 93 10000 3.38 67 04:41 21.01.2023
151 Clouds 0 1025 88 10000 1.62 33 22:31 20.01.2023
152 Clouds 0 1025 88 10000 1.62 33 22:31 20.01.2023
153 Clouds 0 1024 88 10000 1.65 47 21:58 20.01.2023
154 Clouds 0 1024 87 10000 1.65 47 21:33 20.01.2023
155 Clouds 0 1022 88 10000 1.94 72 19:55 20.01.2023
156 Clouds 1 1020 89 10000 2.39 103 17:54 20.01.2023
157 Clouds 1 1016 91 10000 2.59 133 14:47 20.01.2023
158 Clouds 1 1015 74 10000 2.54 153 13:51 20.01.2023
159 Clear 0 1014 92 10000 3.16 182 10:48 20.01.2023
160 Clear -1 1012 92 10000 3.23 189 08:59 20.01.2023
161 Clear 0 1011 92 10000 3.14 198 07:40 20.01.2023
162 Clouds -1 1008 90 10000 3.77 222 02:32 20.01.2023
163 Clouds 0 1007 88 10000 4.19 229 22:37 19.01.2023
164 Clouds 0 1006 88 10000 4.01 231 21:47 19.01.2023
165 Snow 1 1005 86 10000 3.63 235 19:38 19.01.2023
166 Snow 1 1004 86 10000 3.85 242 18:56 19.01.2023
167 Clouds 4 1002 79 10000 5.82 269 14:55 19.01.2023
168 Clouds 4 1001 91 10000 6.2 272 10:44 19.01.2023
169 Clouds 2 999 93 10000 5.88 281 08:58 19.01.2023
170 Clouds 2 994 92 10000 8.64 218 22:42 18.01.2023
171 Clouds 2 993 90 8583 9.69 223 20:36 18.01.2023
172 Rain 2 993 90 76 9.99 208 20:18 18.01.2023
173 Rain 2 993 89 76 9.99 208 19:36 18.01.2023
174 Clouds 3 994 82 10000 8.35 194 17:32 18.01.2023
175 Clouds 4 993 79 10000 6.89 205 14:21 18.01.2023
176 Clear 3 993 80 10000 6.57 204 12:50 18.01.2023
177 Clear 0 992 88 10000 5.55 202 10:29 18.01.2023
178 Clear -2 991 89 10000 4.37 202 07:36 18.01.2023
179 Clear -1 989 87 10000 5.28 230 01:25 18.01.2023
180 Clear 0 988 85 10000 5.56 224 22:30 17.01.2023
181 Clear 1 987 83 10000 5.42 221 20:27 17.01.2023
182 Clear 1 987 82 10000 5.36 227 19:25 17.01.2023
183 Clear 2 986 79 10000 5.55 235 17:53 17.01.2023
184 Clouds 4 985 73 10000 6.15 248 15:38 17.01.2023
185 Clouds 4 984 73 10000 7.53 258 14:52 17.01.2023
186 Clouds 4 984 79 10000 7.55 257 13:46 17.01.2023
187 Clouds 3 984 79 10000 6.99 257 11:51 17.01.2023
188 Clouds 3 984 82 10000 6.76 256 10:49 17.01.2023
189 Clouds 2 983 83 10000 6.51 260 09:31 17.01.2023
190 Clouds 2 982 84 10000 7.29 281 07:52 17.01.2023
191 Clouds 3 979 91 10000 9.55 308 03:54 17.01.2023
192 Rain 3 976 93 1019 5.12 287 00:57 17.01.2023
193 Rain 3 976 92 10000 3.13 194 22:59 16.01.2023
194 Clouds 4 976 92 10000 3.55 173 21:47 16.01.2023
195 Rain 4 976 92 10000 4.68 152 20:24 16.01.2023
196 Rain 4 976 92 10000 3.97 150 19:30 16.01.2023
197 Rain 4 977 92 10000 4.75 144 18:52 16.01.2023
198 Rain 4 978 92 10000 4.85 158 18:20 16.01.2023
199 Rain 4 978 92 10000 4.85 158 17:34 16.01.2023
200 Rain 4 978 92 10000 4.85 158 17:34 16.01.2023
201 Rain 4 980 91 129 7.11 141 14:38 16.01.2023
202 Rain 4 981 91 76 7.09 128 13:38 16.01.2023
203 Clouds 3 986 91 10000 5.17 126 10:32 16.01.2023
204 Clouds 3 987 91 10000 4.99 148 09:53 16.01.2023
205 Clouds 5 996 90 10000 7.05 212 23:37 15.01.2023
206 Clouds 4 996 90 10000 6.68 224 22:26 15.01.2023
207 Clouds 5 997 89 10000 6.83 230 20:40 15.01.2023
208 Clouds 5 996 88 10000 7.33 235 19:49 15.01.2023
209 Clouds 5 995 88 10000 8.8 246 17:46 15.01.2023
210 Clouds 5 994 88 10000 10.72 246 15:44 15.01.2023
211 Clouds 6 993 75 10000 13.41 238 12:34 15.01.2023
212 Clouds 5 993 80 10000 13.22 236 11:36 15.01.2023
213 Rain 5 993 81 10000 12.45 232 10:30 15.01.2023
214 Clouds 5 993 77 10000 11.7 230 09:35 15.01.2023
215 Clouds 6 994 88 10000 8.66 241 01:50 15.01.2023
216 Clouds 6 993 91 10000 7.94 253 23:20 14.01.2023
217 Rain 6 993 93 10000 7.43 273 22:00 14.01.2023
218 Rain 6 993 93 10000 7.43 273 21:36 14.01.2023
219 Rain 7 992 93 10000 6.78 276 21:18 14.01.2023
220 Rain 7 992 93 10000 6.78 276 21:18 14.01.2023
221 Clouds 9 992 94 10000 6.78 276 20:39 14.01.2023
222 Rain 9 992 94 10000 9.17 223 18:47 14.01.2023
223 Rain 9 993 94 9169 9.92 213 17:35 14.01.2023
224 Rain 8 995 93 10000 10.35 196 15:29 14.01.2023
225 Rain 7 996 93 7352 10.21 186 14:26 14.01.2023
226 Rain 7 996 92 7352 10.21 186 13:43 14.01.2023
227 Rain 6 1002 92 10000 9.42 179 11:51 14.01.2023
228 Rain 6 1004 91 8268 8.61 179 10:47 14.01.2023
229 Clouds 5 1008 90 10000 6.8 196 08:19 14.01.2023
230 Rain 7 1009 89 10000 7.49 252 23:49 13.01.2023
231 Clouds 7 1009 89 10000 7.88 258 22:53 13.01.2023
232 Clouds 7 1009 88 10000 7.88 258 22:34 13.01.2023
233 Clouds 7 1008 88 10000 8.4 261 21:46 13.01.2023
234 Clouds 7 1006 86 10000 9.85 265 19:53 13.01.2023
235 Clouds 7 1005 86 10000 11.06 265 18:47 13.01.2023
236 Rain 8 1003 87 10000 11.97 259 16:57 13.01.2023
237 Clouds 8 1000 87 10000 12.29 254 14:40 13.01.2023
238 Clouds 7 999 89 10000 11.14 238 12:21 13.01.2023
239 Rain 7 999 86 10000 10.95 231 10:32 13.01.2023
240 Rain 7 999 86 10000 10.82 232 09:54 13.01.2023
241 Clouds 7 999 87 10000 10.82 232 09:34 13.01.2023
242 Rain 7 998 86 10000 11.1 236 08:47 13.01.2023
243 Clouds 8 998 80 10000 11.31 237 06:55 13.01.2023
244 Clouds 8 999 83 10000 10.6 233 05:44 13.01.2023
245 Clouds 10 999 86 10000 9.81 240 00:46 13.01.2023
246 Clouds 11 998 89 10000 10.36 239 22:45 12.01.2023
247 Clouds 10 998 92 10000 8.92 223 20:57 12.01.2023
248 Clouds 10 998 93 10000 8.92 223 20:30 12.01.2023
249 Clouds 10 1000 92 10000 7.72 231 17:59 12.01.2023
250 Rain 11 1000 91 10000 7.58 229 16:48 12.01.2023
251 Clouds 11 1000 91 10000 7.07 238 14:54 12.01.2023
252 Clouds 11 1000 91 10000 7.43 251 14:25 12.01.2023
253 Rain 11 1000 91 10000 7.43 251 13:33 12.01.2023
254 Rain 10 999 92 10000 13.57 254 11:22 12.01.2023
255 Clouds 10 998 92 10000 13.26 251 10:24 12.01.2023
256 Rain 8 999 92 4300 9.43 205 06:45 12.01.2023
257 Rain 8 1005 88 10000 8.39 235 00:31 12.01.2023
258 Clouds 8 1005 88 10000 9.6 230 23:48 11.01.2023
259 Clouds 8 1005 88 10000 9.6 230 23:48 11.01.2023
260 Clouds 8 1005 89 10000 9.6 230 23:30 11.01.2023
261 Clouds 8 1005 89 10000 9.6 230 23:30 11.01.2023
262 Clouds 8 1005 90 10000 9.94 222 22:55 11.01.2023
263 Rain 8 1006 85 10000 9.77 216 21:20 11.01.2023
264 Clouds 8 1008 84 10000 7.61 223 18:51 11.01.2023
265 Clouds 8 1007 84 10000 8.81 226 17:30 11.01.2023
266 Clouds 9 1008 82 10000 7.89 241 15:38 11.01.2023
267 Clear 9 1007 84 10000 7.12 237 13:56 11.01.2023
268 Clouds 9 1007 86 10000 6.36 239 12:27 11.01.2023
269 Clouds 9 1007 88 10000 5.84 237 11:24 11.01.2023
270 Clouds 9 1005 93 10000 5.15 248 08:50 11.01.2023
271 Clouds 9 1004 93 10000 7.47 259 07:29 11.01.2023
272 Clouds 10 1003 94 10000 8.39 246 06:24 11.01.2023
273 Clouds 7 1004 93 10000 10.31 203 23:45 10.01.2023
274 Clouds 6 1005 93 10000 10.41 200 22:34 10.01.2023
275 Rain 6 1006 92 10000 10.83 184 21:28 10.01.2023
276 Rain 6 1008 91 6073 10.56 178 19:56 10.01.2023
277 Rain 6 1009 90 8537 9.82 180 19:29 10.01.2023
278 Rain 6 1009 90 8537 9.82 180 18:47 10.01.2023
279 Rain 7 1011 88 10000 9.02 186 17:33 10.01.2023
280 Clouds 6 1013 89 10000 7.34 192 15:48 10.01.2023
281 Clouds 7 1013 89 10000 7.39 198 15:22 10.01.2023
282 Clouds 7 1014 90 10000 6.81 203 13:42 10.01.2023
283 Clouds 6 1015 92 10000 6.16 223 11:28 10.01.2023
284 Clouds 5 1013 93 10000 5.98 222 08:57 10.01.2023
285 Clouds 5 1013 92 10000 5.79 223 07:59 10.01.2023
286 Clouds 5 1012 93 10000 6.16 225 07:25 10.01.2023
287 Clouds 5 1011 92 10000 5.58 230 04:50 10.01.2023
288 Rain 5 1005 91 10000 5.57 259 22:50 09.01.2023
289 Clouds 5 1003 91 10000 4.89 232 21:21 09.01.2023
290 Clouds 5 1003 91 10000 4.89 232 20:34 09.01.2023
291 Clouds 6 1001 91 10000 4.31 247 18:42 09.01.2023
292 Clouds 6 1000 91 10000 4 240 17:51 09.01.2023
293 Clouds 7 999 90 10000 2.98 235 16:58 09.01.2023
294 Clouds 7 999 90 10000 2.98 235 16:30 09.01.2023
295 Clouds 7 997 90 10000 2.41 257 15:22 09.01.2023
296 Clouds 7 997 90 10000 2.41 257 14:43 09.01.2023
297 Clouds 7 995 91 10000 1.7 191 12:54 09.01.2023
298 Clouds 6 995 91 10000 3.54 178 12:22 09.01.2023
299 Clouds 6 995 91 10000 4.48 179 11:20 09.01.2023
300 Clouds 5 994 91 10000 5.17 210 08:28 09.01.2023
301 Clouds 5 993 90 10000 4.88 211 06:34 09.01.2023
302 Rain 7 992 88 10000 7.02 182 02:53 09.01.2023
303 Clouds 6 994 88 10000 5.12 171 22:43 08.01.2023
304 Clouds 6 996 87 10000 5.82 184 21:23 08.01.2023
305 Clouds 6 996 87 10000 5.82 184 20:57 08.01.2023
306 Clouds 6 997 86 10000 4.62 188 19:19 08.01.2023
307 Clouds 7 997 86 10000 4.66 195 17:40 08.01.2023
308 Clouds 8 998 85 10000 5.32 204 17:18 08.01.2023
309 Clouds 9 999 82 10000 6.12 208 15:38 08.01.2023
310 Clear 9 999 80 10000 6.89 204 14:18 08.01.2023
311 Clear 9 999 81 10000 6.89 204 13:32 08.01.2023
312 Clouds 9 1000 82 10000 7.21 208 12:59 08.01.2023
313 Clouds 9 1000 85 10000 7.49 205 11:37 08.01.2023
314 Clouds 8 1001 89 10000 6.97 203 09:37 08.01.2023
315 Clouds 8 1001 89 10000 6.66 202 08:31 08.01.2023
316 Clouds 10 1001 86 10000 7.45 196 02:43 08.01.2023
317 Clouds 9 1003 82 10000 8.5 199 23:23 07.01.2023
318 Clouds 9 1003 82 10000 8.5 199 22:39 07.01.2023
319 Clouds 9 1003 84 10000 8.57 193 21:59 07.01.2023
320 Clouds 9 1003 84 10000 7.96 184 21:29 07.01.2023
321 Clouds 9 1004 85 10000 8.21 182 20:25 07.01.2023
322 Clouds 9 1005 83 10000 8.23 181 19:25 07.01.2023
323 Clouds 9 1005 81 10000 8.18 177 18:18 07.01.2023
324 Clouds 9 1005 82 10000 8.18 177 17:40 07.01.2023
325 Clouds 10 1006 81 10000 8.32 178 16:47 07.01.2023
326 Clouds 10 1006 81 10000 8.16 179 16:23 07.01.2023
327 Clouds 10 1006 81 10000 8.16 179 15:39 07.01.2023
328 Clouds 10 1007 81 10000 7.83 181 15:21 07.01.2023
329 Clouds 11 1008 83 10000 7.59 183 13:59 07.01.2023
330 Clouds 11 1008 84 10000 7.59 183 13:41 07.01.2023
331 Clouds 11 1009 86 10000 7.26 187 12:58 07.01.2023
332 Clouds 10 1010 88 10000 7.17 188 12:21 07.01.2023
333 Clouds 10 1011 90 10000 6.87 190 10:28 07.01.2023
334 Clouds 10 1012 91 10000 6.52 196 09:23 07.01.2023
335 Clouds 10 1012 92 10000 6.48 200 08:18 07.01.2023
336 Clouds 10 1012 92 10000 6.48 200 07:41 07.01.2023
337 Clouds 10 1012 93 10000 6.63 200 06:22 07.01.2023
338 Clouds 6 1015 91 10000 4.53 197 23:34 06.01.2023
339 Clouds 5 1015 90 10000 4.49 195 22:21 06.01.2023
340 Clouds 6 1015 89 10000 4.49 195 21:50 06.01.2023
341 Clouds 6 1015 89 10000 4.7 208 20:38 06.01.2023
342 Clouds 7 1015 89 10000 4.92 210 19:56 06.01.2023
343 Clouds 7 1015 88 10000 4.92 210 19:37 06.01.2023
344 Clouds 7 1015 88 10000 5.6 223 19:19 06.01.2023
345 Clouds 7 1015 87 10000 5.55 228 17:55 06.01.2023
346 Clouds 8 1015 86 10000 6.24 234 16:53 06.01.2023
347 Clouds 8 1015 85 10000 6.43 238 16:23 06.01.2023
348 Clouds 9 1015 84 10000 6.43 238 15:52 06.01.2023
349 Clouds 9 1015 83 10000 6.43 238 15:30 06.01.2023
350 Clouds 9 1014 83 10000 7.18 240 13:42 06.01.2023
351 Clouds 9 1014 87 10000 6.56 250 11:55 06.01.2023
352 Clouds 8 1013 89 10000 6.12 258 10:55 06.01.2023
353 Rain 10 1011 91 8157 10.66 234 08:50 06.01.2023
354 Clouds 10 1013 91 10000 7.83 209 05:23 06.01.2023
355 Clouds 9 1016 93 10000 5.46 213 23:38 05.01.2023
356 Clouds 9 1016 93 10000 5.48 195 22:44 05.01.2023
357 Clouds 8 1017 92 10000 3.67 187 20:57 05.01.2023
358 Clouds 8 1018 91 10000 3 223 17:39 05.01.2023
359 Clouds 9 1018 90 10000 3.02 246 17:21 05.01.2023
360 Rain 9 1018 90 10000 3.61 266 15:58 05.01.2023
361 Clouds 9 1018 90 10000 3.61 266 15:34 05.01.2023
362 Clouds 9 1018 89 10000 4.1 270 14:33 05.01.2023
363 Clouds 9 1017 89 10000 4.41 278 12:41 05.01.2023
364 Clouds 9 1017 91 10000 4.47 280 11:36 05.01.2023
365 Clouds 8 1016 91 10000 5.45 287 09:43 05.01.2023
366 Clouds 8 1014 90 10000 7.84 286 08:23 05.01.2023
367 Clouds 9 1013 89 10000 8.54 285 06:50 05.01.2023
368 Clouds 9 1011 90 10000 10.87 272 03:34 05.01.2023
369 Rain 10 1009 90 10000 11.33 266 22:33 04.01.2023
370 Clouds 10 1008 89 10000 11 264 21:33 04.01.2023
371 Clouds 10 1007 89 10000 10.65 258 20:26 04.01.2023
372 Rain 10 1007 90 10000 10.65 258 19:54 04.01.2023
373 Clouds 11 1008 90 10000 10.3 259 19:30 04.01.2023
374 Clouds 11 1008 90 10000 10.3 259 19:30 04.01.2023
375 Rain 11 1008 89 10000 10.17 254 18:19 04.01.2023
376 Clouds 11 1008 88 10000 10.75 256 16:31 04.01.2023
377 Clouds 12 1007 89 10000 12.04 253 14:53 04.01.2023
378 Clouds 12 1007 91 10000 11.55 245 13:31 04.01.2023
379 Clouds 11 1009 93 10000 10.89 244 11:40 04.01.2023
380 Clouds 11 1009 94 10000 11.52 242 11:18 04.01.2023
381 Rain 11 1009 93 10000 11.52 242 10:42 04.01.2023
382 Rain 11 1008 93 5916 11.57 239 10:21 04.01.2023
383 Rain 9 1010 92 10000 11.65 213 05:40 04.01.2023
384 Clouds 8 1015 88 10000 10.48 192 01:42 04.01.2023
385 Clouds 7 1019 89 10000 9.12 190 23:45 03.01.2023
386 Clouds 7 1020 89 10000 8.8 193 23:26 03.01.2023
387 Clouds 7 1020 90 10000 8.62 189 21:43 03.01.2023
388 Clouds 7 1021 90 10000 7.86 187 20:51 03.01.2023
389 Clouds 7 1022 92 10000 6.64 182 18:40 03.01.2023
390 Clouds 6 1023 93 10000 5.5 197 16:43 03.01.2023
391 Clouds 6 1024 93 10000 6.14 213 15:43 03.01.2023
392 Clouds 5 1024 92 10000 5.23 189 13:50 03.01.2023
393 Clouds 4 1024 92 10000 4.27 179 13:29 03.01.2023
394 Clouds 4 1024 93 10000 4.69 181 12:57 03.01.2023
395 Clouds 4 1024 93 10000 4.69 181 12:57 03.01.2023
396 Clear 4 1025 92 10000 4.49 189 12:29 03.01.2023
397 Clear 3 1026 91 10000 3.58 200 10:25 03.01.2023
398 Clouds 2 1025 90 10000 3.46 224 06:20 03.01.2023
399 Clouds 3 1024 89 10000 3.4 236 03:56 03.01.2023
400 Clouds 4 1024 89 10000 3.4 236 03:35 03.01.2023
401 Clouds 5 1023 89 10000 4.15 245 23:36 02.01.2023
402 Clouds 5 1022 90 10000 4.24 249 22:41 02.01.2023
403 Clouds 5 1021 90 10000 4.43 253 21:34 02.01.2023
404 Clouds 6 1020 90 10000 4.7 256 20:38 02.01.2023
405 Clouds 7 1018 90 10000 6.16 257 19:27 02.01.2023
406 Clouds 8 1016 90 10000 6.61 250 16:54 02.01.2023
407 Clouds 9 1015 92 10000 5.33 237 14:31 02.01.2023
408 Clouds 8 1014 94 10000 4.91 254 12:57 02.01.2023
409 Clouds 8 1013 94 10000 5.45 255 11:40 02.01.2023
410 Clouds 8 1011 93 10000 5.27 293 09:48 02.01.2023
411 Clouds 11 1008 93 10000 7 260 07:30 02.01.2023
412 Rain 9 1010 89 10000 2.76 155 00:40 02.01.2023
413 Clouds 11 1013 85 10000 4.93 203 21:55 01.01.2023
414 Clouds 10 1013 84 10000 6.01 206 21:22 01.01.2023
415 Rain 10 1013 86 10000 6.01 206 20:45 01.01.2023
416 Clouds 10 1013 86 10000 5.35 198 19:42 01.01.2023
417 Clouds 10 1013 86 10000 5.4 215 17:55 01.01.2023
418 Clouds 10 1013 85 10000 6.4 228 17:20 01.01.2023
419 Clouds 11 1013 83 10000 6.4 228 16:31 01.01.2023
420 Clouds 12 1012 80 10000 8.95 236 14:47 01.01.2023
421 Clouds 12 1011 79 10000 9.3 232 13:29 01.01.2023
422 Clouds 12 1011 80 10000 9.3 232 12:33 01.01.2023
423 Clouds 12 1012 82 10000 9.97 234 11:36 01.01.2023
424 Clouds 12 1012 82 10000 9.97 234 11:36 01.01.2023
425 Clouds 11 1010 82 10000 10.49 235 10:23 01.01.2023
426 Clouds 12 1008 81 10000 10.36 235 08:48 01.01.2023
427 Clouds 12 1007 81 10000 10.26 233 08:18 01.01.2023
428 Clouds 12 1008 88 10000 11.45 232 06:58 01.01.2023
429 Clouds 14 1004 77 10000 12.41 225 00:52 01.01.2023
430 Clouds 14 1004 78 10000 11.95 224 23:41 31.12.2022
431 Clouds 14 1004 80 10000 11.6 223 22:32 31.12.2022
432 Clouds 13 1003 87 10000 11.64 219 21:34 31.12.2022
433 Clouds 13 1003 87 10000 11.64 219 21:34 31.12.2022
434 Clouds 13 1003 92 10000 11.08 222 20:52 31.12.2022
435 Rain 13 1003 93 10000 11.22 227 19:33 31.12.2022
436 Rain 13 1003 92 10000 11.44 236 18:42 31.12.2022
437 Rain 13 1003 92 10000 9.14 232 18:18 31.12.2022
438 Rain 12 1003 92 10000 9.14 232 17:45 31.12.2022
439 Rain 13 1003 91 5439 8.05 239 16:40 31.12.2022
440 Rain 13 1003 91 6694 8.02 243 16:20 31.12.2022
441 Rain 14 1002 89 9421 9.76 241 14:39 31.12.2022
442 Rain 14 1002 89 8687 10.74 235 13:37 31.12.2022
443 Clouds 13 1002 89 10000 11.17 231 12:40 31.12.2022
444 Clouds 13 1002 90 10000 11.58 234 12:19 31.12.2022
445 Clouds 13 1002 90 10000 11.58 234 12:19 31.12.2022
446 Clouds 12 1002 92 10000 11.58 234 11:50 31.12.2022
447 Clouds 11 1002 93 10000 9.49 231 10:35 31.12.2022
448 Rain 10 1002 92 10000 5.73 212 09:53 31.12.2022
449 Rain 10 1002 92 10000 5.73 212 09:35 31.12.2022
450 Rain 10 1001 91 10000 4.42 222 07:48 31.12.2022
451 Clouds 12 1001 88 10000 8.65 237 00:35 31.12.2022
452 Clouds 12 1001 88 10000 8.65 237 00:35 31.12.2022
453 Clouds 12 1000 89 10000 9.63 237 23:45 30.12.2022
454 Clouds 11 999 90 10000 10.35 232 22:49 30.12.2022
455 Clouds 11 998 92 10000 10.73 231 21:44 30.12.2022
456 Clouds 11 997 92 10000 11.05 232 21:26 30.12.2022
457 Clouds 8 995 91 10000 12.19 202 18:59 30.12.2022
458 Rain 8 995 89 10000 12.42 186 17:51 30.12.2022
459 Rain 8 995 88 10000 12.42 186 17:32 30.12.2022
460 Clouds 8 998 83 10000 11.48 175 15:57 30.12.2022
461 Clouds 8 999 84 10000 10.59 175 14:38 30.12.2022
462 Clouds 6 1005 90 10000 8.86 182 11:58 30.12.2022
463 Clouds 4 1007 91 10000 6.96 194 08:21 30.12.2022
464 Clouds 6 1008 89 10000 6.61 228 03:39 30.12.2022
465 Clouds 6 1006 88 10000 8.28 243 01:53 30.12.2022
466 Clouds 7 1004 89 10000 8.58 237 22:58 29.12.2022
467 Clouds 7 1004 89 10000 8.5 235 21:31 29.12.2022
468 Clouds 7 1003 89 10000 8.63 232 20:54 29.12.2022
469 Clouds 7 1003 89 10000 8.54 230 20:25 29.12.2022
470 Clouds 8 1002 88 10000 7.62 225 18:30 29.12.2022
471 Clouds 8 1001 87 10000 7.52 227 17:33 29.12.2022
472 Clouds 8 1001 86 10000 7.64 228 16:55 29.12.2022
473 Clouds 9 1001 85 10000 8.05 238 16:21 29.12.2022
474 Clouds 9 1001 84 10000 8.05 238 15:37 29.12.2022
475 Clouds 9 999 88 10000 9.4 252 13:34 29.12.2022
476 Rain 9 998 88 10000 10.85 221 11:48 29.12.2022
477 Clouds 9 997 84 10000 11.4 224 09:18 29.12.2022
478 Clouds 9 998 93 10000 10.2 214 00:23 29.12.2022
479 Clouds 9 999 93 10000 10.87 213 23:28 28.12.2022
480 Clouds 8 999 93 10000 11.35 207 21:44 28.12.2022
481 Clouds 8 999 93 7920 11.06 197 21:18 28.12.2022
482 Rain 8 1001 93 10000 10.4 195 19:38 28.12.2022
483 Clouds 8 1004 93 10000 9.3 207 16:57 28.12.2022
484 Rain 9 1004 94 10000 9.29 211 15:38 28.12.2022
485 Clouds 9 1007 94 10000 8.15 214 12:59 28.12.2022
486 Clouds 9 1007 94 10000 8.1 224 12:24 28.12.2022
487 Clouds 9 1008 94 10000 8.29 224 11:29 28.12.2022
488 Rain 8 1007 94 10000 9.78 229 09:18 28.12.2022
489 Clouds 7 1007 93 10000 10.72 223 07:28 28.12.2022
490 Rain 6 1007 93 10000 10.51 221 06:43 28.12.2022
491 Rain 6 1014 87 10000 8.99 204 00:24 28.12.2022
492 Clouds 5 1017 91 10000 7.81 206 20:59 27.12.2022
493 Clouds 4 1018 91 10000 7.39 207 19:41 27.12.2022
494 Clouds 5 1019 90 10000 6.61 205 17:58 27.12.2022
495 Clouds 5 1020 88 10000 5.69 206 16:44 27.12.2022
496 Clouds 6 1020 87 10000 5.7 215 15:49 27.12.2022
497 Clouds 6 1021 85 10000 6.2 230 13:57 27.12.2022
498 Clouds 5 1022 89 10000 5.99 234 11:42 27.12.2022
499 Clouds 3 1021 90 10000 5.41 241 09:47 27.12.2022
500 Clouds 3 1020 90 10000 5.22 248 09:23 27.12.2022
501 Rain 3 1020 89 10000 5.22 248 08:41 27.12.2022
502 Clouds 4 1018 89 10000 8.12 261 04:32 27.12.2022
503 Clouds 3 1016 88 10000 6.52 238 23:25 26.12.2022
504 Clouds 4 1016 88 10000 6.74 240 21:32 26.12.2022
505 Clouds 4 1015 87 10000 6.83 245 20:42 26.12.2022
506 Clouds 4 1014 85 10000 6.96 251 18:50 26.12.2022
507 Clouds 4 1014 84 10000 6.91 255 17:52 26.12.2022
508 Clouds 5 1013 83 10000 6.45 263 16:37 26.12.2022
509 Clouds 6 1012 84 10000 8.25 280 14:48 26.12.2022
510 Clouds 7 1010 91 10000 10.57 286 12:52 26.12.2022
511 Clouds 8 1008 95 10000 8.46 228 09:27 26.12.2022
512 Clouds 8 1010 95 10000 4.28 230 00:25 26.12.2022
513 Clouds 8 1010 95 10000 4.28 230 23:38 25.12.2022
514 Clouds 8 1010 95 10000 3.63 225 22:42 25.12.2022
515 Clouds 8 1009 95 10000 3.21 238 21:49 25.12.2022
516 Rain 8 1008 95 10000 1.6 244 19:28 25.12.2022
517 Rain 8 1008 95 10000 1.36 172 17:52 25.12.2022
518 Rain 8 1008 95 10000 1.36 172 17:34 25.12.2022
519 Clouds 8 1009 95 10000 2.55 149 16:19 25.12.2022
520 Clouds 9 1011 95 10000 4.12 176 13:23 25.12.2022
521 Clouds 8 1012 95 10000 5.04 176 10:59 25.12.2022
522 Clouds 4 1014 94 10000 3.85 176 02:57 25.12.2022
523 Clear 4 1013 93 10000 3.63 193 22:38 24.12.2022
524 Clear 5 1013 92 10000 3.53 216 19:52 24.12.2022
525 Clouds 8 1012 92 10000 5.25 249 16:59 24.12.2022
526 Clouds 9 1010 93 10000 5.18 250 14:56 24.12.2022
527 Clouds 9 1010 94 10000 6.08 252 13:56 24.12.2022
528 Clouds 9 1009 95 10000 5.71 240 11:54 24.12.2022
529 Clouds 8 1008 95 10000 5.28 236 10:23 24.12.2022
530 Clouds 7 1008 95 10000 5.28 236 09:37 24.12.2022
531 Clouds 6 1006 95 10000 3.35 230 07:59 24.12.2022
532 Clouds 6 1004 95 10000 2.51 97 02:51 24.12.2022
533 Rain 6 1003 95 10000 3.17 91 00:29 24.12.2022
534 Rain 6 1002 95 10000 3.89 83 22:30 23.12.2022
535 Rain 6 1002 95 10000 4.48 78 21:33 23.12.2022
536 Rain 6 1001 95 10000 4.78 74 19:40 23.12.2022
537 Rain 6 1001 95 10000 5.03 76 19:22 23.12.2022
538 Rain 6 1002 95 10000 4.49 77 18:53 23.12.2022
539 Rain 6 1002 95 10000 4.14 76 18:21 23.12.2022
540 Rain 6 1002 95 10000 4.14 76 17:41 23.12.2022
541 Clouds 6 1002 95 10000 3 79 15:45 23.12.2022
542 Clouds 7 1003 94 10000 1.75 69 12:53 23.12.2022
543 Clouds 6 1005 94 10000 2.54 241 10:21 23.12.2022
544 Clouds 6 1005 94 10000 2.54 241 09:35 23.12.2022
545 Clouds 6 1004 94 10000 2.34 287 07:29 23.12.2022
546 Clouds 6 1004 93 10000 2.34 287 06:49 23.12.2022
547 Clouds 6 1002 93 10000 1.26 266 00:39 23.12.2022
548 Clouds 6 1002 92 10000 1.25 192 23:19 22.12.2022
549 Clouds 7 1002 92 10000 2.05 209 21:55 22.12.2022
550 Clouds 7 1003 92 10000 3.36 204 19:48 22.12.2022
551 Clouds 7 1003 92 10000 3.76 207 19:21 22.12.2022
552 Clouds 7 1003 92 10000 4.47 218 17:59 22.12.2022
553 Clouds 8 1004 92 10000 4.88 229 16:53 22.12.2022
554 Clouds 8 1004 92 10000 5.41 235 15:48 22.12.2022
555 Clouds 8 1003 93 10000 5.74 240 15:29 22.12.2022
556 Clouds 8 1003 94 10000 6.07 245 14:28 22.12.2022
557 Clouds 7 1003 95 10000 5.88 246 13:20 22.12.2022
558 Clouds 7 1003 95 10000 5.44 250 12:29 22.12.2022
559 Clouds 6 1003 94 10000 4.25 245 10:32 22.12.2022
560 Clouds 6 1002 94 10000 4.48 262 09:24 22.12.2022
561 Clouds 6 1002 94 10000 4.48 262 08:59 22.12.2022
562 Clouds 6 1001 94 10000 3.64 252 07:54 22.12.2022
563 Clouds 8 1002 94 4872 2.74 201 04:19 22.12.2022
564 Clouds 8 1004 94 10000 4.7 198 00:48 22.12.2022
565 Clouds 7 1005 93 10000 5.56 206 22:40 21.12.2022
566 Clouds 7 1005 93 10000 5.07 200 21:50 21.12.2022
567 Clouds 7 1005 93 10000 5.26 203 21:20 21.12.2022
568 Rain 7 1005 93 10000 5.26 203 20:40 21.12.2022
569 Rain 7 1006 92 10000 6.15 210 19:56 21.12.2022
570 Rain 7 1006 92 10000 6.15 210 19:38 21.12.2022
571 Rain 7 1006 92 10000 7.01 208 19:19 21.12.2022
572 Clouds 7 1006 92 10000 6.33 205 18:42 21.12.2022
573 Clouds 7 1007 93 10000 5.4 203 16:19 21.12.2022
574 Clear 7 1007 95 10000 5.21 208 14:24 21.12.2022
575 Clouds 7 1008 95 10000 5.15 207 12:30 21.12.2022
576 Clouds 7 1009 95 10000 3.82 214 11:21 21.12.2022
577 Clouds 7 1009 95 10000 3.82 214 10:50 21.12.2022
578 Clouds 5 1009 95 10000 3.43 208 08:50 21.12.2022
579 Clouds 5 1009 95 10000 3.21 217 06:55 21.12.2022
580 Clouds 7 1009 93 10000 3.12 244 00:28 21.12.2022
581 Clouds 9 1009 93 10000 3.43 239 21:58 20.12.2022
582 Clouds 9 1009 93 10000 3.68 227 20:58 20.12.2022
583 Clouds 9 1009 93 10000 4.44 228 19:59 20.12.2022
584 Clouds 10 1008 93 10000 5.5 220 18:49 20.12.2022
585 Clouds 10 1008 93 10000 6.04 217 18:25 20.12.2022
586 Clouds 10 1008 92 10000 6.04 217 17:51 20.12.2022
587 Clouds 10 1008 92 10000 6.66 215 17:25 20.12.2022
588 Clouds 10 1008 92 10000 7 212 16:19 20.12.2022
589 Clouds 10 1008 91 10000 7.56 208 14:56 20.12.2022
590 Clouds 10 1008 91 10000 7.56 208 14:36 20.12.2022
591 Clouds 10 1008 90 10000 8.06 207 13:49 20.12.2022
592 Clouds 10 1008 88 10000 8.3 206 12:37 20.12.2022
593 Rain 11 1008 89 10000 8.6 208 11:55 20.12.2022
594 Clouds 10 1009 91 10000 8.27 202 10:42 20.12.2022
595 Clouds 10 1009 90 10000 7.98 199 07:31 20.12.2022
596 Clouds 9 1012 89 10000 7.81 205 00:20 20.12.2022
597 Clouds 8 1012 92 10000 7.94 205 22:36 19.12.2022
598 Clouds 7 1012 93 10000 8.09 208 21:30 19.12.2022
599 Clouds 8 1012 93 10000 8.14 204 19:42 19.12.2022
600 Clouds 7 1012 94 10000 8.16 203 18:59 19.12.2022
601 Clouds 8 1012 94 10000 8.42 206 18:23 19.12.2022
602 Clouds 8 1012 94 10000 8.49 204 16:29 19.12.2022
603 Clouds 7 1013 94 10000 8.36 206 13:22 19.12.2022
604 Clouds 6 1013 94 10000 8.36 204 11:55 19.12.2022
605 Rain 3 1014 93 10000 8.18 185 08:27 19.12.2022
606 Rain 2 1014 92 10000 8.41 182 07:22 19.12.2022
607 Snow 0 1019 86 10000 6.47 166 00:56 19.12.2022
608 Clouds -1 1021 81 10000 6.56 164 21:50 18.12.2022
609 Clouds -1 1021 82 10000 6.56 164 21:31 18.12.2022
610 Clouds -1 1021 82 10000 6.56 164 21:31 18.12.2022
611 Clouds -1 1022 82 10000 5.93 163 20:57 18.12.2022
612 Clouds -2 1022 84 10000 5.28 150 19:45 18.12.2022
613 Clouds -2 1023 84 10000 5.09 143 19:23 18.12.2022
614 Clouds -2 1023 85 10000 5.23 143 17:52 18.12.2022
615 Clouds -3 1025 85 10000 4.36 136 16:26 18.12.2022
616 Clouds -3 1025 86 10000 4.36 136 15:39 18.12.2022
617 Clouds -2 1025 86 10000 4.09 131 15:18 18.12.2022
618 Clouds -3 1026 90 10000 4.24 138 13:35 18.12.2022
619 Clouds -3 1027 91 10000 4.33 137 12:51 18.12.2022
620 Clouds -4 1028 92 10000 3.42 146 11:54 18.12.2022
621 Clouds -6 1028 65 10000 3.67 166 10:19 18.12.2022
622 Clouds -7 1029 68 10000 3.52 180 08:47 18.12.2022
623 Clouds -7 1028 70 10000 3.74 174 07:20 18.12.2022
624 Clouds -6 1028 72 10000 3.62 188 06:20 18.12.2022
625 Clouds -5 1028 93 10000 3.96 188 02:59 18.12.2022
626 Clouds -3 1028 93 10000 4.49 193 23:40 17.12.2022
627 Clouds -3 1027 93 10000 4.51 190 21:47 17.12.2022
628 Clouds -3 1025 93 10000 4.65 194 18:54 17.12.2022
629 Clouds -2 1025 93 10000 4.48 192 16:41 17.12.2022
630 Clouds -2 1025 94 10000 5.01 196 14:23 17.12.2022
631 Clouds -2 1024 79 10000 4.9 199 11:38 17.12.2022
632 Clouds -2 1024 94 10000 4.58 200 10:47 17.12.2022
633 Clouds -2 1024 94 10000 4.11 197 09:46 17.12.2022
634 Clouds -2 1022 94 10000 3.43 193 07:28 17.12.2022
635 Clouds -2 1022 94 10000 3.43 193 06:45 17.12.2022
636 Clouds -1 1021 93 10000 2.68 187 23:57 16.12.2022
637 Clouds -1 1020 92 10000 1.73 148 21:22 16.12.2022
638 Clouds -1 1019 92 10000 1.67 130 19:57 16.12.2022
639 Clouds 0 1017 91 10000 0.6 94 16:55 16.12.2022
640 Clouds 0 1016 92 10000 1.1 117 14:49 16.12.2022
641 Clouds 0 1015 92 10000 3.22 106 13:48 16.12.2022
642 Clouds 0 1015 92 2253 3.63 81 11:59 16.12.2022
643 Clouds 0 1014 92 1961 3.89 68 10:42 16.12.2022
644 Clouds 0 1012 92 3908 3.84 45 09:26 16.12.2022
645 Clouds 0 1011 92 7589 3.96 29 08:25 16.12.2022
646 Clouds 0 1012 92 3562 4.01 26 07:54 16.12.2022
647 Clouds 0 1009 91 10000 4.27 35 23:39 15.12.2022
648 Snow 0 1009 90 10000 3.47 39 22:30 15.12.2022
649 Clouds 0 1007 89 10000 0.6 224 20:40 15.12.2022
650 Snow 0 1007 89 10000 2.35 205 19:37 15.12.2022
651 Clouds 0 1006 88 10000 4 213 18:25 15.12.2022
652 Clouds 0 1006 86 10000 4.37 210 17:26 15.12.2022
653 Clouds 2 1006 85 10000 4.65 212 15:36 15.12.2022
654 Clouds 1 1006 88 10000 5.32 221 13:52 15.12.2022
655 Clouds 1 1006 87 10000 5.34 229 12:41 15.12.2022
656 Snow -1 1006 91 10000 5.28 235 10:29 15.12.2022
657 Snow -2 1005 91 10000 5.06 238 08:54 15.12.2022
658 Clouds -3 1004 80 10000 4.04 233 06:26 15.12.2022
659 Clouds -2 1004 91 10000 3.79 235 05:19 15.12.2022
660 Clouds -6 1003 69 10000 3.55 231 21:25 14.12.2022
661 Clouds -6 1003 69 10000 3.55 231 20:59 14.12.2022
662 Clouds -6 1003 69 10000 3.55 231 20:31 14.12.2022
663 Clear -5 1003 88 10000 2.95 220 18:38 14.12.2022
664 Clear -4 1003 86 10000 2.18 230 16:58 14.12.2022
665 Clear -2 1003 86 10000 1.82 229 15:49 14.12.2022
666 Clear -2 1002 86 10000 1.72 218 14:34 14.12.2022
667 Clear -2 1004 89 10000 1.83 174 12:21 14.12.2022
668 Clear -5 1004 53 10000 1.63 157 10:44 14.12.2022
669 Clear -11 1004 64 10000 1.8 154 09:26 14.12.2022
670 Clouds -5 1006 68 10000 2.22 200 02:47 14.12.2022
671 Clouds -5 1008 91 10000 2.94 201 21:51 13.12.2022
672 Clouds -5 1008 90 10000 2.94 201 21:32 13.12.2022
673 Clear -5 1009 90 10000 3.16 203 20:47 13.12.2022
674 Clouds -4 1009 90 10000 3.21 204 18:42 13.12.2022
675 Clouds -2 1010 89 10000 3.47 213 16:22 13.12.2022
676 Clouds -2 1010 89 10000 3.47 213 16:22 13.12.2022
677 Clouds -1 1010 89 10000 3 203 14:54 13.12.2022
678 Clouds -2 1011 91 10000 3.16 216 12:53 13.12.2022
679 Clouds -4 1012 74 10000 3.19 210 10:39 13.12.2022
680 Clouds -5 1012 79 10000 2.7 210 09:47 13.12.2022
681 Clear -5 1012 92 10000 2.81 227 07:52 13.12.2022
682 Clear -3 1013 90 10000 1.93 214 22:36 12.12.2022
683 Clear -3 1013 90 10000 2.06 208 21:57 12.12.2022
684 Clouds -3 1013 89 10000 2.72 209 19:33 12.12.2022
685 Clouds -2 1013 83 10000 2.39 192 17:52 12.12.2022
686 Clouds 0 1013 88 10000 1.98 203 15:29 12.12.2022
687 Clouds 0 1013 92 10000 2.21 198 13:20 12.12.2022
688 Clouds -3 1013 93 10000 1.54 182 09:20 12.12.2022
689 Clouds -3 1013 93 10000 1.54 182 08:56 12.12.2022
690 Clouds -1 1012 94 10000 1.89 170 04:34 12.12.2022
691 Clouds -1 1011 94 10000 2.02 188 01:50 12.12.2022
692 Clouds -1 1011 94 10000 2.02 188 01:50 12.12.2022
693 Clouds 0 1011 94 10000 2.43 172 22:18 11.12.2022
694 Clouds 0 1011 94 10000 2.7 170 20:34 11.12.2022
695 Clouds 0 1011 94 9101 2.62 188 19:38 11.12.2022
696 Clouds 0 1011 94 9101 2.62 188 19:38 11.12.2022
697 Clouds 0 1010 94 7720 2.65 188 18:31 11.12.2022
698 Clouds 0 1010 94 1468 2.59 186 17:33 11.12.2022
699 Clouds 0 1010 94 622 2.56 180 16:53 11.12.2022
700 Clouds 0 1010 94 1520 2.55 174 16:29 11.12.2022
701 Clouds 0 1010 94 1520 2.55 174 15:44 11.12.2022
702 Clouds 0 1010 94 10000 2.95 174 13:35 11.12.2022
703 Clouds 0 1010 94 10000 2.73 175 12:41 11.12.2022
704 Clouds -1 1010 94 10000 3.06 177 10:25 11.12.2022
705 Clouds -1 1011 93 10000 3.09 185 01:36 11.12.2022
706 Snow -1 1011 94 2846 3.31 179 00:28 11.12.2022
707 Snow -1 1011 94 95 3.37 175 22:35 10.12.2022
708 Snow -1 1011 93 72 3.32 175 21:59 10.12.2022
709 Clouds -1 1011 93 1998 3.34 173 20:59 10.12.2022
710 Clouds -1 1011 93 10000 3.05 176 20:19 10.12.2022
711 Clouds 0 1010 93 10000 3.13 177 17:53 10.12.2022
712 Clouds 0 1010 93 10000 3.11 170 16:46 10.12.2022
713 Clouds 0 1010 93 10000 3.25 170 15:43 10.12.2022
714 Clouds 0 1010 86 10000 3.47 179 15:24 10.12.2022
715 Clouds 0 1010 83 10000 3.56 182 13:44 10.12.2022
716 Clouds 0 1010 93 10000 3.79 178 12:23 10.12.2022
717 Clouds -1 1010 93 10000 3.6 176 10:57 10.12.2022
718 Clouds -2 1009 93 10000 3.15 171 09:46 10.12.2022
719 Clouds -2 1008 93 10000 3.2 174 07:23 10.12.2022
720 Clouds -2 1008 92 10000 3.2 174 06:53 10.12.2022
721 Clear -2 1008 92 10000 3.27 194 23:51 09.12.2022
722 Clear -2 1007 93 10000 3.27 192 22:43 09.12.2022
723 Clear -2 1007 93 10000 3.32 190 21:41 09.12.2022
724 Clear -2 1007 93 10000 3.28 192 20:59 09.12.2022
725 Clouds -1 1006 93 10000 3.32 196 19:47 09.12.2022
726 Clouds 0 1006 93 10000 3.24 197 17:56 09.12.2022
727 Clouds 0 1006 93 10000 3.24 197 17:56 09.12.2022
728 Clouds 0 1006 93 10000 3.24 197 17:32 09.12.2022
729 Clouds 0 1006 93 10000 2.78 208 16:27 09.12.2022
730 Clouds 0 1006 88 10000 2.78 208 15:31 09.12.2022
731 Clouds 1 1006 92 10000 3.57 218 12:52 09.12.2022
732 Clouds 0 1006 93 10000 3.75 205 10:51 09.12.2022
733 Clouds 0 1006 93 10000 3.25 206 10:24 09.12.2022
734 Clouds -3 1006 92 10000 3.94 198 07:29 09.12.2022
735 Clear -2 1006 92 10000 3 208 03:18 09.12.2022
736 Clear -2 1007 90 10000 2.4 204 23:36 08.12.2022
737 Clouds -1 1007 90 10000 1.71 165 20:56 08.12.2022
738 Clouds -1 1006 89 10000 0.89 152 18:59 08.12.2022
739 Clouds 1 1006 88 10000 2.21 62 16:50 08.12.2022
740 Clouds 3 1005 88 10000 2.47 329 14:40 08.12.2022
741 Clouds 3 1005 89 10000 3.47 318 14:20 08.12.2022
742 Clouds 1 1006 93 10000 2.86 317 10:43 08.12.2022
743 Clouds 1 1005 93 10000 2.77 309 09:32 08.12.2022
744 Clouds 1 1005 77 10000 3.05 308 07:58 08.12.2022
745 Clouds 2 1009 91 10000 3.76 263 22:44 07.12.2022
746 Clouds 2 1009 91 10000 3.54 262 22:18 07.12.2022
747 Clouds 2 1009 91 10000 3.54 262 21:47 07.12.2022
748 Clouds 2 1010 91 10000 3.1 276 20:35 07.12.2022
749 Clouds 2 1010 76 10000 4.4 298 18:38 07.12.2022
750 Clouds 4 1011 87 10000 5.32 325 15:53 07.12.2022
751 Clouds 5 1012 82 10000 6.78 320 14:29 07.12.2022
752 Clouds 5 1013 87 10000 7.13 323 11:36 07.12.2022
753 Clouds 4 1013 89 10000 7.19 322 10:30 07.12.2022
754 Clouds 3 1013 66 10000 7.19 325 09:32 07.12.2022
755 Clouds 4 1013 65 10000 7.23 323 08:36 07.12.2022
756 Rain 3 1014 91 10000 6.82 319 05:27 07.12.2022
757 Clouds 3 1014 92 10000 6.98 325 02:58 07.12.2022
758 Clouds 4 1015 92 10000 5.47 320 22:18 06.12.2022
759 Clouds 3 1015 91 10000 3.11 289 19:45 06.12.2022
760 Clouds 5 1016 90 10000 3.49 250 17:30 06.12.2022
761 Clouds 5 1016 89 10000 2.65 268 16:38 06.12.2022
762 Clouds 5 1016 89 10000 2.3 293 15:38 06.12.2022
763 Clouds 6 1017 88 10000 2.55 314 14:55 06.12.2022
764 Clouds 6 1017 88 10000 3.07 321 14:23 06.12.2022
765 Clouds 5 1017 88 10000 2.34 317 12:42 06.12.2022
766 Clouds 5 1018 88 10000 2.3 344 12:20 06.12.2022
767 Clouds 3 1018 93 10000 3.27 349 07:51 06.12.2022
768 Clouds 4 1019 92 10000 4.22 2 04:54 06.12.2022
769 Clouds 5 1020 93 10000 4.69 11 01:24 06.12.2022
770 Clouds 5 1020 93 10000 5.14 24 22:25 05.12.2022
771 Rain 5 1020 93 10000 4.92 27 20:55 05.12.2022
772 Clouds 5 1020 93 10000 4.75 30 20:25 05.12.2022
773 Clouds 5 1020 93 10000 4.75 30 19:43 05.12.2022
774 Clouds 5 1019 93 10000 4.95 36 17:44 05.12.2022
775 Rain 5 1019 92 10000 5.43 40 16:26 05.12.2022
776 Clouds 5 1020 92 10000 6 40 15:22 05.12.2022
777 Clouds 5 1020 92 10000 6.38 42 12:59 05.12.2022
778 Clouds 5 1020 92 10000 6.38 42 12:40 05.12.2022
779 Clouds 5 1020 92 10000 6.69 42 11:51 05.12.2022
780 Clouds 5 1020 91 10000 6.86 42 10:58 05.12.2022
781 Clouds 5 1020 87 10000 6.18 61 00:20 05.12.2022
782 Clouds 5 1021 88 10000 6.47 68 22:45 04.12.2022
783 Clouds 4 1021 87 10000 5.88 67 22:20 04.12.2022
784 Clouds 4 1021 87 10000 5.88 67 22:20 04.12.2022
785 Clouds 4 1021 87 10000 5.88 67 21:53 04.12.2022
786 Clouds 4 1021 86 10000 4.62 63 20:49 04.12.2022
787 Clouds 4 1021 85 10000 4.36 68 19:28 04.12.2022
788 Clouds 4 1021 85 10000 4.36 68 18:59 04.12.2022
789 Clouds 3 1020 86 10000 5.34 64 17:23 04.12.2022
790 Clouds 3 1020 86 10000 5.34 64 16:54 04.12.2022
791 Clouds 3 1020 86 10000 5.34 64 16:36 04.12.2022
792 Clouds 3 1020 85 10000 5.95 67 16:18 04.12.2022
793 Clouds 3 1020 84 10000 6.34 67 14:44 04.12.2022
794 Clouds 3 1020 83 10000 6.27 70 13:37 04.12.2022
795 Clouds 2 1020 83 10000 5.93 69 12:44 04.12.2022
796 Clouds 2 1021 83 10000 5.85 71 11:58 04.12.2022
797 Clouds 1 1021 87 10000 5.53 73 09:33 04.12.2022
798 Clouds 0 1021 86 10000 5.12 65 07:32 04.12.2022
799 Clouds 1 1021 83 10000 4.31 78 00:59 04.12.2022
800 Clouds 0 1021 83 10000 4.48 77 23:43 03.12.2022
801 Clouds 0 1022 84 10000 4.11 78 22:22 03.12.2022
802 Clouds 1 1022 84 10000 3.89 80 21:21 03.12.2022
803 Clouds 1 1022 84 10000 3.89 80 20:34 03.12.2022
804 Clouds 1 1021 84 10000 4.65 81 18:40 03.12.2022
805 Clouds 1 1022 83 10000 4.72 78 16:57 03.12.2022
806 Clouds 2 1022 80 10000 5.2 73 14:32 03.12.2022
807 Clouds 2 1023 81 10000 6.04 74 12:55 03.12.2022
808 Clouds 2 1024 81 10000 6.05 76 12:24 03.12.2022
809 Clouds 2 1024 82 10000 5.67 70 10:27 03.12.2022
810 Clouds 3 1025 84 10000 5.86 69 07:58 03.12.2022
811 Clouds 4 1027 87 10000 5.04 69 01:31 03.12.2022
812 Clouds 3 1027 85 10000 5.09 66 23:25 02.12.2022
813 Clouds 3 1028 83 10000 5.7 77 21:23 02.12.2022
814 Clouds 2 1028 81 10000 7.01 83 19:34 02.12.2022
815 Clouds 2 1027 85 10000 6.4 74 16:19 02.12.2022
816 Clouds 2 1027 85 10000 6.45 73 14:46 02.12.2022
817 Clouds 2 1027 85 10000 6.46 74 14:27 02.12.2022
818 Clouds 2 1027 86 10000 6.46 74 13:41 02.12.2022
819 Clouds 2 1027 89 100 5.59 69 11:47 02.12.2022
820 Clouds 1 1027 89 10000 4.97 67 09:52 02.12.2022
821 Clouds 2 1027 89 10000 4.37 68 07:25 02.12.2022
822 Clouds 2 1027 88 10000 4.36 69 06:23 02.12.2022
823 Clouds 3 1028 85 10000 3.67 74 22:40 01.12.2022
824 Clouds 3 1029 85 10000 3.59 72 21:40 01.12.2022
825 Clouds 4 1029 86 10000 3.48 73 20:36 01.12.2022
826 Clouds 4 1028 87 10000 3.64 71 18:58 01.12.2022
827 Clouds 4 1028 89 10000 3.48 71 16:31 01.12.2022
828 Clouds 5 1028 90 10000 3.47 73 13:50 01.12.2022
829 Clouds 5 1029 92 10000 3.13 86 10:43 01.12.2022
830 Clouds 5 1028 91 10000 3.04 87 09:54 01.12.2022
831 Clouds 5 1028 91 10000 3.04 87 09:36 01.12.2022
832 Clouds 5 1028 91 10000 2.78 70 05:49 01.12.2022
833 Clouds 5 1028 92 10000 2.37 59 22:41 30.11.2022
834 Clouds 5 1027 92 10000 2.61 53 21:40 30.11.2022
835 Clouds 5 1027 92 10000 2.74 54 21:18 30.11.2022
836 Clouds 5 1027 91 10000 2.77 53 20:23 30.11.2022
837 Clouds 5 1026 92 10000 2.7 57 18:36 30.11.2022
838 Clouds 5 1026 92 10000 2.7 53 17:40 30.11.2022
839 Clouds 5 1025 92 10000 2.56 52 16:26 30.11.2022
840 Clouds 5 1025 93 10000 2.69 52 14:45 30.11.2022
841 Clouds 5 1025 93 10000 2.87 51 14:25 30.11.2022
842 Clouds 5 1024 94 10000 2.63 59 11:59 30.11.2022
843 Clouds 5 1024 94 10000 2.9 66 09:22 30.11.2022
844 Clouds 5 1023 95 10000 2.82 62 08:26 30.11.2022
845 Clouds 5 1022 95 10000 2.85 56 06:42 30.11.2022
846 Clouds 6 1021 95 10000 2.69 39 23:27 29.11.2022
847 Clouds 6 1021 95 10000 2.71 35 22:19 29.11.2022
848 Clouds 6 1020 95 10000 2.84 29 20:52 29.11.2022
849 Clouds 6 1020 95 10000 2.89 27 19:49 29.11.2022
850 Clouds 6 1019 95 10000 3.86 17 17:55 29.11.2022
851 Clouds 6 1018 95 10000 4.14 6 16:47 29.11.2022
852 Clouds 7 1017 95 10000 4.08 359 15:28 29.11.2022
853 Clouds 7 1017 95 10000 4.08 359 14:47 29.11.2022
854 Clouds 8 1017 95 10000 3.44 30 12:38 29.11.2022
855 Clouds 8 1016 95 10000 2.93 31 11:31 29.11.2022
856 Clouds 8 1015 95 10000 0.79 359 10:28 29.11.2022
857 Clouds 7 1015 95 10000 1.23 266 09:28 29.11.2022
858 Clouds 7 1015 95 10000 2.02 284 07:19 29.11.2022
859 Clouds 7 1012 94 10000 1.72 239 00:28 29.11.2022
860 Clouds 7 1012 95 10000 1.83 221 23:25 28.11.2022
861 Clouds 7 1012 95 10000 1.87 209 22:21 28.11.2022
862 Clouds 7 1012 94 10000 1.87 209 21:43 28.11.2022
863 Clouds 7 1011 94 10000 2.43 183 20:25 28.11.2022
864 Rain 7 1011 94 10000 2.43 183 19:36 28.11.2022
865 Rain 7 1011 94 10000 2.76 163 18:28 28.11.2022
866 Rain 7 1010 94 10000 2.85 161 17:23 28.11.2022
867 Rain 7 1010 94 10000 2.85 162 14:57 28.11.2022
868 Rain 7 1010 94 10000 3.54 161 13:56 28.11.2022
869 Rain 7 1010 94 10000 3.93 166 13:19 28.11.2022
870 Rain 7 1010 94 10000 4.41 168 11:36 28.11.2022
871 Clouds 7 1008 93 10000 5.88 155 08:26 28.11.2022
872 Clouds 6 1009 93 10000 6.55 161 04:57 28.11.2022
873 Clouds 6 1009 93 10000 6.69 159 04:39 28.11.2022
874 Clouds 6 1010 92 10000 7.1 147 03:22 28.11.2022
875 Rain 6 1011 92 10000 7.11 146 00:35 28.11.2022
876 Rain 6 1014 91 10000 5.88 151 22:24 27.11.2022
877 Clouds 6 1014 91 10000 6.29 158 20:49 27.11.2022
878 Rain 6 1015 91 10000 5.96 155 18:39 27.11.2022
879 Rain 5 1017 91 10000 5.99 154 16:39 27.11.2022
880 Clouds 5 1018 91 10000 5.75 171 13:55 27.11.2022
881 Clouds 5 1020 90 10000 5.51 171 12:25 27.11.2022
882 Clouds 5 1021 90 10000 5.92 174 10:23 27.11.2022
883 Clouds 4 1021 91 10000 5.89 165 07:30 27.11.2022
884 Clouds 4 1021 91 10000 5.89 165 07:30 27.11.2022
885 Clouds 6 1025 94 10000 5.17 174 23:38 26.11.2022
886 Clouds 6 1026 94 10000 4.65 186 21:44 26.11.2022
887 Clouds 6 1026 94 10000 4.36 190 20:20 26.11.2022
888 Clouds 7 1026 94 10000 4.12 197 18:57 26.11.2022
889 Clouds 7 1027 94 10000 4.18 199 16:47 26.11.2022
890 Clouds 7 1027 94 10000 4.5 207 15:37 26.11.2022
891 Clouds 7 1027 94 10000 4.83 213 12:54 26.11.2022
892 Clouds 7 1027 94 10000 4.83 213 12:54 26.11.2022
893 Clouds 6 1027 94 10000 4.4 208 11:23 26.11.2022
894 Clouds 4 1027 94 10000 4.07 208 09:44 26.11.2022
895 Clouds 3 1026 95 10000 3.79 207 08:39 26.11.2022
896 Clouds 5 1022 92 10000 3.46 249 23:22 25.11.2022
897 Clouds 6 1021 91 10000 3.21 254 21:41 25.11.2022
898 Clouds 7 1020 91 10000 3.72 265 20:33 25.11.2022
899 Clouds 7 1018 90 10000 3.42 248 19:24 25.11.2022
900 Clouds 10 1015 87 10000 3.53 230 15:42 25.11.2022
901 Clouds 10 1013 88 10000 5.02 217 12:28 25.11.2022
902 Clouds 7 1011 93 10000 5.12 198 08:56 25.11.2022
903 Rain 7 1011 93 10000 5.12 198 08:37 25.11.2022
904 Rain 7 1010 92 10000 6.04 186 06:48 25.11.2022
905 Rain 6 1010 91 10000 6.64 173 01:26 25.11.2022
906 Clouds 6 1010 91 10000 6.5 171 23:43 24.11.2022
907 Clouds 6 1010 90 10000 6.25 170 22:37 24.11.2022
908 Clouds 6 1011 90 10000 5.86 170 21:42 24.11.2022
909 Clouds 6 1011 90 10000 4.56 173 19:48 24.11.2022
910 Clouds 7 1010 89 10000 4.08 182 17:48 24.11.2022
911 Clear 7 1010 88 10000 3.76 189 17:24 24.11.2022
912 Clear 8 1010 87 10000 3.76 189 16:40 24.11.2022
913 Clear 10 1009 85 10000 4.74 214 14:24 24.11.2022
914 Clouds 10 1009 86 10000 5.25 214 13:19 24.11.2022
915 Clouds 8 1008 90 10000 5.72 212 11:38 24.11.2022
916 Clouds 6 1006 92 10000 5.79 207 08:59 24.11.2022
917 Clouds 6 1004 92 10000 7.12 215 06:23 24.11.2022
918 Clouds 7 1001 91 10000 6.17 208 00:41 24.11.2022
919 Clouds 7 1000 90 10000 5.7 206 23:32 23.11.2022
920 Clouds 7 999 90 10000 6.07 181 21:48 23.11.2022
921 Rain 7 999 89 10000 7.03 171 20:52 23.11.2022
922 Rain 8 998 84 10000 7.55 166 19:40 23.11.2022
923 Clouds 8 998 81 10000 7.14 161 18:56 23.11.2022
924 Rain 8 997 81 10000 6.79 153 18:19 23.11.2022
925 Clouds 9 997 86 10000 6.46 175 14:28 23.11.2022
926 Clouds 9 997 89 10000 6.2 175 13:24 23.11.2022
927 Clouds 9 997 90 10000 6.77 173 12:41 23.11.2022
928 Clouds 9 998 91 10000 6.53 181 11:51 23.11.2022
929 Clouds 8 998 92 10000 6.75 192 10:48 23.11.2022
930 Clouds 8 998 92 10000 6.75 192 10:48 23.11.2022
931 Clouds 8 997 93 10000 7.36 193 10:18 23.11.2022
932 Clouds 8 997 93 10000 7.36 193 09:40 23.11.2022
933 Clouds 8 997 93 10000 6.54 185 09:21 23.11.2022
934 Clouds 7 997 93 10000 6.54 185 08:36 23.11.2022
935 Clouds 7 996 92 10000 6.18 174 05:20 23.11.2022
936 Clouds 6 996 91 10000 5.96 167 01:53 23.11.2022
937 Clouds 6 995 85 10000 6.72 158 22:37 22.11.2022
938 Clouds 6 995 84 10000 6.54 153 21:51 22.11.2022
939 Clouds 6 995 84 10000 6.54 153 21:31 22.11.2022
940 Clouds 6 995 84 10000 6.46 154 20:44 22.11.2022
941 Rain 6 995 84 10000 6.41 153 19:47 22.11.2022
942 Clouds 6 995 83 10000 5.08 145 17:54 22.11.2022
943 Clouds 7 995 80 10000 4.5 144 16:48 22.11.2022
944 Clouds 7 995 83 10000 5.46 170 14:55 22.11.2022
945 Clouds 6 995 88 10000 5.69 179 12:56 22.11.2022
946 Clouds 4 994 93 10000 5.07 159 10:23 22.11.2022
947 Clouds 3 994 92 10000 5.01 146 08:59 22.11.2022
948 Clouds 2 993 92 10000 5.71 142 06:45 22.11.2022
949 Snow 1 994 90 10000 5.84 122 01:35 22.11.2022
950 Clouds 1 995 90 10000 6.04 121 23:28 21.11.2022
951 Clouds 1 996 90 10000 5.61 120 22:26 21.11.2022
952 Clouds 1 996 90 10000 5.61 120 21:58 21.11.2022
953 Clouds 2 996 89 10000 5.14 116 20:35 21.11.2022
954 Clouds 2 997 89 10000 5.01 129 19:41 21.11.2022
955 Clouds 3 997 88 10000 5.34 126 18:53 21.11.2022
956 Clouds 2 1000 85 10000 4 134 17:46 21.11.2022
957 Clouds 2 1000 84 10000 3.91 138 16:52 21.11.2022
958 Clouds 3 1000 83 10000 3.91 138 16:34 21.11.2022
959 Clouds 4 1001 81 10000 3.82 148 15:24 21.11.2022
960 Clouds 4 1002 84 10000 4.14 156 13:55 21.11.2022
961 Clouds 4 1002 85 10000 4.14 156 13:34 21.11.2022
962 Clouds 1 1005 89 10000 3.33 191 10:24 21.11.2022
963 Clouds 0 1005 90 10000 2.81 191 08:39 21.11.2022
964 Clouds 0 1005 88 10000 1.87 204 05:45 21.11.2022
965 Clouds 0 1006 82 10000 2.83 96 22:25 20.11.2022
966 Clouds 0 1006 81 10000 2.83 96 21:33 20.11.2022
967 Clouds 0 1006 79 10000 2.77 109 20:24 20.11.2022
968 Clouds 1 1007 78 10000 3.15 114 18:25 20.11.2022
969 Clouds 2 1008 77 10000 2.46 132 16:23 20.11.2022
970 Clouds 3 1009 79 10000 1.82 172 15:29 20.11.2022
971 Clouds 3 1009 80 10000 1.82 172 14:41 20.11.2022
972 Clouds 3 1009 81 10000 2.2 207 13:32 20.11.2022
973 Clouds 3 1009 83 10000 1.68 196 12:33 20.11.2022
974 Clouds 2 1010 87 10000 2.33 247 10:59 20.11.2022
975 Clouds 1 1011 87 10000 2.38 247 10:30 20.11.2022
976 Clouds 1 1011 86 10000 2.06 248 09:19 20.11.2022
977 Clouds 1 1011 85 10000 2.06 248 08:35 20.11.2022
978 Clouds 1 1011 84 10000 1.64 258 07:29 20.11.2022
979 Clouds 1 1013 88 10000 1.27 266 02:19 20.11.2022
980 Clouds 1 1013 89 10000 0.93 278 01:20 20.11.2022
981 Clouds 1 1013 89 10000 0.93 278 00:41 20.11.2022
982 Clouds 1 1013 89 10000 1.14 253 00:22 20.11.2022
983 Clouds 0 1013 89 10000 1.14 253 23:51 19.11.2022
984 Clouds 0 1014 89 10000 1.25 243 23:24 19.11.2022
985 Clouds 0 1014 77 10000 1.25 243 22:39 19.11.2022
986 Clouds 0 1014 78 10000 1.39 245 21:32 19.11.2022
987 Clouds -1 1014 79 10000 1.53 249 20:57 19.11.2022
988 Clouds -1 1014 77 10000 1.3 269 20:33 19.11.2022
989 Clouds -1 1014 78 10000 1.17 264 18:57 19.11.2022
990 Clouds 0 1014 80 10000 0.8 233 17:41 19.11.2022
991 Clouds 0 1014 79 10000 0.41 152 17:20 19.11.2022
992 Clouds 3 1015 77 10000 1.14 97 15:59 19.11.2022
993 Clouds 3 1015 74 10000 1.72 83 14:38 19.11.2022
994 Clouds 2 1016 69 10000 3.54 86 12:18 19.11.2022
995 Clouds 0 1016 70 10000 3.63 94 10:56 19.11.2022
996 Clouds -1 1016 80 10000 3.15 92 08:43 19.11.2022
997 Clouds -1 1015 80 10000 5.25 84 04:59 19.11.2022
998 Clouds -1 1014 78 10000 5.92 84 02:56 19.11.2022
999 Clouds 1 1013 74 10000 6.66 94 23:46 18.11.2022
1000 Clouds 0 1012 70 10000 7.04 96 23:19 18.11.2022
1001 Clouds 1 1012 74 10000 7.23 100 21:50 18.11.2022
1002 Clouds 1 1012 75 10000 7.23 100 21:30 18.11.2022
1003 Clouds 2 1011 79 10000 7.55 101 20:34 18.11.2022
1004 Snow 2 1010 86 10000 7.86 100 19:47 18.11.2022
1005 Clouds 2 1009 88 7754 8.07 97 18:49 18.11.2022
1006 Clouds 2 1009 89 10000 8.05 98 17:44 18.11.2022
1007 Clouds 2 1006 92 10000 8 97 14:33 18.11.2022
1008 Clouds 3 1005 93 10000 7.6 97 11:41 18.11.2022
1009 Clouds 4 1003 92 10000 7.2 97 09:19 18.11.2022
1010 Clouds 4 1002 92 10000 6.94 100 07:52 18.11.2022
1011 Clouds 5 999 93 10000 7.02 104 05:26 18.11.2022
1012 Clouds 5 999 93 10000 7.02 104 05:26 18.11.2022
1013 Clouds 5 998 93 10000 7.01 109 01:42 18.11.2022
1014 Clouds 6 996 93 10000 8.05 113 22:28 17.11.2022
1015 Clouds 6 995 93 10000 8.11 115 20:46 17.11.2022
1016 Clouds 6 994 93 10000 8.18 115 19:51 17.11.2022
1017 Rain 6 993 93 10000 8.65 116 18:57 17.11.2022
1018 Rain 6 993 93 10000 8.77 117 17:54 17.11.2022
1019 Clouds 6 992 92 10000 8.93 116 16:54 17.11.2022
1020 Rain 6 991 92 10000 10.86 119 15:20 17.11.2022
1021 Rain 5 991 91 10000 12.43 110 11:41 17.11.2022
1022 Clouds 5 991 91 10000 12.13 112 10:23 17.11.2022
1023 Rain 6 993 90 10000 12.47 112 05:58 17.11.2022
1024 Clouds 7 997 92 10000 11.03 109 00:48 17.11.2022
1025 Clouds 7 999 93 10000 9.4 108 22:31 16.11.2022
1026 Clouds 7 999 93 10000 8.91 112 21:41 16.11.2022
1027 Clouds 7 1000 92 10000 7.55 105 20:19 16.11.2022
1028 Clouds 8 1000 92 10000 6.24 109 18:47 16.11.2022
1029 Clouds 9 1000 91 10000 5.28 110 17:57 16.11.2022
1030 Clouds 11 1000 93 10000 3.79 168 14:23 16.11.2022
1031 Rain 10 1000 93 10000 5.47 162 10:24 16.11.2022
1032 Rain 10 998 92 4384 7.32 135 06:39 16.11.2022
1033 Rain 11 1000 90 10000 6.23 126 01:34 16.11.2022
1034 Clouds 11 1002 82 10000 5.52 130 22:54 15.11.2022
1035 Clouds 10 1003 80 10000 5.43 126 20:56 15.11.2022
1036 Clouds 10 1003 81 10000 5.17 124 19:42 15.11.2022
1037 Clouds 10 1004 84 10000 4.9 126 18:51 15.11.2022
1038 Clouds 10 1004 88 10000 4.39 124 17:32 15.11.2022
1039 Clouds 11 1005 88 10000 4.03 151 16:20 15.11.2022
1040 Clouds 11 1005 88 10000 4.03 151 16:20 15.11.2022
1041 Clouds 12 1005 89 10000 4.24 161 15:22 15.11.2022
1042 Clouds 12 1006 92 10000 4.55 168 13:39 15.11.2022
1043 Clouds 12 1007 92 10000 4.79 173 12:26 15.11.2022
1044 Clouds 12 1007 92 10000 4.56 181 11:21 15.11.2022
1045 Clouds 10 1007 92 10000 5.22 168 09:28 15.11.2022
1046 Clear 7 1009 88 10000 4.17 148 00:42 15.11.2022
1047 Clear 7 1009 88 10000 4.04 147 00:22 15.11.2022
1048 Clear 6 1010 88 10000 4.6 134 21:52 14.11.2022
1049 Clear 6 1010 88 10000 4.67 123 20:44 14.11.2022
1050 Clear 5 1011 87 10000 4.32 117 19:42 14.11.2022
1051 Clear 6 1011 85 10000 4.05 115 18:25 14.11.2022
1052 Clear 9 1012 83 10000 5.14 127 12:55 14.11.2022
1053 Clear 9 1012 83 10000 5.14 127 12:55 14.11.2022
1054 Clear 9 1012 83 10000 5.14 127 12:55 14.11.2022
1055 Clear 7 1013 62 10000 4.92 127 11:47 14.11.2022
1056 Clear 7 1014 89 10000 5.15 124 10:58 14.11.2022
1057 Clear 6 1015 90 10000 4.04 108 08:34 14.11.2022
1058 Clear 6 1015 90 10000 3.83 99 07:52 14.11.2022
1059 Clouds 7 1017 90 10000 4.56 97 02:32 14.11.2022
1060 Clouds 6 1020 91 10000 4.41 94 22:50 13.11.2022
1061 Clouds 6 1020 89 10000 4.42 99 21:41 13.11.2022
1062 Clouds 6 1021 86 10000 4.68 102 20:46 13.11.2022
1063 Clouds 8 1021 81 10000 4.6 98 18:54 13.11.2022
1064 Clouds 9 1021 80 10000 4.34 95 17:50 13.11.2022
1065 Clouds 11 1022 77 10000 3.98 91 15:48 13.11.2022
1066 Clouds 12 1022 74 10000 3.96 92 14:31 13.11.2022
1067 Clouds 11 1024 81 10000 3.92 99 12:56 13.11.2022
1068 Clouds 10 1024 84 10000 3.43 98 11:55 13.11.2022
1069 Clouds 8 1025 92 10000 3.13 99 10:38 13.11.2022
1070 Clouds 6 1026 94 10000 3.14 107 05:53 13.11.2022
1071 Clouds 6 1026 94 10000 3.14 107 05:53 13.11.2022
1072 Clouds 4 1029 69 10000 1.88 146 23:55 12.11.2022
1073 Clouds 6 1029 94 10000 2.86 149 21:41 12.11.2022
1074 Clouds 6 1029 94 10000 2.94 152 20:57 12.11.2022
1075 Clouds 7 1029 94 10000 2.94 143 19:28 12.11.2022
1076 Clouds 9 1030 94 10000 2.53 149 16:58 12.11.2022
1077 Clouds 11 1030 94 10000 2.07 158 15:59 12.11.2022
1078 Clouds 11 1030 67 10000 1.95 175 14:45 12.11.2022
1079 Clouds 8 1031 71 10000 3.15 192 10:39 12.11.2022
1080 Clouds 5 1031 92 10000 2.94 200 07:48 12.11.2022
1081 Clouds 6 1030 90 10000 3.68 224 00:40 12.11.2022
1082 Clouds 9 1030 87 10000 4.07 222 21:31 11.11.2022
1083 Clouds 10 1029 87 10000 4.22 221 20:44 11.11.2022
1084 Clouds 10 1029 87 10000 4.22 221 20:44 11.11.2022
1085 Clouds 11 1028 88 10000 4.32 216 19:28 11.11.2022
1086 Clouds 11 1029 87 10000 4.03 215 18:40 11.11.2022
1087 Clouds 11 1028 87 10000 4 215 17:41 11.11.2022
1088 Clouds 12 1027 87 10000 5.71 229 15:30 11.11.2022
1089 Clouds 12 1027 87 10000 6.83 224 14:18 11.11.2022
1090 Clouds 12 1027 87 10000 7.27 225 12:46 11.11.2022
1091 Clouds 11 1027 88 10000 6.79 215 09:36 11.11.2022
1092 Clouds 11 1026 88 10000 6.71 217 08:27 11.11.2022
1093 Clouds 11 1026 88 10000 6.71 217 08:27 11.11.2022
1094 Clouds 11 1024 86 10000 6.8 216 03:55 11.11.2022
1095 Clouds 12 1024 83 10000 7.93 219 22:55 10.11.2022
1096 Clouds 13 1024 82 10000 7.82 221 21:51 10.11.2022
1097 Clouds 13 1024 82 10000 7.82 221 21:30 10.11.2022
1098 Clouds 13 1023 83 10000 7.99 220 20:49 10.11.2022
1099 Clouds 13 1023 83 10000 8.4 225 20:20 10.11.2022
1100 Clouds 13 1023 85 10000 8.4 225 19:34 10.11.2022
1101 Clouds 13 1022 86 10000 7.84 220 18:32 10.11.2022
1102 Clouds 13 1021 86 10000 8.54 228 16:26 10.11.2022
1103 Clouds 13 1021 86 10000 7.89 230 13:43 10.11.2022
1104 Clouds 12 1020 88 10000 7.86 221 11:38 10.11.2022
1105 Clouds 10 1018 93 10000 6.67 217 08:43 10.11.2022
1106 Clear 9 1014 92 10000 5.32 229 01:31 10.11.2022
1107 Clouds 10 1012 91 10000 5.29 232 23:39 09.11.2022
1108 Rain 10 1012 91 10000 5.54 238 22:36 09.11.2022
1109 Clouds 11 1010 90 10000 5.98 236 20:48 09.11.2022
1110 Clouds 11 1009 90 10000 6.49 236 20:29 09.11.2022
1111 Rain 11 1009 89 10000 6.49 236 19:42 09.11.2022
1112 Clouds 11 1008 89 10000 6.73 233 19:18 09.11.2022
1113 Clouds 12 1007 83 10000 8.81 228 16:31 09.11.2022
1114 Rain 13 1005 79 10000 8.26 214 14:48 09.11.2022
1115 Clouds 14 1006 78 10000 8.19 220 14:25 09.11.2022
1116 Clouds 14 1006 79 10000 8.19 220 13:30 09.11.2022
1117 Clouds 14 1006 79 10000 7.94 217 11:46 09.11.2022
1118 Clouds 12 1005 86 10000 7.96 213 08:44 09.11.2022
1119 Clear 12 1004 86 10000 7.95 212 07:46 09.11.2022
1120 Clear 12 1004 86 10000 7.95 212 07:46 09.11.2022
1121 Clear 12 1004 86 10000 7.95 212 07:46 09.11.2022
1122 Clouds 12 1003 88 10000 7.53 200 01:44 09.11.2022
1123 Clouds 13 1004 82 10000 7.98 199 21:49 08.11.2022
1124 Clouds 13 1004 82 10000 7.98 199 21:31 08.11.2022
1125 Clouds 13 1004 81 10000 7.81 198 20:41 08.11.2022
1126 Clouds 13 1003 81 10000 7.41 199 19:47 08.11.2022
1127 Clouds 13 1003 80 10000 7.32 201 18:59 08.11.2022
1128 Clouds 14 1004 79 10000 7.45 198 17:32 08.11.2022
1129 Clouds 15 1004 75 10000 8.26 203 14:57 08.11.2022
1130 Clouds 15 1004 75 10000 8.55 197 14:23 08.11.2022
1131 Clouds 15 1004 75 10000 8.52 196 13:26 08.11.2022
1132 Clouds 13 1005 82 10000 8.42 175 10:26 08.11.2022
1133 Clouds 11 1006 90 10000 6.37 169 07:30 08.11.2022
1134 Clouds 13 1008 90 10000 6.7 199 01:50 08.11.2022
1135 Clouds 13 1008 91 10000 7.81 209 22:54 07.11.2022
1136 Clouds 13 1008 92 10000 8.08 212 21:39 07.11.2022
1137 Clouds 12 1008 92 10000 8.03 209 20:45 07.11.2022
1138 Rain 12 1008 91 10000 8.22 209 19:37 07.11.2022
1139 Rain 13 1008 89 10000 7.74 211 17:41 07.11.2022
1140 Clouds 14 1008 88 10000 7.55 216 15:38 07.11.2022
1141 Clouds 14 1008 86 10000 7.32 217 14:55 07.11.2022
1142 Clouds 13 1008 90 10000 7.87 215 13:21 07.11.2022
1143 Clouds 13 1008 90 10000 8.25 215 12:22 07.11.2022
1144 Clouds 11 1007 91 10000 8.47 216 10:45 07.11.2022
1145 Clouds 11 1007 90 10000 8.66 216 08:30 07.11.2022
1146 Clouds 11 1005 90 10000 8.9 221 06:31 07.11.2022
1147 Clouds 10 1004 90 10000 9.39 211 01:48 07.11.2022
1148 Clouds 9 1003 91 10000 9.66 210 23:33 06.11.2022
1149 Clouds 8 1003 90 10000 10.1 189 21:22 06.11.2022
1150 Clouds 8 1003 90 10000 10.1 189 20:48 06.11.2022
1151 Rain 8 1004 89 10000 10.42 183 19:57 06.11.2022
1152 Rain 9 1004 88 7842 9.39 178 19:27 06.11.2022
1153 Rain 10 1005 85 10000 8.81 184 18:20 06.11.2022
1154 Clouds 11 1005 83 10000 8.81 184 17:42 06.11.2022
1155 Clouds 11 1005 81 10000 7.95 180 17:18 06.11.2022
1156 Clouds 12 1006 80 10000 7.91 186 16:19 06.11.2022
1157 Clouds 12 1006 83 10000 8.09 189 15:20 06.11.2022
1158 Rain 12 1008 86 10000 7.65 192 12:47 06.11.2022
1159 Clouds 10 1009 90 10000 7.52 193 10:58 06.11.2022
1160 Clouds 10 1009 90 10000 7.52 193 10:33 06.11.2022
1161 Clouds 9 1010 91 10000 7.14 196 07:44 06.11.2022
1162 Clouds 9 1010 91 10000 7.14 196 07:44 06.11.2022
1163 Clouds 10 1013 87 10000 8.21 199 23:25 05.11.2022
1164 Clouds 10 1013 87 10000 8.21 199 23:25 05.11.2022
1165 Clouds 9 1013 86 10000 7.5 199 22:29 05.11.2022
1166 Clouds 9 1014 85 10000 6.72 200 19:18 05.11.2022
1167 Clouds 10 1014 85 10000 6.5 213 16:56 05.11.2022
1168 Rain 11 1014 81 10000 6.43 225 14:50 05.11.2022
1169 Clouds 12 1014 80 10000 6.82 229 13:40 05.11.2022
1170 Clouds 11 1014 84 10000 6.57 225 11:52 05.11.2022
1171 Clear 6 1014 93 10000 5.01 220 08:59 05.11.2022
1172 Clouds 5 1013 92 10000 4.35 223 07:23 05.11.2022
1173 Clouds 5 1013 92 10000 4.35 223 06:56 05.11.2022
1174 Clouds 6 1012 91 10000 4 260 00:45 05.11.2022
1175 Clouds 6 1012 74 10000 3.51 271 23:29 04.11.2022
1176 Clouds 7 1011 90 10000 3.66 273 21:37 04.11.2022
1177 Clouds 8 1010 89 10000 3.22 277 19:39 04.11.2022
1178 Clouds 9 1009 85 10000 3.54 290 17:44 04.11.2022
1179 Clear 12 1006 87 10000 5.33 292 14:38 04.11.2022
1180 Clouds 12 1006 82 10000 5.43 274 13:19 04.11.2022
1181 Rain 11 1006 85 10000 5.25 275 12:19 04.11.2022
1182 Clouds 10 1004 93 10000 5.23 244 09:31 04.11.2022
1183 Clouds 9 1002 92 10000 4.95 256 08:20 04.11.2022
1184 Clouds 10 1002 92 10000 5.25 282 06:51 04.11.2022
1185 Clouds 11 997 92 10000 6.81 190 00:56 04.11.2022
1186 Rain 11 998 90 10000 7.26 169 21:48 03.11.2022
1187 Rain 11 999 89 10000 6.85 170 20:47 03.11.2022
1188 Rain 12 999 85 10000 7.26 180 19:42 03.11.2022
1189 Clouds 13 1001 77 10000 6.68 165 18:32 03.11.2022
1190 Clouds 13 1001 77 10000 6.7 165 17:38 03.11.2022
1191 Clouds 14 1003 74 10000 7.64 167 15:27 03.11.2022
1192 Clouds 14 1004 76 10000 7.54 170 13:47 03.11.2022
1193 Clouds 14 1005 79 10000 8.01 184 12:35 03.11.2022
1194 Clouds 14 1006 81 10000 8.36 186 11:43 03.11.2022
1195 Clouds 10 1009 84 10000 8.11 184 07:51 03.11.2022
1196 Clouds 11 1014 77 10000 8.34 188 23:56 02.11.2022
1197 Clouds 10 1016 80 10000 7.34 197 20:56 02.11.2022
1198 Clouds 10 1016 80 10000 7.34 197 20:33 02.11.2022
1199 Clouds 10 1017 79 10000 5.37 191 18:58 02.11.2022
1200 Clear 12 1017 74 10000 5.14 223 16:31 02.11.2022
1201 Clear 13 1017 72 10000 6.43 237 15:35 02.11.2022
1202 Clear 14 1017 70 10000 7.67 252 13:42 02.11.2022
1203 Clouds 13 1017 71 10000 9.04 250 12:35 02.11.2022
1204 Clouds 12 1016 83 10000 9.51 257 10:45 02.11.2022
1205 Rain 11 1014 88 10000 10.06 245 08:43 02.11.2022
1206 Clouds 11 1011 89 10000 9.27 215 03:32 02.11.2022
1207 Clouds 13 1013 78 10000 8.71 200 23:27 01.11.2022
1208 Clouds 13 1013 78 10000 8.52 202 22:18 01.11.2022
1209 Clouds 13 1013 78 10000 7.74 193 21:24 01.11.2022
1210 Clouds 13 1013 77 10000 7.15 196 20:23 01.11.2022
1211 Clouds 13 1013 77 10000 7.15 196 19:42 01.11.2022
1212 Clouds 13 1013 76 10000 7.11 205 18:32 01.11.2022
1213 Clouds 14 1013 75 10000 7.54 213 17:21 01.11.2022
1214 Clouds 15 1013 72 10000 7.96 210 15:53 01.11.2022
1215 Clouds 16 1012 73 10000 10.12 222 13:24 01.11.2022
1216 Clouds 16 1011 73 10000 11.15 220 12:27 01.11.2022
1217 Clouds 15 1011 69 10000 10.83 213 11:21 01.11.2022
1218 Clouds 15 1010 72 10000 10.58 210 09:49 01.11.2022
1219 Clouds 15 1010 71 10000 9.7 214 08:38 01.11.2022
1220 Clouds 15 1007 86 10000 8.57 200 07:29 01.11.2022
1221 Clouds 14 1007 85 10000 8.83 189 06:46 01.11.2022
1222 Clouds 14 1007 84 10000 8.36 180 05:52 01.11.2022
1223 Rain 13 1008 87 10000 5.48 154 03:32 01.11.2022
1224 Clouds 13 1013 90 10000 5.12 122 21:36 31.10.2022
1225 Clouds 13 1014 89 10000 5.18 101 20:25 31.10.2022
1226 Clouds 14 1015 87 10000 4.19 98 18:50 31.10.2022
1227 Clouds 14 1016 86 10000 3.57 112 17:26 31.10.2022
1228 Clouds 14 1016 85 10000 3.57 112 16:39 31.10.2022
1229 Clouds 15 1019 86 10000 3.34 158 13:23 31.10.2022
1230 Clouds 12 1020 93 10000 2.98 179 09:54 31.10.2022
1231 Clouds 9 1020 93 10000 2.41 180 08:37 31.10.2022
1232 Clouds 10 1020 92 10000 3.08 225 04:48 31.10.2022
1233 Clouds 11 1019 92 10000 2.99 233 02:20 31.10.2022
1234 Clouds 14 1018 91 10000 2.97 260 23:18 30.10.2022
1235 Clouds 14 1017 90 10000 2.32 268 20:49 30.10.2022
1236 Clouds 14 1017 90 10000 2.74 263 20:21 30.10.2022
1237 Clouds 15 1017 88 10000 3.27 214 18:20 30.10.2022
1238 Clouds 19 1016 82 10000 2.56 178 15:59 30.10.2022
1239 Clouds 20 1016 79 10000 2.25 194 13:52 30.10.2022
1240 Clouds 19 1017 80 10000 3.32 209 12:52 30.10.2022
1241 Clouds 18 1017 82 10000 2.94 196 11:37 30.10.2022
1242 Clouds 14 1016 92 10000 3.07 199 09:37 30.10.2022
1243 -273 0 0 0 0 0 08:30 30.10.2022
1244 Clouds 14 1016 89 10000 3.67 198 01:47 30.10.2022
1245 Clouds 14 1016 90 10000 3.38 174 00:27 30.10.2022
1246 Clouds 14 1016 89 10000 3.38 174 23:44 29.10.2022
1247 Clouds 16 1016 89 10000 3.24 164 21:27 29.10.2022
1248 Clouds 17 1017 89 10000 3.4 131 17:51 29.10.2022
1249 Clouds 17 1017 89 10000 2.56 127 17:20 29.10.2022
1250 Clouds 18 1017 93 10000 2.52 154 15:38 29.10.2022
1251 Clouds 17 1018 94 10000 1.87 164 14:48 29.10.2022
1252 Clouds 14 1019 94 10000 1.79 173 12:35 29.10.2022
1253 Clouds 14 1020 94 10000 2.53 195 11:32 29.10.2022
1254 Clouds 11 1019 93 10000 2.8 182 07:38 29.10.2022
1255 Clouds 11 1020 92 10000 2.21 212 05:56 29.10.2022
1256 Clouds 12 1020 92 10000 2.18 237 04:19 29.10.2022
1257 Clouds 15 1020 89 10000 4.2 251 23:42 28.10.2022
1258 Clouds 17 1018 85 10000 5.12 243 20:56 28.10.2022
1259 Clouds 18 1017 83 10000 5.87 245 19:34 28.10.2022
1260 Clouds 19 1016 82 10000 6.32 244 18:32 28.10.2022
1261 Clouds 19 1015 81 10000 6.24 211 16:20 28.10.2022
1262 Clouds 20 1015 79 10000 5.44 197 14:45 28.10.2022
1263 Clouds 19 1016 82 10000 5.24 202 13:19 28.10.2022
1264 Clouds 18 1016 85 10000 5.36 204 11:54 28.10.2022
1265 Clouds 17 1016 85 10000 5.36 204 11:31 28.10.2022
1266 Clouds 15 1016 91 10000 4.23 189 10:28 28.10.2022
1267 Clouds 13 1016 92 10000 3.69 183 08:40 28.10.2022
1268 Clouds 13 1016 91 10000 3.71 175 05:58 28.10.2022
1269 Clouds 15 1018 86 10000 3.92 208 23:56 27.10.2022
1270 Clouds 16 1018 86 10000 3.92 208 23:34 27.10.2022
1271 Clouds 16 1018 85 10000 4.15 201 22:31 27.10.2022
1272 Clouds 16 1018 85 10000 5.74 191 20:47 27.10.2022
1273 Clouds 17 1018 81 10000 6.15 165 18:27 27.10.2022
1274 Clouds 19 1018 77 10000 5.97 155 16:36 27.10.2022
1275 Clouds 16 1021 90 10000 5.27 174 11:35 27.10.2022
1276 Clouds 12 1021 93 10000 4.31 181 07:34 27.10.2022
1277 Clouds 12 1021 91 10000 3.9 212 02:50 27.10.2022
1278 Clouds 13 1020 89 10000 4.55 214 23:53 26.10.2022
1279 Clouds 14 1019 88 10000 4.52 211 22:41 26.10.2022
1280 Clouds 14 1019 88 10000 4.19 207 21:31 26.10.2022
1281 Clouds 16 1016 83 10000 4 223 17:59 26.10.2022
1282 Clouds 18 1014 76 10000 5.64 188 14:54 26.10.2022
1283 Clouds 17 1014 78 10000 4.24 171 13:33 26.10.2022
1284 Clouds 15 1014 78 10000 4.71 161 12:26 26.10.2022
1285 Clouds 9 1014 93 10000 3.77 139 09:19 26.10.2022
1286 Clouds 9 1014 93 10000 3.77 139 08:53 26.10.2022
1287 Clouds 8 1014 93 10000 3.7 137 07:30 26.10.2022
1288 Clouds 10 1015 90 10000 3.19 190 00:38 26.10.2022
1289 Clouds 12 1015 89 10000 3.28 204 22:43 25.10.2022
1290 Clouds 12 1015 89 10000 3.28 209 21:46 25.10.2022
1291 Clouds 12 1015 89 10000 3.35 215 20:45 25.10.2022
1292 Clouds 13 1015 85 10000 3.4 224 18:57 25.10.2022
1293 Clouds 15 1014 81 10000 4.02 237 17:49 25.10.2022
1294 Clouds 16 1014 80 10000 7.09 241 13:26 25.10.2022
1295 Clouds 14 1013 90 10000 7.03 238 11:38 25.10.2022
1296 Clouds 14 1013 93 10000 6.38 234 10:36 25.10.2022
1297 Clouds 13 1011 93 10000 5.86 227 08:44 25.10.2022
1298 Clouds 13 1010 93 10000 6.33 226 08:18 25.10.2022
1299 Clouds 13 1010 92 10000 6.33 226 07:54 25.10.2022
1300 Clouds 13 1010 92 10000 6.58 225 06:54 25.10.2022
1301 Clouds 12 1009 92 10000 6.37 219 03:38 25.10.2022
1302 Clouds 12 1008 91 10000 6.03 208 00:33 25.10.2022
1303 Clouds 12 1007 90 10000 6.48 216 22:29 24.10.2022
1304 Clouds 12 1007 89 10000 6.48 216 21:50 24.10.2022
1305 Clouds 13 1007 89 10000 6.48 216 21:32 24.10.2022
1306 Clouds 13 1007 88 10000 6.35 217 20:41 24.10.2022
1307 Clouds 14 1006 85 10000 6.23 225 18:52 24.10.2022
1308 Clouds 16 1005 79 10000 8.96 236 17:22 24.10.2022
1309 Clouds 16 1005 76 10000 8.96 236 16:32 24.10.2022
1310 Clouds 17 1004 75 10000 10.97 221 14:22 24.10.2022
1311 Clouds 17 1003 74 10000 10.94 218 13:26 24.10.2022
1312 Clouds 17 1003 73 10000 10.85 212 11:32 24.10.2022
1313 Clouds 15 1002 81 10000 7.89 191 07:57 24.10.2022
1314 Clouds 15 1004 87 10000 6.67 185 00:49 24.10.2022
1315 Clouds 15 1005 87 10000 4.98 155 20:43 23.10.2022
1316 Clouds 15 1005 87 10000 4.02 115 19:42 23.10.2022
1317 Clouds 15 1007 85 10000 3.25 140 17:42 23.10.2022
1318 Clouds 15 1007 85 10000 3.25 140 17:42 23.10.2022
1319 Clouds 15 1007 85 10000 5.13 116 17:21 23.10.2022
1320 Clouds 16 1009 88 10000 4.45 132 15:19 23.10.2022
1321 Clouds 14 1011 93 10000 5.01 140 12:58 23.10.2022
1322 Clouds 12 1012 94 10000 4.24 145 10:58 23.10.2022
1323 Clouds 9 1013 93 10000 3.36 142 07:53 23.10.2022
1324 Clouds 10 1015 91 10000 2.88 214 23:39 22.10.2022
1325 Clouds 10 1015 90 10000 3.4 225 22:31 22.10.2022
1326 Clouds 11 1015 88 10000 3.64 229 21:42 22.10.2022
1327 Clouds 11 1014 88 10000 3.64 228 20:49 22.10.2022
1328 Clouds 13 1014 86 10000 3.81 225 19:32 22.10.2022
1329 Clouds 14 1013 86 10000 3.86 228 18:55 22.10.2022
1330 Clouds 15 1012 86 10000 4.8 245 17:35 22.10.2022
1331 Clouds 16 1011 89 10000 6.45 231 15:28 22.10.2022
1332 Clouds 16 1011 89 10000 6.45 231 14:39 22.10.2022
1333 Clouds 16 1011 87 10000 6.88 226 13:39 22.10.2022
1334 Clouds 13 1010 94 10000 4.84 196 09:51 22.10.2022
1335 Clouds 12 1009 94 10000 3.86 190 09:24 22.10.2022
1336 Clouds 11 1009 93 10000 3.66 183 07:33 22.10.2022
1337 Clouds 12 1008 93 10000 3.19 202 02:55 22.10.2022
1338 Clouds 13 1008 91 10000 2.93 213 23:46 21.10.2022
1339 Clouds 15 1008 90 10000 2.83 221 21:35 21.10.2022
1340 Clouds 15 1008 90 10000 3.03 218 20:56 21.10.2022
1341 Clouds 16 1007 90 10000 2.98 195 19:19 21.10.2022
1342 Clouds 16 1007 89 10000 3.53 199 16:51 21.10.2022
1343 Clouds 16 1007 90 10000 4.68 203 13:57 21.10.2022
1344 Clouds 16 1007 92 10000 5.17 204 12:57 21.10.2022
1345 Clouds 14 1006 94 10000 3.15 178 10:59 21.10.2022
1346 Clouds 12 1007 94 10000 3.23 178 09:49 21.10.2022
1347 Clouds 11 1006 94 10000 3.17 161 08:38 21.10.2022
1348 Clouds 12 1007 93 10000 3.34 159 07:26 21.10.2022
1349 Clouds 11 1010 93 10000 4.32 159 00:28 21.10.2022
1350 Rain 11 1010 92 10000 4.79 154 22:25 20.10.2022
1351 Clouds 12 1010 92 10000 4.46 155 20:37 20.10.2022
1352 Clouds 11 1011 91 10000 5.06 158 19:35 20.10.2022
1353 Clouds 11 1011 90 10000 4.48 156 17:52 20.10.2022
1354 Rain 12 1011 87 6512 4.83 156 16:57 20.10.2022
1355 Clouds 11 1014 80 10000 6.77 128 12:37 20.10.2022
1356 Clouds 10 1015 80 10000 6.98 127 12:18 20.10.2022
1357 Clouds 8 1015 85 10000 6.46 125 10:59 20.10.2022
1358 Clouds 8 1016 86 10000 6.75 113 10:29 20.10.2022
1359 Clouds 6 1017 87 10000 6.11 111 07:46 20.10.2022
1360 Clouds 6 1019 86 10000 6.19 108 05:38 20.10.2022
1361 Clouds 7 1022 84 10000 5.74 111 01:49 20.10.2022
1362 Clouds 9 1024 81 10000 5.03 103 22:45 19.10.2022
1363 Clouds 9 1024 81 10000 4.77 101 21:56 19.10.2022
1364 Clouds 9 1025 80 10000 4.11 98 20:53 19.10.2022
1365 Clouds 10 1025 79 10000 3.62 97 18:49 19.10.2022
1366 Clouds 12 1025 75 10000 3.45 95 17:38 19.10.2022
1367 Clouds 14 1026 71 10000 3.87 106 15:47 19.10.2022
1368 Clouds 14 1028 73 10000 3.03 106 13:51 19.10.2022
1369 Clouds 11 1029 77 10000 2.48 58 09:34 19.10.2022
1370 Clouds 11 1028 78 10000 2.62 44 08:35 19.10.2022
1371 Clouds 11 1028 78 10000 2.69 12 06:25 19.10.2022
1372 Clouds 11 1028 88 10000 3.26 324 01:25 19.10.2022
1373 Clouds 11 1028 85 10000 3.17 315 23:18 18.10.2022
1374 Clouds 12 1028 82 10000 3.5 313 21:45 18.10.2022
1375 Clouds 13 1028 80 10000 4.23 310 20:59 18.10.2022
1376 Clouds 13 1027 79 10000 3.92 301 20:18 18.10.2022
1377 Clear 14 1027 77 10000 4.53 302 17:48 18.10.2022
1378 Clear 15 1027 77 10000 4.71 298 16:52 18.10.2022
1379 Clear 16 1027 74 10000 6.31 296 14:32 18.10.2022
1380 Clouds 16 1026 81 10000 5.51 281 12:34 18.10.2022
1381 Clouds 13 1026 93 10000 4.37 270 11:22 18.10.2022
1382 Clouds 11 1025 94 10000 3.5 257 09:58 18.10.2022
1383 Clouds 12 1025 94 10000 3.32 253 07:57 18.10.2022
1384 Clouds 13 1024 94 10000 3.12 246 04:35 18.10.2022
1385 Clouds 14 1024 93 10000 3.97 224 22:54 17.10.2022
1386 Clouds 14 1022 92 10000 4.7 233 20:55 17.10.2022
1387 Clouds 15 1022 93 10000 4.7 233 20:33 17.10.2022
1388 Clouds 14 1021 92 10000 5.18 226 19:52 17.10.2022
1389 Clouds 15 1021 92 10000 5.18 226 19:30 17.10.2022
1390 Clouds 16 1020 92 10000 5.53 232 17:28 17.10.2022
1391 Clouds 17 1019 92 10000 5.07 225 15:46 17.10.2022
1392 Rain 17 1019 91 10000 5.37 223 14:35 17.10.2022
1393 Clouds 17 1017 89 10000 7.16 214 11:56 17.10.2022
1394 Clouds 12 1016 88 10000 4.33 146 06:42 17.10.2022
1395 Clouds 11 1019 88 10000 3.35 117 00:24 17.10.2022
1396 Clouds 11 1018 89 10000 2.22 119 22:21 16.10.2022
1397 Clouds 10 1018 87 10000 1.2 152 20:59 16.10.2022
1398 Clouds 11 1017 83 10000 1.46 225 19:47 16.10.2022
1399 Clouds 14 1017 77 10000 2.02 244 18:35 16.10.2022
1400 Clouds 15 1016 74 10000 3.09 246 17:41 16.10.2022
1401 Clouds 17 1015 68 10000 5.83 253 15:59 16.10.2022
1402 Clouds 17 1015 68 10000 5.83 253 15:41 16.10.2022
1403 Clouds 16 1012 79 10000 8.5 232 12:25 16.10.2022
1404 Clouds 15 1011 86 10000 7.96 224 10:46 16.10.2022
1405 Clouds 14 1010 87 10000 7.72 216 10:25 16.10.2022
1406 Clouds 12 1007 89 10000 6.94 209 03:57 16.10.2022
1407 Clouds 13 1007 91 10000 6.34 210 23:42 15.10.2022
1408 Clouds 13 1006 92 10000 5.55 226 21:30 15.10.2022
1409 Clouds 13 1006 92 10000 5.55 226 21:30 15.10.2022
1410 Clouds 14 1006 93 10000 5.55 226 20:57 15.10.2022
1411 Clouds 14 1006 93 10000 5.55 226 20:57 15.10.2022
1412 Clouds 14 1006 93 10000 5.55 226 20:57 15.10.2022
1413 Clouds 14 1005 93 10000 5.6 234 19:30 15.10.2022
1414 Rain 15 1003 92 10000 7.11 209 16:57 15.10.2022
1415 Rain 15 1003 90 10000 7.61 198 15:45 15.10.2022
1416 Clouds 14 1004 92 10000 7.68 199 13:21 15.10.2022
1417 Clouds 14 1005 94 10000 6.83 188 11:43 15.10.2022
1418 Clouds 12 1005 95 10000 4.33 192 09:28 15.10.2022
1419 Clouds 12 1005 95 10000 4.01 200 07:33 15.10.2022
1420 Clouds 13 1006 94 10000 3.45 225 00:40 15.10.2022
1421 Clouds 14 1007 94 10000 3.77 229 22:42 14.10.2022
1422 Clouds 14 1007 94 10000 4.66 228 22:22 14.10.2022
1423 Clouds 14 1007 94 10000 3.99 208 20:51 14.10.2022
1424 Clouds 14 1008 94 10000 4.02 181 18:51 14.10.2022
1425 Rain 14 1009 94 10000 4.13 175 15:32 14.10.2022
1426 Clouds 13 1011 94 10000 4.42 173 12:57 14.10.2022
1427 Clouds 11 1013 95 10000 3.85 177 11:26 14.10.2022
1428 Clouds 10 1013 94 10000 3.17 191 08:32 14.10.2022
1429 Clouds 9 1014 94 10000 2.83 209 06:51 14.10.2022
1430 Clouds 10 1014 94 10000 2.79 209 06:18 14.10.2022
1431 Clouds 10 1014 96 10000 2.79 209 05:42 14.10.2022
1432 Clouds 11 1014 93 10000 2.95 246 03:19 14.10.2022
1433 Clouds 12 1015 93 10000 2.51 240 23:42 13.10.2022
1434 Clouds 12 1015 92 10000 2.69 237 21:45 13.10.2022
1435 Clouds 13 1015 93 10000 2.65 234 20:49 13.10.2022
1436 Clouds 13 1015 92 10000 3.36 206 19:43 13.10.2022
1437 Clouds 13 1014 92 10000 3.17 212 18:52 13.10.2022
1438 Clouds 13 1014 92 10000 3.17 220 18:21 13.10.2022
1439 Clouds 14 1015 93 10000 3.4 211 15:58 13.10.2022
1440 Clouds 14 1015 93 10000 3.4 211 15:40 13.10.2022
1441 Clouds 14 1015 93 10000 4.85 224 14:18 13.10.2022
1442 Rain 13 1015 93 10000 5.37 220 12:43 13.10.2022
1443 Clouds 12 1015 92 10000 5 196 11:27 13.10.2022
1444 Rain 10 1016 91 10000 3.48 195 08:50 13.10.2022
1445 Rain 10 1016 90 10000 4.57 190 07:38 13.10.2022
1446 Clouds 9 1017 88 10000 3.36 182 05:28 13.10.2022
1447 Clouds 9 1019 88 10000 3.36 204 01:46 13.10.2022
1448 Clouds 8 1019 88 10000 3.16 187 00:41 13.10.2022
1449 Clouds 9 1020 86 10000 3.33 204 22:45 12.10.2022
1450 Clouds 9 1020 86 10000 3.26 193 21:51 12.10.2022
1451 Clouds 9 1020 84 10000 3.11 198 21:20 12.10.2022
1452 Clouds 9 1020 83 10000 3.11 198 20:39 12.10.2022
1453 Clouds 11 1021 77 10000 2.42 201 19:24 12.10.2022
1454 Clouds 13 1021 72 10000 2.32 182 18:19 12.10.2022
1455 Clouds 14 1021 68 10000 2.32 182 17:43 12.10.2022
1456 Clouds 15 1022 63 10000 3.41 188 14:51 12.10.2022
1457 Clear 15 1023 66 10000 3.51 188 13:54 12.10.2022
1458 Clear 12 1024 79 10000 3.44 188 11:56 12.10.2022
1459 Clear 7 1024 93 10000 2.94 190 09:37 12.10.2022
1460 Clouds 6 1024 92 10000 2.6 192 07:42 12.10.2022
1461 Clouds 6 1024 92 10000 2.69 194 06:44 12.10.2022
1462 Clouds 6 1024 92 10000 2.7 196 05:33 12.10.2022
1463 Clouds 8 1025 90 10000 2.38 225 00:38 12.10.2022
1464 Clouds 9 1026 87 10000 2.02 246 21:43 11.10.2022
1465 Clouds 9 1025 85 10000 1.71 256 20:36 11.10.2022
1466 Clouds 13 1025 77 10000 2.61 310 18:28 11.10.2022
1467 Clouds 15 1025 73 10000 3.44 304 16:33 11.10.2022
1468 Clouds 14 1026 75 10000 4.58 276 14:00 11.10.2022
1469 Clouds 14 1026 75 10000 4.53 261 11:52 11.10.2022
1470 Clouds 11 1025 91 10000 3.21 245 10:28 11.10.2022
1471 Clouds 7 1025 74 10000 3.23 248 09:26 11.10.2022
1472 Clouds 7 1023 90 10000 3.33 272 05:36 11.10.2022
1473 Clouds 8 1022 90 10000 4.19 284 02:19 11.10.2022
1474 Clouds 9 1021 66 10000 4.96 291 00:29 11.10.2022
1475 Clear 9 1019 85 10000 5.22 294 21:24 10.10.2022
1476 Clouds 10 1018 83 10000 5.26 301 19:46 10.10.2022
1477 Clouds 10 1018 83 10000 5.26 301 19:46 10.10.2022
1478 Clouds 11 1017 84 10000 4.89 303 18:30 10.10.2022
1479 Clouds 13 1015 89 10000 6.88 295 16:51 10.10.2022
1480 Clouds 14 1013 83 10000 7.26 270 15:20 10.10.2022
1481 Clouds 14 1013 77 10000 6.8 234 12:54 10.10.2022
1482 Clouds 13 1012 78 10000 6.22 221 11:56 10.10.2022
1483 Clouds 7 1012 87 10000 4.67 190 08:45 10.10.2022
1484 Clouds 7 1013 86 10000 4.15 173 05:42 10.10.2022
1485 Clouds 7 1014 85 10000 4.23 169 04:39 10.10.2022
1486 Clear 8 1016 82 10000 4.11 160 00:31 10.10.2022
1487 Clear 9 1017 81 10000 4.58 146 22:51 09.10.2022
1488 Clear 9 1018 82 10000 4.3 140 22:18 09.10.2022
1489 Clear 9 1018 80 10000 3.91 139 21:22 09.10.2022
1490 Rain 10 1018 75 10000 3.91 141 20:20 09.10.2022
1491 Clouds 11 1018 74 10000 3.91 141 19:45 09.10.2022
1492 Clouds 13 1019 71 10000 3.68 145 18:43 09.10.2022
1493 Clouds 16 1020 63 10000 4.04 163 16:56 09.10.2022
1494 Clouds 16 1020 64 10000 4.04 163 16:37 09.10.2022
1495 Clouds 16 1021 65 10000 4.58 175 15:38 09.10.2022
1496 Clouds 15 1021 69 10000 4.84 179 14:31 09.10.2022
1497 Clouds 15 1022 73 10000 4.95 180 13:34 09.10.2022
1498 Clouds 14 1023 76 10000 4.85 184 12:35 09.10.2022
1499 Clouds 11 1024 91 10000 4.68 188 10:49 09.10.2022
1500 Clouds 6 1024 92 10000 3.04 195 08:31 09.10.2022
1501 Clouds 6 1024 92 10000 3.04 195 08:31 09.10.2022
1502 Clouds 8 1024 91 10000 3.73 237 03:48 09.10.2022
1503 Clouds 7 1024 90 10000 3.72 239 02:53 09.10.2022
1504 Clouds 9 1024 89 10000 3.79 252 00:40 09.10.2022
1505 Clouds 10 1023 87 10000 3.56 263 22:59 08.10.2022
1506 Clouds 11 1023 86 10000 4.16 272 22:24 08.10.2022
1507 Clouds 12 1022 83 10000 4.49 278 20:31 08.10.2022
1508 Clouds 12 1021 82 10000 5.24 280 19:22 08.10.2022
1509 Clear 14 1020 79 10000 6.35 284 17:39 08.10.2022
1510 Clear 14 1020 79 10000 6.35 284 17:39 08.10.2022
1511 Clouds 15 1019 67 10000 7.74 288 15:34 08.10.2022
1512 Clouds 15 1018 69 10000 8.18 285 13:32 08.10.2022
1513 Clear 13 1016 81 10000 7.43 280 11:24 08.10.2022
1514 Clear 12 1016 89 10000 7.43 280 10:32 08.10.2022
1515 Clear 11 1015 92 10000 5.85 261 09:24 08.10.2022
1516 Clouds 11 1013 91 10000 4.28 261 05:35 08.10.2022
1517 Rain 13 1012 86 10000 6.56 221 02:32 08.10.2022
1518 Clouds 13 1014 81 10000 7.12 215 23:48 07.10.2022
1519 Clouds 13 1014 80 10000 7.08 214 23:20 07.10.2022
1520 Clouds 14 1015 79 10000 7.27 211 21:53 07.10.2022
1521 Clouds 15 1016 78 10000 6.5 211 20:18 07.10.2022
1522 Clouds 16 1016 75 10000 7.06 221 18:22 07.10.2022
1523 Clouds 17 1016 74 10000 7.29 222 16:53 07.10.2022
1524 Clouds 17 1017 73 10000 7.4 223 15:44 07.10.2022
1525 Clouds 17 1018 73 10000 8.87 225 14:23 07.10.2022
1526 Clouds 14 1020 79 10000 8.65 215 11:42 07.10.2022
1527 Clouds 10 1022 89 10000 6.66 201 09:25 07.10.2022
1528 Clear 9 1022 89 10000 6.24 201 08:29 07.10.2022
1529 Clear 9 1023 87 10000 5.74 203 05:27 07.10.2022
1530 Clear 10 1026 83 10000 5.37 209 00:28 07.10.2022
1531 Clear 10 1027 82 10000 5.45 210 22:50 06.10.2022
1532 Clear 11 1027 81 10000 5.31 214 21:42 06.10.2022
1533 Clear 11 1027 79 10000 4.97 221 20:54 06.10.2022
1534 Clear 13 1027 74 10000 5.19 227 19:46 06.10.2022
1535 Clear 14 1027 69 10000 5.78 235 18:37 06.10.2022
1536 Clear 17 1026 62 10000 6.86 244 17:26 06.10.2022
1537 Clear 17 1026 58 10000 8.4 251 14:19 06.10.2022
1538 Clear 15 1025 72 10000 7.87 253 11:24 06.10.2022
1539 Clear 12 1020 82 10000 7.97 254 05:47 06.10.2022
1540 Clear 13 1017 84 10000 9.79 256 03:29 06.10.2022
1541 Clouds 15 1013 87 10000 8.74 254 22:55 05.10.2022
1542 Clouds 17 1011 73 10000 9.59 221 19:57 05.10.2022
1543 Clear 17 1010 77 10000 8.81 227 17:58 05.10.2022
1544 Clear 17 1010 77 10000 8.99 223 17:34 05.10.2022
1545 Clear 17 1010 77 10000 8.81 227 17:34 05.10.2022
1546 Clear 17 1010 77 10000 9.12 219 15:54 05.10.2022
1547 Clear 17 1010 77 10000 9.12 219 15:54 05.10.2022
1548 Clear 17 1010 76 10000 9.14 214 14:47 05.10.2022
1549 Clouds 16 1011 77 10000 9.14 213 13:54 05.10.2022
1550 Clouds 17 1012 77 10000 8.96 210 12:20 05.10.2022
1551 Clouds 15 1013 83 10000 7.55 203 08:53 05.10.2022
1552 Clouds 15 1013 84 10000 7.27 207 07:35 05.10.2022
1553 Clouds 15 1013 84 10000 7.11 208 05:35 05.10.2022
1554 Clouds 15 1015 83 10000 6.62 207 02:47 05.10.2022
1555 Clouds 15 1016 82 10000 6.15 209 00:45 05.10.2022
1556 Clouds 15 1016 81 10000 5.91 208 00:24 05.10.2022
1557 Clouds 15 1016 79 10000 5.85 206 22:22 04.10.2022
1558 Clouds 14 1017 78 10000 5.88 206 20:31 04.10.2022
1559 Clouds 15 1017 76 10000 4.6 205 18:58 04.10.2022
1560 Clouds 15 1017 76 10000 4.6 205 18:36 04.10.2022
1561 Clouds 17 1017 72 10000 5.43 208 17:44 04.10.2022
1562 Clouds 18 1017 68 10000 5.96 216 16:33 04.10.2022
1563 Clouds 16 1019 73 10000 6.63 214 12:56 04.10.2022
1564 Clouds 12 1020 91 10000 5.56 204 09:45 04.10.2022
1565 Clouds 11 1020 91 10000 3.67 207 07:23 04.10.2022
1566 Clouds 11 1022 91 10000 3.15 229 02:27 04.10.2022
1567 Clouds 11 1023 89 10000 3.23 239 23:40 03.10.2022
1568 Clouds 11 1024 87 10000 2.69 248 21:53 03.10.2022
1569 Clouds 11 1024 87 10000 2.14 265 21:23 03.10.2022
1570 Clouds 12 1024 84 10000 2.29 281 19:52 03.10.2022
1571 Clouds 15 1024 77 10000 2.81 295 18:28 03.10.2022
1572 Clouds 16 1025 75 10000 4.12 298 17:25 03.10.2022
1573 Clouds 17 1025 72 10000 4.71 302 15:47 03.10.2022
1574 Clouds 17 1025 69 10000 5.31 298 14:20 03.10.2022
1575 Clouds 17 1026 70 10000 5.68 298 12:30 03.10.2022
1576 Clouds 15 1025 83 10000 5.23 297 10:39 03.10.2022
1577 Clouds 13 1025 92 10000 4.43 294 09:38 03.10.2022
1578 Clouds 11 1024 91 10000 3.75 295 07:27 03.10.2022
1579 Clouds 10 1023 90 10000 4.18 308 03:34 03.10.2022
1580 Clouds 11 1021 87 10000 4.96 311 22:39 02.10.2022
1581 Clouds 12 1020 85 10000 5.73 313 20:52 02.10.2022
1582 Clouds 13 1018 81 10000 5.83 306 19:28 02.10.2022
1583 Clear 16 1017 76 10000 6.15 306 17:54 02.10.2022
1584 Clear 16 1017 72 10000 6.72 307 16:48 02.10.2022
1585 Clear 17 1016 71 10000 7.18 308 16:26 02.10.2022
1586 Clear 16 1016 72 10000 7.89 306 14:53 02.10.2022
1587 Clear 16 1015 74 10000 7.94 299 13:45 02.10.2022
1588 Clear 15 1014 81 10000 7.29 289 12:30 02.10.2022
1589 Clear 14 1014 86 10000 7.29 289 11:41 02.10.2022
1590 Clear 14 1014 90 10000 6.78 284 11:23 02.10.2022
1591 Clear 12 1013 92 10000 5.88 276 09:45 02.10.2022
1592 Clear 12 1012 92 10000 4.41 253 08:23 02.10.2022
1593 Clear 11 1011 90 10000 4.91 236 03:52 02.10.2022
1594 Rain 12 1010 90 10000 5.92 239 00:56 02.10.2022
1595 Rain 12 1010 90 10000 5.92 239 00:36 02.10.2022
1596 Clear 11 1009 89 10000 6.11 248 23:24 01.10.2022
1597 Clear 12 1007 86 10000 6.05 259 20:55 01.10.2022
1598 Clouds 14 1005 84 10000 6.35 269 18:54 01.10.2022
1599 Rain 14 1004 83 10000 7.44 284 17:25 01.10.2022
1600 Clouds 15 1002 81 10000 8.3 284 14:44 01.10.2022
1601 Clouds 13 1001 87 8568 8.18 270 13:43 01.10.2022
1602 Clouds 16 1000 80 10000 7.47 264 12:34 01.10.2022
1603 Clouds 16 999 84 10000 5.35 255 11:22 01.10.2022
1604 Clouds 15 999 91 10000 5.35 255 10:47 01.10.2022
1605 Clouds 14 999 93 10000 6.16 242 10:26 01.10.2022
1606 Clouds 12 998 93 10000 8.26 226 09:21 01.10.2022
1607 Clouds 12 998 92 10000 9.29 207 08:26 01.10.2022
1608 Rain 11 1000 90 7289 10.87 180 03:39 01.10.2022
1609 Rain 11 1001 88 6268 9.85 181 02:37 01.10.2022
1610 Clouds 13 1004 79 10000 8.29 188 23:21 30.09.2022
1611 Clouds 12 1005 80 10000 7.06 186 21:58 30.09.2022
1612 Clouds 12 1005 79 10000 6.52 192 20:53 30.09.2022
1613 Clouds 12 1006 77 10000 6.56 196 20:20 30.09.2022
1614 Clouds 14 1006 73 10000 6.83 196 18:28 30.09.2022
1615 Clouds 16 1006 68 10000 6.14 199 16:32 30.09.2022
1616 Clear 16 1008 70 10000 6.24 224 14:24 30.09.2022
1617 Clear 15 1008 74 10000 5.69 211 12:50 30.09.2022
1618 Clear 14 1008 80 10000 5.51 201 11:56 30.09.2022
1619 Clear 8 1008 93 10000 3 207 09:24 30.09.2022
1620 Clouds 8 1008 90 10000 2.79 216 07:50 30.09.2022
1621 Clouds 9 1007 92 10000 2.01 255 03:35 30.09.2022
1622 Clouds 9 1007 91 10000 0.86 284 01:44 30.09.2022
1623 Clouds 10 1006 89 10000 1.53 2 21:40 29.09.2022
1624 Clouds 10 1005 89 10000 1.88 358 21:19 29.09.2022
1625 Clouds 10 1005 87 10000 1.84 344 19:56 29.09.2022
1626 Clouds 12 1003 84 10000 2.49 359 18:30 29.09.2022
1627 Clouds 14 1003 75 10000 3.24 330 16:29 29.09.2022
1628 Clouds 14 1003 67 10000 3.24 330 15:37 29.09.2022
1629 Clouds 14 1002 72 10000 3.02 305 14:59 29.09.2022
1630 Clouds 12 1002 78 10000 3.07 244 12:45 29.09.2022
1631 Clouds 7 1001 89 10000 2.48 224 08:47 29.09.2022
1632 Clouds 5 1000 92 10000 2.44 223 05:35 29.09.2022
1633 Clear 6 999 91 10000 2.1 221 02:37 29.09.2022
1634 Clouds 7 999 86 10000 1.27 148 23:29 28.09.2022
1635 Clouds 7 998 89 10000 1.66 148 22:22 28.09.2022
1636 Clouds 8 998 87 10000 1.89 133 21:25 28.09.2022
1637 Clouds 10 997 85 10000 1.99 128 19:58 28.09.2022
1638 Clouds 14 996 69 10000 0.44 106 17:19 28.09.2022
1639 Clouds 13 996 77 10000 0.94 297 14:45 28.09.2022
1640 Clouds 10 996 93 10000 1.64 253 12:31 28.09.2022
1641 Clouds 7 995 82 10000 1.45 224 10:22 28.09.2022
1642 Clouds 6 994 89 10000 1.33 225 08:25 28.09.2022
1643 Clouds 7 994 93 10000 1.59 224 06:42 28.09.2022
1644 Clouds 6 995 91 10000 3.01 207 01:50 28.09.2022
1645 Clouds 6 995 91 10000 3.31 209 01:25 28.09.2022
1646 Clouds 8 995 91 10000 3.46 225 22:50 27.09.2022
1647 Clouds 8 995 89 10000 3.86 232 21:24 27.09.2022
1648 Clouds 8 995 88 10000 3.86 232 20:36 27.09.2022
1649 Clouds 9 995 89 10000 3.78 243 19:47 27.09.2022
1650 Clouds 10 995 87 10000 4.08 271 18:25 27.09.2022
1651 Clouds 10 995 88 10000 4.08 271 17:42 27.09.2022
1652 Clouds 11 994 88 10000 4.88 290 15:27 27.09.2022
1653 Clouds 11 994 89 10000 4.88 290 14:33 27.09.2022
1654 Clouds 11 994 90 10000 5.1 295 12:40 27.09.2022
1655 Clouds 11 994 90 10000 5.1 295 12:40 27.09.2022
1656 Clouds 10 994 92 10000 5.42 300 10:53 27.09.2022
1657 Clouds 10 993 93 10000 5.94 308 08:46 27.09.2022
1658 Clouds 10 993 93 10000 5.02 316 06:27 27.09.2022
1659 Clouds 10 993 93 8273 4.26 314 01:45 27.09.2022
1660 Clouds 10 993 93 9240 3.02 321 01:27 27.09.2022
1661 Rain 11 993 93 5541 4.75 324 23:25 26.09.2022
1662 Clouds 11 993 92 8415 2.95 282 22:24 26.09.2022
1663 Clouds 12 993 91 10000 5.56 207 20:29 26.09.2022
1664 Clouds 12 993 91 10000 5.56 207 19:30 26.09.2022
1665 Clouds 12 993 91 10000 6.67 209 18:31 26.09.2022
1666 Clouds 12 995 91 10000 8.79 201 15:55 26.09.2022
1667 Clouds 12 996 90 10000 9.77 193 13:30 26.09.2022
1668 Rain 11 998 89 9778 8.93 198 11:29 26.09.2022
1669 Rain 11 998 90 9778 8.93 198 10:38 26.09.2022
1670 Rain 11 999 90 10000 8.74 200 10:19 26.09.2022
1671 Rain 11 999 91 10000 8.74 200 09:53 26.09.2022
1672 Rain 11 999 91 10000 8.16 201 09:23 26.09.2022
1673 Rain 10 1000 90 10000 8.38 202 07:30 26.09.2022
1674 Clouds 11 1006 86 10000 6.29 217 02:48 26.09.2022
1675 Clouds 10 1010 87 10000 4.41 226 23:29 25.09.2022
1676 Clouds 10 1011 85 10000 3.89 228 21:54 25.09.2022
1677 Clouds 10 1011 84 10000 3.89 228 21:34 25.09.2022
1678 Clouds 11 1011 81 10000 3.56 251 20:45 25.09.2022
1679 Clouds 12 1012 77 10000 3.54 277 19:43 25.09.2022
1680 Clouds 14 1012 73 10000 3.46 286 18:40 25.09.2022
1681 Clouds 14 1012 73 10000 4.1 297 18:20 25.09.2022
1682 Clouds 15 1012 59 10000 4.17 313 16:35 25.09.2022
1683 Clouds 16 1013 77 10000 4.65 320 15:44 25.09.2022
1684 Clouds 16 1014 78 10000 5.45 331 14:22 25.09.2022
1685 Clouds 15 1014 71 10000 5.73 336 12:51 25.09.2022
1686 Clouds 15 1015 75 10000 5.38 348 10:32 25.09.2022
1687 Clouds 12 1014 68 10000 4.03 340 08:24 25.09.2022
1688 Clouds 10 1015 84 10000 4.63 351 05:47 25.09.2022
1689 Clouds 12 1015 82 10000 4.48 354 01:55 25.09.2022
1690 Clouds 12 1014 82 10000 5.07 0 22:35 24.09.2022
1691 Clouds 13 1014 84 10000 5.5 8 20:55 24.09.2022
1692 Clouds 14 1013 89 10000 6.97 8 19:23 24.09.2022
1693 Clouds 14 1013 87 10000 7.22 7 17:50 24.09.2022
1694 Clouds 14 1012 89 10000 7.16 7 16:27 24.09.2022
1695 Rain 14 1012 89 10000 7.16 13 15:21 24.09.2022
1696 Clouds 15 1012 88 10000 5.99 14 13:35 24.09.2022
1697 Clouds 14 1011 89 10000 3.91 26 12:51 24.09.2022
1698 Clouds 14 1011 90 10000 1.52 8 11:21 24.09.2022
1699 Clouds 13 1011 92 10000 0.53 309 09:54 24.09.2022
1700 Clouds 13 1011 93 7249 0.11 276 08:47 24.09.2022
1701 Clouds 13 1012 93 10000 2.94 351 07:39 24.09.2022
1702 Clouds 13 1011 92 10000 1.58 290 04:48 24.09.2022
1703 Clouds 12 1011 92 10000 1.63 261 03:43 24.09.2022
1704 Rain 13 1013 89 10000 2.11 209 22:39 23.09.2022
1705 Rain 13 1013 88 10000 2.1 196 21:31 23.09.2022
1706 Rain 13 1013 88 10000 2.37 158 20:57 23.09.2022
1707 Clouds 14 1013 87 10000 3.04 138 20:20 23.09.2022
1708 Rain 14 1013 84 10000 2.38 137 18:51 23.09.2022
1709 Clouds 17 1015 73 10000 4.18 214 15:23 23.09.2022
1710 Clouds 13 1016 81 10000 3.47 196 10:55 23.09.2022
1711 Clouds 10 1016 86 10000 3.14 191 09:35 23.09.2022
1712 Clouds 8 1016 84 10000 3.01 180 05:59 23.09.2022
1713 Clouds 10 1019 85 10000 3.17 175 00:36 23.09.2022
1714 Clouds 9 1019 83 10000 2.87 159 23:22 22.09.2022
1715 Clouds 11 1020 81 10000 2.42 159 22:27 22.09.2022
1716 Clouds 11 1020 82 10000 2.03 164 21:18 22.09.2022
1717 Clouds 13 1020 75 10000 1.37 172 19:58 22.09.2022
1718 Clouds 18 1021 57 10000 2.45 192 17:28 22.09.2022
1719 Clouds 17 1023 60 10000 3.07 188 12:52 22.09.2022
1720 Clouds 13 1023 82 10000 2.95 184 10:36 22.09.2022
1721 Clear 10 1024 76 10000 2.25 175 08:58 22.09.2022
1722 Clouds 7 1024 91 10000 2.16 190 06:57 22.09.2022
1723 Clouds 8 1024 91 10000 1.8 199 04:36 22.09.2022
1724 Clouds 8 1026 88 10000 1.41 67 23:32 21.09.2022
1725 Clouds 9 1026 85 10000 1.72 53 21:51 21.09.2022
1726 Clouds 10 1026 82 10000 2.18 37 20:53 21.09.2022
1727 Clouds 16 1025 69 10000 2.88 341 17:51 21.09.2022
1728 Clear 18 1025 67 10000 2.41 329 17:21 21.09.2022
1729 Clear 17 1026 60 10000 1.14 301 14:52 21.09.2022
1730 Clouds 17 1026 59 10000 0.82 250 13:38 21.09.2022
1731 Clouds 15 1027 69 10000 1.38 174 11:34 21.09.2022
1732 Clouds 13 1026 91 10000 1.76 166 10:34 21.09.2022
1733 Clouds 10 1026 93 10000 1.76 169 09:38 21.09.2022
1734 Clouds 7 1026 92 10000 1.59 178 08:23 21.09.2022
1735 Clear 8 1026 84 10000 0.91 172 02:51 21.09.2022
1736 Clear 8 1026 84 10000 0.91 172 02:51 21.09.2022
1737 Clear 8 1026 84 10000 0.88 177 02:32 21.09.2022
1738 Clear 8 1026 82 10000 0.87 185 01:49 21.09.2022
1739 Clear 9 1025 87 10000 1.09 34 23:19 20.09.2022
1740 Clear 10 1025 84 10000 1.71 14 21:33 20.09.2022
1741 Clouds 12 1024 80 10000 2.62 349 20:22 20.09.2022
1742 Clouds 15 1023 72 10000 3.88 344 17:41 20.09.2022
1743 Clouds 15 1022 63 10000 5.48 343 14:59 20.09.2022
1744 Clouds 15 1022 71 10000 4.72 338 13:58 20.09.2022
1745 Rain 14 1022 76 10000 4.66 338 11:24 20.09.2022
1746 Clouds 10 1021 75 10000 3.85 340 08:29 20.09.2022
1747 Clouds 10 1021 76 10000 3.57 338 07:31 20.09.2022
1748 Clouds 11 1020 91 10000 3.41 323 04:30 20.09.2022
1749 Clouds 11 1020 90 10000 4.96 315 01:28 20.09.2022
1750 Rain 11 1020 87 10000 5.67 317 22:33 19.09.2022
1751 Rain 12 1019 80 10000 6.35 329 21:28 19.09.2022
1752 Clouds 12 1019 77 10000 6.35 329 20:39 19.09.2022
1753 Clouds 14 1018 77 10000 6.87 330 18:43 19.09.2022
1754 Clouds 14 1018 77 10000 6.87 330 18:43 19.09.2022
1755 Clouds 15 1018 74 10000 7.35 325 16:37 19.09.2022
1756 Clouds 16 1018 69 10000 8.91 325 13:45 19.09.2022
1757 Clouds 16 1017 76 10000 8.64 324 11:57 19.09.2022
1758 Clouds 14 1016 88 10000 8.22 325 09:38 19.09.2022
1759 Clouds 12 1015 91 10000 5.55 333 08:20 19.09.2022
1760 Clear 11 1013 91 10000 6.87 327 03:28 19.09.2022
1761 Clouds 11 1013 89 10000 7.14 339 00:44 19.09.2022
1762 Clouds 12 1012 89 10000 8.51 344 22:32 18.09.2022
1763 Rain 11 1011 88 7982 10.08 339 20:47 18.09.2022
1764 Rain 12 1010 87 8939 11.23 336 19:33 18.09.2022
1765 Rain 13 1010 79 10000 10.6 323 17:52 18.09.2022
1766 Clouds 15 1010 69 10000 10.56 320 16:47 18.09.2022
1767 Clouds 14 1010 67 10000 9.37 315 14:44 18.09.2022
1768 Clouds 14 1010 68 10000 8.35 315 13:35 18.09.2022
1769 Clouds 12 1010 82 10000 8.08 317 12:20 18.09.2022
1770 Clouds 11 1010 88 10000 6.8 315 09:25 18.09.2022
1771 Clouds 11 1011 75 10000 7.52 319 01:43 18.09.2022
1772 Clouds 11 1012 77 10000 7.91 318 01:20 18.09.2022
1773 Clouds 12 1011 75 10000 8.24 320 22:57 17.09.2022
1774 Clouds 12 1011 76 10000 9.05 324 20:55 17.09.2022
1775 Clouds 12 1011 84 10000 8.92 322 19:39 17.09.2022
1776 Clouds 14 1010 62 10000 9.64 321 18:21 17.09.2022
1777 Clouds 16 1010 62 10000 11.15 321 14:27 17.09.2022
1778 Clouds 15 1010 59 10000 11.15 321 13:32 17.09.2022
1779 Clouds 14 1010 77 10000 9.34 320 10:49 17.09.2022
1780 Clouds 11 1009 77 10000 9.85 314 08:30 17.09.2022
1781 Clouds 11 1009 73 10000 9.18 315 06:21 17.09.2022
1782 Clouds 12 1008 87 10000 9.1 328 23:41 16.09.2022
1783 Clouds 12 1008 91 10000 9.69 333 22:27 16.09.2022
1784 Rain 12 1007 91 10000 10.15 335 20:54 16.09.2022
1785 Rain 12 1007 91 10000 10.16 335 20:54 16.09.2022
1786 Rain 12 1007 91 10000 10.16 335 20:54 16.09.2022
1787 Rain 12 1007 91 8559 9.7 328 19:35 16.09.2022
1788 Rain 14 1006 81 5434 10.67 298 16:26 16.09.2022
1789 Clouds 15 1006 71 8783 11.13 302 14:52 16.09.2022
1790 Clouds 16 1007 65 10000 9.99 293 13:26 16.09.2022
1791 Clouds 14 1007 70 10000 7.93 295 10:27 16.09.2022
1792 Clouds 10 1007 92 10000 7.08 301 07:52 16.09.2022
1793 Clouds 11 1007 69 10000 6.79 304 06:48 16.09.2022
1794 Clouds 11 1007 92 10000 6.86 309 05:58 16.09.2022
1795 Clouds 11 1007 92 10000 6.35 304 02:35 16.09.2022
1796 Clouds 11 1007 91 10000 4.81 297 22:20 15.09.2022
1797 Clouds 12 1007 90 10000 5 303 20:39 15.09.2022
1798 Rain 12 1007 88 10000 5.63 307 19:45 15.09.2022
1799 Clouds 14 1006 85 10000 7.41 312 18:26 15.09.2022
1800 Clouds 15 1006 88 10000 7.59 308 17:29 15.09.2022
1801 Rain 16 1006 59 10000 7.55 309 15:49 15.09.2022
1802 Clouds 16 1006 80 10000 7.02 311 13:19 15.09.2022
1803 Clouds 16 1006 70 10000 6.75 307 11:48 15.09.2022
1804 Clouds 15 1005 77 10000 5.87 297 09:46 15.09.2022
1805 Clouds 13 1005 76 10000 5.6 297 07:45 15.09.2022
1806 Clouds 15 1004 82 10000 5.9 306 03:49 15.09.2022
1807 Clouds 14 1004 80 10000 4.04 287 23:32 14.09.2022
1808 Clouds 15 1004 75 10000 3.76 287 20:48 14.09.2022
1809 Clouds 17 1005 70 10000 3.15 300 19:33 14.09.2022
1810 Clouds 18 1004 68 10000 3 308 18:30 14.09.2022
1811 Clouds 19 1005 63 10000 4 316 16:40 14.09.2022
1812 Clouds 20 1005 63 10000 3.27 301 15:29 14.09.2022
1813 Clouds 20 1006 64 10000 2.69 312 13:36 14.09.2022
1814 Clouds 17 1006 78 10000 3.02 326 10:47 14.09.2022
1815 Clouds 15 1006 87 10000 2.01 293 09:27 14.09.2022
1816 Clouds 14 1006 87 10000 2.33 283 06:51 14.09.2022
1817 Clouds 13 1006 87 10000 2.33 283 06:33 14.09.2022
1818 Clouds 13 1008 87 10000 2.22 284 03:54 14.09.2022
1819 Clouds 13 1008 85 10000 2.98 314 01:41 14.09.2022
1820 Clouds 15 1008 84 10000 3.07 302 01:20 14.09.2022
1821 Clouds 14 1008 80 10000 3.29 305 23:55 13.09.2022
1822 Clouds 14 1008 80 10000 3.3 305 23:37 13.09.2022
1823 Clouds 15 1009 79 10000 3.56 294 23:19 13.09.2022
1824 Clouds 15 1009 76 10000 3.56 294 22:43 13.09.2022
1825 Clouds 15 1009 76 10000 3.56 294 22:43 13.09.2022
1826 Clouds 16 1009 73 10000 3.71 288 21:42 13.09.2022
1827 Clouds 17 1009 69 10000 3.51 288 19:32 13.09.2022
1828 Clouds 19 1009 61 10000 5.22 309 17:33 13.09.2022
1829 Clouds 19 1009 65 10000 5.91 307 15:54 13.09.2022
1830 Clouds 20 1009 66 10000 6.2 303 13:54 13.09.2022
1831 Clouds 20 1009 69 10000 6.26 298 12:28 13.09.2022
1832 Clouds 17 1008 92 10000 4.03 298 08:33 13.09.2022
1833 Clouds 17 1008 91 10000 4.53 267 04:32 13.09.2022
1834 Clouds 18 1009 83 10000 3.85 214 23:32 12.09.2022
1835 Rain 18 1010 78 10000 3.64 211 22:49 12.09.2022
1836 Clouds 18 1010 74 10000 3.57 199 21:36 12.09.2022
1837 Clouds 20 1011 71 10000 2.94 204 20:25 12.09.2022
1838 Clouds 23 1011 64 10000 2.94 203 18:43 12.09.2022
1839 Clouds 24 1013 60 10000 4.57 209 16:23 12.09.2022
1840 Clouds 22 1014 68 10000 4.7 198 13:41 12.09.2022
1841 Clouds 18 1015 83 10000 4.89 186 11:29 12.09.2022
1842 Clouds 15 1016 91 10000 4.17 187 09:45 12.09.2022
1843 Clouds 12 1016 89 10000 2.43 170 04:49 12.09.2022
1844 Clouds 12 1017 89 10000 2.51 158 04:20 12.09.2022
1845 Clouds 15 1018 85 10000 2.63 104 23:23 11.09.2022
1846 Clouds 15 1018 82 10000 2.75 88 21:59 11.09.2022
1847 Clear 17 1018 82 10000 2.87 64 20:47 11.09.2022
1848 Clouds 18 1018 79 10000 3.03 43 19:53 11.09.2022
1849 Clouds 19 1018 78 10000 3.05 39 19:22 11.09.2022
1850 Clouds 20 1018 74 10000 3.27 30 18:21 11.09.2022
1851 Clouds 21 1018 72 10000 3.36 18 16:36 11.09.2022
1852 Clouds 22 1019 74 10000 2.93 356 14:33 11.09.2022
1853 Clear 21 1018 69 10000 1.5 2 12:42 11.09.2022
1854 Clear 14 1018 93 10000 1.68 62 08:59 11.09.2022
1855 Clear 12 1017 92 10000 2 44 07:18 11.09.2022
1856 Clear 14 1015 90 10000 2.25 6 00:54 11.09.2022
1857 Clear 15 1015 89 10000 2.89 0 22:56 10.09.2022
1858 Clear 16 1014 87 10000 2.97 2 21:33 10.09.2022
1859 Clouds 18 1013 84 10000 3.18 8 19:48 10.09.2022
1860 Clouds 18 1012 82 10000 3.54 14 19:29 10.09.2022
1861 Clouds 18 1012 81 10000 3.54 14 18:55 10.09.2022
1862 Clouds 20 1012 75 10000 3.28 7 16:51 10.09.2022
1863 Clouds 20 1011 78 10000 0.87 21 14:43 10.09.2022
1864 Clouds 17 1011 91 10000 2.11 153 12:53 10.09.2022
1865 Clouds 16 1011 93 10000 2.25 154 11:35 10.09.2022
1866 Clouds 15 1010 93 10000 2.64 169 09:51 10.09.2022
1867 Clouds 15 1010 93 10000 2.8 175 08:37 10.09.2022
1868 Clouds 14 1010 93 10000 2.97 167 07:49 10.09.2022
1869 Clouds 15 1008 90 10000 3.24 158 00:51 10.09.2022
1870 Clouds 15 1008 89 10000 3.68 155 23:33 09.09.2022
1871 Clouds 16 1007 86 10000 4.12 139 22:19 09.09.2022
1872 Clouds 17 1007 84 10000 3.76 137 20:48 09.09.2022
1873 Clouds 18 1007 81 10000 4.78 178 19:25 09.09.2022
1874 Clouds 18 1007 80 10000 4.78 178 18:53 09.09.2022
1875 Clouds 20 1007 75 10000 5.38 189 16:33 09.09.2022
1876 Clouds 20 1007 76 10000 6.52 203 13:51 09.09.2022
1877 Clouds 19 1007 80 10000 6.74 203 12:47 09.09.2022
1878 Clouds 16 1007 92 10000 5.6 193 10:22 09.09.2022
1879 Clouds 14 1006 93 10000 3.75 181 06:46 09.09.2022
1880 Clear 13 1006 92 10000 3.42 186 03:28 09.09.2022
1881 Clouds 15 1007 91 10000 1.88 191 22:19 08.09.2022
1882 Clouds 16 1007 91 10000 1.88 191 21:43 08.09.2022
1883 Clouds 16 1007 90 10000 1.52 217 20:46 08.09.2022
1884 Clouds 17 1007 91 10000 1.43 152 20:21 08.09.2022
1885 Clouds 17 1007 90 10000 1.69 162 18:34 08.09.2022
1886 Clouds 17 1007 91 10000 1.61 171 16:47 08.09.2022
1887 Rain 17 1007 91 10000 2.49 235 14:42 08.09.2022
1888 Rain 18 1008 90 10000 4.22 221 13:27 08.09.2022
1889 Rain 18 1008 90 10000 4.22 221 12:33 08.09.2022
1890 Clouds 18 1008 90 10000 3.55 184 10:58 08.09.2022
1891 Clouds 17 1007 89 10000 3.74 108 09:20 08.09.2022
1892 Clouds 16 1008 91 10000 3.24 139 06:43 08.09.2022
1893 Clouds 16 1009 91 10000 2.43 128 03:18 08.09.2022
1894 Clouds 16 1009 91 10000 2.44 128 02:36 08.09.2022
1895 Clouds 15 1010 90 10000 3.36 99 02:18 08.09.2022
1896 Clouds 16 1011 84 10000 3.52 66 22:55 07.09.2022
1897 Clouds 18 1011 81 10000 3.56 46 21:44 07.09.2022
1898 Clouds 18 1011 80 10000 3.27 29 21:20 07.09.2022
1899 Clouds 20 1011 80 10000 3.12 24 20:19 07.09.2022
1900 Clouds 23 1011 76 10000 3.82 359 18:41 07.09.2022
1901 Clouds 23 1011 68 10000 2.69 284 15:41 07.09.2022
1902 Clouds 18 1012 91 10000 3.44 157 10:51 07.09.2022
1903 Clouds 18 1012 91 10000 3.44 157 10:30 07.09.2022
1904 Clouds 15 1012 91 10000 2.96 113 07:45 07.09.2022
1905 Rain 16 1012 88 10000 1.12 99 04:59 07.09.2022
1906 Clouds 18 1014 75 10000 4.66 103 00:26 07.09.2022
1907 Clouds 20 1014 73 10000 4.22 103 21:48 06.09.2022
1908 Clouds 21 1014 73 10000 4.87 100 21:27 06.09.2022
1909 Clouds 23 1014 69 10000 6.49 92 19:23 06.09.2022
1910 Clouds 24 1014 68 10000 6.08 96 18:29 06.09.2022
1911 Clouds 25 1014 63 10000 6.27 89 17:23 06.09.2022
1912 Clouds 25 1014 62 10000 6.27 89 16:41 06.09.2022
1913 Clouds 24 1015 63 10000 5.92 98 15:55 06.09.2022
1914 Clouds 22 1016 65 10000 6.7 118 13:47 06.09.2022
1915 Clouds 22 1017 65 10000 7.27 117 13:27 06.09.2022
1916 Clouds 21 1017 67 10000 7.27 117 12:56 06.09.2022
1917 Clouds 18 1017 83 10000 7.98 105 10:54 06.09.2022
1918 Clouds 17 1016 81 10000 7.28 108 08:58 06.09.2022
1919 Clouds 18 1016 77 10000 6.22 104 07:52 06.09.2022
1920 Clouds 18 1016 77 10000 6.22 104 07:52 06.09.2022
1921 Clouds 17 1016 72 10000 5.98 108 06:18 06.09.2022
1922 Clouds 20 1018 79 10000 5.94 99 00:45 06.09.2022
1923 Clouds 21 1019 79 10000 6.1 93 22:44 05.09.2022
1924 Clouds 21 1019 79 10000 6.41 97 21:38 05.09.2022
1925 Clouds 23 1019 63 10000 6.51 100 20:18 05.09.2022
1926 Clouds 27 1019 57 10000 5.79 97 18:53 05.09.2022
1927 Clouds 27 1019 55 10000 4.68 91 18:24 05.09.2022
1928 Clouds 28 1019 53 10000 4.68 91 17:50 05.09.2022
1929 Clouds 28 1019 53 10000 4 104 15:53 05.09.2022
1930 Clouds 27 1020 57 10000 4.51 119 14:34 05.09.2022
1931 Clouds 25 1021 62 10000 4.66 121 12:51 05.09.2022
1932 Clouds 22 1021 63 10000 4.85 123 10:37 05.09.2022
1933 Clouds 17 1021 74 10000 4.44 108 08:45 05.09.2022
1934 Clouds 18 1020 67 10000 4.62 104 03:47 05.09.2022
1935 Clouds 20 1021 67 10000 5.28 101 00:30 05.09.2022
1936 Clouds 20 1020 63 10000 5.48 96 22:29 04.09.2022
1937 Clouds 20 1020 62 10000 5.48 96 21:56 04.09.2022
1938 Clouds 21 1019 61 10000 4.66 73 20:26 04.09.2022
1939 Clouds 25 1019 54 10000 4.41 72 18:35 04.09.2022
1940 Clouds 25 1018 53 10000 3.98 85 17:31 04.09.2022
1941 Clouds 26 1018 49 10000 3.58 109 16:24 04.09.2022
1942 Clouds 25 1019 51 10000 4.28 121 14:25 04.09.2022
1943 Clouds 23 1019 55 10000 4.88 119 12:40 04.09.2022
1944 Clouds 21 1019 58 10000 5.19 116 11:28 04.09.2022
1945 Clouds 18 1018 64 10000 5.1 114 09:38 04.09.2022
1946 Clouds 13 1017 69 10000 4.58 111 06:35 04.09.2022
1947 Clouds 15 1016 62 10000 5.77 110 03:18 04.09.2022
1948 Clouds 18 1015 57 10000 6.52 102 22:56 03.09.2022
1949 Clouds 19 1015 56 10000 6.45 98 22:18 03.09.2022
1950 Clouds 19 1014 54 10000 6.44 94 21:22 03.09.2022
1951 Clouds 23 1013 52 10000 4.79 84 18:49 03.09.2022
1952 Clouds 25 1013 44 10000 5.29 110 17:22 03.09.2022
1953 Clouds 25 1013 44 10000 5.29 110 17:22 03.09.2022
1954 Clouds 25 1013 45 10000 5.62 113 15:54 03.09.2022
1955 Clouds 24 1013 45 10000 5.82 115 14:42 03.09.2022
1956 Clouds 24 1014 45 10000 6.76 115 13:50 03.09.2022
1957 Clouds 21 1014 57 10000 7.47 112 11:34 03.09.2022
1958 Clouds 17 1015 63 10000 7.01 109 09:37 03.09.2022
1959 Clouds 14 1015 70 10000 5.77 100 07:57 03.09.2022
1960 Clouds 14 1015 67 10000 5.75 101 04:56 03.09.2022
1961 Clouds 15 1015 65 10000 5.55 108 03:29 03.09.2022
1962 Clouds 18 1015 56 10000 6.28 104 23:49 02.09.2022
1963 Clouds 18 1015 57 10000 6.32 101 22:33 02.09.2022
1964 Clouds 19 1015 60 10000 5.94 91 20:56 02.09.2022
1965 Clouds 20 1015 56 10000 4.66 72 20:23 02.09.2022
1966 Clouds 22 1015 53 10000 4.34 74 18:51 02.09.2022
1967 Clouds 23 1015 49 10000 4.52 90 18:26 02.09.2022
1968 Clouds 24 1015 45 10000 4.52 90 17:30 02.09.2022
1969 Clouds 24 1015 45 10000 4.52 90 17:30 02.09.2022
1970 Clouds 24 1015 47 10000 5.01 103 16:44 02.09.2022
1971 Clouds 23 1017 55 10000 5.95 121 13:51 02.09.2022
1972 Clear 21 1018 65 10000 6.64 116 11:36 02.09.2022
1973 Clear 17 1019 71 10000 6.35 103 09:49 02.09.2022
1974 Clear 14 1019 77 10000 5.83 98 08:55 02.09.2022
1975 Clear 12 1019 78 10000 4.05 88 07:24 02.09.2022
1976 Clear 12 1019 77 10000 4.05 88 06:34 02.09.2022
1977 Clear 12 1021 77 10000 4.02 94 02:37 02.09.2022
1978 Clear 16 1022 75 10000 4.48 68 22:26 01.09.2022
1979 Clear 17 1022 72 10000 4.48 68 21:40 01.09.2022
1980 Clear 17 1022 72 10000 5.54 74 21:21 01.09.2022
1981 Clear 18 1021 69 10000 5.1 62 20:37 01.09.2022
1982 Clouds 22 1021 51 10000 7.29 58 18:49 01.09.2022
1983 Clouds 23 1021 45 10000 5.8 83 17:21 01.09.2022
1984 Clouds 23 1021 51 10000 4.89 86 15:47 01.09.2022
1985 Clouds 22 1023 55 10000 4.45 89 13:55 01.09.2022
1986 Clouds 22 1023 56 10000 4.51 91 12:57 01.09.2022
1987 Clouds 21 1024 64 10000 4.22 92 11:52 01.09.2022
1988 Clouds 21 1024 66 10000 4.22 92 11:31 01.09.2022
1989 Clouds 18 1024 73 10000 4.03 88 10:19 01.09.2022
1990 Clear 14 1024 82 10000 3.15 76 07:51 01.09.2022
1991 Clear 13 1023 79 10000 3.56 69 06:22 01.09.2022
1992 Clear 14 1024 75 10000 4.49 73 01:32 01.09.2022
1993 Clear 15 1024 82 10000 4.63 66 23:29 31.08.2022
1994 Clear 17 1024 75 10000 4.44 36 21:30 31.08.2022
1995 Clear 19 1024 69 10000 5.75 29 19:50 31.08.2022
1996 Clear 21 1024 60 10000 6.74 32 18:18 31.08.2022
1997 Clear 22 1024 52 10000 5.89 41 15:45 31.08.2022
1998 Clouds 22 1024 52 10000 5.5 55 13:57 31.08.2022
1999 Clouds 21 1025 57 10000 5.59 63 12:21 31.08.2022
2000 Clouds 19 1025 64 10000 5.54 68 10:52 31.08.2022
2001 Clouds 16 1025 80 10000 4.58 72 08:35 31.08.2022
2002 Clouds 14 1025 75 10000 3.57 61 04:26 31.08.2022
2003 Clouds 17 1023 67 10000 5.83 57 22:58 30.08.2022
2004 Clouds 17 1023 69 10000 5.13 49 21:38 30.08.2022
2005 Clouds 18 1023 68 10000 5.6 48 20:56 30.08.2022
2006 Clouds 22 1022 62 10000 6.4 44 17:30 30.08.2022
2007 Clear 22 1022 60 10000 4.55 38 14:44 30.08.2022
2008 Clouds 21 1023 61 10000 4.74 48 13:24 30.08.2022
2009 Clouds 19 1023 66 10000 4.79 50 11:21 30.08.2022
2010 Clouds 19 1023 70 10000 4.79 50 10:35 30.08.2022
2011 Clouds 14 1023 87 10000 3.17 56 06:51 30.08.2022
2012 Clouds 14 1022 85 10000 3.36 76 01:53 30.08.2022
2013 Clouds 16 1022 85 10000 3.03 36 22:58 29.08.2022
2014 Clouds 16 1022 84 10000 3.17 31 22:24 29.08.2022
2015 Clouds 17 1022 82 10000 3.48 31 21:25 29.08.2022
2016 Clouds 19 1021 79 10000 3.54 23 19:52 29.08.2022
2017 Clouds 21 1021 76 10000 4.63 19 17:52 29.08.2022
2018 Clouds 21 1021 73 10000 4.89 14 17:24 29.08.2022
2019 Clouds 21 1021 73 10000 5.32 9 16:37 29.08.2022
2020 Clouds 21 1021 75 10000 4.87 17 14:45 29.08.2022
2021 Clouds 20 1022 78 10000 4.49 28 13:21 29.08.2022
2022 Clouds 20 1021 80 10000 4.01 35 11:20 29.08.2022
2023 Clouds 19 1021 84 10000 4.84 5 09:48 29.08.2022
2024 Clouds 17 1021 87 10000 3.62 346 08:29 29.08.2022
2025 Clouds 16 1020 86 10000 3.22 338 05:35 29.08.2022
2026 Clouds 16 1021 71 10000 4.26 335 00:22 29.08.2022
2027 Clouds 16 1021 68 10000 4.74 337 22:41 28.08.2022
2028 Clouds 16 1021 70 10000 5.32 332 21:44 28.08.2022
2029 Clouds 17 1021 69 10000 4.39 332 20:55 28.08.2022
2030 Clear 18 1020 68 10000 6.13 333 19:26 28.08.2022
2031 Clear 19 1020 67 10000 7.02 332 18:21 28.08.2022
2032 Clear 19 1020 67 10000 7.16 327 17:22 28.08.2022
2033 Clear 19 1020 65 10000 7.02 327 16:28 28.08.2022
2034 Clouds 20 1020 62 10000 6.47 328 14:42 28.08.2022
2035 Clear 20 1020 62 10000 6.74 331 12:48 28.08.2022
2036 Clear 19 1020 63 10000 6.77 336 10:51 28.08.2022
2037 Clear 19 1020 64 10000 6.56 339 09:54 28.08.2022
2038 Clear 17 1019 71 10000 6.09 341 08:38 28.08.2022
2039 Clear 15 1019 75 10000 4.73 340 07:45 28.08.2022
2040 Clear 14 1019 77 10000 4 346 02:59 28.08.2022
2041 Clear 15 1019 75 10000 3.96 346 00:31 28.08.2022
2042 Clear 16 1018 74 10000 4.06 346 22:38 27.08.2022
2043 Clear 16 1018 74 10000 4.02 348 21:58 27.08.2022
2044 Clouds 17 1018 73 10000 5.02 355 20:19 27.08.2022
2045 Clouds 19 1018 69 10000 5.84 353 18:41 27.08.2022
2046 Clouds 21 1017 66 10000 6.29 350 15:53 27.08.2022
2047 Clouds 21 1017 68 10000 5.95 352 15:25 27.08.2022
2048 Clouds 21 1017 67 10000 5.98 353 12:41 27.08.2022
2049 Clouds 20 1017 71 10000 5.91 357 11:53 27.08.2022
2050 Clouds 19 1016 73 10000 5.78 5 09:51 27.08.2022
2051 Clouds 18 1016 77 10000 5.71 2 08:53 27.08.2022
2052 Clouds 16 1016 85 10000 5.46 354 04:39 27.08.2022
2053 Clouds 18 1016 84 10000 5.54 345 00:25 27.08.2022
2054 Clouds 18 1016 83 10000 5.9 351 23:24 26.08.2022
2055 Clouds 18 1016 83 10000 5.72 346 21:45 26.08.2022
2056 Clouds 19 1015 82 10000 6.03 340 19:40 26.08.2022
2057 Clouds 20 1015 84 10000 6.51 333 17:29 26.08.2022
2058 Clouds 22 1016 85 10000 6.39 331 15:37 26.08.2022
2059 Clouds 22 1016 82 10000 6.42 329 14:56 26.08.2022
2060 Clouds 22 1015 84 10000 6.06 323 12:54 26.08.2022
2061 Clouds 22 1015 82 10000 5.79 326 11:42 26.08.2022
2062 Clouds 21 1015 86 10000 5.94 329 11:21 26.08.2022
2063 Clear 20 1013 89 10000 3 305 07:56 26.08.2022
2064 Clear 20 1014 83 10000 2.38 193 02:57 26.08.2022
2065 Clouds 22 1013 80 10000 4.32 125 23:45 25.08.2022
2066 Clouds 24 1014 73 10000 5.54 105 21:55 25.08.2022
2067 Clear 25 1014 68 10000 3.84 85 20:53 25.08.2022
2068 Clear 28 1013 52 10000 3.19 62 19:27 25.08.2022
2069 Clear 30 1013 48 10000 3.35 97 18:29 25.08.2022
2070 Clear 31 1013 45 10000 3.35 97 17:31 25.08.2022
2071 Clear 30 1014 54 10000 3.95 115 16:36 25.08.2022
2072 Clear 30 1015 56 10000 4.77 116 15:28 25.08.2022
2073 Clear 29 1015 57 10000 5.32 119 13:51 25.08.2022
2074 Clear 25 1017 65 10000 5.95 119 10:49 25.08.2022
2075 Clear 23 1018 67 10000 5.9 116 09:52 25.08.2022
2076 Clear 18 1018 71 10000 4.47 116 07:35 25.08.2022
2077 Clear 20 1019 60 10000 4.03 112 02:51 25.08.2022
2078 Clouds 22 1019 74 10000 2.83 79 23:36 24.08.2022
2079 Clouds 22 1019 73 10000 3.3 47 22:55 24.08.2022
2080 Clouds 23 1019 72 10000 4.05 25 21:55 24.08.2022
2081 Clouds 23 1019 72 10000 4.26 10 21:28 24.08.2022
2082 Clouds 26 1018 73 10000 4.7 11 19:56 24.08.2022
2083 Clouds 30 1017 42 10000 2.32 20 17:28 24.08.2022
2084 Clouds 30 1018 66 10000 0.77 26 15:54 24.08.2022
2085 Clouds 30 1018 64 10000 0.66 213 15:28 24.08.2022
2086 Clouds 28 1019 63 10000 1.41 185 12:52 24.08.2022
2087 Clouds 28 1019 63 10000 1.41 185 12:52 24.08.2022
2088 Clouds 25 1019 70 10000 0.52 177 11:21 24.08.2022
2089 Clouds 21 1018 92 10000 0.93 241 08:58 24.08.2022
2090 Clouds 16 1017 90 10000 0.49 225 06:40 24.08.2022
2091 Clouds 21 1016 87 10000 1.24 11 00:55 24.08.2022
2092 Clouds 21 1017 83 10000 2.6 355 22:49 23.08.2022
2093 Clouds 21 1017 81 10000 2.93 328 22:18 23.08.2022
2094 Clouds 23 1016 72 10000 3.13 337 20:49 23.08.2022
2095 Clouds 25 1015 62 10000 3.54 356 19:24 23.08.2022
2096 Clouds 28 1015 52 10000 3.07 339 18:18 23.08.2022
2097 Clouds 29 1015 52 10000 3.07 339 17:30 23.08.2022
2098 Clouds 30 1015 47 10000 1.29 224 16:26 23.08.2022
2099 Clouds 29 1015 49 10000 2.43 207 14:54 23.08.2022
2100 Clouds 27 1016 55 10000 3.27 164 12:46 23.08.2022
2101 Clouds 25 1016 63 10000 3.58 154 11:19 23.08.2022
2102 Clouds 23 1016 67 10000 3.58 154 10:33 23.08.2022
2103 Clouds 22 1016 71 10000 3.42 152 09:46 23.08.2022
2104 Clouds 19 1015 88 10000 3.16 145 08:47 23.08.2022
2105 Clear 18 1015 90 10000 2.7 131 08:19 23.08.2022
2106 Clouds 15 1015 91 10000 2.46 137 07:33 23.08.2022
2107 Clouds 14 1014 91 10000 2.51 128 06:25 23.08.2022
2108 Clouds 17 1014 87 10000 3.04 107 01:52 23.08.2022
2109 Clouds 18 1015 84 10000 3.46 73 00:27 23.08.2022
2110 Clouds 18 1015 82 10000 3.46 73 23:32 22.08.2022
2111 Clouds 19 1015 80 10000 4.52 56 22:29 22.08.2022
2112 Clouds 20 1015 77 10000 4.55 59 20:58 22.08.2022
2113 Clouds 22 1015 71 10000 5 47 19:47 22.08.2022
2114 Clouds 23 1015 65 10000 4.89 41 18:38 22.08.2022
2115 Clouds 24 1016 60 10000 2.71 64 16:26 22.08.2022
2116 Clouds 23 1016 65 10000 2.13 63 15:36 22.08.2022
2117 Clouds 22 1017 73 10000 1.14 88 12:57 22.08.2022
2118 Clouds 19 1017 83 10000 2.2 60 10:20 22.08.2022
2119 Clouds 15 1017 91 10000 1.14 80 07:40 22.08.2022
2120 Clouds 15 1017 89 10000 0.88 80 02:56 22.08.2022
2121 Clouds 15 1017 86 10000 1.3 41 00:37 22.08.2022
2122 Clouds 16 1017 85 10000 1.43 29 23:59 21.08.2022
2123 Clouds 18 1017 80 10000 2.63 345 21:57 21.08.2022
2124 Clouds 18 1016 78 10000 3.08 332 21:23 21.08.2022
2125 Clouds 19 1016 75 10000 3.45 322 20:27 21.08.2022
2126 Clouds 21 1016 74 10000 4.05 316 19:24 21.08.2022
2127 Clouds 22 1015 69 10000 5.36 305 16:55 21.08.2022
2128 Clouds 21 1015 65 10000 4.68 307 15:53 21.08.2022
2129 Clouds 22 1015 70 10000 4.82 300 15:20 21.08.2022
2130 Clouds 24 1015 66 10000 5.29 280 13:52 21.08.2022
2131 Clear 24 1015 64 10000 4.6 251 13:26 21.08.2022
2132 Clear 22 1015 68 10000 4.69 238 11:34 21.08.2022
2133 Clear 19 1015 82 10000 5.4 226 09:31 21.08.2022
2134 Clear 18 1015 86 10000 5.02 218 08:56 21.08.2022
2135 Clear 17 1015 89 10000 5.32 216 08:38 21.08.2022
2136 Clear 13 1015 91 10000 3.77 201 07:26 21.08.2022
2137 Clear 13 1016 89 10000 3.37 199 03:39 21.08.2022
2138 Clear 15 1017 86 10000 2.42 233 00:22 21.08.2022
2139 Clear 16 1016 82 10000 1.67 255 22:37 20.08.2022
2140 Clear 18 1017 79 10000 1.48 298 21:34 20.08.2022
2141 Clear 19 1017 75 10000 2.18 316 20:40 20.08.2022
2142 Clear 21 1016 77 10000 2.51 334 19:40 20.08.2022
2143 Clear 22 1016 68 10000 2.96 338 18:30 20.08.2022
2144 Clear 22 1016 69 10000 3.51 330 17:50 20.08.2022
2145 Clear 23 1016 68 10000 4.11 326 16:52 20.08.2022
2146 Clear 23 1016 64 10000 4.51 326 15:30 20.08.2022
2147 Clouds 22 1016 64 10000 3.9 305 13:26 20.08.2022
2148 Clouds 22 1016 63 10000 3.6 302 11:50 20.08.2022
2149 Clouds 18 1016 88 10000 3.25 311 09:37 20.08.2022
2150 Clouds 16 1016 93 10000 3.02 316 08:31 20.08.2022
2151 Clouds 16 1014 92 10000 3.1 307 05:55 20.08.2022
2152 Clouds 18 1014 91 10000 3.01 331 00:59 20.08.2022
2153 Clouds 19 1014 91 10000 3.01 331 00:35 20.08.2022
2154 Clouds 19 1013 90 10000 3.29 318 23:18 19.08.2022
2155 Rain 20 1013 88 10000 3.32 317 21:41 19.08.2022
2156 Clouds 21 1012 83 10000 2.71 324 20:20 19.08.2022
2157 Clouds 24 1012 76 10000 3.11 315 17:35 19.08.2022
2158 Clouds 25 1012 68 10000 2.23 297 15:19 19.08.2022
2159 Clouds 25 1013 62 10000 2.65 257 13:21 19.08.2022
2160 Clouds 22 1013 73 10000 2.48 251 10:53 19.08.2022
2161 Clouds 21 1013 75 10000 2.22 250 10:24 19.08.2022
2162 Clear 14 1013 92 10000 1.94 224 06:37 19.08.2022
2163 Clouds 15 1014 89 10000 1.57 358 00:57 19.08.2022
2164 Clouds 15 1014 89 10000 1.57 358 00:30 19.08.2022
2165 Clouds 15 1014 88 10000 1.85 2 23:44 18.08.2022
2166 Clouds 15 1014 86 10000 2.17 11 22:50 18.08.2022
2167 Clouds 17 1014 84 10000 2.57 0 21:57 18.08.2022
2168 Clouds 17 1014 84 10000 2.57 0 21:34 18.08.2022
2169 Clouds 19 1014 81 10000 3.22 337 20:25 18.08.2022
2170 Clouds 20 1014 80 10000 3.22 337 19:30 18.08.2022
2171 Clouds 21 1014 78 10000 4.07 339 17:50 18.08.2022
2172 Clouds 21 1014 78 10000 4.41 333 16:59 18.08.2022
2173 Clouds 21 1013 82 10000 4.95 337 14:57 18.08.2022
2174 Clouds 20 1014 86 10000 4.02 356 14:19 18.08.2022
2175 Clouds 20 1014 88 10000 4.02 356 13:34 18.08.2022
2176 Clouds 19 1014 93 10000 5.21 356 11:51 18.08.2022
2177 Clouds 19 1013 94 10000 5.5 349 09:44 18.08.2022
2178 Clouds 19 1012 94 10000 4.23 348 08:42 18.08.2022
2179 Clouds 18 1012 94 10000 2.49 8 07:24 18.08.2022
2180 Clouds 18 1011 93 10000 1.64 2 04:38 18.08.2022
2181 Clouds 18 1013 93 10000 2.85 21 23:37 17.08.2022
2182 Clouds 18 1012 92 10000 4.3 29 21:54 17.08.2022
2183 Rain 18 1011 92 10000 6.25 20 20:20 17.08.2022
2184 Rain 18 1011 90 10000 6.25 20 19:32 17.08.2022
2185 Clouds 22 1011 96 5872 4.91 351 17:39 17.08.2022
2186 Clouds 23 1010 94 3058 5.34 354 16:47 17.08.2022
2187 Clouds 24 1010 82 8896 7.11 28 15:30 17.08.2022
2188 Clouds 23 1012 82 10000 4.97 0 13:52 17.08.2022
2189 Clouds 21 1012 91 10000 3.12 24 11:45 17.08.2022
2190 Rain 21 1012 67 10000 3.4 57 10:22 17.08.2022
2191 Rain 19 1012 92 10000 1.94 24 08:25 17.08.2022
2192 Clouds 18 1011 91 10000 1.69 48 04:20 17.08.2022
2193 Clouds 18 1011 88 10000 1 349 00:40 17.08.2022
2194 Clouds 19 1010 87 10000 2.47 332 22:53 16.08.2022
2195 Clouds 22 1010 83 10000 2.23 312 20:59 16.08.2022
2196 Clouds 23 1010 79 10000 0.17 311 19:55 16.08.2022
2197 Clouds 24 1009 77 10000 2.25 358 19:22 16.08.2022
2198 Clouds 26 1009 77 10000 2.34 340 17:54 16.08.2022
2199 Clouds 28 1008 67 10000 5.05 316 16:46 16.08.2022
2200 Clouds 29 1007 63 10000 5.78 320 15:44 16.08.2022
2201 Clouds 29 1007 63 10000 5.78 320 15:44 16.08.2022
2202 Clouds 29 1007 50 10000 5.28 296 14:54 16.08.2022
2203 Clouds 29 1007 52 10000 5.28 296 14:36 16.08.2022
2204 Clouds 26 1006 62 10000 4.57 224 11:40 16.08.2022
2205 Clouds 24 1006 71 10000 4.88 209 10:20 16.08.2022
2206 Clouds 21 1006 82 10000 4.41 206 08:49 16.08.2022
2207 Clouds 20 1006 87 10000 2.58 197 08:21 16.08.2022
2208 Clouds 19 1005 89 10000 2.86 208 05:55 16.08.2022
2209 Clouds 20 1004 82 10000 2.35 154 23:56 15.08.2022
2210 Clouds 21 1005 77 10000 2.2 97 22:23 15.08.2022
2211 Clouds 21 1005 75 10000 2.2 97 21:50 15.08.2022
2212 Clouds 22 1005 69 10000 2.65 108 20:32 15.08.2022
2213 Clouds 22 1003 72 10000 3.55 338 19:22 15.08.2022
2214 Rain 23 1003 68 10000 4.78 328 17:59 15.08.2022
2215 Clouds 30 1001 55 10000 3.01 212 16:25 15.08.2022
2216 Clouds 30 1001 59 10000 3.01 212 15:52 15.08.2022
2217 Clouds 29 1002 59 10000 3.6 183 13:50 15.08.2022
2218 Clouds 26 1003 60 10000 3.51 151 11:24 15.08.2022
2219 Clouds 23 1003 70 10000 3.04 142 09:42 15.08.2022
2220 Clouds 21 1003 81 10000 2.42 121 07:44 15.08.2022
2221 Clouds 20 1004 85 10000 3.11 125 04:34 15.08.2022
2222 Clouds 22 1005 78 10000 3.77 101 00:54 15.08.2022
2223 Clouds 24 1005 70 10000 3.53 100 22:38 14.08.2022
2224 Clouds 25 1006 63 10000 3.88 86 21:37 14.08.2022
2225 Clouds 29 1005 56 10000 4.98 61 19:48 14.08.2022
2226 Clouds 30 1005 56 10000 5.05 77 18:57 14.08.2022
2227 Clouds 30 1006 55 10000 4.61 96 18:18 14.08.2022
2228 Clouds 31 1006 50 10000 4.85 107 16:53 14.08.2022
2229 Clouds 30 1007 54 10000 4.62 112 15:48 14.08.2022
2230 Clouds 29 1009 58 10000 4.25 128 14:27 14.08.2022
2231 Clouds 29 1009 58 10000 4.25 128 13:50 14.08.2022
2232 Clouds 29 1010 60 10000 4.52 128 13:20 14.08.2022
2233 Clouds 29 1010 58 10000 4.84 124 12:28 14.08.2022
2234 Clouds 27 1011 64 10000 5.11 114 10:50 14.08.2022
2235 Clouds 24 1012 69 10000 4.28 114 08:52 14.08.2022
2236 Clouds 19 1012 82 10000 3.32 108 06:22 14.08.2022
2237 Clouds 20 1014 77 10000 3.18 114 02:57 14.08.2022
2238 Clouds 22 1015 70 10000 3.69 107 00:19 14.08.2022
2239 Clouds 23 1015 62 10000 4.48 84 22:56 13.08.2022
2240 Clouds 24 1015 56 10000 5.03 72 21:43 13.08.2022
2241 Clear 26 1015 54 10000 5.5 65 20:46 13.08.2022
2242 Clear 28 1015 48 10000 4.37 68 19:45 13.08.2022
2243 Clear 30 1015 28 10000 1.6 100 17:59 13.08.2022
2244 Clear 31 1016 37 10000 2.28 127 15:40 13.08.2022
2245 Clear 30 1016 40 10000 2.97 120 14:32 13.08.2022
2246 Clear 30 1017 41 10000 3.48 112 13:46 13.08.2022
2247 Clear 29 1018 53 10000 3.45 122 11:53 13.08.2022
2248 Clear 27 1019 49 10000 3.08 127 10:31 13.08.2022
2249 Clear 24 1019 54 10000 2.43 127 09:22 13.08.2022
2250 Clear 18 1018 76 10000 2.64 131 05:59 13.08.2022
2251 Clouds 19 1019 66 10000 3.18 118 00:36 13.08.2022
2252 Clouds 21 1019 68 10000 3.78 65 22:37 12.08.2022
2253 Clouds 22 1019 61 10000 4.14 58 21:35 12.08.2022
2254 Clear 28 1018 54 10000 5.82 55 19:46 12.08.2022
2255 Clear 29 1018 54 10000 5.51 66 19:21 12.08.2022
2256 Clear 31 1018 39 10000 5.31 72 17:59 12.08.2022
2257 Clear 31 1018 53 10000 4.42 72 16:25 12.08.2022
2258 Clear 30 1019 55 10000 3.91 74 14:50 12.08.2022
2259 Clear 30 1019 50 10000 3.14 83 13:30 12.08.2022
2260 Clear 29 1020 62 10000 3.28 89 12:25 12.08.2022
2261 Clear 22 1021 70 10000 2.69 68 08:50 12.08.2022
2262 Clear 19 1021 81 10000 2.43 72 07:45 12.08.2022
2263 Clear 16 1021 84 10000 2.54 88 06:21 12.08.2022
2264 Clear 19 1022 76 10000 3.34 63 00:32 12.08.2022
2265 Clear 19 1022 75 10000 3.61 58 23:58 11.08.2022
2266 Clear 20 1022 75 10000 4.02 55 23:22 11.08.2022
2267 Clear 22 1022 67 10000 4.12 53 21:53 11.08.2022
2268 Clear 23 1021 64 10000 4.25 48 21:28 11.08.2022
2269 Clear 26 1021 56 10000 4.25 48 20:31 11.08.2022
2270 Clear 27 1021 53 10000 5.2 44 19:33 11.08.2022
2271 Clear 28 1021 52 10000 5.21 51 18:56 11.08.2022
2272 Clear 29 1021 55 10000 4.58 56 16:47 11.08.2022
2273 Clear 29 1022 51 10000 4.12 54 15:43 11.08.2022
2274 Clear 29 1022 53 10000 3.66 55 14:40 11.08.2022
2275 Clear 28 1023 50 10000 2.83 88 11:59 11.08.2022
2276 Clear 20 1024 60 10000 2.42 97 09:22 11.08.2022
2277 Clear 16 1024 91 10000 2.41 91 06:52 11.08.2022
2278 Clear 17 1025 87 10000 3.02 71 02:49 11.08.2022
2279 Clouds 17 1025 84 10000 3.66 55 23:57 10.08.2022
2280 Clouds 20 1025 76 10000 4.04 47 21:56 10.08.2022
2281 Clouds 21 1025 72 10000 4.5 42 21:19 10.08.2022
2282 Clouds 24 1025 70 10000 4.5 42 20:36 10.08.2022
2283 Clouds 25 1025 70 10000 4.57 46 18:53 10.08.2022
2284 Clouds 25 1025 70 10000 4.57 46 18:53 10.08.2022
2285 Clouds 27 1025 64 10000 3.82 48 17:28 10.08.2022
2286 Clouds 27 1026 64 10000 3.34 52 15:26 10.08.2022
2287 Clouds 26 1026 66 10000 2.44 62 13:34 10.08.2022
2288 Clouds 24 1027 65 10000 2.58 80 11:47 10.08.2022
2289 Clouds 19 1028 83 10000 2.66 77 08:44 10.08.2022
2290 Clouds 16 1028 91 10000 2.37 69 07:36 10.08.2022
2291 Clouds 14 1028 90 10000 2.18 83 05:53 10.08.2022
2292 Clouds 15 1029 86 10000 3 48 02:44 10.08.2022
2293 Clouds 15 1029 81 10000 3.25 37 23:33 09.08.2022
2294 Clouds 16 1029 79 10000 3.31 35 22:48 09.08.2022
2295 Clouds 18 1029 73 10000 3.45 32 21:34 09.08.2022
2296 Clouds 21 1028 69 10000 4.5 20 19:34 09.08.2022
2297 Clouds 23 1028 58 10000 5.24 17 18:23 09.08.2022
2298 Clouds 24 1028 55 10000 5.44 21 17:26 09.08.2022
2299 Clouds 24 1028 59 10000 5.44 21 16:40 09.08.2022
2300 Clear 24 1028 59 10000 5.42 16 15:40 09.08.2022
2301 Clear 23 1029 68 10000 3.79 30 12:25 09.08.2022
2302 Clear 19 1029 73 10000 3.49 34 09:30 09.08.2022
2303 Clear 18 1029 83 10000 3.12 36 08:33 09.08.2022
2304 Clouds 14 1028 91 10000 2.05 35 07:20 09.08.2022
2305 Clear 13 1028 88 10000 2.36 38 03:34 09.08.2022
2306 Clouds 16 1028 83 10000 3.19 28 23:27 08.08.2022
2307 Clouds 16 1028 82 10000 3.19 28 22:54 08.08.2022
2308 Clouds 17 1028 80 10000 3.42 19 21:49 08.08.2022
2309 Clouds 19 1027 77 10000 3.48 12 20:59 08.08.2022
2310 Clouds 20 1026 75 10000 4.12 7 19:50 08.08.2022
2311 Clouds 21 1026 69 10000 4.86 4 18:38 08.08.2022
2312 Clouds 22 1026 65 10000 4.48 347 16:37 08.08.2022
2313 Clouds 22 1026 70 10000 4.54 343 15:39 08.08.2022
2314 Clouds 21 1026 74 10000 3.69 331 13:50 08.08.2022
2315 Clouds 20 1026 73 10000 3 324 11:58 08.08.2022
2316 Clouds 18 1025 80 10000 1.94 297 09:43 08.08.2022
2317 Clouds 13 1025 89 10000 1.86 267 05:54 08.08.2022
2318 Clear 12 1024 88 10000 1.2 273 02:55 08.08.2022
2319 Clear 15 1024 80 10000 2.49 331 22:32 07.08.2022
2320 Clear 17 1024 75 10000 3.25 325 21:39 07.08.2022
2321 Clouds 19 1024 72 10000 3.95 318 20:26 07.08.2022
2322 Clouds 19 1024 72 10000 3.95 318 20:26 07.08.2022
2323 Clouds 19 1024 70 10000 3.95 318 19:56 07.08.2022
2324 Clouds 20 1024 70 10000 3.95 318 19:38 07.08.2022
2325 Clouds 22 1024 63 10000 5.06 324 18:23 07.08.2022
2326 Clouds 23 1024 50 10000 5.23 323 16:54 07.08.2022
2327 Clouds 23 1024 50 10000 5.23 323 16:35 07.08.2022
2328 Clouds 23 1024 57 10000 3.75 312 15:20 07.08.2022
2329 Clear 22 1025 48 10000 2.91 274 13:26 07.08.2022
2330 Clouds 21 1025 57 10000 2.84 265 11:54 07.08.2022
2331 Clear 19 1026 54 10000 2.8 268 10:34 07.08.2022
2332 Clouds 13 1026 91 10000 2.42 230 07:36 07.08.2022
2333 Clouds 12 1027 88 10000 2 217 03:20 07.08.2022
2334 Clouds 13 1027 84 10000 1.35 229 00:57 07.08.2022
2335 Clouds 13 1027 75 10000 1.91 323 22:25 06.08.2022
2336 Clear 17 1027 67 10000 2.59 325 20:46 06.08.2022
2337 Clouds 19 1027 61 10000 3.24 324 19:41 06.08.2022
2338 Clouds 20 1027 53 10000 4.04 320 18:30 06.08.2022
2339 Clouds 20 1027 51 10000 4.5 322 17:33 06.08.2022
2340 Clear 21 1027 53 10000 4.85 320 14:48 06.08.2022
2341 Clouds 21 1027 57 10000 5.11 321 13:49 06.08.2022
2342 Clouds 19 1027 59 10000 4.98 317 11:59 06.08.2022
2343 Clouds 19 1027 76 10000 4.74 318 10:33 06.08.2022
2344 Clouds 17 1027 69 10000 3.81 305 09:21 06.08.2022
2345 Clear 11 1024 83 10000 2.95 290 03:54 06.08.2022
2346 Clear 13 1023 76 10000 3.31 285 23:54 05.08.2022
2347 Clear 14 1022 73 10000 3.52 294 22:33 05.08.2022
2348 Clouds 17 1021 65 10000 5.22 307 20:20 05.08.2022
2349 Clouds 19 1020 59 10000 6.71 309 18:47 05.08.2022
2350 Clouds 19 1020 55 10000 7.56 313 18:27 05.08.2022
2351 Clouds 19 1019 67 10000 7.73 313 16:50 05.08.2022
2352 Clear 20 1018 61 10000 8.03 303 15:23 05.08.2022
2353 Clear 21 1018 57 10000 8.03 303 14:34 05.08.2022
2354 Clear 21 1016 50 10000 6.12 301 13:26 05.08.2022
2355 Clear 21 1016 58 10000 6.12 301 12:45 05.08.2022
2356 Clouds 20 1016 69 10000 3.96 307 10:59 05.08.2022
2357 Clouds 17 1015 83 10000 3.12 331 08:45 05.08.2022
2358 Clouds 16 1015 86 10000 2.83 332 07:33 05.08.2022
2359 Clouds 17 1015 86 10000 1.48 18 02:33 05.08.2022
2360 Clouds 18 1015 81 10000 3.35 0 22:43 04.08.2022
2361 Clouds 19 1014 78 10000 4.68 348 21:28 04.08.2022
2362 Clouds 20 1014 76 10000 4.68 348 20:57 04.08.2022
2363 Clouds 20 1014 74 10000 4.68 348 20:35 04.08.2022
2364 Clouds 22 1013 74 10000 6 330 18:58 04.08.2022
2365 Clouds 23 1013 74 10000 6 330 18:33 04.08.2022
2366 Clouds 26 1012 63 10000 6.2 317 15:51 04.08.2022
2367 Clouds 29 1012 63 10000 3.99 270 13:26 04.08.2022
2368 Clouds 29 1012 63 10000 3.99 270 13:26 04.08.2022
2369 Clouds 28 1012 65 10000 3.41 255 11:39 04.08.2022
2370 Clouds 27 1012 67 10000 2.9 222 10:21 04.08.2022
2371 Clouds 21 1012 91 10000 1.63 191 07:47 04.08.2022
2372 Clouds 19 1013 91 10000 3.57 138 02:50 04.08.2022
2373 Clouds 19 1014 90 10000 3.37 131 00:43 04.08.2022
2374 Clouds 20 1014 89 10000 2.87 114 23:40 03.08.2022
2375 Clouds 21 1014 85 10000 1.92 2 21:31 03.08.2022
2376 Clouds 24 1013 80 10000 2.52 326 20:21 03.08.2022
2377 Clouds 27 1013 74 10000 3.75 298 19:24 03.08.2022
2378 Clouds 29 1013 58 10000 5.14 278 16:53 03.08.2022
2379 Clouds 30 1013 56 10000 5.3 260 16:23 03.08.2022
2380 Clouds 28 1013 69 10000 5.48 239 13:53 03.08.2022
2381 Clouds 25 1014 74 10000 5.52 230 10:57 03.08.2022
2382 Clouds 20 1014 88 10000 5.32 214 07:45 03.08.2022
2383 Clouds 18 1014 88 10000 3.81 196 04:22 03.08.2022
2384 Clouds 18 1014 88 10000 3.77 197 03:24 03.08.2022
2385 Clouds 19 1014 86 10000 3.57 200 00:58 03.08.2022
2386 Clouds 20 1014 80 10000 3.09 217 22:49 02.08.2022
2387 Clouds 22 1014 73 10000 2.73 233 21:52 02.08.2022
2388 Clouds 24 1014 79 10000 2.97 249 20:37 02.08.2022
2389 Clouds 26 1014 62 10000 4.69 243 18:42 02.08.2022
2390 Clouds 25 1014 62 10000 5.02 254 15:36 02.08.2022
2391 Clouds 23 1016 57 10000 6.04 200 11:32 02.08.2022
2392 Clouds 18 1017 75 10000 4.59 183 09:18 02.08.2022
2393 Clouds 13 1017 83 10000 4.43 176 07:53 02.08.2022
2394 Clouds 10 1018 87 10000 3.42 173 06:43 02.08.2022
2395 Clouds 10 1018 88 10000 3.2 159 04:54 02.08.2022
2396 Clouds 12 1019 84 10000 1.79 83 23:38 01.08.2022
2397 Clear 13 1019 80 10000 2.14 23 22:25 01.08.2022
2398 Clear 17 1019 71 10000 2.44 9 20:52 01.08.2022
2399 Clouds 18 1019 67 10000 3.36 343 19:25 01.08.2022
2400 Clouds 19 1019 63 10000 3.36 343 18:40 01.08.2022
2401 Clouds 20 1018 60 10000 3.96 332 16:53 01.08.2022
2402 Clouds 20 1018 65 10000 4.45 333 15:52 01.08.2022
2403 Clouds 20 1018 63 10000 4.45 333 15:30 01.08.2022
2404 Clouds 19 1018 65 10000 4.62 336 14:43 01.08.2022
2405 Clouds 19 1018 69 10000 4.5 333 12:47 01.08.2022
2406 Clouds 18 1017 75 10000 4.82 344 10:22 01.08.2022
2407 Clouds 16 1017 92 10000 4.51 346 08:34 01.08.2022
2408 Clouds 15 1015 93 10000 4.6 342 06:21 01.08.2022
2409 Clouds 17 1015 94 10000 4.86 337 04:20 01.08.2022
2410 Clouds 18 1014 94 10000 4.96 320 00:49 01.08.2022
2411 Rain 18 1013 93 10000 4.16 298 22:41 31.07.2022
2412 Clouds 18 1013 93 10000 4.46 294 21:35 31.07.2022
2413 Rain 19 1012 93 10000 4.85 267 19:58 31.07.2022
2414 Clouds 19 1012 92 10000 4.99 261 18:36 31.07.2022
2415 Rain 18 1013 91 9386 4.22 195 15:54 31.07.2022
2416 Rain 19 1014 87 10000 5.28 210 13:53 31.07.2022
2417 Rain 21 1015 81 10000 4.33 213 12:29 31.07.2022
2418 Clouds 22 1015 71 10000 4.61 190 10:22 31.07.2022
2419 Clouds 19 1016 77 10000 3.46 180 08:19 31.07.2022
2420 Clouds 16 1017 79 10000 2.76 195 04:30 31.07.2022
2421 Clouds 18 1018 78 10000 1.01 134 00:23 31.07.2022
2422 Clouds 18 1019 75 10000 2.09 335 22:19 30.07.2022
2423 Clouds 18 1019 74 10000 2.09 335 21:50 30.07.2022
2424 Rain 19 1019 73 10000 2.67 314 21:20 30.07.2022
2425 Clouds 20 1018 68 10000 3.36 308 19:59 30.07.2022
2426 Clouds 21 1018 66 10000 4.31 308 19:27 30.07.2022
2427 Clouds 23 1018 62 10000 4.99 308 17:48 30.07.2022
2428 Clouds 24 1017 66 10000 4.71 309 16:21 30.07.2022
2429 Clouds 24 1017 67 10000 6 309 15:27 30.07.2022
2430 Clear 25 1017 63 10000 2 292 13:22 30.07.2022
2431 Clear 24 1017 68 10000 1.61 286 12:21 30.07.2022
2432 Clear 23 1017 66 10000 0.99 264 10:44 30.07.2022
2433 Clear 22 1017 72 10000 0.76 267 09:59 30.07.2022
2434 Clouds 20 1017 81 10000 1.06 267 08:49 30.07.2022
2435 Clouds 13 1017 91 10000 2.01 318 06:55 30.07.2022
2436 Clouds 15 1017 88 10000 2.18 65 02:33 30.07.2022
2437 Clouds 16 1017 81 10000 4.76 52 23:30 29.07.2022
2438 Clouds 19 1018 70 10000 4.4 31 21:37 29.07.2022
2439 Clouds 20 1018 70 10000 3.82 20 20:50 29.07.2022
2440 Clouds 21 1017 68 10000 4.45 24 19:45 29.07.2022
2441 Clouds 22 1016 65 10000 2.37 2 16:59 29.07.2022
2442 Clouds 23 1017 62 10000 3.47 78 14:48 29.07.2022
2443 Clouds 21 1018 70 10000 3.87 72 12:42 29.07.2022
2444 Clouds 16 1018 74 10000 4.38 69 08:52 29.07.2022
2445 Clouds 15 1018 76 10000 4.51 65 08:23 29.07.2022
2446 Clouds 14 1019 80 10000 3.45 58 05:19 29.07.2022
2447 Clouds 14 1020 76 10000 3.97 41 23:59 28.07.2022
2448 Clouds 16 1020 71 10000 4.53 34 21:41 28.07.2022
2449 Clouds 17 1020 67 10000 5.01 36 20:54 28.07.2022
2450 Clouds 18 1019 66 10000 5.49 33 20:18 28.07.2022
2451 Clouds 18 1019 63 10000 5.49 33 19:40 28.07.2022
2452 Clouds 20 1019 55 10000 5.48 38 18:20 28.07.2022
2453 Clouds 20 1019 60 10000 5.48 38 17:36 28.07.2022
2454 Clouds 20 1019 60 10000 5.43 35 16:41 28.07.2022
2455 Clouds 19 1020 61 10000 4.93 28 14:30 28.07.2022
2456 Clouds 18 1020 67 10000 3.5 28 12:41 28.07.2022
2457 Clouds 15 1021 82 10000 2.62 31 09:25 28.07.2022
2458 Clouds 12 1020 86 10000 1.11 9 05:45 28.07.2022
2459 Clouds 12 1020 86 10000 1.28 9 05:24 28.07.2022
2460 Clouds 13 1021 80 10000 2.74 346 00:29 28.07.2022
2461 Clouds 14 1021 73 10000 3.65 352 22:25 27.07.2022
2462 Clouds 16 1020 67 10000 4.66 345 20:20 27.07.2022
2463 Clouds 17 1020 65 10000 4.64 345 19:32 27.07.2022
2464 Clouds 19 1020 56 10000 6.14 330 16:34 27.07.2022
2465 Clouds 20 1020 53 10000 6.46 325 15:51 27.07.2022
2466 Clouds 19 1020 63 10000 5.97 325 14:42 27.07.2022
2467 Clouds 19 1020 65 10000 5.85 325 13:58 27.07.2022
2468 Clouds 19 1020 60 10000 5.43 321 12:19 27.07.2022
2469 Clouds 14 1019 84 10000 3.36 321 07:53 27.07.2022
2470 Clouds 12 1018 82 10000 3.46 307 05:33 27.07.2022
2471 Rain 13 1018 79 10000 3.78 311 00:28 27.07.2022
2472 Clouds 15 1018 76 10000 3.45 311 22:24 26.07.2022
2473 Clouds 15 1018 78 10000 3.99 312 21:19 26.07.2022
2474 Clouds 17 1017 70 10000 4.5 312 19:40 26.07.2022
2475 Clouds 18 1017 66 10000 5.55 312 18:41 26.07.2022
2476 Clouds 18 1017 66 10000 5.8 314 17:57 26.07.2022
2477 Clouds 19 1017 62 10000 6 318 15:50 26.07.2022
2478 Clouds 19 1017 64 10000 6.58 319 14:49 26.07.2022
2479 Clouds 19 1016 64 10000 7.03 317 12:50 26.07.2022
2480 Clouds 18 1015 72 10000 5.38 323 10:58 26.07.2022
2481 Clouds 16 1013 85 10000 5.25 333 08:43 26.07.2022
2482 Clouds 16 1012 88 10000 4.16 314 05:49 26.07.2022
2483 Clouds 18 1009 82 10000 4.89 240 00:27 26.07.2022
2484 Clouds 19 1009 78 10000 5.51 247 22:53 25.07.2022
2485 Clouds 20 1009 76 10000 6.3 253 22:22 25.07.2022
2486 Clouds 20 1009 74 10000 6.3 253 21:38 25.07.2022
2487 Clouds 21 1008 72 10000 6.87 257 20:40 25.07.2022
2488 Clouds 22 1007 68 10000 7.48 270 19:27 25.07.2022
2489 Clouds 23 1007 64 10000 7.89 268 18:18 25.07.2022
2490 Clouds 23 1007 62 10000 7.5 261 17:27 25.07.2022
2491 Clouds 23 1007 74 10000 5.79 242 14:44 25.07.2022
2492 Clouds 25 1007 65 10000 6.14 243 12:21 25.07.2022
2493 Clouds 26 1006 68 10000 4.85 240 09:50 25.07.2022
2494 Clouds 20 1010 74 10000 2.7 195 04:25 25.07.2022
2495 Clouds 21 1012 74 10000 4.57 138 23:54 24.07.2022
2496 Clouds 21 1013 74 10000 4.07 134 22:59 24.07.2022
2497 Clouds 22 1013 72 10000 3.45 121 22:29 24.07.2022
2498 Clouds 24 1013 65 10000 2.35 103 21:23 24.07.2022
2499 Clouds 25 1013 65 10000 2.34 103 20:50 24.07.2022
2500 Clouds 27 1013 58 10000 1.39 26 20:26 24.07.2022
2501 Clouds 28 1014 53 10000 1.91 283 18:46 24.07.2022
2502 Clouds 28 1015 47 10000 5.41 251 16:29 24.07.2022
2503 Clouds 28 1015 50 10000 5.41 251 15:50 24.07.2022
2504 Clouds 27 1015 53 10000 5.27 235 14:35 24.07.2022
2505 Clouds 26 1017 59 10000 6.83 232 12:54 24.07.2022
2506 Clouds 25 1017 59 10000 6.42 222 11:40 24.07.2022
2507 Clouds 24 1017 62 10000 6.32 218 11:18 24.07.2022
2508 Clouds 20 1017 75 10000 5.72 198 08:48 24.07.2022
2509 Clouds 16 1018 85 10000 4.7 185 07:52 24.07.2022
2510 Clouds 14 1018 87 10000 3.62 170 06:18 24.07.2022
2511 Clouds 14 1020 83 10000 3.14 138 01:27 24.07.2022
2512 Clouds 16 1020 79 10000 2.06 58 22:25 23.07.2022
2513 Clouds 19 1020 74 10000 1.92 14 20:31 23.07.2022
2514 Clear 20 1019 61 10000 3.53 328 18:51 23.07.2022
2515 Clear 21 1019 58 10000 4.29 322 17:41 23.07.2022
2516 Clear 20 1019 57 10000 4.9 319 17:23 23.07.2022
2517 Clear 20 1019 67 10000 5.32 314 15:32 23.07.2022
2518 Clear 20 1019 68 10000 5.34 310 14:59 23.07.2022
2519 Clouds 20 1019 68 10000 5.14 306 14:35 23.07.2022
2520 Clouds 20 1019 66 10000 4.94 309 13:39 23.07.2022
2521 Clouds 18 1019 65 10000 4.52 305 11:19 23.07.2022
2522 Clouds 18 1018 67 10000 4.27 296 10:23 23.07.2022
2523 Clouds 16 1018 81 10000 3.49 292 08:55 23.07.2022
2524 Clouds 14 1018 86 10000 2.49 274 03:40 23.07.2022
2525 Clouds 14 1018 84 10000 2.49 280 02:30 23.07.2022
2526 Clouds 15 1018 80 10000 2.1 311 23:39 22.07.2022
2527 Clouds 16 1019 77 10000 2.19 322 20:57 22.07.2022
2528 Clouds 17 1019 75 10000 2.61 321 19:47 22.07.2022
2529 Clouds 18 1019 73 10000 2.92 321 18:36 22.07.2022
2530 Clouds 18 1019 71 10000 3.13 313 17:37 22.07.2022
2531 Clouds 18 1020 72 10000 3.78 314 15:26 22.07.2022
2532 Clouds 18 1020 71 10000 4.25 303 12:23 22.07.2022
2533 Clouds 16 1020 76 10000 4.18 298 09:45 22.07.2022
2534 Clouds 16 1020 77 10000 3.79 306 09:19 22.07.2022
2535 Clouds 15 1019 81 10000 4.03 308 07:23 22.07.2022
2536 Clouds 15 1019 88 10000 4.84 320 04:18 22.07.2022
2537 Rain 16 1018 92 10000 5.5 341 22:56 21.07.2022
2538 Rain 17 1018 91 10000 5.87 348 21:37 21.07.2022
2539 Clouds 19 1016 88 10000 5.03 339 19:35 21.07.2022
2540 Clouds 21 1016 88 10000 2.66 272 18:29 21.07.2022
2541 Clouds 20 1016 89 10000 2.63 245 17:20 21.07.2022
2542 Rain 21 1016 88 10000 3.22 242 15:49 21.07.2022
2543 Clouds 21 1016 83 10000 3.66 250 14:46 21.07.2022
2544 Clouds 21 1016 89 10000 4.42 227 13:22 21.07.2022
2545 Clouds 20 1016 83 6701 4.21 213 11:48 21.07.2022
2546 Clouds 19 1016 92 10000 3.16 179 09:51 21.07.2022
2547 Clouds 19 1016 92 10000 2.34 198 08:53 21.07.2022
2548 Clouds 18 1016 92 10000 2.4 232 07:50 21.07.2022
2549 Rain 18 1016 91 5159 2.26 221 06:26 21.07.2022
2550 Clouds 19 1017 80 10000 2.92 219 02:35 21.07.2022
2551 Clouds 21 1016 85 10000 3.64 299 22:46 20.07.2022
2552 Clear 21 1016 83 10000 4.23 314 22:18 20.07.2022
2553 Clear 23 1016 77 10000 4.08 311 20:46 20.07.2022
2554 Clouds 27 1016 59 10000 4.74 298 19:46 20.07.2022
2555 Clouds 29 1016 53 10000 5.58 296 18:54 20.07.2022
2556 Clouds 29 1016 53 10000 5.58 296 18:31 20.07.2022
2557 Clear 32 1017 45 10000 6.16 287 17:25 20.07.2022
2558 Clear 31 1016 46 10000 6.64 300 15:33 20.07.2022
2559 Clear 31 1016 48 10000 5.11 285 14:49 20.07.2022
2560 Clear 31 1015 50 10000 3.7 271 12:54 20.07.2022
2561 Clear 30 1015 47 10000 4.72 227 10:59 20.07.2022
2562 Clear 21 1013 59 10000 4.07 160 06:35 20.07.2022
2563 Clear 24 1014 45 10000 4.33 131 01:47 20.07.2022
2564 Clear 23 1014 37 10000 4.63 128 00:42 20.07.2022
2565 Clear 26 1014 39 10000 4.94 113 22:37 19.07.2022
2566 Clear 27 1014 48 10000 4.62 105 22:18 19.07.2022
2567 Clear 28 1014 42 10000 4.45 100 20:50 19.07.2022
2568 Clear 31 1014 38 10000 4.15 95 19:37 19.07.2022
2569 Clear 34 1015 31 10000 3.44 108 18:42 19.07.2022
2570 Clear 36 1015 25 10000 3.35 128 17:55 19.07.2022
2571 Clear 36 1016 25 10000 3.04 154 15:49 19.07.2022
2572 Clouds 34 1017 38 10000 2.98 156 13:51 19.07.2022
2573 Clouds 31 1018 42 10000 3.02 153 11:34 19.07.2022
2574 Clouds 28 1019 42 10000 2.71 149 09:54 19.07.2022
2575 Clouds 24 1019 62 10000 2.45 154 08:48 19.07.2022
2576 Clouds 23 1019 63 10000 2.28 147 08:21 19.07.2022
2577 Clouds 19 1019 70 10000 2.76 145 07:18 19.07.2022
2578 Clouds 17 1019 79 10000 2.5 141 05:23 19.07.2022
2579 Clouds 17 1019 81 10000 2.5 141 04:41 19.07.2022
2580 Clear 18 1019 74 10000 2.31 108 00:31 19.07.2022
2581 Clouds 19 1020 80 10000 1.71 62 23:21 18.07.2022
2582 Clouds 20 1020 77 10000 1.71 62 22:55 18.07.2022
2583 Clouds 22 1020 58 10000 1.5 46 21:50 18.07.2022
2584 Clouds 24 1019 54 10000 1.21 29 20:50 18.07.2022
2585 Clouds 28 1019 51 10000 0.14 103 19:24 18.07.2022
2586 Clouds 30 1020 34 10000 1.61 239 16:52 18.07.2022
2587 Clouds 28 1021 34 10000 2.37 245 15:42 18.07.2022
2588 Clouds 28 1022 41 10000 3.21 230 13:45 18.07.2022
2589 Clouds 26 1022 47 10000 3.33 220 12:38 18.07.2022
2590 Clouds 24 1023 55 10000 3.72 200 10:37 18.07.2022
2591 Clouds 19 1023 71 10000 3.46 182 08:50 18.07.2022
2592 Clouds 15 1023 79 10000 3.36 171 06:58 18.07.2022
2593 Clouds 16 1025 81 10000 2.52 157 00:36 18.07.2022
2594 Clouds 16 1025 73 10000 1.8 149 22:34 17.07.2022
2595 Clouds 17 1026 71 10000 1.12 106 21:47 17.07.2022
2596 Clouds 19 1026 68 10000 1.23 26 21:18 17.07.2022
2597 Clouds 22 1026 68 10000 1.23 26 20:37 17.07.2022
2598 Clouds 22 1025 57 10000 1.79 10 19:29 17.07.2022
2599 Clouds 23 1026 55 10000 2.64 339 18:27 17.07.2022
2600 Clouds 23 1026 55 10000 2.64 339 17:38 17.07.2022
2601 Clouds 23 1026 53 10000 3.11 327 16:51 17.07.2022
2602 Clouds 23 1026 53 10000 3.11 327 16:51 17.07.2022
2603 Clouds 23 1027 51 10000 3.4 314 16:26 17.07.2022
2604 Clouds 22 1027 59 10000 3.29 306 14:44 17.07.2022
2605 Clouds 21 1027 61 10000 3.18 296 13:31 17.07.2022
2606 Clouds 20 1027 64 10000 2.96 297 11:41 17.07.2022
2607 Clouds 16 1027 77 10000 2.68 285 09:24 17.07.2022
2608 Clouds 10 1027 87 10000 2.52 264 05:25 17.07.2022
2609 Clouds 11 1027 83 10000 1.98 278 02:32 17.07.2022
2610 Clouds 12 1026 76 10000 2.83 308 23:20 16.07.2022
2611 Clouds 15 1026 73 10000 3.07 311 21:32 16.07.2022
2612 Clouds 17 1026 65 10000 4.38 322 19:40 16.07.2022
2613 Clouds 18 1025 56 10000 5.82 322 18:35 16.07.2022
2614 Clouds 19 1025 55 10000 6.23 321 16:53 16.07.2022
2615 Clouds 19 1024 61 10000 6.65 319 14:31 16.07.2022
2616 Clouds 17 1023 64 10000 6.92 323 11:38 16.07.2022
2617 Clear 17 1022 67 10000 7.29 327 09:35 16.07.2022
2618 Clear 16 1021 71 10000 6.99 329 08:48 16.07.2022
2619 Clouds 16 1021 71 10000 6.06 329 08:29 16.07.2022
2620 Clouds 14 1019 90 10000 4.78 314 04:28 16.07.2022
2621 Clouds 15 1019 89 10000 5.13 302 03:29 16.07.2022
2622 Rain 15 1019 84 10000 4.96 255 23:38 15.07.2022
2623 Clouds 16 1019 75 10000 5.09 261 22:43 15.07.2022
2624 Clouds 17 1020 76 10000 4.6 286 21:29 15.07.2022
2625 Clouds 17 1020 77 10000 4.6 286 20:31 15.07.2022
2626 Clouds 18 1019 68 10000 6.92 283 18:44 15.07.2022
2627 Clouds 19 1020 71 10000 6 282 17:48 15.07.2022
2628 Clouds 17 1021 75 10000 5.6 300 14:57 15.07.2022
2629 Clouds 18 1021 66 10000 5.27 297 13:22 15.07.2022
2630 Clouds 17 1022 67 10000 5.37 297 11:48 15.07.2022
2631 Clouds 17 1022 72 10000 5.57 306 10:42 15.07.2022
2632 Clouds 14 1021 83 10000 5.18 310 07:43 15.07.2022
2633 Clouds 13 1020 81 10000 5.53 312 02:39 15.07.2022
2634 Clear 12 1021 81 10000 4.28 305 00:38 15.07.2022
2635 Clear 14 1020 78 10000 4.08 318 22:54 14.07.2022
2636 Clear 15 1020 80 10000 4.18 321 21:57 14.07.2022
2637 Clear 15 1020 79 10000 4.18 321 21:32 14.07.2022
2638 Clear 16 1020 76 10000 4.66 328 20:57 14.07.2022
2639 Clear 16 1020 75 10000 4.66 328 20:37 14.07.2022
2640 Clouds 17 1020 75 10000 5.66 323 20:18 14.07.2022
2641 Clouds 19 1019 64 10000 7.14 308 16:42 14.07.2022
2642 Clouds 20 1019 63 10000 7.58 306 16:18 14.07.2022
2643 Clouds 19 1019 63 10000 7.52 299 14:44 14.07.2022
2644 Clouds 19 1019 63 10000 7.52 299 14:44 14.07.2022
2645 Clouds 19 1019 69 10000 5.95 297 13:39 14.07.2022
2646 Clouds 19 1019 65 10000 4.93 292 12:23 14.07.2022
2647 Clouds 19 1019 68 10000 3.96 290 11:26 14.07.2022
2648 Clouds 19 1019 66 10000 3.96 290 10:51 14.07.2022
2649 Clear 17 1020 71 10000 3.13 281 08:45 14.07.2022
2650 Clouds 12 1020 87 10000 1.62 297 04:18 14.07.2022
2651 Clouds 12 1021 83 10000 2.68 330 01:18 14.07.2022
2652 Clouds 13 1021 82 10000 2.68 330 00:50 14.07.2022
2653 Clouds 15 1021 78 10000 3.1 334 22:30 13.07.2022
2654 Clouds 16 1021 75 10000 3.31 336 21:38 13.07.2022
2655 Clouds 18 1021 72 10000 4.01 337 20:38 13.07.2022
2656 Clouds 21 1020 65 10000 6.29 319 18:26 13.07.2022
2657 Clouds 22 1020 65 10000 6.29 319 17:31 13.07.2022
2658 Clear 23 1019 64 10000 6.4 316 16:19 13.07.2022
2659 Clouds 26 1019 62 10000 7.05 309 13:57 13.07.2022
2660 Clouds 26 1018 56 10000 6.58 297 11:36 13.07.2022
2661 Clouds 25 1017 70 10000 5.59 293 10:44 13.07.2022
2662 Clouds 23 1017 75 10000 4.94 277 09:49 13.07.2022
2663 Clouds 22 1017 77 10000 4.23 248 09:20 13.07.2022
2664 Clouds 19 1018 80 10000 3.32 199 05:22 13.07.2022
2665 Clouds 19 1021 80 10000 2.99 224 01:21 13.07.2022
2666 Clouds 20 1021 77 10000 3.13 171 23:21 12.07.2022
2667 Clouds 22 1022 74 10000 1.99 177 21:49 12.07.2022
2668 Clouds 23 1022 69 10000 0.9 282 20:57 12.07.2022
2669 Clouds 23 1022 68 10000 0.9 282 20:37 12.07.2022
2670 Clouds 25 1022 60 10000 2.58 302 18:53 12.07.2022
2671 Clouds 25 1023 58 10000 2.8 285 17:32 12.07.2022
2672 Clouds 26 1023 55 10000 3.69 242 15:42 12.07.2022
2673 Clouds 24 1024 70 10000 3.3 229 13:55 12.07.2022
2674 Clouds 22 1024 76 10000 3.28 220 11:59 12.07.2022
2675 Clouds 20 1024 79 10000 2.99 209 10:51 12.07.2022
2676 Clouds 16 1025 91 10000 2.6 194 09:22 12.07.2022
2677 Clouds 15 1025 91 10000 2.12 195 08:18 12.07.2022
2678 Clouds 14 1024 90 10000 1.96 199 06:24 12.07.2022
2679 Clouds 14 1024 90 10000 1.96 199 05:39 12.07.2022
2680 Clouds 15 1024 89 10000 1.01 215 01:57 12.07.2022
2681 Clouds 15 1024 89 10000 1.01 215 01:57 12.07.2022
2682 Clouds 16 1024 88 10000 1.22 7 23:18 11.07.2022
2683 Clouds 16 1024 87 10000 2.06 352 22:30 11.07.2022
2684 Clouds 17 1024 85 10000 2.72 342 20:33 11.07.2022
2685 Clouds 17 1024 84 10000 3.68 337 19:36 11.07.2022
2686 Clouds 18 1024 82 10000 4.27 332 18:32 11.07.2022
2687 Clouds 19 1023 81 10000 4.47 332 17:46 11.07.2022
2688 Clouds 18 1023 81 10000 4.63 328 16:19 11.07.2022
2689 Clouds 18 1024 80 10000 4.98 328 14:38 11.07.2022
2690 Clouds 17 1023 85 10000 4.99 332 11:58 11.07.2022
2691 Clouds 17 1023 87 10000 4.92 337 10:35 11.07.2022
2692 Clouds 16 1023 89 10000 5 335 09:43 11.07.2022
2693 Clouds 16 1023 92 10000 5.06 333 08:34 11.07.2022
2694 Clouds 15 1022 92 10000 4.64 329 06:44 11.07.2022
2695 Clouds 15 1023 88 10000 3.13 318 00:22 11.07.2022
2696 Clouds 15 1023 87 10000 3.14 317 23:28 10.07.2022
2697 Clouds 16 1023 84 10000 3.33 324 21:55 10.07.2022
2698 Clouds 16 1023 83 10000 3.83 320 20:54 10.07.2022
2699 Clouds 16 1023 80 10000 4.27 317 19:50 10.07.2022
2700 Clouds 16 1023 79 10000 4.74 320 18:53 10.07.2022
2701 Clouds 16 1023 83 10000 5.75 320 17:41 10.07.2022
2702 Clouds 16 1023 85 10000 5.7 317 16:58 10.07.2022
2703 Clouds 16 1024 87 10000 6.3 318 16:20 10.07.2022
2704 Clouds 17 1024 88 10000 6.71 317 14:33 10.07.2022
2705 Rain 16 1024 85 10000 6.38 322 12:38 10.07.2022
2706 Clouds 16 1024 79 10000 6.11 324 11:34 10.07.2022
2707 Rain 16 1024 78 10000 6.62 324 09:28 10.07.2022
2708 Clouds 15 1024 81 10000 6.63 324 08:38 10.07.2022
2709 Clouds 14 1024 78 10000 6.97 323 06:32 10.07.2022
2710 Clouds 14 1025 78 10000 6.32 318 23:35 09.07.2022
2711 Clouds 15 1025 76 10000 6.76 325 22:26 09.07.2022
2712 Clouds 15 1025 73 10000 6.76 325 21:40 09.07.2022
2713 Clouds 16 1025 71 10000 7.19 325 19:37 09.07.2022
2714 Clouds 17 1025 71 10000 8.2 322 18:25 09.07.2022
2715 Clouds 18 1025 71 10000 8.16 324 17:21 09.07.2022
2716 Clouds 19 1026 66 10000 8.41 327 15:58 09.07.2022
2717 Clouds 19 1026 64 10000 8.41 327 15:38 09.07.2022
2718 Clouds 19 1025 67 10000 7.86 330 14:21 09.07.2022
2719 Clouds 19 1025 69 10000 7.86 330 13:47 09.07.2022
2720 Clouds 19 1025 76 10000 7.41 338 11:45 09.07.2022
2721 Clouds 19 1024 81 10000 6.01 302 10:26 09.07.2022
2722 Clouds 18 1024 86 10000 6.01 302 09:38 09.07.2022
2723 Clouds 16 1025 91 10000 4.75 277 07:44 09.07.2022
2724 Clouds 15 1025 91 10000 4.04 274 04:41 09.07.2022
2725 Clouds 15 1027 87 10000 2.98 291 23:43 08.07.2022
2726 Clouds 16 1028 86 10000 3.04 303 22:33 08.07.2022
2727 Clouds 17 1028 82 10000 3.82 315 21:27 08.07.2022
2728 Clouds 18 1028 79 10000 3.82 315 20:38 08.07.2022
2729 Clouds 20 1028 77 10000 4.83 316 19:38 08.07.2022
2730 Clouds 21 1028 69 10000 5.87 310 17:50 08.07.2022
2731 Clouds 21 1028 75 10000 6.25 310 16:33 08.07.2022
2732 Clouds 21 1028 74 10000 6.49 303 14:50 08.07.2022
2733 Clouds 19 1029 75 10000 5.85 294 12:42 08.07.2022
2734 Clouds 17 1029 79 10000 5.16 301 11:24 08.07.2022
2735 Clouds 17 1029 81 10000 4.9 306 10:21 08.07.2022
2736 Clouds 16 1028 84 10000 5.53 318 08:24 08.07.2022
2737 Clouds 14 1028 87 10000 4.46 308 06:47 08.07.2022
2738 Clear 14 1027 77 10000 5.49 328 01:19 08.07.2022
2739 Clear 15 1026 74 10000 6.43 332 22:57 07.07.2022
2740 Clear 15 1026 77 10000 6.98 332 21:57 07.07.2022
2741 Clouds 15 1024 74 10000 8.12 331 19:47 07.07.2022
2742 Clouds 16 1024 75 10000 8.68 329 18:18 07.07.2022
2743 Clouds 17 1023 73 10000 8.59 330 16:43 07.07.2022
2744 Clouds 17 1021 75 10000 9.67 333 14:32 07.07.2022
2745 Clouds 16 1020 81 10000 9.6 337 12:53 07.07.2022
2746 Clouds 16 1019 84 10000 8.92 340 12:23 07.07.2022
2747 Clouds 17 1019 86 10000 8.92 340 11:35 07.07.2022
2748 Clouds 16 1018 86 10000 8.21 330 10:47 07.07.2022
2749 Clouds 16 1017 84 10000 7.97 325 10:29 07.07.2022
2750 Clouds 16 1017 83 10000 7.97 325 09:52 07.07.2022
2751 Rain 15 1015 93 10000 8.97 299 06:32 07.07.2022
2752 Clouds 16 1017 92 10000 7.46 251 00:32 07.07.2022
2753 Clouds 15 1017 92 10000 6.68 239 23:36 06.07.2022
2754 Clouds 15 1018 92 10000 6.64 245 23:18 06.07.2022
2755 Rain 15 1018 92 10000 6.64 245 22:52 06.07.2022
2756 Rain 15 1018 92 10000 6.64 245 22:34 06.07.2022
2757 Rain 15 1019 89 10000 6.11 254 20:33 06.07.2022
2758 Rain 16 1020 85 10000 6.06 251 19:33 06.07.2022
2759 Clouds 18 1021 68 10000 6.58 270 17:22 06.07.2022
2760 Clouds 18 1021 68 10000 6.58 270 17:22 06.07.2022
2761 Clouds 20 1022 60 10000 5.76 279 15:58 06.07.2022
2762 Clouds 19 1024 62 10000 5.8 282 13:21 06.07.2022
2763 Clouds 18 1024 67 10000 5.8 282 12:30 06.07.2022
2764 Clouds 18 1024 67 10000 5.8 282 12:30 06.07.2022
2765 Clouds 17 1024 65 10000 5.42 284 11:44 06.07.2022
2766 Clouds 16 1024 71 10000 5.36 294 10:18 06.07.2022
2767 Clouds 14 1023 83 10000 4.42 291 07:44 06.07.2022
2768 Clouds 13 1023 83 10000 3.68 283 07:19 06.07.2022
2769 Clouds 13 1023 85 10000 3.46 299 01:20 06.07.2022
2770 Clouds 14 1023 81 10000 3.6 303 22:44 05.07.2022
2771 Clouds 16 1022 74 10000 4.07 293 21:32 05.07.2022
2772 Clouds 16 1022 74 10000 4.07 293 21:32 05.07.2022
2773 Clouds 17 1022 71 10000 5.26 290 20:38 05.07.2022
2774 Clouds 17 1022 67 10000 5.55 295 19:41 05.07.2022
2775 Clouds 18 1021 63 10000 6.68 292 18:26 05.07.2022
2776 Clouds 18 1021 65 10000 6.68 292 17:41 05.07.2022
2777 Clouds 19 1021 61 10000 7.1 290 16:39 05.07.2022
2778 Clouds 19 1021 66 10000 7.3 292 15:24 05.07.2022
2779 Clouds 19 1021 71 10000 6.24 281 13:47 05.07.2022
2780 Clouds 19 1021 66 10000 5.87 279 12:42 05.07.2022
2781 Clouds 19 1021 65 10000 6.04 267 10:46 05.07.2022
2782 Clouds 18 1021 66 10000 5.96 260 10:25 05.07.2022
2783 Clouds 16 1020 77 10000 4.27 234 08:25 05.07.2022
2784 Clouds 15 1020 81 10000 4.84 236 07:31 05.07.2022
2785 Clouds 12 1020 87 10000 3.9 235 04:46 05.07.2022
2786 Clouds 12 1020 87 10000 3.83 241 04:20 05.07.2022
2787 Clouds 15 1019 79 10000 3.78 250 23:42 04.07.2022
2788 Clouds 15 1019 76 10000 3.54 255 22:59 04.07.2022
2789 Clear 15 1019 75 10000 3.55 268 22:20 04.07.2022
2790 Clear 17 1019 71 10000 4.31 279 21:20 04.07.2022
2791 Clear 17 1019 75 10000 4.31 279 20:51 04.07.2022
2792 Clear 18 1019 75 10000 4.31 279 20:33 04.07.2022
2793 Clouds 19 1019 60 10000 5.04 288 19:51 04.07.2022
2794 Clouds 19 1019 60 10000 5.04 288 19:33 04.07.2022
2795 Clouds 21 1019 60 10000 7.01 280 17:42 04.07.2022
2796 Clouds 21 1019 58 10000 7.13 281 15:44 04.07.2022
2797 Clouds 22 1018 55 10000 6.81 278 14:42 04.07.2022
2798 Clouds 21 1019 61 10000 6 270 13:27 04.07.2022
2799 Clouds 19 1019 65 10000 5.36 257 12:20 04.07.2022
2800 Clouds 18 1019 78 10000 6.31 254 10:33 04.07.2022
2801 Clouds 19 1019 75 10000 5.84 238 09:40 04.07.2022
2802 Clouds 13 1018 91 10000 3.62 220 06:53 04.07.2022
2803 Clear 12 1018 89 10000 3.76 250 03:35 04.07.2022
2804 Clouds 13 1018 87 10000 3.25 268 00:30 04.07.2022
2805 Clouds 15 1018 85 10000 3.28 287 22:58 03.07.2022
2806 Clouds 17 1017 86 10000 3.06 293 20:51 03.07.2022
2807 Clouds 17 1017 85 10000 3.58 312 20:25 03.07.2022
2808 Clouds 17 1017 85 10000 4.4 315 19:26 03.07.2022
2809 Clouds 17 1017 87 10000 4.4 315 18:32 03.07.2022
2810 Rain 17 1017 88 10000 4.7 298 17:43 03.07.2022
2811 Clouds 21 1017 75 10000 4.87 284 15:49 03.07.2022
2812 Clouds 22 1017 73 10000 4.92 269 14:58 03.07.2022
2813 Clouds 24 1017 59 10000 4.64 254 13:59 03.07.2022
2814 Clouds 23 1017 56 10000 3.91 245 13:33 03.07.2022
2815 Clouds 24 1017 55 10000 4.68 249 12:32 03.07.2022
2816 Clouds 22 1017 63 10000 3.93 239 11:20 03.07.2022
2817 Clouds 21 1017 66 10000 3.93 239 10:38 03.07.2022
2818 Clouds 21 1017 68 10000 3.38 248 09:31 03.07.2022
2819 Clouds 16 1017 83 10000 3.29 247 07:34 03.07.2022
2820 Clouds 17 1017 76 10000 2.41 155 01:42 03.07.2022
2821 Clouds 17 1018 77 10000 2.5 97 00:20 03.07.2022
2822 Rain 17 1018 74 10000 2.96 74 22:33 02.07.2022
2823 Clouds 19 1018 69 10000 3.66 40 20:50 02.07.2022
2824 Clouds 23 1019 68 10000 3.18 26 19:52 02.07.2022
2825 Clouds 23 1019 68 10000 3.96 16 19:20 02.07.2022
2826 Clouds 23 1019 60 10000 3.05 349 17:41 02.07.2022
2827 Clouds 24 1020 55 10000 2.49 299 16:53 02.07.2022
2828 Clouds 22 1020 50 10000 4.55 237 14:31 02.07.2022
2829 Clouds 21 1021 51 10000 6.53 225 12:21 02.07.2022
2830 Clear 20 1022 58 10000 6.75 222 11:26 02.07.2022
2831 Clear 20 1022 58 10000 6.75 222 10:39 02.07.2022
2832 Clear 18 1021 71 10000 6.36 217 09:18 02.07.2022
2833 Clear 17 1021 76 10000 5.73 206 08:20 02.07.2022
2834 Clear 15 1021 81 10000 4.76 204 07:27 02.07.2022
2835 Clear 12 1021 85 10000 3.52 204 01:53 02.07.2022
2836 Clear 13 1020 80 10000 2.9 225 23:59 01.07.2022
2837 Clear 15 1020 84 10000 3 236 22:41 01.07.2022
2838 Clear 17 1019 81 10000 3.41 237 21:48 01.07.2022
2839 Clear 18 1018 68 10000 3.61 242 21:28 01.07.2022
2840 Clear 18 1018 75 10000 3.61 242 20:43 01.07.2022
2841 Clouds 20 1018 62 10000 4.45 263 19:47 01.07.2022
2842 Clouds 20 1017 60 10000 5.85 263 17:53 01.07.2022
2843 Clouds 20 1017 63 10000 5.56 261 16:22 01.07.2022
2844 Clouds 20 1016 69 10000 5.83 252 13:55 01.07.2022
2845 Clouds 19 1016 70 10000 5.05 238 12:55 01.07.2022
2846 Clouds 16 1015 83 10000 5.8 242 10:20 01.07.2022
2847 Clouds 16 1015 85 10000 5.8 242 09:47 01.07.2022
2848 Clouds 14 1013 91 10000 5.29 252 05:27 01.07.2022
2849 Clouds 16 1011 91 6233 4.89 279 01:27 01.07.2022
2850 Rain 18 1010 89 5708 6.67 287 23:26 30.06.2022
2851 Rain 19 1010 86 5708 6.67 287 22:44 30.06.2022
2852 Rain 20 1010 85 5206 4.01 271 22:26 30.06.2022
2853 Clouds 23 1010 94 5206 4.01 271 21:48 30.06.2022
2854 Clouds 25 1008 85 10000 1.69 7 20:30 30.06.2022
2855 Clouds 25 1008 75 10000 3.09 49 19:55 30.06.2022
2856 Clouds 26 1008 75 10000 3.09 49 19:32 30.06.2022
2857 Clouds 26 1009 65 10000 2.42 50 18:43 30.06.2022
2858 Rain 27 1009 70 10000 2.03 105 17:49 30.06.2022
2859 Rain 27 1010 65 10000 2.33 113 16:55 30.06.2022
2860 Clear 27 1010 64 10000 2.11 114 15:50 30.06.2022
2861 Clouds 27 1011 55 10000 2.36 142 13:50 30.06.2022
2862 Clouds 27 1012 61 10000 3.42 130 12:36 30.06.2022
2863 Clouds 26 1012 64 10000 4.25 125 11:59 30.06.2022
2864 Clouds 24 1012 70 10000 4.66 119 09:55 30.06.2022
2865 Clouds 23 1012 70 10000 4.66 119 09:37 30.06.2022
2866 Clouds 20 1012 69 10000 4.48 116 08:22 30.06.2022
2867 Clouds 20 1012 68 10000 4.35 119 07:40 30.06.2022
2868 Clouds 19 1013 70 10000 5.07 121 03:35 30.06.2022
2869 Clouds 19 1013 74 10000 2.72 113 23:38 29.06.2022
2870 Clouds 21 1013 73 10000 2.71 108 22:41 29.06.2022
2871 Clouds 21 1013 73 10000 2.88 110 21:59 29.06.2022
2872 Clouds 24 1013 76 10000 2.09 128 20:35 29.06.2022
2873 Clouds 25 1013 73 10000 1.85 151 19:56 29.06.2022
2874 Clouds 26 1013 68 10000 1.3 250 17:55 29.06.2022
2875 Clouds 26 1013 68 10000 1.3 250 17:55 29.06.2022
2876 Clouds 26 1013 68 10000 1.3 250 17:32 29.06.2022
2877 Clouds 27 1013 60 10000 2.43 144 16:23 29.06.2022
2878 Clear 27 1014 49 10000 4.42 133 13:45 29.06.2022
2879 Clear 26 1015 51 10000 4.37 130 12:38 29.06.2022
2880 Clear 22 1016 58 10000 4.52 120 09:50 29.06.2022
2881 Clear 22 1016 63 10000 4.33 119 09:26 29.06.2022
2882 Clear 15 1017 78 10000 3.33 116 06:32 29.06.2022
2883 Clear 14 1017 85 10000 3.56 111 04:44 29.06.2022
2884 Clear 15 1019 80 10000 3.7 92 00:53 29.06.2022
2885 Clear 15 1019 80 10000 3.7 92 00:34 29.06.2022
2886 Clear 15 1019 84 10000 3.41 57 22:52 28.06.2022
2887 Clouds 17 1020 81 10000 3.37 42 22:18 28.06.2022
2888 Clouds 18 1020 81 10000 3.37 42 21:49 28.06.2022
2889 Clouds 18 1019 74 10000 3.13 32 21:29 28.06.2022
2890 Clouds 22 1020 67 10000 2.49 26 19:56 28.06.2022
2891 Clouds 22 1019 69 10000 3.42 22 19:31 28.06.2022
2892 Clouds 22 1019 60 10000 2.16 20 18:40 28.06.2022
2893 Clouds 22 1020 51 10000 1.04 234 17:25 28.06.2022
2894 Clouds 23 1020 55 10000 1.84 236 15:55 28.06.2022
2895 Clouds 22 1020 58 10000 2.34 224 14:54 28.06.2022
2896 Clear 22 1020 61 10000 2.72 222 14:19 28.06.2022
2897 Clear 22 1020 65 10000 2.63 220 13:45 28.06.2022
2898 Clear 20 1020 62 10000 2.84 235 12:35 28.06.2022
2899 Clear 19 1021 73 10000 4.32 244 10:40 28.06.2022
2900 Clear 17 1021 87 10000 4.67 221 08:56 28.06.2022
2901 Clear 16 1021 91 10000 4.67 221 08:38 28.06.2022
2902 Clear 13 1020 93 10000 3.72 213 07:20 28.06.2022
2903 Clear 12 1020 92 10000 3.42 212 04:54 28.06.2022
2904 Clouds 15 1020 91 10000 3.52 238 23:56 27.06.2022
2905 Clouds 15 1019 91 10000 3.09 246 23:28 27.06.2022
2906 Clouds 15 1019 90 10000 3.09 246 22:42 27.06.2022
2907 Clouds 16 1019 90 10000 2.66 265 21:30 27.06.2022
2908 Clouds 16 1018 89 10000 3.07 275 20:34 27.06.2022
2909 Clouds 18 1017 84 10000 2.9 299 18:55 27.06.2022
2910 Clouds 17 1017 88 10000 1.88 308 17:45 27.06.2022
2911 Rain 17 1016 86 10000 1.53 350 15:51 27.06.2022
2912 Rain 17 1016 88 10000 1.85 42 14:26 27.06.2022
2913 Rain 17 1016 89 10000 0.39 62 13:24 27.06.2022
2914 Rain 17 1016 89 10000 0.39 62 12:49 27.06.2022
2915 Rain 17 1015 90 10000 1.82 18 10:22 27.06.2022
2916 Clouds 16 1015 91 10000 2.78 6 08:43 27.06.2022
2917 Clouds 16 1015 91 10000 2.75 23 07:58 27.06.2022
2918 Rain 16 1015 90 10000 2.35 29 06:38 27.06.2022
2919 Clouds 17 1016 84 10000 2.31 62 01:54 27.06.2022
2920 Clouds 18 1016 81 10000 2.14 58 23:39 26.06.2022
2921 Clouds 19 1016 74 10000 4.78 63 21:57 26.06.2022
2922 Rain 19 1016 79 10000 3.51 44 20:34 26.06.2022
2923 Clouds 20 1016 69 10000 2.66 4 19:23 26.06.2022
2924 Clouds 21 1016 69 10000 2.36 331 18:24 26.06.2022
2925 Clouds 22 1016 64 10000 2.85 281 16:21 26.06.2022
2926 Clouds 23 1016 61 10000 2.9 262 14:34 26.06.2022
2927 Clouds 22 1016 67 10000 3.79 252 13:30 26.06.2022
2928 Clouds 22 1016 67 10000 3.79 252 13:30 26.06.2022
2929 Clouds 22 1016 68 10000 4.4 248 12:52 26.06.2022
2930 Clouds 21 1015 73 10000 5.15 254 11:26 26.06.2022
2931 Clouds 20 1014 82 10000 5.92 245 10:23 26.06.2022
2932 Clouds 18 1014 87 10000 4.25 241 08:46 26.06.2022
2933 Clouds 18 1013 86 10000 4.16 242 07:30 26.06.2022
2934 Clouds 19 1012 83 10000 2.25 117 00:49 26.06.2022
2935 Clouds 19 1012 83 10000 2.83 89 00:20 26.06.2022
2936 Clouds 19 1012 84 10000 2.83 89 23:41 25.06.2022
2937 Clouds 19 1012 86 10000 2.88 74 22:55 25.06.2022
2938 Clouds 20 1012 86 10000 2.75 41 22:27 25.06.2022
2939 Clouds 20 1012 85 10000 2.75 41 21:40 25.06.2022
2940 Clouds 20 1012 85 10000 2.77 0 21:18 25.06.2022
2941 Clouds 21 1012 80 10000 2.88 337 20:27 25.06.2022
2942 Clouds 22 1011 79 10000 2.11 3 19:21 25.06.2022
2943 Clouds 23 1011 71 10000 1.49 312 17:56 25.06.2022
2944 Clouds 23 1012 79 10000 1.69 297 17:22 25.06.2022
2945 Clouds 25 1011 67 10000 3.87 255 15:26 25.06.2022
2946 Clouds 24 1011 65 10000 4.01 215 13:27 25.06.2022
2947 Clouds 24 1011 65 10000 4.01 215 12:37 25.06.2022
2948 Clouds 23 1011 72 10000 4.87 221 10:34 25.06.2022
2949 Clouds 21 1011 79 10000 4.75 213 08:58 25.06.2022
2950 Clouds 20 1011 82 10000 4.75 213 08:36 25.06.2022
2951 Clouds 18 1011 92 10000 4.17 197 07:54 25.06.2022
2952 Clouds 17 1009 90 10000 2.8 160 03:33 25.06.2022
2953 Clouds 18 1008 87 10000 3.34 131 00:35 25.06.2022
2954 Clouds 18 1008 90 10000 1.99 94 22:54 24.06.2022
2955 Clouds 19 1008 90 10000 1.81 49 21:41 24.06.2022
2956 Clouds 21 1007 83 10000 2.15 4 20:45 24.06.2022
2957 Clouds 21 1006 82 10000 2.32 348 20:18 24.06.2022
2958 Clouds 22 1006 76 10000 2.27 314 19:21 24.06.2022
2959 Clouds 22 1006 77 10000 2.27 314 18:48 24.06.2022
2960 Clouds 22 1006 78 10000 2.27 314 18:30 24.06.2022
2961 Clouds 20 1006 89 10000 2.99 306 17:20 24.06.2022
2962 Rain 18 1006 91 8667 2.09 233 15:29 24.06.2022
2963 Rain 19 1006 90 10000 2.85 242 14:27 24.06.2022
2964 Rain 20 1006 89 7459 3.58 224 13:55 24.06.2022
2965 Rain 20 1006 89 7459 3.58 224 13:55 24.06.2022
2966 Clouds 21 1006 87 10000 3.21 226 11:44 24.06.2022
2967 Clouds 21 1005 88 10000 4.47 245 11:18 24.06.2022
2968 Clouds 20 1005 88 10000 4.04 235 09:55 24.06.2022
2969 Rain 19 1005 87 10000 3.35 201 09:29 24.06.2022
2970 Rain 19 1005 81 10000 3.35 201 08:52 24.06.2022
2971 Clouds 19 1006 78 10000 3.19 145 06:48 24.06.2022
2972 Clouds 19 1006 78 10000 3.19 145 06:30 24.06.2022
2973 Clouds 18 1006 66 10000 3.61 116 05:52 24.06.2022
2974 Clear 20 1009 59 10000 4.15 118 01:28 24.06.2022
2975 Clear 22 1009 60 10000 4.62 105 22:45 23.06.2022
2976 Clear 22 1009 65 10000 4.52 99 22:18 23.06.2022
2977 Clear 28 1009 68 10000 4.4 86 20:56 23.06.2022
2978 Clear 27 1009 64 10000 4.21 84 20:32 23.06.2022
2979 Clear 29 1010 58 10000 4.63 104 18:59 23.06.2022
2980 Clear 31 1010 54 10000 4.8 103 17:50 23.06.2022
2981 Clear 31 1010 47 10000 4.37 111 16:50 23.06.2022
2982 Clear 30 1011 46 10000 4.2 123 15:43 23.06.2022
2983 Clear 29 1011 47 10000 4.12 129 15:23 23.06.2022
2984 Clouds 27 1013 51 10000 4.37 125 13:21 23.06.2022
2985 Clouds 24 1013 64 10000 4.3 114 11:23 23.06.2022
2986 Clouds 23 1013 69 10000 4.24 112 10:31 23.06.2022
2987 Clear 18 1014 78 10000 3.48 112 08:35 23.06.2022
2988 Clear 12 1014 88 10000 2.8 76 02:38 23.06.2022
2989 Clouds 14 1014 85 10000 3.02 60 00:26 23.06.2022
2990 Clouds 14 1015 83 10000 3.2 49 23:27 22.06.2022
2991 Clouds 15 1015 81 10000 3.2 49 22:39 22.06.2022
2992 Clouds 17 1014 78 10000 4.07 25 21:22 22.06.2022
2993 Clouds 18 1014 77 10000 4.07 25 20:34 22.06.2022
2994 Clouds 19 1014 75 10000 3.99 19 19:56 22.06.2022
2995 Clouds 21 1014 68 10000 3.73 17 18:40 22.06.2022
2996 Clouds 22 1013 68 10000 4.61 355 17:27 22.06.2022
2997 Clouds 22 1014 68 10000 3.87 346 16:24 22.06.2022
2998 Clouds 23 1014 59 10000 2.98 337 15:26 22.06.2022
2999 Clear 22 1014 62 10000 2.16 348 14:19 22.06.2022
3000 Clear 22 1014 68 10000 2.66 346 13:39 22.06.2022
3001 Clear 22 1014 68 10000 2.53 349 13:18 22.06.2022
3002 Clear 21 1015 66 10000 2.36 335 11:49 22.06.2022
3003 Clear 19 1014 62 10000 2.84 344 10:55 22.06.2022
3004 Clear 19 1014 67 10000 2.49 337 10:19 22.06.2022
3005 Clouds 15 1014 90 10000 1.61 341 08:28 22.06.2022
3006 Clouds 9 1014 90 10000 1.33 286 04:50 22.06.2022
3007 Clouds 11 1015 87 10000 1.38 345 01:24 22.06.2022
3008 Clouds 12 1015 85 10000 1.4 352 00:29 22.06.2022
3009 Clouds 15 1014 79 10000 2.38 2 22:19 21.06.2022
3010 Clouds 18 1014 71 10000 3.78 351 19:57 21.06.2022
3011 Clouds 19 1015 73 10000 4.27 341 18:36 21.06.2022
3012 Clouds 21 1015 70 10000 4.04 335 17:39 21.06.2022
3013 Clouds 21 1015 56 10000 3.1 317 14:42 21.06.2022
3014 Clouds 19 1016 64 10000 2.54 265 11:52 21.06.2022
3015 Clouds 17 1016 69 10000 2.06 283 10:19 21.06.2022
3016 Clouds 16 1016 73 10000 2.65 265 08:48 21.06.2022
3017 Clouds 13 1016 90 10000 2.87 252 07:35 21.06.2022
3018 Clear 11 1017 84 10000 3.45 290 02:27 21.06.2022
3019 Clear 12 1017 82 10000 3.66 302 23:27 20.06.2022
3020 Clear 14 1016 77 10000 3.92 301 21:58 20.06.2022
3021 Clear 14 1016 76 10000 3.95 302 21:31 20.06.2022
3022 Clouds 16 1016 73 10000 6.04 319 19:49 20.06.2022
3023 Clouds 16 1016 69 10000 7.19 319 18:54 20.06.2022
3024 Clouds 17 1015 69 10000 7.82 319 18:24 20.06.2022
3025 Clouds 17 1015 71 10000 7.82 319 17:40 20.06.2022
3026 Clouds 17 1015 66 10000 8.32 318 16:20 20.06.2022
3027 Clouds 18 1014 63 10000 7.94 316 14:29 20.06.2022
3028 Clouds 17 1014 70 10000 6.65 307 11:46 20.06.2022
3029 Clouds 16 1014 72 10000 6.32 311 09:48 20.06.2022
3030 Clouds 16 1013 74 10000 5.65 313 08:45 20.06.2022
3031 Clouds 13 1013 84 10000 4.77 292 07:35 20.06.2022
3032 Clouds 12 1013 81 10000 2.53 293 03:51 20.06.2022
3033 Clouds 12 1014 82 10000 2.06 290 00:52 20.06.2022
3034 Clouds 13 1014 80 10000 2.61 315 23:29 19.06.2022
3035 Rain 13 1014 76 10000 2.53 308 22:19 19.06.2022
3036 Clouds 14 1014 76 10000 2.53 308 21:42 19.06.2022
3037 Clouds 15 1013 75 10000 2.82 324 20:49 19.06.2022
3038 Clouds 15 1013 74 10000 3.02 315 19:49 19.06.2022
3039 Clouds 15 1013 74 10000 3.56 317 19:24 19.06.2022
3040 Clouds 16 1013 70 10000 3.57 317 18:32 19.06.2022
3041 Clouds 17 1013 66 10000 4.07 317 17:42 19.06.2022
3042 Clouds 17 1013 65 10000 4.65 336 17:20 19.06.2022
3043 Clouds 16 1013 70 10000 4 329 16:28 19.06.2022
3044 Clouds 15 1013 77 10000 4 329 15:35 19.06.2022
3045 Clouds 14 1013 81 10000 4.44 335 14:42 19.06.2022
3046 Clouds 15 1013 80 10000 3.43 334 13:52 19.06.2022
3047 Clouds 14 1011 78 10000 4.17 7 12:22 19.06.2022
3048 Clouds 14 1012 86 10000 3.54 13 10:53 19.06.2022
3049 Clouds 13 1012 89 10000 3.89 17 09:31 19.06.2022
3050 Clouds 13 1011 89 10000 4.91 13 08:35 19.06.2022
3051 Clouds 13 1012 88 10000 5.16 17 07:30 19.06.2022
3052 Clouds 14 1012 79 10000 4.75 19 04:33 19.06.2022
3053 Clouds 14 1015 68 10000 3.85 359 01:28 19.06.2022
3054 Clouds 14 1015 80 10000 3.47 357 00:23 19.06.2022
3055 Clouds 14 1015 78 10000 3.47 357 23:35 18.06.2022
3056 Clouds 15 1015 74 10000 3.4 4 22:36 18.06.2022
3057 Clouds 16 1015 72 10000 3.82 14 20:55 18.06.2022
3058 Clouds 17 1015 71 10000 4.36 360 20:26 18.06.2022
3059 Clouds 18 1015 59 10000 4.36 360 19:31 18.06.2022
3060 Clouds 20 1016 66 10000 5.07 346 18:44 18.06.2022
3061 Clouds 21 1017 64 10000 4.92 330 17:30 18.06.2022
3062 Clouds 21 1016 64 10000 3.78 336 16:37 18.06.2022
3063 Clouds 23 1017 64 10000 3.63 325 15:22 18.06.2022
3064 Clouds 22 1017 64 10000 3.63 325 14:42 18.06.2022
3065 Clear 23 1017 61 10000 4.46 321 13:21 18.06.2022
3066 Clear 22 1017 73 10000 4.49 315 11:34 18.06.2022
3067 Clear 22 1017 74 10000 4.61 320 10:46 18.06.2022
3068 Clear 21 1017 75 10000 4.64 328 09:20 18.06.2022
3069 Clear 21 1017 75 10000 4.64 328 09:20 18.06.2022
3070 Clear 19 1016 81 10000 4.48 328 08:19 18.06.2022
3071 Clear 17 1016 85 10000 3.18 293 06:44 18.06.2022
3072 Clear 18 1016 77 10000 4.02 239 03:24 18.06.2022
3073 Clouds 19 1017 74 10000 4.01 208 01:24 18.06.2022
3074 Clouds 19 1017 72 10000 4.01 208 00:46 18.06.2022
3075 Clouds 19 1017 71 10000 4.01 205 23:52 17.06.2022
3076 Clouds 20 1018 70 10000 3.99 193 23:20 17.06.2022
3077 Clouds 22 1018 74 10000 3.9 173 20:55 17.06.2022
3078 Clouds 25 1019 55 10000 3.68 177 19:31 17.06.2022
3079 Clouds 25 1019 61 10000 4.09 177 18:44 17.06.2022
3080 Clouds 26 1019 54 10000 4.48 179 17:43 17.06.2022
3081 Clouds 25 1020 54 10000 4.31 193 16:43 17.06.2022
3082 Clouds 24 1021 59 10000 4.29 208 15:49 17.06.2022
3083 Clouds 24 1021 57 10000 4.27 212 15:22 17.06.2022
3084 Clouds 25 1022 57 10000 5.24 209 14:20 17.06.2022
3085 Clouds 24 1022 60 10000 4.25 210 13:46 17.06.2022
3086 Clouds 23 1023 60 10000 4.72 209 13:24 17.06.2022
3087 Clouds 22 1023 63 10000 5.04 196 11:58 17.06.2022
3088 Clouds 21 1023 64 10000 5.04 196 11:36 17.06.2022
3089 Clouds 21 1023 65 10000 4.19 193 10:52 17.06.2022
3090 Clouds 17 1024 79 10000 3.16 191 08:30 17.06.2022
3091 Clouds 16 1024 79 10000 3.31 199 07:48 17.06.2022
3092 Clouds 13 1024 81 10000 2.6 187 06:22 17.06.2022
3093 Clouds 11 1024 86 10000 1.59 195 03:20 17.06.2022
3094 Clouds 12 1024 82 10000 0.53 201 00:43 17.06.2022
3095 Clouds 15 1024 77 10000 1.4 318 23:25 16.06.2022
3096 Clouds 16 1024 73 10000 1.4 318 22:31 16.06.2022
3097 Clouds 18 1024 69 10000 2.53 308 21:19 16.06.2022
3098 Clouds 18 1024 78 10000 2.53 308 20:50 16.06.2022
3099 Clouds 19 1023 77 10000 2.25 314 19:59 16.06.2022
3100 Clouds 21 1023 68 10000 3.25 319 18:48 16.06.2022
3101 Clouds 22 1023 64 10000 4.12 315 17:44 16.06.2022
3102 Clear 21 1024 61 10000 4.47 313 17:22 16.06.2022
3103 Clear 22 1024 58 10000 4.39 316 16:19 16.06.2022
3104 Clear 22 1023 57 10000 4.01 320 15:21 16.06.2022
3105 Clear 22 1023 57 10000 4.03 315 14:22 16.06.2022
3106 Clear 21 1023 57 10000 3.52 331 12:53 16.06.2022
3107 Clear 21 1023 58 10000 3.52 331 12:34 16.06.2022
3108 Clear 20 1022 58 10000 3.29 346 11:48 16.06.2022
3109 Clear 19 1022 61 10000 3.48 355 10:41 16.06.2022
3110 Clear 18 1022 62 10000 3.59 356 09:43 16.06.2022
3111 Clear 17 1022 67 10000 3.15 356 08:59 16.06.2022
3112 Clouds 14 1021 86 10000 2 1 07:41 16.06.2022
3113 Clouds 12 1021 86 10000 1.9 358 06:36 16.06.2022
3114 Clouds 11 1020 85 10000 2.27 42 04:24 16.06.2022
3115 Clouds 13 1020 80 10000 2.06 40 01:52 16.06.2022
3116 Clouds 13 1020 80 10000 2.96 39 01:29 16.06.2022
3117 Clouds 13 1021 79 10000 2.76 21 00:29 16.06.2022
3118 Clouds 14 1020 74 10000 3.02 33 22:59 15.06.2022
3119 Clouds 14 1020 81 10000 3.43 32 21:55 15.06.2022
3120 Clouds 16 1020 70 10000 3.49 26 21:20 15.06.2022
3121 Clouds 17 1020 67 10000 3.49 26 20:37 15.06.2022
3122 Clouds 18 1019 65 10000 3.83 24 20:18 15.06.2022
3123 Clouds 19 1019 68 10000 3.89 6 18:48 15.06.2022
3124 Clouds 20 1020 65 10000 3.64 8 17:54 15.06.2022
3125 Clouds 21 1020 64 10000 3.4 13 16:37 15.06.2022
3126 Clouds 21 1020 67 10000 4.08 20 15:23 15.06.2022
3127 Clouds 21 1020 57 10000 3.51 341 13:37 15.06.2022
3128 Clouds 20 1020 59 10000 2.22 347 12:53 15.06.2022
3129 Clouds 20 1020 68 10000 1.79 31 11:42 15.06.2022
3130 Clouds 18 1020 69 10000 2 37 10:23 15.06.2022
3131 Clouds 18 1020 74 10000 2 37 09:37 15.06.2022
3132 Clouds 15 1020 84 10000 1.43 56 08:27 15.06.2022
3133 Clouds 11 1020 89 10000 1.28 93 06:33 15.06.2022
3134 Clouds 11 1020 88 10000 1.48 111 03:30 15.06.2022
3135 Clouds 11 1021 87 10000 1.4 58 01:53 15.06.2022
3136 Clouds 11 1021 85 10000 1.21 53 00:50 15.06.2022
3137 Clouds 13 1021 81 10000 1.24 37 23:39 14.06.2022
3138 Clouds 14 1021 85 10000 1.49 22 22:56 14.06.2022
3139 Clouds 15 1021 76 10000 1.51 9 22:18 14.06.2022
3140 Clouds 16 1021 73 10000 1.88 347 21:28 14.06.2022
3141 Clouds 17 1021 73 10000 1.88 347 20:48 14.06.2022
3142 Clouds 17 1021 72 10000 1.92 328 20:28 14.06.2022
3143 Clouds 18 1021 67 10000 3.58 325 18:54 14.06.2022
3144 Clouds 18 1022 69 10000 4.36 319 17:39 14.06.2022
3145 Clouds 18 1022 71 10000 4.47 308 16:43 14.06.2022
3146 Clouds 19 1022 65 10000 4.36 300 15:50 14.06.2022
3147 Clouds 18 1022 70 10000 4.34 289 14:57 14.06.2022
3148 Clouds 18 1022 72 10000 4.34 289 14:30 14.06.2022
3149 Clouds 18 1022 66 10000 4.49 278 13:40 14.06.2022
3150 Clouds 18 1022 64 10000 3.76 286 12:42 14.06.2022
3151 Clouds 18 1023 64 10000 3.33 280 11:31 14.06.2022
3152 Clouds 17 1023 67 10000 3.37 274 10:47 14.06.2022
3153 Clouds 16 1023 71 10000 3.31 268 09:48 14.06.2022
3154 Clouds 15 1023 73 10000 3.09 267 08:47 14.06.2022
3155 Clouds 12 1023 85 10000 2.91 265 07:33 14.06.2022
3156 Clouds 9 1022 86 10000 3.03 268 05:21 14.06.2022
3157 Clouds 9 1023 85 10000 3.27 266 02:57 14.06.2022
3158 Clouds 10 1023 82 10000 3.33 266 00:53 14.06.2022
3159 Clouds 11 1023 80 10000 3.15 279 23:39 13.06.2022
3160 Clouds 12 1023 78 10000 3.44 298 22:26 13.06.2022
3161 Clouds 13 1023 76 10000 3.44 298 21:52 13.06.2022
3162 Clouds 14 1023 71 10000 4.11 304 20:42 13.06.2022
3163 Clouds 16 1022 67 10000 4.87 304 19:35 13.06.2022
3164 Clouds 17 1022 63 10000 5.81 306 18:31 13.06.2022
3165 Clouds 17 1022 67 10000 6.26 311 17:47 13.06.2022
3166 Clouds 17 1022 62 10000 6.61 312 16:53 13.06.2022
3167 Clouds 17 1022 64 10000 6.99 308 15:40 13.06.2022
3168 Clouds 17 1021 66 10000 7.6 309 14:47 13.06.2022
3169 Clouds 17 1021 66 10000 7.6 309 14:47 13.06.2022
3170 Clouds 17 1021 66 10000 8.43 304 13:55 13.06.2022
3171 Clouds 17 1020 67 10000 8.49 298 12:59 13.06.2022
3172 Clouds 16 1020 73 10000 8.03 297 11:37 13.06.2022
3173 Clouds 15 1019 78 10000 7.38 292 10:28 13.06.2022
3174 Clouds 15 1019 83 10000 7.38 292 09:42 13.06.2022
3175 Clouds 14 1018 82 10000 5.8 267 08:25 13.06.2022
3176 Clouds 12 1018 83 10000 4.27 250 06:34 13.06.2022
3177 Clouds 12 1018 86 10000 3.75 244 03:45 13.06.2022
3178 Clouds 12 1019 82 10000 3.72 236 01:39 13.06.2022
3179 Clouds 12 1019 81 10000 3.65 246 00:59 13.06.2022
3180 Clouds 12 1019 78 10000 3.38 251 23:33 12.06.2022
3181 Clear 14 1020 75 10000 3.52 277 22:23 12.06.2022
3182 Clear 14 1020 87 10000 3.52 277 21:41 12.06.2022
3183 Clear 16 1020 74 10000 4.44 286 20:43 12.06.2022
3184 Clouds 17 1020 69 10000 5.35 290 19:42 12.06.2022
3185 Clouds 18 1020 72 10000 6.32 292 18:46 12.06.2022
3186 Clouds 20 1020 64 10000 7.02 292 16:57 12.06.2022
3187 Clouds 21 1020 64 10000 7.27 290 15:34 12.06.2022
3188 Clouds 21 1020 55 10000 7.22 289 14:48 12.06.2022
3189 Clouds 21 1020 55 10000 7.01 281 14:18 12.06.2022
3190 Clouds 21 1020 56 10000 6.86 277 13:43 12.06.2022
3191 Clouds 20 1020 67 10000 6.45 268 11:58 12.06.2022
3192 Clouds 19 1021 67 10000 5.77 261 10:46 12.06.2022
3193 Clouds 18 1021 76 10000 5.03 258 09:36 12.06.2022
3194 Clouds 17 1021 78 10000 4.33 249 08:50 12.06.2022
3195 Clouds 15 1020 85 10000 3.88 238 07:51 12.06.2022
3196 Clouds 12 1021 86 10000 3.58 210 06:27 12.06.2022
3197 Clouds 12 1021 85 10000 3.63 203 03:44 12.06.2022
3198 Clouds 12 1021 88 10000 2.85 198 02:25 12.06.2022
3199 Clouds 12 1021 87 10000 3.15 200 01:35 12.06.2022
3200 Clouds 12 1022 85 10000 2.92 210 00:44 12.06.2022
3201 Clear 13 1022 84 10000 2.79 211 00:19 12.06.2022
3202 Clear 13 1022 80 10000 2.39 227 23:21 11.06.2022
3203 Clear 15 1022 87 10000 2.39 227 22:37 11.06.2022
3204 Clear 17 1021 73 10000 2.4 284 21:18 11.06.2022
3205 Clear 18 1021 73 10000 3.48 288 20:26 11.06.2022
3206 Clear 19 1021 76 10000 3.54 282 19:36 11.06.2022
3207 Clear 22 1021 70 10000 4.4 279 18:45 11.06.2022
3208 Clear 22 1021 64 10000 4.79 276 18:27 11.06.2022
3209 Clear 21 1021 64 10000 4.77 275 17:48 11.06.2022
3210 Clear 21 1021 60 10000 5.16 274 17:26 11.06.2022
3211 Clear 21 1021 60 10000 5.16 274 16:43 11.06.2022
3212 Clear 22 1021 59 10000 5.53 272 16:18 11.06.2022
3213 Clear 22 1021 58 10000 5.73 268 14:57 11.06.2022
3214 Clear 21 1021 55 10000 6.3 265 13:52 11.06.2022
3215 Clear 21 1021 58 10000 6.09 257 12:19 11.06.2022
3216 Clear 21 1021 58 10000 6.09 257 12:19 11.06.2022
3217 Clear 19 1020 71 10000 6.28 255 10:31 11.06.2022
3218 Clear 18 1020 74 10000 6.64 250 09:41 11.06.2022
3219 Clear 18 1020 77 10000 6.78 241 08:44 11.06.2022
3220 Clouds 15 1019 88 10000 5.16 218 06:33 11.06.2022
3221 Clouds 14 1019 87 10000 4.59 213 05:44 11.06.2022
3222 Clouds 16 1019 88 10000 3.89 206 03:31 11.06.2022
3223 Clouds 16 1019 87 10000 3.18 205 01:51 11.06.2022
3224 Clouds 16 1019 86 10000 3.15 216 01:25 11.06.2022
3225 Clouds 17 1020 82 10000 3.37 213 23:27 10.06.2022
3226 Rain 18 1020 79 10000 3 211 22:21 10.06.2022
3227 Clouds 18 1020 87 10000 3 211 21:44 10.06.2022
3228 Clouds 20 1019 85 10000 2.53 232 20:39 10.06.2022
3229 Clouds 20 1019 67 10000 2.86 254 20:19 10.06.2022
3230 Clouds 21 1019 66 10000 3.95 267 19:19 10.06.2022
3231 Clouds 21 1019 66 10000 3.95 267 18:44 10.06.2022
3232 Clouds 21 1019 65 10000 4.28 263 17:54 10.06.2022
3233 Clouds 21 1019 80 10000 5.23 253 17:22 10.06.2022
3234 Clouds 21 1019 70 10000 6 240 16:26 10.06.2022
3235 Clouds 21 1019 74 10000 6 240 15:39 10.06.2022
3236 Clouds 20 1020 80 10000 6.12 219 14:24 10.06.2022
3237 Clouds 18 1020 80 10000 5.95 208 12:58 10.06.2022
3238 Clouds 18 1020 83 10000 5.04 198 11:59 10.06.2022
3239 Clouds 17 1020 82 10000 5.56 206 10:46 10.06.2022
3240 Clouds 17 1020 83 10000 5.11 203 09:57 10.06.2022
3241 Clouds 16 1020 80 10000 5.83 206 08:48 10.06.2022
3242 Clear 14 1020 86 10000 5.39 205 07:41 10.06.2022
3243 Clear 12 1020 88 10000 4.27 199 06:46 10.06.2022
3244 Clear 10 1020 88 10000 3.83 197 06:27 10.06.2022
3245 Clear 10 1019 87 10000 3.81 194 04:52 10.06.2022
3246 Clear 10 1019 87 10000 3.41 222 01:59 10.06.2022
3247 Clear 11 1019 87 10000 3.41 222 01:36 10.06.2022
3248 Clear 11 1019 87 10000 3.41 222 01:36 10.06.2022
3249 Clear 12 1019 83 10000 3.24 244 23:57 09.06.2022
3250 Clear 13 1018 90 10000 3.56 255 22:24 09.06.2022
3251 Clear 14 1018 90 10000 3.56 255 21:43 09.06.2022
3252 Clear 16 1017 71 10000 3.65 266 21:24 09.06.2022
3253 Clear 16 1017 85 10000 3.65 266 20:36 09.06.2022
3254 Clear 17 1017 68 10000 4.52 277 19:43 09.06.2022
3255 Clear 19 1016 75 10000 5.46 283 18:37 09.06.2022
3256 Clear 19 1016 70 10000 6.41 284 17:31 09.06.2022
3257 Clear 20 1014 68 10000 7.07 285 16:28 09.06.2022
3258 Clouds 20 1014 65 10000 7.49 285 14:52 09.06.2022
3259 Clouds 20 1013 64 10000 7.43 285 14:27 09.06.2022
3260 Clouds 20 1013 68 10000 7.24 286 13:30 09.06.2022
3261 Clouds 19 1012 69 10000 6.93 285 12:55 09.06.2022
3262 Clouds 19 1011 75 10000 6.36 284 11:33 09.06.2022
3263 Clouds 16 1010 90 10000 6.47 282 09:55 09.06.2022
3264 Clouds 16 1010 90 10000 6.47 282 09:55 09.06.2022
3265 Clouds 15 1010 92 10000 6.47 282 09:37 09.06.2022
3266 Clouds 14 1009 93 10000 6.01 280 08:33 09.06.2022
3267 Clouds 14 1007 93 10000 3.32 245 07:29 09.06.2022
3268 Clouds 14 1006 93 10000 3.06 201 03:31 09.06.2022
3269 Clouds 14 1005 92 10000 2.55 177 00:35 09.06.2022
3270 Rain 14 1005 92 10000 2.49 188 23:18 08.06.2022
3271 Rain 15 1005 91 10000 2.49 188 22:43 08.06.2022
3272 Rain 15 1005 91 8854 2.12 195 22:23 08.06.2022
3273 Rain 15 1005 91 8854 2.12 195 21:33 08.06.2022
3274 Rain 15 1005 90 10000 2.36 244 20:25 08.06.2022
3275 Rain 16 1005 90 10000 1.84 256 19:42 08.06.2022
3276 Rain 16 1005 89 10000 3.49 274 18:48 08.06.2022
3277 Rain 16 1005 89 10000 5.24 249 17:46 08.06.2022
3278 Rain 18 1005 86 10000 5.97 216 15:56 08.06.2022
3279 Clouds 21 1005 68 9260 5.62 202 14:44 08.06.2022
3280 Clouds 20 1006 82 10000 4.38 167 12:55 08.06.2022
3281 Clouds 20 1006 82 10000 4.38 167 12:55 08.06.2022
3282 Clouds 20 1006 82 10000 4.38 167 12:55 08.06.2022
3283 Clouds 19 1006 75 10000 4.93 172 11:41 08.06.2022
3284 Clouds 19 1007 76 10000 3.96 170 11:19 08.06.2022
3285 Clouds 18 1007 83 10000 3.79 176 09:45 08.06.2022
3286 Clouds 16 1008 90 10000 3.54 181 09:18 08.06.2022
3287 Clear 12 1008 93 10000 2.99 181 07:22 08.06.2022
3288 Clear 9 1009 90 10000 2.7 201 04:49 08.06.2022
3289 Clouds 10 1010 88 10000 3.09 230 02:19 08.06.2022
3290 Clouds 12 1010 85 10000 3.43 241 23:41 07.06.2022
3291 Clouds 12 1011 85 10000 3.41 250 23:22 07.06.2022
3292 Clouds 13 1011 83 10000 3.41 250 22:38 07.06.2022
3293 Clouds 14 1011 80 10000 3.43 258 21:41 07.06.2022
3294 Clouds 14 1010 80 10000 4.08 265 21:23 07.06.2022
3295 Clouds 15 1010 79 10000 4.08 265 20:42 07.06.2022
3296 Clouds 15 1010 78 10000 5.26 269 19:59 07.06.2022
3297 Clouds 15 1010 76 10000 6.01 271 18:42 07.06.2022
3298 Clouds 16 1010 75 10000 7.03 271 17:51 07.06.2022
3299 Clouds 16 1010 74 10000 7.6 271 16:54 07.06.2022
3300 Clouds 16 1010 73 10000 7.6 271 16:32 07.06.2022
3301 Clouds 16 1010 72 10000 7.8 266 15:40 07.06.2022
3302 Clouds 16 1010 69 10000 7.43 263 15:21 07.06.2022
3303 Clouds 15 1010 75 10000 7.43 263 14:45 07.06.2022
3304 Clouds 15 1010 78 10000 8.42 261 13:46 07.06.2022
3305 Clouds 14 1010 80 10000 8.37 251 13:26 07.06.2022
3306 Clouds 13 1009 82 10000 8.38 245 11:56 07.06.2022
3307 Clouds 13 1009 82 10000 8.38 245 11:56 07.06.2022
3308 Clouds 13 1009 86 10000 8.43 241 10:57 07.06.2022
3309 Clouds 12 1009 90 10000 8.33 237 09:46 07.06.2022
3310 Rain 12 1009 89 10000 8.8 233 08:31 07.06.2022
3311 Clouds 12 1008 89 10000 9.35 225 07:19 07.06.2022
3312 Rain 12 1008 88 10000 9.32 224 05:47 07.06.2022
3313 Clouds 12 1010 90 10000 7.6 213 01:44 07.06.2022
3314 Clouds 12 1010 90 10000 8.51 210 00:20 07.06.2022
3315 Clouds 12 1010 91 10000 8.51 210 23:32 06.06.2022
3316 Clouds 12 1010 91 10000 7.73 205 22:37 06.06.2022
3317 Rain 12 1011 91 10000 6.75 219 21:36 06.06.2022
3318 Rain 13 1011 91 10000 6.36 276 19:53 06.06.2022
3319 Rain 13 1009 91 6673 8 226 19:19 06.06.2022
3320 Rain 14 1009 90 6673 8 226 18:38 06.06.2022
3321 Rain 15 1009 89 9095 7.34 200 17:42 06.06.2022
3322 Rain 16 1010 84 5795 7.59 216 16:39 06.06.2022
3323 Clouds 18 1010 74 10000 7.78 221 15:40 06.06.2022
3324 Clouds 17 1011 69 8505 9.32 228 14:40 06.06.2022
3325 Clouds 18 1010 68 9594 9.9 220 13:27 06.06.2022
3326 Clouds 18 1010 67 9594 9.9 220 12:39 06.06.2022
3327 Clouds 18 1010 70 10000 9.68 220 12:20 06.06.2022
3328 Clouds 17 1010 75 10000 9.68 220 11:42 06.06.2022
3329 Clouds 14 1009 91 10000 8.92 226 09:41 06.06.2022
3330 Clouds 14 1009 93 10000 9.58 216 08:35 06.06.2022
3331 Clouds 14 1008 93 10000 9.29 218 07:41 06.06.2022
3332 Clouds 14 1007 93 10000 10.1 227 05:48 06.06.2022
3333 Clouds 16 1006 92 10000 6.89 193 03:47 06.06.2022
3334 Clouds 16 1007 90 9524 4.91 96 01:30 06.06.2022
3335 Clouds 16 1008 90 10000 6.42 90 00:47 06.06.2022
3336 Clouds 16 1009 89 10000 7.19 79 00:28 06.06.2022
3337 Rain 16 1010 87 10000 7.25 64 22:58 05.06.2022
3338 Clouds 16 1010 85 10000 7 64 21:56 05.06.2022
3339 Rain 18 1011 81 10000 4.81 86 20:23 05.06.2022
3340 Rain 19 1012 91 10000 4.32 116 18:51 05.06.2022
3341 Rain 21 1012 85 10000 6.06 128 17:58 05.06.2022
3342 Rain 22 1012 85 10000 6.06 128 17:38 05.06.2022
3343 Clouds 22 1012 61 10000 5.78 101 17:19 05.06.2022
3344 Clouds 23 1012 63 10000 5.79 101 16:47 05.06.2022
3345 Clouds 23 1014 64 10000 6.62 93 15:22 05.06.2022
3346 Clouds 23 1015 62 10000 6.86 94 14:18 05.06.2022
3347 Clouds 21 1017 65 10000 6.4 88 11:58 05.06.2022
3348 Clouds 20 1017 69 10000 5.94 84 10:45 05.06.2022
3349 Clouds 19 1018 71 10000 5.47 87 10:24 05.06.2022
3350 Clouds 17 1018 76 10000 5.47 87 09:33 05.06.2022
3351 Clouds 15 1019 87 10000 4.86 77 08:23 05.06.2022
3352 Clouds 11 1019 91 10000 4.29 72 06:23 05.06.2022
3353 Clouds 11 1021 91 10000 3.52 79 05:19 05.06.2022
3354 Clear 11 1021 89 10000 4.35 49 02:43 05.06.2022
3355 Clear 10 1023 88 10000 3.7 44 01:23 05.06.2022
3356 Clear 12 1022 84 10000 3.75 33 22:51 04.06.2022
3357 Clear 14 1023 79 10000 3.46 27 21:30 04.06.2022
3358 Clouds 16 1023 72 10000 4.5 27 19:36 04.06.2022
3359 Clouds 18 1023 71 10000 5.21 27 17:21 04.06.2022
3360 Clouds 18 1023 64 10000 5.06 28 16:20 04.06.2022
3361 Clouds 18 1023 64 10000 5.07 28 15:45 04.06.2022
3362 Clouds 18 1023 74 10000 5.49 28 14:18 04.06.2022
3363 Clouds 17 1023 71 10000 5.37 36 11:45 04.06.2022
3364 Clouds 17 1023 70 10000 5.35 37 10:55 04.06.2022
3365 Clouds 16 1023 72 10000 4.82 37 10:19 04.06.2022
3366 Clouds 15 1023 72 10000 4.82 37 09:39 04.06.2022
3367 Clouds 14 1023 78 10000 5.53 42 08:39 04.06.2022
3368 Clouds 12 1022 86 10000 4.38 34 07:18 04.06.2022
3369 Clouds 10 1022 87 10000 4 28 04:33 04.06.2022
3370 Clouds 10 1022 87 10000 4 28 04:33 04.06.2022
3371 Clouds 11 1021 86 10000 4.6 29 00:37 04.06.2022
3372 Clouds 12 1021 86 10000 5.38 28 23:28 03.06.2022
3373 Clouds 12 1021 83 10000 5.75 24 22:28 03.06.2022
3374 Clouds 14 1021 82 10000 5.76 25 20:42 03.06.2022
3375 Clouds 14 1021 82 10000 5.76 25 20:42 03.06.2022
3376 Clouds 15 1020 72 10000 5.75 26 20:18 03.06.2022
3377 Clouds 20 1020 66 10000 6.15 32 17:32 03.06.2022
3378 Clouds 20 1020 63 10000 6.24 38 16:34 03.06.2022
3379 Clear 20 1020 61 10000 4.65 47 14:53 03.06.2022
3380 Clear 20 1021 59 10000 3.76 56 12:52 03.06.2022
3381 Clear 18 1021 64 10000 3.51 67 10:36 03.06.2022
3382 Clear 16 1021 68 10000 3.4 70 09:37 03.06.2022
3383 Clear 12 1021 88 10000 2.82 80 07:54 03.06.2022
3384 Clear 11 1022 90 10000 2.29 88 07:26 03.06.2022
3385 Clear 9 1022 91 10000 2.29 88 06:31 03.06.2022
3386 Clear 7 1022 89 10000 2.2 82 04:40 03.06.2022
3387 Clouds 10 1023 84 10000 1.9 64 00:25 03.06.2022
3388 Clouds 11 1022 79 10000 2.09 36 22:41 02.06.2022
3389 Clouds 11 1022 86 10000 2.24 15 21:34 02.06.2022
3390 Clouds 15 1022 69 10000 2.63 345 20:22 02.06.2022
3391 Clouds 16 1022 68 10000 2.83 340 19:43 02.06.2022
3392 Clouds 17 1022 66 10000 3.47 331 19:23 02.06.2022
3393 Clear 17 1022 65 10000 3.9 324 17:32 02.06.2022
3394 Clear 18 1022 62 10000 4.65 316 16:27 02.06.2022
3395 Clouds 17 1022 66 10000 5.52 305 14:19 02.06.2022
3396 Clouds 16 1022 69 10000 5.63 301 13:29 02.06.2022
3397 Clear 15 1021 71 10000 5.59 290 11:24 02.06.2022
3398 Clear 14 1021 74 10000 5.44 285 10:20 02.06.2022
3399 Clear 14 1021 75 10000 5.28 284 09:28 02.06.2022
3400 Clear 13 1020 79 10000 4.66 281 08:27 02.06.2022
3401 Clear 9 1019 88 10000 3.75 270 07:25 02.06.2022
3402 Clear 7 1019 90 10000 3.9 271 04:52 02.06.2022
3403 Clear 7 1018 88 10000 3.65 285 02:48 02.06.2022
3404 Clouds 9 1018 84 10000 3 312 23:50 01.06.2022
3405 Clouds 10 1017 82 10000 3.09 320 22:51 01.06.2022
3406 Clouds 12 1017 77 10000 3.08 332 21:37 01.06.2022
3407 Clouds 13 1016 75 10000 3.19 343 20:59 01.06.2022
3408 Clouds 13 1016 74 10000 3.2 343 20:37 01.06.2022
3409 Clouds 14 1015 70 10000 4 346 19:31 01.06.2022
3410 Clouds 14 1014 74 10000 3.71 346 17:46 01.06.2022
3411 Clouds 14 1014 75 10000 3.22 345 16:40 01.06.2022
3412 Clouds 14 1013 76 10000 3.86 333 15:18 01.06.2022
3413 Clouds 15 1013 77 10000 3.29 312 13:57 01.06.2022
3414 Clouds 14 1013 77 10000 2.78 272 12:29 01.06.2022
3415 Clouds 13 1013 81 10000 3.3 263 10:37 01.06.2022
3416 Clouds 12 1012 85 10000 4 251 09:25 01.06.2022
3417 Clouds 10 1013 90 10000 2.48 227 07:25 01.06.2022
3418 Clouds 10 1013 89 10000 2.48 227 06:41 01.06.2022
3419 Clouds 10 1013 86 10000 1.87 157 01:30 01.06.2022
3420 Clouds 10 1013 80 10000 2.67 96 23:41 31.05.2022
3421 Clouds 11 1013 77 10000 2.94 81 22:37 31.05.2022
3422 Clouds 12 1013 79 10000 2.93 84 21:46 31.05.2022
3423 Clouds 12 1012 78 10000 3.08 73 20:52 31.05.2022
3424 Clouds 13 1012 77 10000 3.08 73 20:31 31.05.2022
3425 Clouds 15 1012 68 10000 3.86 52 18:57 31.05.2022
3426 Clouds 15 1012 65 10000 3.93 39 17:51 31.05.2022
3427 Clouds 15 1012 65 10000 3.93 39 17:31 31.05.2022
3428 Clouds 16 1013 57 10000 2.08 21 15:42 31.05.2022
3429 Clouds 17 1013 58 10000 1.45 50 14:34 31.05.2022
3430 Clouds 16 1014 68 10000 2.29 146 12:39 31.05.2022
3431 Clouds 16 1014 67 10000 2.48 148 12:18 31.05.2022
3432 Clouds 13 1014 75 10000 2.74 124 09:50 31.05.2022
3433 Clouds 9 1015 90 10000 2.31 133 07:42 31.05.2022
3434 Clouds 8 1015 90 10000 1.93 128 05:25 31.05.2022
3435 Clouds 7 1015 89 10000 1.82 121 02:51 31.05.2022
3436 Clouds 8 1015 86 10000 1.23 40 23:29 30.05.2022
3437 Clouds 9 1015 85 10000 1.23 40 23:00 30.05.2022
3438 Clouds 9 1015 83 10000 1.23 40 22:32 30.05.2022
3439 Clouds 11 1015 79 10000 1.7 9 21:37 30.05.2022
3440 Clouds 12 1015 75 10000 2.29 348 20:41 30.05.2022
3441 Clouds 13 1014 69 10000 2.36 328 19:38 30.05.2022
3442 Clouds 12 1014 80 10000 2.67 319 17:48 30.05.2022
3443 Clouds 12 1014 83 10000 2.72 311 17:20 30.05.2022
3444 Clouds 13 1014 81 10000 2.97 301 15:51 30.05.2022
3445 Clouds 12 1013 83 10000 2.81 256 13:21 30.05.2022
3446 Rain 11 1013 84 10000 2.61 246 11:30 30.05.2022
3447 Rain 11 1013 75 10000 2.52 252 09:45 30.05.2022
3448 Clouds 8 1012 91 10000 2.64 251 07:34 30.05.2022
3449 Rain 7 1012 90 10000 2.68 266 05:54 30.05.2022
3450 Clouds 8 1012 89 10000 2.61 299 03:22 30.05.2022
3451 Clouds 9 1013 83 10000 3.16 327 00:18 30.05.2022
3452 Clouds 10 1013 77 10000 3.77 335 22:40 29.05.2022
3453 Clouds 10 1013 75 10000 4.58 339 21:44 29.05.2022
3454 Clouds 11 1013 74 10000 5.62 335 20:23 29.05.2022
3455 Clouds 11 1013 73 10000 6.02 337 19:29 29.05.2022
3456 Clouds 11 1013 73 10000 6.56 336 17:57 29.05.2022
3457 Clouds 12 1013 73 10000 7.04 335 16:22 29.05.2022
3458 Clouds 12 1013 70 10000 7.04 335 15:43 29.05.2022
3459 Clouds 11 1013 72 10000 7.66 334 14:54 29.05.2022
3460 Clouds 11 1013 75 10000 7.4 328 12:57 29.05.2022
3461 Clouds 11 1013 81 10000 6.65 328 11:20 29.05.2022
3462 Clouds 10 1013 83 10000 6.64 331 10:29 29.05.2022
3463 Clouds 10 1013 80 10000 6.55 333 07:59 29.05.2022
3464 Clouds 10 1014 86 10000 6.6 329 04:58 29.05.2022
3465 Clouds 10 1014 85 10000 6.6 329 04:36 29.05.2022
3466 Clouds 10 1015 80 10000 6.23 318 01:28 29.05.2022
3467 Clouds 10 1016 87 10000 6.58 318 23:48 28.05.2022
3468 Clouds 10 1017 88 10000 6.89 315 23:19 28.05.2022
3469 Clouds 10 1017 87 10000 7.18 311 22:19 28.05.2022
3470 Rain 11 1017 82 10000 7.58 309 20:58 28.05.2022
3471 Clouds 12 1017 81 10000 8.28 311 19:20 28.05.2022
3472 Clouds 12 1017 77 10000 8.28 311 18:40 28.05.2022
3473 Clouds 12 1018 79 10000 8.58 311 17:33 28.05.2022
3474 Rain 14 1018 64 10000 9.19 311 15:56 28.05.2022
3475 Clouds 14 1018 63 10000 9.19 311 15:38 28.05.2022
3476 Clouds 14 1019 61 10000 9.22 311 13:38 28.05.2022
3477 Clouds 14 1019 64 10000 9.22 312 12:43 28.05.2022
3478 Clouds 14 1019 68 10000 9.15 313 11:50 28.05.2022
3479 Clouds 12 1019 67 10000 9.24 314 10:41 28.05.2022
3480 Rain 13 1018 71 10000 9.36 316 09:56 28.05.2022
3481 Clear 11 1018 77 10000 8.95 318 08:39 28.05.2022
3482 Clouds 10 1017 83 10000 8.6 314 06:53 28.05.2022
3483 Clear 10 1017 76 10000 8.75 307 05:24 28.05.2022
3484 Clear 10 1017 80 10000 8.31 300 02:33 28.05.2022
3485 Clouds 11 1018 76 10000 8.17 290 00:18 28.05.2022
3486 Clouds 12 1018 76 10000 8.02 287 22:50 27.05.2022
3487 Clouds 12 1018 75 10000 8.01 287 21:37 27.05.2022
3488 Clouds 13 1018 74 10000 8.63 289 20:48 27.05.2022
3489 Clouds 13 1018 73 10000 9.31 289 20:21 27.05.2022
3490 Clouds 13 1017 72 10000 9.42 288 19:41 27.05.2022
3491 Clouds 13 1017 71 10000 9.4 287 19:21 27.05.2022
3492 Clouds 14 1017 66 10000 9.74 289 17:34 27.05.2022
3493 Clouds 15 1018 66 10000 10.41 289 16:36 27.05.2022
3494 Clouds 14 1018 66 10000 10.82 287 15:22 27.05.2022
3495 Clouds 15 1018 67 10000 10.92 289 13:44 27.05.2022
3496 Clouds 14 1018 67 10000 9.72 288 12:35 27.05.2022
3497 Clouds 14 1017 67 10000 9.74 290 11:33 27.05.2022
3498 Clouds 14 1017 67 10000 9.72 289 10:52 27.05.2022
3499 Clouds 14 1017 66 10000 9.08 287 10:26 27.05.2022
3500 Clouds 14 1017 64 10000 9.08 287 09:32 27.05.2022
3501 Clouds 12 1016 76 10000 7.61 283 07:42 27.05.2022
3502 Clouds 11 1016 81 10000 5.3 269 05:32 27.05.2022
3503 Clouds 14 1016 89 10000 6.53 285 02:25 27.05.2022
3504 Clouds 14 1015 91 10000 7.25 266 00:19 27.05.2022
3505 Rain 14 1016 91 10000 7.75 263 22:30 26.05.2022
3506 Clouds 14 1016 90 10000 7.7 255 21:37 26.05.2022
3507 Rain 15 1016 80 10000 6.54 242 19:58 26.05.2022
3508 Clouds 16 1016 75 10000 6.07 251 19:19 26.05.2022
3509 Clouds 16 1017 76 10000 6.42 264 17:37 26.05.2022
3510 Clouds 17 1017 77 10000 7.29 265 16:36 26.05.2022
3511 Clouds 17 1017 72 10000 7.86 267 15:45 26.05.2022
3512 Clouds 18 1018 64 10000 8.28 270 14:24 26.05.2022
3513 Clouds 18 1018 65 10000 7.9 270 12:37 26.05.2022
3514 Clouds 17 1017 70 10000 8.08 269 11:23 26.05.2022
3515 Clouds 15 1017 77 10000 7.63 265 09:41 26.05.2022
3516 Clouds 15 1016 75 10000 6.39 267 09:23 26.05.2022
3517 Clouds 14 1016 82 10000 6.06 266 07:57 26.05.2022
3518 Clouds 13 1014 88 10000 5.96 255 04:41 26.05.2022
3519 Clouds 13 1013 91 10000 7.21 233 00:38 26.05.2022
3520 Rain 13 1013 91 10000 7.18 236 23:40 25.05.2022
3521 Clouds 13 1012 90 10000 7.54 230 21:59 25.05.2022
3522 Clouds 13 1012 89 10000 7.54 230 21:32 25.05.2022
3523 Rain 14 1012 85 10000 7.9 229 20:35 25.05.2022
3524 Rain 14 1012 85 10000 7.9 229 20:35 25.05.2022
3525 Clouds 16 1012 66 10000 8.12 243 19:24 25.05.2022
3526 Clouds 17 1012 60 10000 7.72 244 17:43 25.05.2022
3527 Clouds 17 1012 60 10000 7.99 247 16:38 25.05.2022
3528 Clouds 17 1012 59 10000 8.54 249 15:54 25.05.2022
3529 Clouds 16 1011 72 10000 8.51 248 14:54 25.05.2022
3530 Clouds 16 1011 78 10000 8.51 248 14:33 25.05.2022
3531 Clouds 18 1012 60 10000 7.7 235 13:54 25.05.2022
3532 Clouds 17 1012 65 10000 7.73 230 12:39 25.05.2022
3533 Clouds 17 1012 68 10000 6.76 221 10:49 25.05.2022
3534 Clouds 16 1012 72 10000 6.01 219 10:18 25.05.2022
3535 Clouds 14 1012 84 10000 5.39 220 08:41 25.05.2022
3536 Clear 11 1011 92 10000 4.12 213 07:23 25.05.2022
3537 Clear 8 1011 90 10000 3.5 209 04:23 25.05.2022
3538 Clouds 10 1010 84 10000 3.41 237 00:23 25.05.2022
3539 Clouds 10 1010 82 10000 3.41 237 23:47 24.05.2022
3540 Clouds 10 1010 82 10000 3.41 237 23:47 24.05.2022
3541 Clouds 11 1009 81 10000 3.31 241 22:39 24.05.2022
3542 Clouds 12 1009 90 10000 3.41 249 21:43 24.05.2022
3543 Clouds 14 1008 77 10000 4.05 257 21:21 24.05.2022
3544 Clouds 15 1008 73 10000 4.05 257 20:30 24.05.2022
3545 Clouds 16 1006 71 10000 6.14 262 18:56 24.05.2022
3546 Clouds 15 1005 71 10000 7.12 257 16:58 24.05.2022
3547 Clouds 15 1004 73 10000 7.5 262 16:28 24.05.2022
3548 Clouds 15 1004 81 10000 7.36 250 15:20 24.05.2022
3549 Clouds 15 1004 80 10000 7.36 250 14:34 24.05.2022
3550 Rain 14 1003 85 10000 7.72 235 13:27 24.05.2022
3551 Clouds 15 1002 87 10000 8 228 11:53 24.05.2022
3552 Clouds 14 1001 90 10000 8.22 218 09:49 24.05.2022
3553 Rain 14 1000 89 10000 7.3 214 08:51 24.05.2022
3554 Clouds 13 1000 91 10000 6.26 213 07:30 24.05.2022
3555 Clouds 12 999 91 10000 5.28 223 05:59 24.05.2022
3556 Clouds 13 998 92 10000 5.82 233 02:58 24.05.2022
3557 Clouds 14 998 92 10000 6.54 238 01:44 24.05.2022
3558 Clouds 15 996 91 10000 8.68 259 23:59 23.05.2022
3559 Rain 16 994 89 10000 5.43 159 22:22 23.05.2022
3560 Rain 17 994 87 10000 5.43 159 21:42 23.05.2022
3561 Rain 21 994 95 10000 4.37 165 20:45 23.05.2022
3562 Clouds 21 994 90 10000 7.2 124 19:47 23.05.2022
3563 Clouds 22 995 81 10000 4.53 102 19:18 23.05.2022
3564 Clouds 22 995 81 10000 4.53 102 18:40 23.05.2022
3565 Clouds 23 997 80 10000 3.75 119 17:56 23.05.2022
3566 Clouds 23 997 80 10000 3.73 118 17:56 23.05.2022
3567 Rain 24 999 59 10000 5.81 135 16:28 23.05.2022
3568 Clouds 23 1001 64 10000 6.68 131 14:18 23.05.2022
3569 Clouds 22 1003 64 10000 6.71 133 11:52 23.05.2022
3570 Clouds 20 1004 68 10000 6.14 134 10:47 23.05.2022
3571 Clouds 18 1004 70 10000 6.04 129 09:47 23.05.2022
3572 Clouds 16 1005 73 10000 5.38 124 08:46 23.05.2022
3573 Clouds 16 1005 73 10000 5.38 124 08:46 23.05.2022
3574 Clouds 16 1005 73 10000 5.38 124 08:46 23.05.2022
3575 Clouds 14 1006 75 10000 4.76 120 07:31 23.05.2022
3576 Clouds 13 1007 75 10000 4.41 114 06:40 23.05.2022
3577 Clouds 12 1009 77 10000 3.91 109 03:41 23.05.2022
3578 Clouds 13 1011 86 10000 4.01 113 01:52 23.05.2022
3579 Clouds 13 1012 75 10000 4.15 117 01:29 23.05.2022
3580 Clouds 12 1012 84 10000 3.78 103 23:18 22.05.2022
3581 Clouds 14 1013 86 10000 3.89 97 22:27 22.05.2022
3582 Clouds 13 1013 86 10000 3.89 97 21:52 22.05.2022
3583 Clouds 15 1013 85 10000 3.7 96 20:46 22.05.2022
3584 Clouds 17 1013 63 10000 3.82 104 20:23 22.05.2022
3585 Clouds 18 1014 80 10000 3.47 99 19:39 22.05.2022
3586 Clouds 19 1014 74 10000 3.51 98 18:52 22.05.2022
3587 Clouds 19 1015 68 10000 2.95 99 18:21 22.05.2022
3588 Clouds 19 1015 60 10000 1.94 85 17:26 22.05.2022
3589 Clouds 19 1015 58 10000 1.86 55 15:59 22.05.2022
3590 Clouds 19 1016 59 10000 1.75 32 14:48 22.05.2022
3591 Clouds 18 1016 67 10000 1.45 347 13:27 22.05.2022
3592 Clouds 18 1016 62 10000 1.45 347 12:50 22.05.2022
3593 Clouds 17 1017 65 10000 1.43 291 11:32 22.05.2022
3594 Clouds 15 1017 71 10000 2.25 247 09:41 22.05.2022
3595 Clear 13 1018 90 10000 2.62 239 08:31 22.05.2022
3596 Clouds 10 1018 92 10000 2.18 226 07:21 22.05.2022
3597 Clouds 8 1018 90 10000 2.3 247 05:22 22.05.2022
3598 Clouds 9 1019 87 10000 2.31 275 01:41 22.05.2022
3599 Clouds 10 1020 85 10000 2.92 279 00:43 22.05.2022
3600 Clouds 11 1020 83 10000 3.11 279 23:52 21.05.2022
3601 Clouds 12 1020 80 10000 3.5 286 22:28 21.05.2022
3602 Clouds 12 1020 92 10000 3.5 286 21:42 21.05.2022
3603 Clouds 13 1020 79 10000 4.13 289 20:59 21.05.2022
3604 Clouds 14 1020 77 10000 5.15 289 20:22 21.05.2022
3605 Clouds 15 1019 74 10000 5.94 287 19:27 21.05.2022
3606 Clouds 16 1019 72 10000 6.89 285 17:48 21.05.2022
3607 Clouds 17 1019 70 10000 7.24 286 16:43 21.05.2022
3608 Clouds 17 1019 68 10000 7.84 285 14:37 21.05.2022
3609 Clouds 17 1019 68 10000 8.28 281 13:42 21.05.2022
3610 Clouds 16 1018 75 10000 8.47 282 12:50 21.05.2022
3611 Clouds 16 1018 73 10000 8.94 278 12:25 21.05.2022
3612 Clouds 16 1017 76 10000 8.63 271 10:24 21.05.2022
3613 Clouds 14 1017 80 10000 8.63 271 09:43 21.05.2022
3614 Clouds 14 1016 84 10000 7.79 264 08:57 21.05.2022
3615 Clouds 13 1016 89 10000 7.38 256 07:53 21.05.2022
3616 Clouds 11 1015 93 10000 6.14 229 04:29 21.05.2022
3617 Clouds 11 1015 91 10000 7.1 283 23:54 20.05.2022
3618 Clouds 11 1014 91 10000 4.86 272 22:59 20.05.2022
3619 Rain 12 1013 90 10000 4.46 316 22:24 20.05.2022
3620 Clouds 12 1013 90 10000 4.46 316 21:47 20.05.2022
3621 Clouds 13 1012 91 10000 5.17 342 20:57 20.05.2022
3622 Clouds 13 1011 91 6269 5 351 20:25 20.05.2022
3623 Rain 13 1009 89 2764 7.35 354 19:27 20.05.2022
3624 Rain 14 1009 89 2764 7.35 354 18:47 20.05.2022
3625 Rain 16 1010 95 3383 5.18 359 17:37 20.05.2022
3626 Rain 19 1013 66 10000 3.19 96 16:21 20.05.2022
3627 Clouds 19 1013 67 10000 3.19 96 15:53 20.05.2022
3628 Clouds 20 1016 64 10000 2.16 139 14:31 20.05.2022
3629 Clouds 19 1016 67 10000 3.65 113 13:56 20.05.2022
3630 Clouds 18 1019 69 10000 1.91 166 11:45 20.05.2022
3631 Clouds 16 1020 75 10000 0.76 138 10:24 20.05.2022
3632 Clouds 14 1021 88 10000 0.6 217 08:50 20.05.2022
3633 Clouds 12 1021 92 10000 1.83 274 07:25 20.05.2022
3634 Clouds 10 1021 91 10000 1.83 274 06:36 20.05.2022
3635 Clouds 10 1021 90 10000 2.7 275 05:22 20.05.2022
3636 Clouds 14 1020 87 10000 5.76 288 00:54 20.05.2022
3637 Clouds 15 1019 87 10000 6.35 284 23:25 19.05.2022
3638 Clouds 16 1019 87 10000 6.48 277 22:26 19.05.2022
3639 Clouds 18 1019 90 10000 6.48 277 21:49 19.05.2022
3640 Clouds 17 1018 87 10000 6.13 277 21:23 19.05.2022
3641 Clouds 19 1018 93 10000 6.13 277 20:40 19.05.2022
3642 Clouds 19 1017 86 10000 6.67 277 19:53 19.05.2022
3643 Clouds 19 1016 90 10000 5.07 279 18:45 19.05.2022
3644 Rain 18 1017 90 10000 4.73 255 17:31 19.05.2022
3645 Rain 23 1017 72 10000 2.81 221 15:33 19.05.2022
3646 Clouds 24 1016 70 10000 3.69 153 14:29 19.05.2022
3647 Clouds 23 1016 69 10000 3.69 153 13:53 19.05.2022
3648 Clouds 20 1017 80 10000 1.12 60 11:46 19.05.2022
3649 Clouds 20 1017 79 10000 4.39 228 09:46 19.05.2022
3650 Clouds 19 1016 80 10000 3.4 128 08:27 19.05.2022
3651 Clouds 16 1017 90 10000 2.87 146 06:39 19.05.2022
3652 Clouds 15 1018 89 10000 2.17 119 02:57 19.05.2022
3653 Clouds 15 1019 87 10000 1.37 51 00:56 19.05.2022
3654 Clouds 16 1021 85 10000 1 23 23:00 18.05.2022
3655 Clouds 16 1021 84 10000 1 23 22:40 18.05.2022
3656 Clouds 17 1021 81 10000 1.63 356 21:32 18.05.2022
3657 Clouds 19 1021 95 10000 2.52 329 20:55 18.05.2022
3658 Clouds 20 1020 93 10000 3.25 328 20:19 18.05.2022
3659 Clouds 23 1021 90 10000 4.19 322 18:47 18.05.2022
3660 Clouds 24 1021 91 10000 4.72 321 17:42 18.05.2022
3661 Clouds 24 1020 91 6594 4.63 322 17:23 18.05.2022
3662 Clouds 25 1020 91 6594 4.63 322 16:52 18.05.2022
3663 Clouds 27 1020 80 6886 4.85 312 15:43 18.05.2022
3664 Clouds 28 1020 70 10000 4.07 280 15:19 18.05.2022
3665 Clouds 27 1020 63 10000 3.61 250 13:59 18.05.2022
3666 Clouds 26 1020 62 10000 4.1 231 12:53 18.05.2022
3667 Clouds 25 1020 62 10000 3.77 214 11:47 18.05.2022
3668 Clouds 24 1020 65 10000 3.51 199 11:29 18.05.2022
3669 Clouds 24 1020 64 10000 3.51 199 10:36 18.05.2022
3670 Clouds 18 1020 81 10000 4.07 155 07:59 18.05.2022
3671 Clouds 16 1019 86 10000 3.99 150 06:54 18.05.2022
3672 Clouds 16 1019 83 10000 3.94 128 03:34 18.05.2022
3673 Rain 17 1020 92 10000 3.88 114 00:42 18.05.2022
3674 Clouds 17 1020 95 10000 3.61 108 23:21 17.05.2022
3675 Clouds 18 1020 86 10000 3.04 65 21:21 17.05.2022
3676 Clouds 18 1020 86 10000 3.04 65 20:43 17.05.2022
3677 Clouds 20 1020 81 10000 2.22 47 19:31 17.05.2022
3678 Clouds 19 1020 72 10000 2.01 36 18:46 17.05.2022
3679 Clouds 22 1020 70 10000 2.31 5 17:34 17.05.2022
3680 Clouds 22 1020 69 10000 2.95 350 16:57 17.05.2022
3681 Clouds 22 1021 67 10000 3.29 337 15:58 17.05.2022
3682 Clouds 22 1021 65 10000 3.76 316 14:55 17.05.2022
3683 Clouds 22 1020 69 10000 3.87 301 14:28 17.05.2022
3684 Clouds 21 1021 68 10000 2.74 296 12:39 17.05.2022
3685 Clouds 19 1021 72 10000 2.54 274 10:39 17.05.2022
3686 Clouds 17 1020 80 10000 2.34 275 08:51 17.05.2022
3687 Clouds 15 1020 89 10000 2.62 266 07:55 17.05.2022
3688 Clouds 13 1019 90 10000 2.86 253 06:23 17.05.2022
3689 Clouds 15 1018 87 10000 3.48 245 01:23 17.05.2022
3690 Clouds 15 1017 97 10000 3.87 241 23:46 16.05.2022
3691 Rain 16 1017 89 10000 4.2 247 22:39 16.05.2022
3692 Rain 16 1016 88 10000 3.11 257 21:24 16.05.2022
3693 Rain 17 1016 86 10000 3.11 257 20:42 16.05.2022
3694 Clouds 19 1015 96 3817 5.87 283 18:51 16.05.2022
3695 Rain 24 1014 59 10000 3.03 147 17:18 16.05.2022
3696 Rain 25 1014 50 10000 4.49 142 15:35 16.05.2022
3697 Clouds 24 1015 66 10000 5.53 135 13:48 16.05.2022
3698 Clouds 23 1015 62 10000 6.23 123 12:41 16.05.2022
3699 Clouds 20 1015 59 10000 6.83 106 10:38 16.05.2022
3700 Clouds 15 1015 69 10000 6.23 101 08:32 16.05.2022
3701 Clouds 12 1016 73 10000 5.15 93 06:30 16.05.2022
3702 Clouds 12 1016 73 10000 5.15 93 06:30 16.05.2022
3703 Clouds 12 1018 85 10000 4.18 88 01:43 16.05.2022
3704 Clouds 13 1019 81 10000 4.44 73 22:52 15.05.2022
3705 Clouds 13 1019 79 10000 4.77 63 22:20 15.05.2022
3706 Clouds 13 1019 92 10000 4.77 63 21:37 15.05.2022
3707 Clouds 15 1019 87 10000 4.82 55 20:53 15.05.2022
3708 Clouds 19 1019 74 10000 4.88 67 18:52 15.05.2022
3709 Clouds 20 1020 58 10000 3.61 86 17:29 15.05.2022
3710 Clouds 20 1021 73 10000 3.24 90 14:58 15.05.2022
3711 Clouds 20 1021 64 10000 2.72 81 13:47 15.05.2022
3712 Clouds 19 1022 61 10000 2.73 82 12:21 15.05.2022
3713 Clouds 18 1022 65 10000 2.49 91 11:29 15.05.2022
3714 Clouds 16 1022 71 10000 2.63 83 09:58 15.05.2022
3715 Clear 9 1022 92 10000 1.71 109 07:25 15.05.2022
3716 Clear 8 1022 90 10000 1.71 109 06:56 15.05.2022
3717 Clear 7 1022 88 10000 1.51 123 04:26 15.05.2022
3718 Clouds 9 1023 84 10000 1.47 72 00:47 15.05.2022
3719 Clouds 10 1023 82 10000 1.51 47 23:38 14.05.2022
3720 Clouds 11 1023 90 10000 1.64 29 22:41 14.05.2022
3721 Clouds 13 1022 90 10000 2.31 346 21:27 14.05.2022
3722 Clouds 14 1022 90 10000 2.31 346 20:32 14.05.2022
3723 Clear 16 1022 73 10000 3.93 325 19:21 14.05.2022
3724 Clear 16 1022 73 10000 3.93 325 18:59 14.05.2022
3725 Clear 18 1022 69 10000 4.78 316 17:54 14.05.2022
3726 Clear 18 1021 66 10000 5.14 312 16:32 14.05.2022
3727 Clear 18 1021 63 10000 5.58 306 14:56 14.05.2022
3728 Clear 18 1021 63 10000 5.58 306 14:30 14.05.2022
3729 Clouds 17 1021 65 10000 5.63 297 12:18 14.05.2022
3730 Clouds 17 1020 62 10000 5.67 293 10:53 14.05.2022
3731 Clouds 17 1020 64 10000 5.46 290 10:20 14.05.2022
3732 Clouds 16 1020 67 10000 5.46 290 09:51 14.05.2022
3733 Clouds 14 1019 82 10000 4.64 272 08:22 14.05.2022
3734 Clouds 11 1018 88 10000 4.02 248 05:43 14.05.2022
3735 Clouds 12 1018 82 10000 5.18 241 01:58 14.05.2022
3736 Clouds 12 1018 80 10000 5.48 232 23:32 13.05.2022
3737 Clouds 12 1018 78 10000 5.11 229 22:57 13.05.2022
3738 Clouds 12 1018 76 10000 4.93 233 22:23 13.05.2022
3739 Clouds 13 1018 73 10000 4.93 233 21:38 13.05.2022
3740 Clouds 14 1018 70 10000 5.32 243 20:44 13.05.2022
3741 Clouds 15 1017 69 10000 5.91 252 20:24 13.05.2022
3742 Clouds 15 1017 63 10000 6.52 261 19:21 13.05.2022
3743 Clouds 16 1017 61 10000 7.5 267 17:50 13.05.2022
3744 Clouds 16 1017 61 10000 7.5 267 17:50 13.05.2022
3745 Clouds 16 1017 61 10000 8.48 268 17:27 13.05.2022
3746 Clouds 16 1017 60 10000 7.9 268 16:18 13.05.2022
3747 Clouds 16 1017 66 10000 8.26 268 14:54 13.05.2022
3748 Clouds 16 1017 67 10000 7.88 266 13:29 13.05.2022
3749 Clouds 15 1016 70 10000 8.49 266 12:25 13.05.2022
3750 Clouds 15 1016 71 10000 8.23 263 10:46 13.05.2022
3751 Clouds 14 1016 74 10000 7.75 257 09:33 13.05.2022
3752 Clouds 12 1015 80 10000 5.84 240 08:23 13.05.2022
3753 Clouds 11 1015 83 10000 5.85 233 07:42 13.05.2022
3754 Clouds 11 1014 83 10000 4.7 217 05:59 13.05.2022
3755 Clouds 10 1016 81 10000 4.19 224 02:48 13.05.2022
3756 Clear 10 1017 78 10000 3.68 223 23:56 12.05.2022
3757 Clear 10 1017 90 10000 3.24 235 22:44 12.05.2022
3758 Clear 11 1017 89 10000 2.96 255 21:54 12.05.2022
3759 Clouds 15 1016 76 10000 4.97 281 20:29 12.05.2022
3760 Clouds 17 1016 57 10000 6.44 278 18:51 12.05.2022
3761 Clouds 17 1016 62 10000 6.77 268 17:23 12.05.2022
3762 Clouds 18 1016 56 10000 6.67 267 15:55 12.05.2022
3763 Clear 18 1017 55 10000 6.68 267 14:41 12.05.2022
3764 Clear 18 1017 53 10000 6.65 266 13:41 12.05.2022
3765 Clear 16 1016 62 10000 6.45 260 10:46 12.05.2022
3766 Clear 14 1015 74 10000 5.85 256 09:28 12.05.2022
3767 Clear 13 1015 80 10000 5.85 256 08:51 12.05.2022
3768 Clouds 11 1014 90 10000 4.72 252 07:40 12.05.2022
3769 Clouds 9 1012 89 10000 4.77 251 06:19 12.05.2022
3770 Clouds 11 1010 85 10000 5.04 301 02:58 12.05.2022
3771 Clouds 13 1007 87 10000 8.81 248 00:36 12.05.2022
3772 Rain 13 1007 90 10000 7.99 240 22:36 11.05.2022
3773 Rain 13 1007 88 10000 7.06 236 21:52 11.05.2022
3774 Clouds 13 1006 88 10000 3.88 225 21:24 11.05.2022
3775 Clouds 16 1007 66 10000 5.28 250 18:58 11.05.2022
3776 Clouds 20 1008 57 10000 6.35 258 16:55 11.05.2022
3777 Clouds 21 1008 66 10000 6.6 261 15:38 11.05.2022
3778 Clouds 20 1008 60 10000 6.79 254 14:39 11.05.2022
3779 Clouds 20 1009 61 10000 7.38 247 14:19 11.05.2022
3780 Clouds 18 1009 65 10000 6.89 246 11:54 11.05.2022
3781 Clouds 18 1009 70 10000 6.52 243 11:23 11.05.2022
3782 Clouds 14 1009 80 10000 5.35 217 08:46 11.05.2022
3783 Clouds 12 1010 85 10000 3.83 200 05:45 11.05.2022
3784 Clouds 12 1013 84 10000 3.14 208 01:23 11.05.2022
3785 Clouds 13 1014 76 10000 2.59 225 22:32 10.05.2022
3786 Clouds 14 1014 73 10000 2.8 258 21:58 10.05.2022
3787 Clouds 15 1014 68 10000 3.74 269 20:58 10.05.2022
3788 Clouds 17 1013 62 10000 5.04 270 20:21 10.05.2022
3789 Clouds 18 1013 62 10000 5.92 269 18:35 10.05.2022
3790 Clouds 18 1013 58 10000 6.39 253 17:37 10.05.2022
3791 Clouds 22 1013 75 10000 7.17 255 15:43 10.05.2022
3792 Clouds 22 1015 69 10000 7.42 224 12:48 10.05.2022
3793 Clouds 23 1015 69 10000 6.36 213 11:53 10.05.2022
3794 Clouds 21 1015 69 10000 6.4 205 11:21 10.05.2022
3795 Clouds 21 1015 69 10000 6.4 205 10:55 10.05.2022
3796 Clouds 18 1016 74 10000 4.83 196 09:27 10.05.2022
3797 Clouds 14 1017 78 10000 4.39 192 07:47 10.05.2022
3798 Clouds 13 1018 83 10000 3.57 191 04:35 10.05.2022
3799 Clouds 12 1020 80 10000 3.41 192 01:37 10.05.2022
3800 Clouds 12 1021 82 10000 2.68 198 23:42 09.05.2022
3801 Clouds 12 1021 82 10000 2.68 198 23:42 09.05.2022
3802 Clouds 14 1021 78 10000 2.17 187 22:30 09.05.2022
3803 Clouds 15 1022 75 10000 0.8 209 21:36 09.05.2022
3804 Clouds 19 1021 66 10000 1.8 267 19:52 09.05.2022
3805 Clouds 19 1022 66 10000 1.47 297 19:52 09.05.2022
3806 Clear 21 1022 60 10000 2.39 205 18:22 09.05.2022
3807 Clear 23 1023 53 10000 2.73 202 17:25 09.05.2022
3808 Clear 22 1024 52 10000 2.83 181 15:54 09.05.2022
3809 Clear 21 1024 52 10000 2.83 181 15:35 09.05.2022
3810 Clear 21 1025 54 10000 2.09 185 14:33 09.05.2022
3811 Clouds 20 1026 56 10000 2.18 187 13:56 09.05.2022
3812 Clouds 19 1026 58 10000 2.52 168 12:51 09.05.2022
3813 Clouds 18 1026 62 10000 2.65 152 11:52 09.05.2022
3814 Clouds 17 1027 61 10000 2.8 140 10:47 09.05.2022
3815 Clouds 15 1027 70 10000 3.01 134 10:20 09.05.2022
3816 Clouds 7 1028 83 10000 2.44 136 07:56 09.05.2022
3817 Clouds 2 1028 88 10000 1.51 137 04:35 09.05.2022
3818 Clouds 5 1029 87 10000 1.27 31 00:23 09.05.2022
3819 Clouds 6 1029 82 10000 1.63 20 23:27 08.05.2022
3820 Clouds 7 1029 80 10000 2.14 14 22:29 08.05.2022
3821 Clouds 10 1028 84 10000 2.64 9 20:54 08.05.2022
3822 Clouds 11 1028 72 10000 3.26 5 20:22 08.05.2022
3823 Clouds 12 1028 71 10000 3.26 5 19:32 08.05.2022
3824 Clouds 13 1028 67 10000 4.05 4 18:35 08.05.2022
3825 Clouds 13 1028 61 10000 4.43 1 17:36 08.05.2022
3826 Clouds 14 1028 62 10000 4.89 355 15:46 08.05.2022
3827 Clouds 14 1029 61 10000 4.95 354 15:21 08.05.2022
3828 Clear 13 1029 63 10000 4.41 353 12:46 08.05.2022
3829 Clear 12 1029 66 10000 4.33 356 10:59 08.05.2022
3830 Clear 11 1029 67 10000 4.12 1 10:22 08.05.2022
3831 Clear 11 1029 69 10000 4.12 1 09:51 08.05.2022
3832 Clouds 8 1028 76 10000 3.55 5 07:43 08.05.2022
3833 Clouds 6 1027 77 10000 3.44 3 05:22 08.05.2022
3834 Clouds 7 1027 76 10000 3.67 4 03:21 08.05.2022
3835 Clouds 8 1027 78 10000 3.58 5 00:48 08.05.2022
3836 Clouds 8 1027 79 10000 3.58 8 23:56 07.05.2022
3837 Clouds 8 1027 79 10000 3.81 7 23:28 07.05.2022
3838 Clouds 9 1027 81 10000 3.81 7 22:35 07.05.2022
3839 Clouds 10 1026 80 10000 3.89 10 21:55 07.05.2022
3840 Clouds 11 1026 80 10000 4.41 14 21:21 07.05.2022
3841 Clouds 12 1025 81 10000 5.1 14 20:23 07.05.2022
3842 Clouds 14 1025 80 10000 5.84 16 18:49 07.05.2022
3843 Clouds 16 1024 80 10000 5.58 19 16:34 07.05.2022
3844 Clouds 16 1024 81 10000 5.16 9 14:53 07.05.2022
3845 Rain 13 1024 93 10000 1.47 0 11:28 07.05.2022
3846 Clouds 14 1023 84 10000 1.47 329 09:44 07.05.2022
3847 Clouds 13 1023 90 10000 2.83 295 08:30 07.05.2022
3848 Clouds 12 1022 90 10000 0.65 283 07:20 07.05.2022
3849 Rain 11 1022 90 10000 0.65 283 06:42 07.05.2022
3850 Clouds 11 1022 89 10000 1.88 263 04:18 07.05.2022
3851 Clouds 12 1023 80 10000 2.21 243 23:51 06.05.2022
3852 Clouds 11 1023 92 10000 2 254 22:40 06.05.2022
3853 Clouds 13 1023 92 10000 1.7 274 21:53 06.05.2022
3854 Clouds 14 1023 90 10000 1.85 299 21:29 06.05.2022
3855 Clouds 18 1022 85 10000 2.52 300 19:48 06.05.2022
3856 Clouds 19 1023 67 10000 3.21 298 19:24 06.05.2022
3857 Clouds 19 1023 79 10000 3.21 298 18:34 06.05.2022
3858 Clouds 19 1023 77 10000 3.77 305 17:36 06.05.2022
3859 Clouds 19 1023 66 10000 3.8 297 15:53 06.05.2022
3860 Clouds 19 1024 66 10000 3.29 290 15:28 06.05.2022
3861 Clouds 19 1024 63 10000 3.3 278 13:50 06.05.2022
3862 Clouds 18 1024 62 10000 3.49 274 12:51 06.05.2022
3863 Clouds 17 1024 70 10000 3.33 262 11:58 06.05.2022
3864 Clouds 16 1025 75 10000 3.28 255 11:24 06.05.2022
3865 Clouds 14 1025 85 10000 3.09 250 09:47 06.05.2022
3866 Clouds 12 1025 91 10000 2.98 249 09:18 06.05.2022
3867 Clouds 10 1025 91 10000 2.4 237 07:54 06.05.2022
3868 Clouds 7 1024 90 10000 2.15 236 06:26 06.05.2022
3869 Clouds 6 1024 88 10000 1.6 233 03:44 06.05.2022
3870 Clouds 7 1024 87 10000 1.34 243 02:38 06.05.2022
3871 Clouds 10 1025 82 10000 0.99 6 23:24 05.05.2022
3872 Clouds 10 1024 90 10000 1.49 4 21:51 05.05.2022
3873 Clouds 15 1024 89 10000 2.26 351 20:37 05.05.2022
3874 Clouds 16 1023 67 10000 2.77 341 19:19 05.05.2022
3875 Clouds 17 1022 63 10000 2.79 327 16:49 05.05.2022
3876 Clouds 17 1022 62 10000 2.62 326 15:46 05.05.2022
3877 Clouds 16 1022 60 10000 2.63 310 13:41 05.05.2022
3878 Clouds 16 1022 60 10000 2.16 293 13:18 05.05.2022
3879 Clouds 14 1022 66 10000 1.49 260 11:46 05.05.2022
3880 Clouds 10 1022 77 10000 1.07 198 09:47 05.05.2022
3881 Clouds 9 1021 79 10000 0.92 190 09:26 05.05.2022
3882 Clouds 5 1021 85 10000 0.96 171 06:33 05.05.2022
3883 Clouds 5 1020 86 10000 0.76 116 02:28 05.05.2022
3884 Clouds 4 1020 85 10000 0.93 124 01:47 05.05.2022
3885 Clouds 4 1020 84 10000 1.02 98 01:19 05.05.2022
3886 Clouds 6 1019 80 10000 1.73 48 23:27 04.05.2022
3887 Clouds 7 1019 77 10000 2.14 27 22:23 04.05.2022
3888 Clouds 8 1019 74 10000 2.14 27 21:46 04.05.2022
3889 Clouds 9 1019 73 10000 2.45 6 21:22 04.05.2022
3890 Clouds 10 1018 70 10000 2.59 347 20:20 04.05.2022
3891 Clouds 11 1018 68 10000 2.69 347 19:44 04.05.2022
3892 Clouds 12 1018 64 10000 2.91 342 18:44 04.05.2022
3893 Clouds 12 1018 61 10000 3.26 336 18:20 04.05.2022
3894 Clouds 13 1018 58 10000 3.82 331 17:22 04.05.2022
3895 Clouds 13 1018 60 10000 3.87 326 15:35 04.05.2022
3896 Clouds 13 1019 59 10000 3.29 320 14:49 04.05.2022
3897 Clouds 12 1019 62 10000 2.76 319 14:20 04.05.2022
3898 Clouds 11 1019 63 10000 2.77 315 12:58 04.05.2022
3899 Clouds 11 1019 63 10000 2.68 313 12:28 04.05.2022
3900 Clouds 10 1019 66 10000 2.44 309 10:33 04.05.2022
3901 Clouds 9 1019 68 10000 1.99 300 09:28 04.05.2022
3902 Clouds 8 1019 72 10000 1.99 300 08:33 04.05.2022
3903 Clouds 7 1019 73 10000 1.43 282 05:50 04.05.2022
3904 Clear 7 1019 71 10000 1.91 317 02:43 04.05.2022
3905 Clouds 7 1020 71 10000 1.87 331 23:31 03.05.2022
3906 Clouds 7 1020 70 10000 2.53 341 22:20 03.05.2022
3907 Clouds 8 1020 70 10000 2.53 341 21:36 03.05.2022
3908 Clouds 9 1019 69 10000 2.89 342 20:52 03.05.2022
3909 Clouds 10 1019 66 10000 3.54 342 19:44 03.05.2022
3910 Clouds 11 1019 68 10000 4.61 341 18:50 03.05.2022
3911 Clouds 11 1019 66 10000 4.92 338 17:45 03.05.2022
3912 Clouds 12 1019 64 10000 5.27 336 16:35 03.05.2022
3913 Clouds 12 1020 66 10000 4.67 335 14:51 03.05.2022
3914 Clouds 11 1020 68 10000 4.83 334 12:47 03.05.2022
3915 Clouds 11 1020 69 10000 4.55 336 12:27 03.05.2022
3916 Clouds 10 1020 78 10000 4.24 346 10:52 03.05.2022
3917 Clouds 9 1019 90 10000 4.74 1 09:21 03.05.2022
3918 Clouds 7 1018 90 10000 2.73 342 06:46 03.05.2022
3919 Clouds 6 1018 90 10000 2.47 315 05:56 03.05.2022
3920 Clouds 6 1020 82 10000 2.04 338 00:19 03.05.2022
3921 Clouds 7 1020 76 10000 2.17 347 22:36 02.05.2022
3922 Clouds 9 1020 74 10000 2.41 356 21:51 02.05.2022
3923 Clear 10 1020 72 10000 2.94 359 20:51 02.05.2022
3924 Clear 14 1019 61 10000 3.61 356 18:37 02.05.2022
3925 Clear 15 1019 59 10000 4.28 354 17:57 02.05.2022
3926 Clear 15 1019 59 10000 4.28 354 17:34 02.05.2022
3927 Clear 16 1020 55 10000 4.39 341 16:22 02.05.2022
3928 Clear 16 1020 55 10000 4.39 341 15:30 02.05.2022
3929 Clear 16 1020 55 10000 4.39 341 15:30 02.05.2022
3930 Clear 15 1020 53 10000 3.49 341 13:50 02.05.2022
3931 Clear 14 1021 55 10000 2.49 346 12:19 02.05.2022
3932 Clear 13 1021 63 10000 2.11 352 10:47 02.05.2022
3933 Clouds 11 1021 72 10000 1.28 23 09:20 02.05.2022
3934 Clear 6 1022 91 10000 1.4 41 07:51 02.05.2022
3935 Clear 3 1022 87 10000 1.61 59 03:48 02.05.2022
3936 Clouds 6 1023 84 10000 2.1 64 00:24 02.05.2022
3937 Clouds 5 1023 83 10000 2.1 64 23:48 01.05.2022
3938 Clouds 8 1023 78 10000 2.63 51 22:25 01.05.2022
3939 Clouds 9 1023 73 10000 2.72 44 21:19 01.05.2022
3940 Clouds 11 1023 71 10000 2.82 32 19:53 01.05.2022
3941 Clouds 12 1022 70 10000 3.12 31 18:58 01.05.2022
3942 Clouds 12 1023 68 10000 2.94 28 18:28 01.05.2022
3943 Clouds 13 1023 67 10000 2.86 20 17:29 01.05.2022
3944 Clouds 13 1023 67 10000 3.12 4 16:23 01.05.2022
3945 Clouds 13 1023 66 10000 3.29 349 15:25 01.05.2022
3946 Clouds 13 1024 69 10000 3.01 334 13:47 01.05.2022
3947 Clouds 11 1024 72 10000 1.26 300 11:23 01.05.2022
3948 Clouds 8 1025 86 10000 0.89 289 08:53 01.05.2022
3949 Clouds 8 1025 89 10000 1.6 312 08:34 01.05.2022
3950 Clouds 4 1024 88 10000 0.88 310 03:44 01.05.2022
3951 Clouds 5 1025 84 10000 1.61 359 00:29 01.05.2022
3952 Clouds 8 1026 78 10000 2.69 349 21:49 30.04.2022
3953 Clear 9 1025 77 10000 2.94 350 21:18 30.04.2022
3954 Clouds 10 1025 75 10000 3.1 343 19:42 30.04.2022
3955 Clouds 11 1025 73 10000 4.31 341 18:28 30.04.2022
3956 Clouds 12 1025 72 10000 4.29 340 16:50 30.04.2022
3957 Clouds 12 1025 72 10000 4.51 337 15:47 30.04.2022
3958 Clouds 12 1026 70 10000 4.19 340 14:48 30.04.2022
3959 Clouds 12 1026 72 10000 3.53 347 13:20 30.04.2022
3960 Clouds 11 1027 73 10000 3.2 351 11:34 30.04.2022
3961 Clouds 11 1027 72 10000 2.86 358 10:45 30.04.2022
3962 Clouds 10 1027 75 10000 2.79 4 09:48 30.04.2022
3963 Clouds 5 1027 88 10000 2.26 357 06:48 30.04.2022
3964 Clouds 6 1028 86 10000 2.85 345 02:55 30.04.2022
3965 Clouds 7 1029 81 10000 3.35 352 23:37 29.04.2022
3966 Clouds 7 1029 79 10000 3.27 351 22:34 29.04.2022
3967 Clouds 8 1029 78 10000 3.18 352 21:54 29.04.2022
3968 Clouds 8 1029 76 10000 3.26 358 20:51 29.04.2022
3969 Clouds 9 1028 74 10000 4.21 9 19:47 29.04.2022
3970 Clouds 10 1028 72 10000 4.76 5 18:36 29.04.2022
3971 Clouds 10 1029 71 10000 4.74 0 17:25 29.04.2022
3972 Clouds 10 1029 72 10000 4.8 5 15:52 29.04.2022
3973 Clouds 10 1030 69 10000 4.72 3 14:23 29.04.2022
3974 Clouds 11 1030 69 10000 4.31 15 13:27 29.04.2022
3975 Clouds 10 1030 72 10000 4.04 26 11:51 29.04.2022
3976 Clouds 9 1030 74 10000 3.64 34 09:23 29.04.2022
3977 Clouds 6 1030 82 10000 2.57 32 07:29 29.04.2022
3978 Clouds 5 1030 84 10000 2.57 32 06:46 29.04.2022
3979 Clouds 5 1030 84 10000 2.85 32 05:55 29.04.2022
3980 Clouds 5 1032 80 10000 2.85 19 00:47 29.04.2022
3981 Clouds 6 1032 80 10000 2.91 18 23:48 28.04.2022
3982 Clouds 6 1032 79 10000 2.86 17 22:45 28.04.2022
3983 Clouds 7 1032 78 10000 3.08 15 21:55 28.04.2022
3984 Clouds 7 1032 77 10000 3.16 11 21:29 28.04.2022
3985 Clouds 8 1032 77 10000 3.16 11 20:37 28.04.2022
3986 Clouds 10 1031 74 10000 3.6 9 19:46 28.04.2022
3987 Clouds 10 1031 74 10000 4.43 7 19:23 28.04.2022
3988 Clouds 11 1031 71 10000 4.43 7 18:37 28.04.2022
3989 Clouds 12 1031 66 10000 4.85 5 17:32 28.04.2022
3990 Clouds 12 1031 67 10000 4.92 2 16:49 28.04.2022
3991 Clouds 13 1031 67 10000 4.83 358 16:19 28.04.2022
3992 Clouds 13 1031 67 10000 4.83 358 15:41 28.04.2022
3993 Clouds 12 1031 67 10000 4.72 352 14:47 28.04.2022
3994 Clouds 12 1031 68 10000 4.4 352 13:20 28.04.2022
3995 Clouds 12 1031 71 10000 3.98 359 12:28 28.04.2022
3996 Clouds 10 1031 74 10000 3.83 1 10:51 28.04.2022
3997 Clouds 10 1031 73 10000 3.66 1 10:26 28.04.2022
3998 Clouds 10 1031 73 10000 3.66 1 09:43 28.04.2022
3999 Clouds 8 1030 80 10000 2.59 10 07:40 28.04.2022
4000 Clouds 6 1030 82 10000 2.43 5 06:38 28.04.2022
4001 Clouds 5 1029 76 10000 2.32 0 05:40 28.04.2022
4002 Clouds 5 1029 74 10000 2.27 350 04:42 28.04.2022
4003 Clouds 5 1029 72 10000 2.07 7 00:52 28.04.2022
4004 Clouds 6 1029 75 10000 2.15 16 23:18 27.04.2022
4005 Clouds 7 1028 72 10000 2.44 17 21:58 27.04.2022
4006 Clouds 8 1028 72 10000 2.44 17 21:32 27.04.2022
4007 Clouds 8 1028 71 10000 2.72 6 20:44 27.04.2022
4008 Clouds 10 1027 68 10000 2.89 343 19:54 27.04.2022
4009 Clouds 10 1027 67 10000 2.89 343 19:31 27.04.2022
4010 Clouds 11 1027 66 10000 3.68 340 18:38 27.04.2022
4011 Clouds 11 1027 67 10000 4.01 332 17:41 27.04.2022
4012 Clouds 12 1027 64 10000 4.31 325 15:57 27.04.2022
4013 Clouds 11 1026 67 10000 3.03 310 12:59 27.04.2022
4014 Clouds 10 1026 63 10000 1.96 306 11:24 27.04.2022
4015 Clouds 10 1026 62 10000 1.96 306 10:45 27.04.2022
4016 Clouds 7 1025 70 10000 0.76 251 08:22 27.04.2022
4017 Clouds 6 1024 84 10000 1.03 254 06:41 27.04.2022
4018 Clouds 5 1023 84 10000 0.99 306 02:31 27.04.2022
4019 Clear 4 1023 84 10000 0.79 351 01:21 27.04.2022
4020 Clear 4 1023 83 10000 1.38 357 00:27 27.04.2022
4021 Clear 5 1022 80 10000 1.85 353 23:24 26.04.2022
4022 Clear 6 1022 78 10000 1.85 353 22:45 26.04.2022
4023 Clear 6 1022 77 10000 2.31 350 22:19 26.04.2022
4024 Clear 8 1021 74 10000 2.71 344 21:24 26.04.2022
4025 Clear 10 1021 73 10000 2.71 344 20:38 26.04.2022
4026 Clouds 10 1021 69 10000 3.27 340 19:45 26.04.2022
4027 Clouds 11 1020 67 10000 4.31 337 19:26 26.04.2022
4028 Clouds 11 1020 67 10000 4.31 337 18:39 26.04.2022
4029 Clouds 12 1020 63 10000 5.09 334 17:41 26.04.2022
4030 Clouds 13 1019 62 10000 5.22 338 15:41 26.04.2022
4031 Clouds 13 1019 64 10000 5.27 343 13:55 26.04.2022
4032 Clouds 12 1019 63 10000 5.35 349 13:28 26.04.2022
4033 Clear 11 1018 68 10000 5.42 4 11:24 26.04.2022
4034 Clear 10 1018 72 10000 5.42 4 10:30 26.04.2022
4035 Clear 8 1017 80 10000 6.01 8 08:38 26.04.2022
4036 Clear 7 1016 85 10000 3.77 4 05:29 26.04.2022
4037 Clear 7 1016 86 10000 3.9 4 04:22 26.04.2022
4038 Clouds 7 1016 82 10000 3.77 17 00:52 26.04.2022
4039 Clouds 8 1016 78 10000 3.88 16 23:51 25.04.2022
4040 Clouds 8 1016 74 10000 4.61 19 21:57 25.04.2022
4041 Clouds 8 1016 75 10000 4.61 19 21:33 25.04.2022
4042 Clouds 9 1015 73 10000 5.69 20 20:26 25.04.2022
4043 Clouds 12 1014 70 10000 6.03 21 18:52 25.04.2022
4044 Clouds 13 1014 71 10000 5.85 26 17:40 25.04.2022
4045 Clouds 13 1014 68 10000 4.32 34 16:50 25.04.2022
4046 Clouds 14 1014 72 10000 3.97 71 15:23 25.04.2022
4047 Clouds 14 1014 65 10000 3.97 71 14:34 25.04.2022
4048 Clouds 13 1013 62 10000 5.93 62 13:21 25.04.2022
4049 Clouds 9 1013 75 10000 6.18 70 10:58 25.04.2022
4050 Clouds 8 1013 78 10000 6.45 68 09:55 25.04.2022
4051 Clouds 7 1012 82 10000 5.16 56 08:23 25.04.2022
4052 Clouds 7 1011 93 10000 5.12 60 06:18 25.04.2022
4053 Clouds 7 1011 90 10000 5.75 57 01:49 25.04.2022
4054 Clouds 8 1010 79 10000 5.65 53 23:57 24.04.2022
4055 Clouds 8 1010 78 10000 5.65 53 23:30 24.04.2022
4056 Clouds 9 1010 76 10000 5.83 51 22:40 24.04.2022
4057 Clouds 9 1009 75 10000 5.97 48 21:58 24.04.2022
4058 Clouds 9 1009 75 10000 5.89 42 21:23 24.04.2022
4059 Clouds 10 1009 74 10000 5.89 42 20:47 24.04.2022
4060 Clouds 10 1009 74 10000 5.89 42 20:47 24.04.2022
4061 Clear 11 1009 73 10000 6.83 43 20:21 24.04.2022
4062 Clear 12 1008 67 10000 7.27 45 18:58 24.04.2022
4063 Clear 14 1008 62 10000 7.44 48 17:55 24.04.2022
4064 Clear 14 1008 61 10000 7.76 43 17:22 24.04.2022
4065 Clear 14 1008 61 10000 7.76 43 16:58 24.04.2022
4066 Clear 14 1008 61 10000 7.76 43 16:30 24.04.2022
4067 Clear 14 1008 59 10000 7.67 42 15:53 24.04.2022
4068 Clear 15 1008 58 10000 7.94 45 14:55 24.04.2022
4069 Clear 15 1008 59 10000 7.81 50 13:45 24.04.2022
4070 Clear 15 1008 59 10000 8 54 13:23 24.04.2022
4071 Clear 13 1008 63 10000 8.21 56 11:55 24.04.2022
4072 Clear 13 1008 64 10000 8 59 11:22 24.04.2022
4073 Clear 11 1008 66 10000 7.9 63 09:51 24.04.2022
4074 Clear 9 1008 76 10000 7.48 65 08:31 24.04.2022
4075 Clear 7 1008 81 10000 5.91 62 06:18 24.04.2022
4076 Clear 8 1008 74 10000 5.73 63 02:59 24.04.2022
4077 Clear 9 1009 72 10000 5.87 62 01:18 24.04.2022
4078 Clear 10 1009 72 10000 5.97 64 23:55 23.04.2022
4079 Clear 10 1009 74 10000 6.5 68 23:25 23.04.2022
4080 Clear 11 1009 73 10000 6.5 68 22:42 23.04.2022
4081 Clear 12 1009 70 10000 7.21 67 21:49 23.04.2022
4082 Clear 13 1009 66 10000 7.21 67 21:31 23.04.2022
4083 Clear 14 1008 61 10000 7.03 65 20:27 23.04.2022
4084 Clear 16 1008 51 10000 5.9 70 19:21 23.04.2022
4085 Clear 17 1008 48 10000 5.9 70 18:55 23.04.2022
4086 Clear 17 1008 48 10000 5.9 70 18:32 23.04.2022
4087 Clear 18 1008 60 10000 5.84 78 17:48 23.04.2022
4088 Clear 18 1008 56 10000 6.54 86 16:47 23.04.2022
4089 Clear 17 1009 51 10000 7.6 91 16:21 23.04.2022
4090 Clear 17 1009 46 10000 8.72 93 14:27 23.04.2022
4091 Clear 15 1010 54 10000 8.93 90 11:59 23.04.2022
4092 Clear 14 1010 62 10000 8.56 89 10:40 23.04.2022
4093 Clear 11 1011 72 10000 7.2 83 08:42 23.04.2022
4094 Clear 9 1010 82 10000 6.44 80 05:45 23.04.2022
4095 Clouds 10 1010 81 10000 5.87 76 03:54 23.04.2022
4096 Clouds 11 1010 92 10000 6.22 82 00:46 23.04.2022
4097 Clouds 12 1010 73 10000 6.63 71 23:27 22.04.2022
4098 Clouds 12 1010 86 10000 6.67 67 21:59 22.04.2022
4099 Clouds 12 1010 86 10000 6.67 67 21:40 22.04.2022
4100 Clouds 14 1009 85 10000 6.23 66 20:44 22.04.2022
4101 Clouds 15 1009 62 10000 7.1 71 20:25 22.04.2022
4102 Clouds 16 1009 60 10000 7.43 72 19:18 22.04.2022
4103 Clouds 15 1009 76 10000 7.43 72 18:35 22.04.2022
4104 Clouds 17 1009 74 10000 7.28 74 17:37 22.04.2022
4105 Clouds 17 1009 71 10000 7.56 69 16:30 22.04.2022
4106 Clouds 17 1009 58 10000 7.29 71 15:32 22.04.2022
4107 Clear 17 1009 57 10000 6.82 71 14:43 22.04.2022
4108 Clear 16 1010 57 10000 7 72 13:42 22.04.2022
4109 Clear 15 1011 64 10000 6.86 72 12:57 22.04.2022
4110 Clear 13 1011 66 10000 7.22 70 11:43 22.04.2022
4111 Clear 13 1011 68 10000 7.25 67 11:20 22.04.2022
4112 Clear 13 1011 66 10000 7.24 67 10:47 22.04.2022
4113 Clear 12 1011 70 10000 6.84 64 10:27 22.04.2022
4114 Clear 11 1011 71 10000 6.85 64 09:42 22.04.2022
4115 Clear 10 1012 75 10000 6.7 65 08:49 22.04.2022
4116 Clouds 7 1012 83 10000 5.32 59 06:56 22.04.2022
4117 Clouds 10 1014 78 10000 4.85 59 01:53 22.04.2022
4118 Clouds 11 1014 74 10000 4.15 60 23:53 21.04.2022
4119 Clouds 11 1014 75 10000 4.39 68 22:59 21.04.2022
4120 Clouds 12 1014 75 10000 4.92 68 21:59 21.04.2022
4121 Clouds 13 1014 71 10000 5.32 64 20:34 21.04.2022
4122 Clouds 13 1014 70 10000 5.94 64 19:53 21.04.2022
4123 Clouds 14 1014 63 10000 5.64 60 18:35 21.04.2022
4124 Clouds 15 1014 61 10000 5.37 51 17:54 21.04.2022
4125 Clouds 16 1014 64 10000 5.79 60 16:30 21.04.2022
4126 Clouds 16 1015 58 10000 6.06 59 15:21 21.04.2022
4127 Clouds 16 1015 59 10000 6.16 62 14:38 21.04.2022
4128 Clouds 15 1016 57 10000 6.71 58 13:23 21.04.2022
4129 Clouds 15 1016 57 10000 6.71 58 12:53 21.04.2022
4130 Clouds 13 1016 61 10000 6.25 64 10:47 21.04.2022
4131 Clouds 11 1016 71 10000 5.47 71 08:55 21.04.2022
4132 Clouds 6 1016 83 10000 3.53 73 07:24 21.04.2022
4133 Clouds 6 1016 81 10000 3.67 77 05:42 21.04.2022
4134 Clouds 7 1017 84 10000 3.61 76 03:28 21.04.2022
4135 Clouds 7 1017 83 10000 3.61 76 02:47 21.04.2022
4136 Clouds 7 1017 83 10000 3.61 76 02:47 21.04.2022
4137 Clouds 7 1017 77 10000 3.31 71 00:45 21.04.2022
4138 Clouds 7 1017 74 10000 3.32 65 23:50 20.04.2022
4139 Clouds 8 1017 73 10000 3.73 52 23:22 20.04.2022
4140 Clouds 8 1017 72 10000 3.73 52 22:49 20.04.2022
4141 Clouds 8 1017 71 10000 3.73 52 22:30 20.04.2022
4142 Clouds 10 1017 68 10000 4.05 35 21:27 20.04.2022
4143 Clouds 12 1017 63 10000 4.43 34 20:24 20.04.2022
4144 Clouds 13 1017 61 10000 4.43 34 19:52 20.04.2022
4145 Clouds 14 1017 62 10000 4.69 38 19:21 20.04.2022
4146 Clouds 15 1017 59 10000 5.34 48 18:22 20.04.2022
4147 Clouds 16 1017 59 10000 5.94 51 16:54 20.04.2022
4148 Clouds 16 1017 59 10000 5.94 51 16:36 20.04.2022
4149 Clear 15 1018 52 10000 5.41 62 13:59 20.04.2022
4150 Clear 14 1019 45 10000 5.06 79 11:52 20.04.2022
4151 Clear 13 1020 53 10000 4.97 79 11:24 20.04.2022
4152 Clear 12 1020 59 10000 4.65 81 10:22 20.04.2022
4153 Clear 10 1019 66 10000 4.46 83 09:25 20.04.2022
4154 Clear 8 1019 77 10000 3.52 76 08:22 20.04.2022
4155 Clear 8 1019 77 10000 3.52 76 08:22 20.04.2022
4156 Clear 6 1019 81 10000 3.44 75 07:42 20.04.2022
4157 Clear 6 1019 76 10000 3.62 73 03:54 20.04.2022
4158 Clear 8 1019 71 10000 4.19 70 00:24 20.04.2022
4159 Clear 8 1019 72 10000 4.19 70 23:59 19.04.2022
4160 Clouds 10 1019 78 10000 4.16 61 22:28 19.04.2022
4161 Clouds 10 1019 76 10000 4.16 61 21:57 19.04.2022
4162 Clouds 10 1019 75 10000 4.16 61 21:34 19.04.2022
4163 Clouds 11 1018 71 10000 4.84 46 20:50 19.04.2022
4164 Clouds 12 1018 70 10000 4.84 46 20:32 19.04.2022
4165 Clouds 14 1017 67 10000 5.68 38 19:24 19.04.2022
4166 Clouds 16 1017 66 10000 5.71 50 17:59 19.04.2022
4167 Clear 17 1017 61 10000 5.83 63 16:44 19.04.2022
4168 Clear 17 1017 58 10000 5.99 69 16:24 19.04.2022
4169 Clear 17 1017 48 10000 5.72 75 15:20 19.04.2022
4170 Clear 17 1017 56 10000 5.72 75 14:31 19.04.2022
4171 Clouds 16 1017 52 10000 4.99 95 12:52 19.04.2022
4172 Clouds 15 1017 53 10000 5.03 97 12:26 19.04.2022
4173 Clouds 14 1017 54 10000 4.87 98 11:23 19.04.2022
4174 Clouds 11 1017 75 10000 4.14 99 09:26 19.04.2022
4175 Clouds 6 1016 80 10000 3.2 93 07:26 19.04.2022
4176 Clear 7 1016 79 10000 3.65 93 04:19 19.04.2022
4177 Clear 8 1017 74 10000 3.6 102 01:18 19.04.2022
4178 Clear 9 1018 67 10000 3.49 99 23:40 18.04.2022
4179 Clear 12 1018 60 10000 3.31 107 21:56 18.04.2022
4180 Clear 12 1018 56 10000 3.51 107 21:24 18.04.2022
4181 Clear 13 1018 70 10000 3.66 110 20:38 18.04.2022
4182 Clear 13 1018 69 10000 3.51 107 20:38 18.04.2022
4183 Clear 16 1017 71 10000 3.42 107 19:59 18.04.2022
4184 Clear 17 1017 43 10000 3.42 107 19:30 18.04.2022
4185 Clear 18 1017 40 10000 2.75 111 18:37 18.04.2022
4186 Clear 19 1017 53 10000 2.91 122 17:39 18.04.2022
4187 Clear 19 1018 46 10000 2.98 136 17:19 18.04.2022
4188 Clear 19 1018 46 10000 2.98 136 16:38 18.04.2022
4189 Clear 19 1018 40 10000 3.34 140 15:30 18.04.2022
4190 Clear 18 1019 43 10000 3.95 149 14:22 18.04.2022
4191 Clear 17 1019 39 10000 4.43 153 12:54 18.04.2022
4192 Clear 16 1020 52 10000 4.95 149 12:23 18.04.2022
4193 Clear 14 1020 51 10000 5.08 148 10:46 18.04.2022
4194 Clear 12 1020 57 10000 5.31 141 09:32 18.04.2022
4195 Clear 9 1020 66 10000 4.92 139 08:39 18.04.2022
4196 Clear 5 1021 69 10000 3.75 142 06:52 18.04.2022
4197 Clear 7 1022 56 10000 4.01 126 02:29 18.04.2022
4198 Clear 7 1024 66 10000 4.02 125 23:21 17.04.2022
4199 Clear 8 1024 66 10000 4.02 125 22:36 17.04.2022
4200 Clear 10 1025 67 10000 4.11 116 21:34 17.04.2022
4201 Clear 11 1024 68 10000 3.87 118 20:52 17.04.2022
4202 Clear 15 1024 69 10000 3.72 113 20:19 17.04.2022
4203 Clear 16 1025 60 10000 3.91 120 18:45 17.04.2022
4204 Clear 17 1025 54 10000 4.54 122 17:31 17.04.2022
4205 Clear 17 1026 38 10000 4.78 125 15:37 17.04.2022
4206 Clear 16 1027 42 10000 4.13 132 14:45 17.04.2022
4207 Clear 16 1028 40 10000 3.74 136 13:37 17.04.2022
4208 Clouds 15 1029 42 10000 3.76 136 12:49 17.04.2022
4209 Clouds 13 1030 54 10000 3.79 142 10:59 17.04.2022
4210 Clouds 12 1030 55 10000 3.67 140 10:29 17.04.2022
4211 Clouds 11 1030 58 10000 3.67 140 09:55 17.04.2022
4212 Clouds 10 1030 64 10000 3.41 137 09:21 17.04.2022
4213 Clouds 7 1030 72 10000 3.41 137 08:41 17.04.2022
4214 Clouds 3 1031 80 10000 3.25 136 06:32 17.04.2022
4215 Clouds 5 1032 72 10000 3.44 132 02:31 17.04.2022
4216 Clear 6 1033 69 10000 3.37 129 00:42 17.04.2022
4217 Clear 7 1034 68 10000 3.47 118 23:41 16.04.2022
4218 Clear 8 1034 66 10000 3.32 106 21:54 16.04.2022
4219 Clear 9 1034 65 10000 3.14 105 21:19 16.04.2022
4220 Clouds 13 1033 47 10000 3.01 108 19:30 16.04.2022
4221 Clouds 13 1033 45 10000 3.29 122 18:44 16.04.2022
4222 Clouds 14 1034 49 10000 4.92 120 17:21 16.04.2022
4223 Clouds 14 1034 49 10000 4.92 120 16:30 16.04.2022
4224 Clouds 14 1035 44 10000 4.82 117 15:23 16.04.2022
4225 Clouds 13 1035 48 10000 4.82 117 14:43 16.04.2022
4226 Clouds 12 1035 49 10000 5.26 117 13:50 16.04.2022
4227 Clouds 12 1035 51 10000 5.38 114 13:24 16.04.2022
4228 Clouds 11 1035 59 10000 5.18 113 11:58 16.04.2022
4229 Clouds 9 1035 63 10000 5.39 114 10:35 16.04.2022
4230 Clouds 8 1035 73 10000 5.67 115 09:39 16.04.2022
4231 Clouds 7 1035 79 10000 5.83 114 08:54 16.04.2022
4232 Clouds 6 1034 86 10000 4.6 102 07:31 16.04.2022
4233 Clouds 6 1033 86 10000 4.87 97 06:18 16.04.2022
4234 Clouds 7 1032 87 10000 4.06 94 01:53 16.04.2022
4235 Clouds 8 1032 86 10000 2.38 57 00:19 16.04.2022
4236 Clouds 8 1031 85 10000 2.07 39 22:52 15.04.2022
4237 Clouds 8 1031 84 10000 2.07 39 22:31 15.04.2022
4238 Clouds 8 1031 83 10000 2.25 39 21:35 15.04.2022
4239 Clouds 8 1031 82 10000 2.65 36 20:44 15.04.2022
4240 Clouds 8 1030 81 10000 3.31 26 19:52 15.04.2022
4241 Clouds 9 1030 81 10000 3.31 26 19:33 15.04.2022
4242 Clouds 9 1030 80 10000 3.95 17 18:45 15.04.2022
4243 Clouds 9 1029 80 10000 4.11 15 18:23 15.04.2022
4244 Clouds 9 1029 81 10000 4.25 10 17:29 15.04.2022
4245 Clouds 9 1029 81 10000 4.14 12 16:26 15.04.2022
4246 Clouds 9 1029 80 10000 4.14 12 15:54 15.04.2022
4247 Clouds 9 1029 79 10000 4.09 13 14:30 15.04.2022
4248 Clouds 9 1028 79 10000 3.71 4 13:23 15.04.2022
4249 Clouds 9 1028 78 10000 3.71 3 12:40 15.04.2022
4250 Clouds 9 1028 79 10000 3.53 358 11:54 15.04.2022
4251 Clouds 8 1028 79 10000 3.83 355 10:49 15.04.2022
4252 Clouds 8 1027 79 10000 4.01 350 10:22 15.04.2022
4253 Clouds 8 1027 83 10000 4.01 350 09:38 15.04.2022
4254 Clouds 8 1027 84 10000 3.97 344 09:18 15.04.2022
4255 Clouds 7 1026 87 10000 4.12 349 06:56 15.04.2022
4256 Clouds 7 1025 85 10000 4.19 348 05:57 15.04.2022
4257 Clouds 8 1024 85 10000 4.93 329 01:49 15.04.2022
4258 Clouds 8 1024 84 10000 4.46 316 23:30 14.04.2022
4259 Clouds 8 1024 85 10000 4.47 316 22:47 14.04.2022
4260 Clear 8 1023 85 10000 4.02 310 22:28 14.04.2022
4261 Clear 8 1023 84 10000 4.02 310 21:54 14.04.2022
4262 Clouds 9 1022 83 10000 4.14 302 20:35 14.04.2022
4263 Clouds 11 1021 82 10000 5.4 304 19:22 14.04.2022
4264 Clouds 13 1021 77 10000 6.2 305 18:18 14.04.2022
4265 Clouds 14 1020 76 10000 6.13 303 17:28 14.04.2022
4266 Clouds 14 1020 76 10000 6.13 303 16:33 14.04.2022
4267 Clear 16 1020 72 10000 6.79 288 14:28 14.04.2022
4268 Clouds 16 1020 67 10000 6.41 287 13:39 14.04.2022
4269 Clear 16 1020 66 10000 6.09 282 12:51 14.04.2022
4270 Clear 16 1019 71 10000 5.27 277 12:31 14.04.2022
4271 Clear 16 1019 72 10000 4.8 275 11:24 14.04.2022
4272 Clear 14 1019 76 10000 4.8 275 10:41 14.04.2022
4273 Clear 13 1019 80 10000 3.98 269 09:57 14.04.2022
4274 Clear 10 1019 91 10000 3.41 269 08:44 14.04.2022
4275 Clouds 9 1018 89 10000 2.88 253 06:53 14.04.2022
4276 Clouds 10 1018 87 10000 2.91 236 03:28 14.04.2022
4277 Clouds 12 1019 83 10000 2.28 261 23:25 13.04.2022
4278 Clouds 12 1018 81 10000 2.2 291 22:19 13.04.2022
4279 Clouds 13 1018 79 10000 2.2 291 21:34 13.04.2022
4280 Clouds 14 1017 75 10000 2.52 293 20:22 13.04.2022
4281 Clouds 15 1017 74 10000 2.09 292 19:36 13.04.2022
4282 Clouds 16 1017 71 10000 4.24 292 18:27 13.04.2022
4283 Clouds 16 1016 74 10000 4.77 287 17:24 13.04.2022
4284 Clouds 16 1016 76 10000 4.77 287 16:34 13.04.2022
4285 Clouds 17 1016 71 10000 4.88 281 15:40 13.04.2022
4286 Clouds 18 1016 68 10000 5.19 272 14:51 13.04.2022
4287 Clouds 18 1016 68 10000 4.9 263 14:28 13.04.2022
4288 Clouds 18 1016 68 10000 4.56 245 13:29 13.04.2022
4289 Clouds 18 1015 76 10000 4.55 242 12:27 13.04.2022
4290 Clouds 16 1015 78 10000 4.26 242 10:54 13.04.2022
4291 Clouds 15 1014 77 10000 4.01 240 09:44 13.04.2022
4292 Clouds 13 1013 82 10000 3.37 242 08:43 13.04.2022
4293 Clouds 11 1012 83 10000 3.11 251 06:52 13.04.2022
4294 Clouds 11 1012 82 10000 3.29 246 06:26 13.04.2022
4295 Clouds 10 1012 83 10000 3.29 246 05:52 13.04.2022
4296 Clouds 13 1011 66 10000 5.37 135 00:23 13.04.2022
4297 Clouds 14 1011 65 10000 5.37 135 23:46 12.04.2022
4298 Clouds 15 1011 62 10000 6.19 120 22:19 12.04.2022
4299 Clouds 15 1011 78 10000 6.19 120 21:32 12.04.2022
4300 Clouds 17 1011 79 10000 5.71 117 20:42 12.04.2022
4301 Clouds 17 1010 77 10000 5.38 121 19:53 12.04.2022
4302 Clouds 18 1011 59 10000 5.45 124 19:32 12.04.2022
4303 Clouds 18 1011 57 10000 6.18 126 18:42 12.04.2022
4304 Clouds 19 1010 55 10000 6.47 124 17:30 12.04.2022
4305 Clouds 18 1011 53 10000 6.73 127 16:25 12.04.2022
4306 Clouds 18 1011 53 10000 6.73 127 15:33 12.04.2022
4307 Clouds 17 1012 55 10000 6.82 131 14:32 12.04.2022
4308 Clouds 16 1012 55 10000 6.95 127 13:38 12.04.2022
4309 Clouds 15 1012 58 10000 6.98 126 12:53 12.04.2022
4310 Clouds 13 1013 62 10000 7.07 124 11:47 12.04.2022
4311 Clouds 13 1013 62 10000 6.91 118 11:20 12.04.2022
4312 Clouds 8 1013 70 10000 5.84 107 09:25 12.04.2022
4313 Clouds 5 1014 71 10000 5.54 106 07:59 12.04.2022
4314 Clouds 6 1014 75 10000 5.44 105 06:33 12.04.2022
4315 Clouds 6 1014 74 10000 4.91 104 05:35 12.04.2022
4316 Clouds 6 1017 76 10000 4.78 94 00:59 12.04.2022
4317 Clouds 6 1017 80 10000 4.86 85 22:53 11.04.2022
4318 Clouds 7 1017 80 10000 4.91 82 21:49 11.04.2022
4319 Clouds 7 1017 78 10000 4.57 74 21:18 11.04.2022
4320 Clouds 9 1017 75 10000 4.57 74 20:30 11.04.2022
4321 Clouds 10 1016 73 10000 4.79 69 19:56 11.04.2022
4322 Clouds 11 1017 57 10000 4.1 60 19:21 11.04.2022
4323 Clouds 11 1017 56 10000 4.1 60 18:49 11.04.2022
4324 Clouds 12 1017 60 10000 3.58 57 17:57 11.04.2022
4325 Clouds 13 1017 67 10000 2.57 47 16:57 11.04.2022
4326 Clouds 13 1017 60 10000 1.62 45 16:20 11.04.2022
4327 Clouds 13 1018 54 10000 0.74 33 14:36 11.04.2022
4328 Clouds 11 1019 57 10000 0.82 122 12:54 11.04.2022
4329 Clouds 11 1019 59 10000 0.82 122 12:35 11.04.2022
4330 Clouds 10 1019 59 10000 0.46 120 11:42 11.04.2022
4331 Clouds 8 1019 68 10000 0.72 136 10:34 11.04.2022
4332 Clouds 4 1020 90 10000 0.58 166 09:30 11.04.2022
4333 Clouds 1 1019 90 10000 1.72 216 07:19 11.04.2022
4334 Clouds 1 1020 87 10000 2.81 238 02:32 11.04.2022
4335 Clouds 3 1020 82 10000 3.17 260 22:58 10.04.2022
4336 Clouds 3 1020 78 10000 3.2 266 22:26 10.04.2022
4337 Clouds 4 1020 76 10000 3.21 266 21:35 10.04.2022
4338 Clouds 6 1020 73 10000 3.31 276 20:39 10.04.2022
4339 Clouds 7 1019 67 10000 3.88 284 19:46 10.04.2022
4340 Clouds 8 1019 63 10000 5.14 290 19:25 10.04.2022
4341 Clouds 9 1019 67 10000 5.14 290 18:46 10.04.2022
4342 Clouds 9 1019 66 10000 6.46 293 17:58 10.04.2022
4343 Clouds 9 1019 65 10000 6.46 293 17:39 10.04.2022
4344 Clouds 9 1019 60 10000 6.95 296 16:44 10.04.2022
4345 Clouds 9 1019 60 10000 7.44 296 15:37 10.04.2022
4346 Clouds 9 1019 65 10000 7.67 305 14:25 10.04.2022
4347 Clouds 8 1019 67 10000 7.76 308 12:40 10.04.2022
4348 Clouds 8 1018 67 10000 8.33 313 12:21 10.04.2022
4349 Clouds 7 1018 69 10000 8.61 311 11:29 10.04.2022
4350 Clouds 7 1018 74 10000 8.61 311 10:56 10.04.2022
4351 Clouds 6 1017 80 10000 7.78 310 10:00 10.04.2022
4352 Clouds 5 1017 82 10000 7.78 310 09:39 10.04.2022
4353 Clouds 3 1016 88 10000 6.65 297 08:24 10.04.2022
4354 Clouds 2 1016 90 10000 6.55 298 07:42 10.04.2022
4355 Clouds 3 1015 88 10000 6.12 292 05:57 10.04.2022
4356 Clouds 3 1014 83 10000 7.23 299 02:37 10.04.2022
4357 Clouds 3 1014 84 10000 6.34 294 00:34 10.04.2022
4358 Clouds 3 1013 86 10000 6.01 294 23:49 09.04.2022
4359 Clouds 4 1013 85 10000 6.11 295 22:50 09.04.2022
4360 Clouds 4 1012 83 10000 6.24 296 21:46 09.04.2022
4361 Clouds 5 1012 80 10000 7.04 298 20:57 09.04.2022
4362 Clouds 5 1011 77 10000 7.88 302 20:26 09.04.2022
4363 Clouds 6 1010 79 10000 8.09 298 19:42 09.04.2022
4364 Clouds 6 1010 81 10000 8.39 298 19:18 09.04.2022
4365 Clouds 6 1010 81 10000 8.39 298 19:18 09.04.2022
4366 Clouds 7 1009 75 10000 8.93 294 18:21 09.04.2022
4367 Clouds 7 1009 73 10000 8.93 294 17:39 09.04.2022
4368 Clouds 7 1009 76 10000 9.12 292 16:53 09.04.2022
4369 Clouds 7 1009 72 10000 9.04 292 15:59 09.04.2022
4370 Clouds 8 1009 73 10000 9.04 292 15:41 09.04.2022
4371 Clouds 8 1009 81 10000 8.65 297 14:44 09.04.2022
4372 Clouds 8 1008 75 10000 8.74 300 14:23 09.04.2022
4373 Clouds 8 1007 75 10000 8.55 304 13:21 09.04.2022
4374 Clouds 7 1007 81 10000 8.55 304 12:51 09.04.2022
4375 Clouds 7 1007 80 10000 9.26 303 11:40 09.04.2022
4376 Clouds 7 1005 76 10000 8.64 294 10:21 09.04.2022
4377 Clouds 7 1005 80 10000 8.64 294 09:47 09.04.2022
4378 Clouds 5 1004 87 10000 8.4 289 08:57 09.04.2022
4379 Clouds 4 1003 87 10000 7.77 285 07:32 09.04.2022
4380 Clear 3 999 86 10000 5.5 303 02:58 09.04.2022
4381 Clouds 4 997 84 10000 5.99 308 00:25 09.04.2022
4382 Clouds 5 997 83 10000 6.14 305 22:58 08.04.2022
4383 Clouds 6 997 82 10000 6.18 300 21:34 08.04.2022
4384 Clouds 6 996 80 10000 6.28 295 20:41 08.04.2022
4385 Clouds 7 996 79 10000 6.54 290 19:39 08.04.2022
4386 Clouds 7 995 73 10000 6.97 288 18:34 08.04.2022
4387 Clouds 8 995 68 10000 7.23 288 17:55 08.04.2022
4388 Clouds 9 995 64 10000 7.73 290 17:27 08.04.2022
4389 Clouds 9 995 62 10000 7.73 290 16:51 08.04.2022
4390 Clouds 9 995 63 10000 7.93 292 16:20 08.04.2022
4391 Clouds 9 995 63 10000 8.03 291 15:27 08.04.2022
4392 Clouds 8 995 67 10000 8.03 291 14:40 08.04.2022
4393 Clouds 8 995 70 10000 8.22 285 13:55 08.04.2022
4394 Clouds 8 995 75 10000 8.22 285 13:30 08.04.2022
4395 Clouds 8 995 75 10000 8.45 276 12:42 08.04.2022
4396 Clouds 7 995 82 10000 8.29 263 10:56 08.04.2022
4397 Clouds 5 995 88 10000 8.13 264 09:41 08.04.2022
4398 Clouds 4 995 89 10000 6.95 256 08:58 08.04.2022
4399 Clouds 4 995 89 10000 6.38 257 07:42 08.04.2022
4400 Clouds 4 995 87 10000 6.04 268 06:44 08.04.2022
4401 Clouds 5 992 86 10000 8.89 296 02:37 08.04.2022
4402 Clouds 6 986 86 10000 11.31 323 00:28 08.04.2022
4403 Clouds 6 986 87 10000 11.31 323 23:42 07.04.2022
4404 Clouds 7 983 86 10000 10.63 275 22:41 07.04.2022
4405 Clouds 6 981 85 10000 9.71 263 22:23 07.04.2022
4406 Clouds 7 981 85 10000 9.71 263 21:58 07.04.2022
4407 Clouds 7 981 86 10000 9.46 257 21:29 07.04.2022
4408 Clouds 7 981 81 10000 9.46 257 20:42 07.04.2022
4409 Clouds 8 980 76 10000 10.73 260 19:51 07.04.2022
4410 Clouds 8 977 79 10000 13.12 256 17:29 07.04.2022
4411 Clouds 7 977 84 10000 13.12 256 16:59 07.04.2022
4412 Clouds 8 977 82 10000 13.12 256 16:33 07.04.2022
4413 Clouds 7 977 85 10000 13.4 254 15:47 07.04.2022
4414 Clouds 9 977 79 10000 11.5 248 13:54 07.04.2022
4415 Clouds 9 978 85 10000 11.33 246 13:23 07.04.2022
4416 Clouds 9 978 83 10000 10.81 239 11:53 07.04.2022
4417 Clouds 7 979 83 10000 8.82 231 10:54 07.04.2022
4418 Clouds 6 979 89 10000 10.24 229 09:19 07.04.2022
4419 Clouds 9 981 87 10000 10.6 220 06:59 07.04.2022
4420 Clouds 9 984 88 10000 11.03 222 05:28 07.04.2022
4421 Clouds 9 986 87 10000 9.62 221 02:37 07.04.2022
4422 Clouds 9 988 87 10000 9.89 223 00:43 07.04.2022
4423 Clouds 9 989 88 10000 9.68 228 23:36 06.04.2022
4424 Clouds 9 990 89 10000 10.13 232 22:45 06.04.2022
4425 Clouds 9 990 90 10000 10.23 231 22:20 06.04.2022
4426 Clouds 9 990 89 10000 11.04 232 20:50 06.04.2022
4427 Clouds 9 990 88 10000 10.23 225 20:26 06.04.2022
4428 Clouds 10 990 87 10000 10.23 225 19:44 06.04.2022
4429 Clouds 10 991 89 9111 9.63 227 18:48 06.04.2022
4430 Clouds 10 991 87 10000 8.94 226 17:38 06.04.2022
4431 Clouds 11 992 86 10000 8.93 222 17:20 06.04.2022
4432 Clouds 11 992 81 10000 8.93 222 16:34 06.04.2022
4433 Clouds 11 994 82 10000 9.75 230 15:45 06.04.2022
4434 Clouds 9 995 91 10000 9.21 235 13:53 06.04.2022
4435 Clouds 9 996 89 10000 8.72 231 12:37 06.04.2022
4436 Clouds 9 996 92 10000 9.08 227 11:44 06.04.2022
4437 Clouds 8 996 92 10000 9.22 227 10:42 06.04.2022
4438 Clouds 8 997 92 10000 8.99 228 10:18 06.04.2022
4439 Clouds 8 997 92 10000 8.72 231 09:25 06.04.2022
4440 Clouds 8 997 91 10000 8.74 234 08:26 06.04.2022
4441 Clouds 8 997 90 10000 8.18 233 06:45 06.04.2022
4442 Clouds 8 1000 92 10000 6.42 250 02:19 06.04.2022
4443 Clouds 8 1001 92 10000 8.35 254 23:50 05.04.2022
4444 Clouds 8 1001 92 10000 7.08 254 22:20 05.04.2022
4445 Clouds 9 1001 92 10000 6.97 252 21:18 05.04.2022
4446 Clouds 9 1001 92 10000 6.97 252 21:18 05.04.2022
4447 Clouds 9 1001 92 10000 6.97 252 21:18 05.04.2022
4448 Clouds 9 1001 92 10000 5.84 261 20:25 05.04.2022
4449 Clouds 9 1001 91 10000 5.62 272 18:56 05.04.2022
4450 Clouds 9 1001 92 10000 5.35 273 17:31 05.04.2022
4451 Clouds 9 1001 92 10000 3.11 229 16:47 05.04.2022
4452 Clouds 8 1002 91 10000 1.89 206 15:52 05.04.2022
4453 Clouds 8 1002 91 10000 1.89 206 15:33 05.04.2022
4454 Clouds 8 1002 91 10000 1.89 206 15:33 05.04.2022
4455 Clouds 8 1003 91 10000 3.22 296 14:22 05.04.2022
4456 Clouds 8 1003 90 10000 3.81 262 12:56 05.04.2022
4457 Clouds 8 1003 87 10000 4.32 266 11:50 05.04.2022
4458 Clouds 7 1003 87 10000 4.32 266 11:32 05.04.2022
4459 Clouds 7 1003 89 10000 5.17 293 09:49 05.04.2022
4460 Clouds 7 1003 89 10000 4.89 290 08:52 05.04.2022
4461 Clouds 6 1002 89 10000 5.03 288 06:52 05.04.2022
4462 Clouds 7 1001 91 10000 7.31 288 00:41 05.04.2022
4463 Clouds 8 1001 89 10000 6.83 282 22:41 04.04.2022
4464 Clouds 8 1001 89 10000 7.13 284 22:22 04.04.2022
4465 Clouds 8 1000 88 10000 7.95 286 21:21 04.04.2022
4466 Clouds 8 1000 87 10000 7.95 286 20:49 04.04.2022
4467 Clouds 8 1000 87 10000 8.72 287 19:45 04.04.2022
4468 Clouds 9 999 87 10000 9.15 287 19:25 04.04.2022
4469 Clouds 9 999 88 10000 9.48 287 18:20 04.04.2022
4470 Clouds 8 998 93 10000 9.59 283 16:36 04.04.2022
4471 Clouds 8 998 93 10000 9.83 270 15:43 04.04.2022
4472 Clouds 8 998 92 10000 10.4 257 15:25 04.04.2022
4473 Clouds 7 998 92 10000 10.37 256 14:46 04.04.2022
4474 Clouds 6 999 91 8406 11.86 245 13:30 04.04.2022
4475 Clouds 6 1001 90 5207 13.25 237 11:55 04.04.2022
4476 Clouds 5 1002 90 1187 13.11 233 11:29 04.04.2022
4477 Clouds 4 1004 89 525 11.63 228 09:18 04.04.2022
4478 Clouds 4 1010 84 10000 9.15 224 04:45 04.04.2022
4479 Clouds 3 1016 87 10000 5.76 235 01:28 04.04.2022
4480 Clouds 3 1017 83 10000 4.47 252 22:43 03.04.2022
4481 Clouds 4 1018 81 10000 4.32 262 21:47 03.04.2022
4482 Clouds 4 1018 78 10000 4.39 273 20:57 03.04.2022
4483 Clouds 6 1018 72 10000 4.9 286 19:51 03.04.2022
4484 Clouds 7 1018 68 10000 5.5 296 18:33 03.04.2022
4485 Clouds 7 1018 69 10000 6.27 299 17:48 03.04.2022
4486 Clouds 7 1019 67 10000 6.42 303 17:21 03.04.2022
4487 Clouds 7 1019 67 10000 6.42 303 16:42 03.04.2022
4488 Clouds 8 1020 64 10000 6.52 306 15:18 03.04.2022
4489 Clouds 8 1020 62 10000 6.23 308 13:57 03.04.2022
4490 Clouds 8 1020 65 10000 5.86 310 12:56 03.04.2022
4491 Clouds 6 1021 67 10000 5.59 313 11:33 03.04.2022
4492 Clouds 3 1021 87 10000 5.11 316 09:40 03.04.2022
4493 Clouds 2 1021 89 10000 4.12 308 08:50 03.04.2022
4494 Clouds 0 1021 86 10000 2.49 295 05:44 03.04.2022
4495 Clear -1 1022 80 10000 1.94 319 02:55 03.04.2022
4496 Clouds 0 1022 69 10000 3.08 3 23:27 02.04.2022
4497 Clouds 0 1022 66 10000 3.08 3 22:41 02.04.2022
4498 Clouds 1 1022 64 10000 3.46 4 21:55 02.04.2022
4499 Clouds 2 1022 63 10000 3.79 2 21:19 02.04.2022
4500 Clouds 3 1022 60 10000 3.79 2 20:36 02.04.2022
4501 Clouds 5 1021 52 10000 5.39 9 18:47 02.04.2022
4502 Clouds 5 1020 50 10000 6.37 11 18:19 02.04.2022
4503 Clouds 6 1020 58 10000 6.83 12 16:50 02.04.2022
4504 Clouds 7 1020 58 10000 6.75 15 15:42 02.04.2022
4505 Clouds 6 1020 58 10000 6.72 21 15:18 02.04.2022
4506 Clouds 6 1020 63 10000 6.63 26 14:26 02.04.2022
4507 Clouds 5 1020 62 10000 6.41 23 13:31 02.04.2022
4508 Clouds 5 1020 66 10000 6.27 35 12:21 02.04.2022
4509 Clouds 4 1019 69 10000 6.28 38 10:22 02.04.2022
4510 Clouds 1 1018 77 10000 4.89 32 07:52 02.04.2022
4511 Clouds 1 1017 75 10000 4.61 34 04:34 02.04.2022
4512 Clouds 1 1017 71 10000 4.45 44 01:21 02.04.2022
4513 Clouds 2 1017 68 10000 4.43 43 23:54 01.04.2022
4514 Clouds 3 1016 69 10000 4.46 43 22:46 01.04.2022
4515 Clouds 3 1015 70 10000 5.9 45 21:22 01.04.2022
4516 Clouds 3 1015 68 10000 5.9 45 20:46 01.04.2022
4517 Clouds 4 1015 66 10000 6.25 44 19:45 01.04.2022
4518 Clouds 4 1014 64 10000 7.08 44 19:26 01.04.2022
4519 Clouds 4 1014 63 10000 7.08 44 18:38 01.04.2022
4520 Clouds 4 1014 60 10000 7.54 44 17:39 01.04.2022
4521 Clouds 4 1013 62 10000 8.25 44 16:24 01.04.2022
4522 Clouds 4 1013 68 10000 8.45 46 14:56 01.04.2022
4523 Clouds 4 1013 65 10000 8.67 49 13:56 01.04.2022
4524 Clouds 4 1013 63 10000 8.86 54 13:31 01.04.2022
4525 Clouds 3 1013 76 10000 8.42 55 12:26 01.04.2022
4526 Clouds 2 1012 71 10000 7.87 58 10:52 01.04.2022
4527 Clouds 2 1012 75 10000 7.69 60 09:41 01.04.2022
4528 Clouds 2 1010 74 10000 7.84 58 07:50 01.04.2022
4529 Clouds 2 1009 75 10000 7.72 59 05:45 01.04.2022
4530 Clouds 2 1009 76 10000 8.07 59 04:43 01.04.2022
4531 Clouds 1 1008 76 10000 8.51 59 03:20 01.04.2022
4532 Clouds 1 1008 74 10000 8.52 59 01:51 01.04.2022
4533 Snow 2 1008 83 7710 8.78 60 22:37 31.03.2022
4534 Clouds 3 1007 76 10000 10.01 58 21:44 31.03.2022
4535 Clouds 3 1007 76 10000 11.12 55 20:51 31.03.2022
4536 Clouds 2 1005 80 10000 11.34 57 20:28 31.03.2022
4537 Clouds 3 1005 78 10000 11.37 56 19:44 31.03.2022
4538 Clouds 3 1005 87 10000 10.86 56 18:35 31.03.2022
4539 Clouds 2 1003 92 10000 10.35 60 17:25 31.03.2022
4540 Snow 1 1003 92 168 10.58 64 16:18 31.03.2022
4541 Snow 1 1003 92 168 10.58 64 15:33 31.03.2022
4542 Snow 1 1003 96 61 9.86 64 14:52 31.03.2022
4543 Snow 1 1003 96 50 9.05 64 14:19 31.03.2022
4544 Snow 1 1003 95 86 8.57 64 11:32 31.03.2022
4545 Snow 1 1003 95 76 8.25 65 10:41 31.03.2022
4546 Snow 1 1002 95 46 7.41 67 09:44 31.03.2022
4547 Clouds 2 1002 94 41 4.43 57 07:49 31.03.2022
4548 Clouds 3 1003 90 10000 3.23 66 03:57 31.03.2022
4549 Clouds 4 1005 71 10000 2.48 23 23:27 30.03.2022
4550 Clouds 4 1005 68 10000 2.72 24 22:23 30.03.2022
4551 Clouds 4 1005 72 10000 2.72 24 21:33 30.03.2022
4552 Clouds 4 1005 71 10000 3.1 24 20:44 30.03.2022
4553 Clouds 5 1005 71 10000 3.63 26 19:57 30.03.2022
4554 Clouds 6 1005 70 10000 4.31 19 18:50 30.03.2022
4555 Clouds 7 1005 71 10000 4.74 16 17:52 30.03.2022
4556 Clouds 7 1005 72 10000 4.52 14 17:32 30.03.2022
4557 Clouds 7 1005 70 10000 4.52 14 16:51 30.03.2022
4558 Clouds 8 1005 68 10000 4.52 14 16:30 30.03.2022
4559 Clouds 7 1006 68 10000 4.19 18 14:55 30.03.2022
4560 Clouds 6 1006 72 10000 4.16 11 13:32 30.03.2022
4561 Clouds 7 1007 73 10000 4.26 19 12:41 30.03.2022
4562 Clouds 5 1007 86 10000 4.46 29 10:54 30.03.2022
4563 Clouds 5 1007 88 10000 4.25 31 09:58 30.03.2022
4564 Clouds 4 1007 91 10000 3.66 30 08:57 30.03.2022
4565 Clouds 4 1007 92 213 3.77 32 07:31 30.03.2022
4566 Clouds 5 1007 92 10000 2.93 11 05:40 30.03.2022
4567 Clouds 4 1008 91 10000 0.75 5 03:31 30.03.2022
4568 Clouds 4 1010 86 10000 1.14 21 23:42 29.03.2022
4569 Clouds 5 1011 84 10000 2.27 17 22:19 29.03.2022
4570 Clouds 5 1011 84 10000 2.27 17 21:41 29.03.2022
4571 Clouds 6 1011 83 10000 2.59 8 20:44 29.03.2022
4572 Clouds 7 1010 81 10000 2.85 358 19:47 29.03.2022
4573 Clouds 8 1010 78 10000 3.82 353 18:54 29.03.2022
4574 Clouds 8 1011 77 10000 4.42 347 18:18 29.03.2022
4575 Clouds 8 1011 77 10000 4.67 341 17:21 29.03.2022
4576 Clouds 8 1011 77 10000 4.67 341 16:56 29.03.2022
4577 Clouds 9 1012 78 10000 4.79 336 15:57 29.03.2022
4578 Clouds 9 1012 79 10000 4.69 331 14:48 29.03.2022
4579 Clouds 9 1013 80 10000 4.22 330 13:53 29.03.2022
4580 Clouds 8 1013 81 10000 3.96 334 12:47 29.03.2022
4581 Clouds 8 1014 84 10000 3.54 340 11:31 29.03.2022
4582 Clouds 7 1014 86 10000 2.76 351 10:27 29.03.2022
4583 Clouds 7 1015 91 10000 2.29 356 09:23 29.03.2022
4584 Clouds 6 1015 92 10000 2.38 351 06:56 29.03.2022
4585 Clouds 6 1016 91 10000 2.15 330 03:49 29.03.2022
4586 Clouds 6 1018 92 10000 2.82 315 23:54 28.03.2022
4587 Clouds 6 1019 92 10000 2.86 314 23:19 28.03.2022
4588 Clouds 7 1019 92 10000 2.86 314 22:47 28.03.2022
4589 Clouds 7 1019 92 10000 2.88 310 22:22 28.03.2022
4590 Clouds 7 1019 93 10000 2.76 314 20:53 28.03.2022
4591 Clouds 7 1020 92 10000 3.04 321 19:59 28.03.2022
4592 Clouds 7 1020 92 10000 3.04 321 19:41 28.03.2022
4593 Clouds 8 1020 90 10000 3.89 325 18:52 28.03.2022
4594 Clouds 8 1020 89 10000 4.48 326 18:20 28.03.2022
4595 Clouds 9 1020 87 10000 4.48 326 17:32 28.03.2022
4596 Clouds 9 1021 85 10000 4.06 329 15:54 28.03.2022
4597 Clouds 10 1023 86 10000 3.7 334 14:27 28.03.2022
4598 Clear 9 1023 87 10000 4.02 334 13:35 28.03.2022
4599 Clear 7 1024 92 10000 2.48 326 11:58 28.03.2022
4600 Clear 6 1024 95 10000 1.97 330 10:50 28.03.2022
4601 Clear 6 1025 95 10000 1.65 337 09:41 28.03.2022
4602 Clear 5 1025 95 10000 1.25 333 08:49 28.03.2022
4603 Clear 5 1026 95 10000 1.05 335 08:22 28.03.2022
4604 Clear 5 1026 95 10000 1.05 335 08:21 28.03.2022
4605 Clear 5 1026 96 10000 1.26 353 07:27 28.03.2022
4606 Clear 5 1028 95 10000 1.66 16 03:27 28.03.2022
4607 Clear 6 1030 95 10000 2.37 24 23:24 27.03.2022
4608 Clear 6 1030 95 10000 2.66 20 22:23 27.03.2022
4609 Clear 6 1030 94 10000 2.66 20 21:41 27.03.2022
4610 Clear 7 1030 93 10000 2.8 14 20:54 27.03.2022
4611 Clear 8 1030 90 10000 2.92 6 19:46 27.03.2022
4612 Clear 10 1030 86 10000 3.28 12 18:54 27.03.2022
4613 Clear 11 1030 85 10000 3.87 15 18:26 27.03.2022
4614 Clear 12 1030 80 10000 3.87 15 17:38 27.03.2022
4615 Clear 13 1031 73 10000 4.19 13 15:59 27.03.2022
4616 Clear 13 1032 75 10000 3.87 14 14:55 27.03.2022
4617 Clear 12 1032 74 10000 3.76 14 13:54 27.03.2022
4618 Clear 11 1033 78 10000 3.76 14 12:20 27.03.2022
4619 Clear 9 1033 86 10000 3.26 11 10:47 27.03.2022
4620 Clear 4 1033 96 10000 2.36 16 08:37 27.03.2022
4621 Clear 5 1032 95 10000 2.95 359 05:54 27.03.2022
4622 Clear 5 1033 95 10000 2.97 357 00:47 27.03.2022
4623 Clear 5 1033 94 10000 2.96 356 23:34 26.03.2022
4624 Clear 6 1033 94 10000 3.01 353 22:35 26.03.2022
4625 Clouds 7 1033 94 10000 3.09 351 21:33 26.03.2022
4626 Clouds 7 1033 94 10000 3.24 344 20:20 26.03.2022
4627 Clouds 8 1032 92 10000 3.26 340 19:19 26.03.2022
4628 Clouds 10 1032 88 10000 3.9 340 17:51 26.03.2022
4629 Clouds 10 1032 86 10000 3.9 340 17:30 26.03.2022
4630 Clouds 12 1032 81 10000 4.41 337 16:25 26.03.2022
4631 Clouds 13 1032 78 10000 4.78 338 14:51 26.03.2022
4632 Clouds 13 1032 77 10000 5.26 338 13:52 26.03.2022
4633 Clear 13 1032 73 10000 5.65 330 12:47 26.03.2022
4634 Clear 14 1033 69 10000 5.09 328 11:29 26.03.2022
4635 Clear 10 1032 86 10000 4.14 322 09:23 26.03.2022
4636 Clear 8 1032 74 10000 4.14 322 08:33 26.03.2022
4637 Clouds 4 1031 80 10000 3.02 313 05:54 26.03.2022
4638 Clouds 4 1031 77 10000 2.08 297 03:59 26.03.2022
4639 Clear 5 1032 88 10000 2.3 329 23:39 25.03.2022
4640 Clear 6 1032 82 10000 2.14 341 21:35 25.03.2022
4641 Clear 7 1032 79 10000 2.1 343 20:46 25.03.2022
4642 Clear 10 1031 75 10000 2.57 347 19:28 25.03.2022
4643 Clear 11 1031 60 10000 2.57 347 18:47 25.03.2022
4644 Clear 13 1031 50 10000 2.34 355 17:37 25.03.2022
4645 Clear 14 1031 48 10000 3.61 2 16:41 25.03.2022
4646 Clear 15 1031 45 10000 3.82 5 15:56 25.03.2022
4647 Clear 15 1031 44 10000 3.5 16 13:58 25.03.2022
4648 Clouds 14 1032 52 10000 3.47 23 12:33 25.03.2022
4649 Clouds 9 1031 76 10000 2.47 28 09:55 25.03.2022
4650 Clouds 9 1031 77 10000 2.29 27 09:26 25.03.2022
4651 Clouds 5 1031 74 10000 1.84 26 07:51 25.03.2022
4652 Clear 3 1030 79 10000 2.1 17 07:23 25.03.2022
4653 Clear 4 1030 81 10000 1.95 11 05:23 25.03.2022
4654 Clear 4 1030 94 10000 2.13 6 00:33 25.03.2022
4655 Clear 6 1030 93 10000 2.17 7 22:30 24.03.2022
4656 Clear 6 1030 92 10000 2.43 8 21:35 24.03.2022
4657 Clear 8 1030 88 10000 3.01 358 19:51 24.03.2022
4658 Clear 9 1029 84 10000 3.27 349 18:58 24.03.2022
4659 Clear 12 1029 73 10000 3.52 340 17:45 24.03.2022
4660 Clear 14 1029 63 10000 3.95 335 16:54 24.03.2022
4661 Clear 16 1029 52 10000 2.91 326 15:21 24.03.2022
4662 Clear 16 1029 53 10000 2.91 326 14:42 24.03.2022
4663 Clear 16 1029 51 10000 2.25 328 13:59 24.03.2022
4664 Clear 16 1030 65 10000 2.28 341 12:42 24.03.2022
4665 Clear 15 1030 61 10000 2.02 347 11:33 24.03.2022
4666 Clear 12 1030 72 10000 1.14 8 09:48 24.03.2022
4667 Clear 7 1030 62 10000 0.88 15 08:40 24.03.2022
4668 Clear 4 1030 72 10000 1.4 3 06:44 24.03.2022
4669 Clear 5 1030 67 10000 1.38 40 02:18 24.03.2022
4670 Clear 7 1031 88 10000 1.79 59 23:18 23.03.2022
4671 Clear 8 1031 85 10000 2.32 49 21:25 23.03.2022
4672 Clear 8 1031 85 10000 2.32 49 21:25 23.03.2022
4673 Clear 9 1031 83 10000 2.32 49 20:49 23.03.2022
4674 Clear 11 1031 74 10000 2.82 39 19:45 23.03.2022
4675 Clear 14 1030 60 10000 2.7 46 18:36 23.03.2022
4676 Clear 16 1030 57 10000 2.51 33 17:36 23.03.2022
4677 Clear 18 1030 46 10000 2.25 38 16:21 23.03.2022
4678 Clear 18 1031 43 10000 1.78 53 14:51 23.03.2022
4679 Clear 18 1031 40 10000 1.53 87 14:24 23.03.2022
4680 Clear 17 1031 49 10000 1.43 100 12:45 23.03.2022
4681 Clear 13 1032 67 10000 2.32 118 09:38 23.03.2022
4682 Clear 5 1031 70 10000 2.13 93 06:41 23.03.2022
4683 Clear 6 1031 77 10000 2.03 66 04:41 23.03.2022
4684 Clear 8 1032 90 10000 2.05 86 00:29 23.03.2022
4685 Clear 9 1032 89 10000 2.19 84 22:46 22.03.2022
4686 Clear 10 1032 89 10000 2.58 68 21:30 22.03.2022
4687 Clear 10 1032 87 10000 2.58 68 20:40 22.03.2022
4688 Clouds 11 1032 83 10000 2.74 55 19:43 22.03.2022
4689 Clouds 13 1031 80 10000 2.25 72 19:18 22.03.2022
4690 Clouds 15 1031 76 10000 2.25 72 18:31 22.03.2022
4691 Clouds 17 1031 68 10000 1.36 85 17:29 22.03.2022
4692 Clouds 18 1031 61 10000 1.17 112 16:21 22.03.2022
4693 Clouds 19 1031 58 10000 1.36 143 15:22 22.03.2022
4694 Clouds 19 1031 57 10000 1.36 143 14:46 22.03.2022
4695 Clouds 19 1032 57 10000 1.85 159 14:27 22.03.2022
4696 Clouds 18 1032 60 10000 1.85 159 13:35 22.03.2022
4697 Clear 16 1033 61 10000 1.91 129 11:52 22.03.2022
4698 Clear 13 1033 67 10000 2 127 10:40 22.03.2022
4699 Clear 6 1033 68 10000 1.69 125 08:36 22.03.2022
4700 Clouds 5 1032 83 10000 2.12 121 06:53 22.03.2022
4701 Clouds 5 1031 78 10000 1.97 141 03:49 22.03.2022
4702 Clouds 7 1032 82 10000 2.72 126 00:28 22.03.2022
4703 Clouds 7 1032 81 10000 2.77 111 22:42 21.03.2022
4704 Clear 7 1032 78 10000 2.86 79 21:18 21.03.2022
4705 Clear 8 1032 77 10000 2.86 79 20:40 21.03.2022
4706 Clear 8 1032 75 10000 2.75 59 19:58 21.03.2022
4707 Clear 9 1032 73 10000 2.75 59 19:34 21.03.2022
4708 Clouds 11 1032 70 10000 2 78 18:36 21.03.2022
4709 Clear 14 1031 70 10000 0.44 138 17:19 21.03.2022
4710 Clear 15 1031 65 10000 0.44 138 16:51 21.03.2022
4711 Clear 15 1031 62 10000 1.28 196 16:24 21.03.2022
4712 Clear 15 1031 65 10000 1.8 198 15:21 21.03.2022
4713 Clear 15 1032 66 10000 2.14 199 14:28 21.03.2022
4714 Clear 13 1032 65 10000 2.76 183 12:43 21.03.2022
4715 Clear 13 1032 69 10000 2.92 179 11:54 21.03.2022
4716 Clear 11 1032 74 10000 2.89 174 10:49 21.03.2022
4717 Clear 9 1032 84 10000 2.7 164 09:21 21.03.2022
4718 Clouds 4 1032 90 10000 2.78 165 06:59 21.03.2022
4719 Clouds 6 1031 88 10000 3.17 159 04:54 21.03.2022
4720 Clouds 7 1030 87 10000 4.82 145 00:36 21.03.2022
4721 Clouds 7 1030 86 10000 3.02 150 22:56 20.03.2022
4722 Clouds 7 1030 84 10000 2.67 123 22:22 20.03.2022
4723 Clouds 8 1030 80 10000 2.67 123 21:31 20.03.2022
4724 Clouds 9 1029 79 10000 1.01 93 20:48 20.03.2022
4725 Clouds 9 1029 78 10000 1.61 158 20:25 20.03.2022
4726 Clouds 10 1029 76 10000 1.63 159 19:43 20.03.2022
4727 Clouds 11 1028 61 10000 5.23 155 18:48 20.03.2022
4728 Clouds 12 1027 51 10000 8.45 126 17:43 20.03.2022
4729 Clouds 12 1028 51 10000 9.13 120 17:24 20.03.2022
4730 Clouds 12 1028 48 10000 9.55 120 15:57 20.03.2022
4731 Clouds 12 1029 48 10000 9.76 117 14:38 20.03.2022
4732 Clouds 11 1029 49 10000 9.52 117 13:38 20.03.2022
4733 Clear 9 1031 56 10000 10.05 108 11:58 20.03.2022
4734 Clear 6 1033 68 10000 8.96 97 09:59 20.03.2022
4735 Clear 3 1034 78 10000 7.8 88 08:20 20.03.2022
4736 Clear 2 1035 81 10000 7.19 82 05:49 20.03.2022
4737 Clear 3 1037 84 10000 6.27 78 03:18 20.03.2022
4738 Clear 4 1039 84 10000 6.27 75 00:53 20.03.2022
4739 Clear 4 1040 83 10000 6.38 78 00:28 20.03.2022
4740 Clear 6 1041 79 10000 6.97 75 22:25 19.03.2022
4741 Clear 6 1041 78 10000 7.36 74 21:26 19.03.2022
4742 Clear 6 1041 78 10000 7.36 74 21:26 19.03.2022
4743 Clear 8 1041 72 10000 7.25 68 19:22 19.03.2022
4744 Clear 9 1041 69 10000 7.25 68 18:38 19.03.2022
4745 Clear 10 1041 68 10000 7 67 17:49 19.03.2022
4746 Clear 11 1041 64 10000 7.58 66 16:57 19.03.2022
4747 Clear 12 1042 60 10000 7.5 65 15:29 19.03.2022
4748 Clear 12 1043 55 10000 7.43 70 13:49 19.03.2022
4749 Clear 11 1044 58 10000 6.7 72 12:56 19.03.2022
4750 Clear 11 1044 59 10000 6.7 72 12:36 19.03.2022
4751 Clear 10 1045 62 10000 6.34 73 11:45 19.03.2022
4752 Clear 7 1046 78 10000 4.99 82 09:23 19.03.2022
4753 Clear 2 1046 93 10000 4.19 77 05:44 19.03.2022
4754 Clear 3 1046 91 10000 3.6 76 02:33 19.03.2022
4755 Clear 4 1047 87 10000 3.65 68 00:32 19.03.2022
4756 Clear 5 1047 86 10000 3.68 55 22:59 18.03.2022
4757 Clear 5 1047 88 10000 3.78 48 22:22 18.03.2022
4758 Clear 6 1047 90 10000 3.85 46 20:31 18.03.2022
4759 Clear 7 1046 89 10000 3.98 39 19:45 18.03.2022
4760 Clear 8 1046 89 10000 4 36 19:18 18.03.2022
4761 Clouds 11 1045 86 10000 4.72 34 16:59 18.03.2022
4762 Clouds 12 1045 85 10000 4.72 34 16:34 18.03.2022
4763 Clouds 13 1044 80 10000 4.05 24 14:29 18.03.2022
4764 Clouds 13 1044 80 10000 4.05 24 13:41 18.03.2022
4765 Clear 12 1044 78 10000 3.43 5 12:18 18.03.2022
4766 Clear 10 1043 82 10000 1.12 330 10:27 18.03.2022
4767 Clear 8 1042 90 10000 1.35 289 09:20 18.03.2022
4768 Clear 4 1041 88 10000 1.54 267 07:43 18.03.2022
4769 Clouds 2 1040 95 10000 2.87 235 05:20 18.03.2022
4770 Clouds 3 1038 93 10000 2.94 231 01:55 18.03.2022
4771 Clear 3 1037 92 10000 2.74 227 00:21 18.03.2022
4772 Clear 4 1037 91 10000 2.82 236 22:54 17.03.2022
4773 Clear 4 1037 90 10000 2.87 243 22:21 17.03.2022
4774 Clear 3 1037 88 10000 2.87 243 21:47 17.03.2022
4775 Clear 4 1036 87 10000 2.8 255 21:18 17.03.2022
4776 Clear 4 1036 83 10000 2.8 255 20:30 17.03.2022
4777 Clear 6 1035 78 10000 2.97 275 19:39 17.03.2022
4778 Clear 7 1033 76 10000 3.48 283 18:55 17.03.2022
4779 Clear 9 1033 69 10000 4.24 281 17:55 17.03.2022
4780 Clear 10 1032 63 10000 5.34 284 16:34 17.03.2022
4781 Clear 10 1031 61 10000 6.7 283 15:44 17.03.2022
4782 Clear 11 1030 61 10000 7.29 284 15:22 17.03.2022
4783 Clear 10 1029 71 10000 7.62 286 13:49 17.03.2022
4784 Clouds 9 1028 74 10000 8.12 284 12:49 17.03.2022
4785 Clouds 9 1027 77 10000 8.32 283 12:21 17.03.2022
4786 Clouds 8 1026 81 10000 8.24 285 11:25 17.03.2022
4787 Clouds 7 1024 89 10000 8.44 274 09:48 17.03.2022
4788 Clouds 8 1022 93 10000 7.5 263 08:31 17.03.2022
4789 Clouds 9 1021 91 10000 7.33 258 07:32 17.03.2022
4790 Clouds 10 1019 83 10000 6.84 167 05:47 17.03.2022
4791 Clouds 10 1021 78 10000 7.61 139 00:46 17.03.2022
4792 Clouds 10 1022 77 10000 7.75 135 23:39 16.03.2022
4793 Clouds 10 1022 79 10000 7.59 129 22:44 16.03.2022
4794 Clouds 10 1022 79 10000 7.32 130 22:21 16.03.2022
4795 Clouds 10 1022 78 10000 7.32 130 21:37 16.03.2022
4796 Clear 11 1023 76 10000 6.97 121 19:40 16.03.2022
4797 Clouds 11 1023 75 10000 6.87 120 19:19 16.03.2022
4798 Clouds 11 1023 73 10000 6.51 123 18:36 16.03.2022
4799 Clouds 12 1023 70 10000 7.23 124 17:41 16.03.2022
4800 Clouds 13 1023 68 10000 7.24 121 16:56 16.03.2022
4801 Clouds 13 1024 65 10000 6.76 128 15:55 16.03.2022
4802 Clouds 14 1025 62 10000 6.96 137 14:25 16.03.2022
4803 Clouds 13 1026 66 10000 7.03 134 13:27 16.03.2022
4804 Clouds 12 1026 77 10000 6.85 130 11:54 16.03.2022
4805 Clouds 11 1026 79 10000 6.15 131 11:20 16.03.2022
4806 Clouds 8 1026 86 10000 5.34 132 10:23 16.03.2022
4807 Clouds 5 1026 96 10000 4.43 133 08:52 16.03.2022
4808 Clouds 3 1026 95 10000 3.25 142 05:58 16.03.2022
4809 Clouds 5 1025 93 10000 3.25 119 01:35 16.03.2022
4810 Clouds 7 1025 90 10000 3.4 121 22:38 15.03.2022
4811 Clouds 7 1025 90 10000 3.6 109 21:52 15.03.2022
4812 Clouds 8 1024 88 10000 3.16 92 20:28 15.03.2022
4813 Clouds 9 1024 87 10000 3.16 68 18:57 15.03.2022
4814 Clouds 11 1024 89 10000 2.54 14 16:57 15.03.2022
4815 Clouds 11 1024 89 10000 2.54 14 16:32 15.03.2022
4816 Clouds 11 1024 79 10000 0.55 175 15:21 15.03.2022
4817 Clouds 11 1024 82 10000 0.55 175 14:40 15.03.2022
4818 Clouds 10 1024 88 10000 1.84 176 13:38 15.03.2022
4819 Clouds 9 1026 89 10000 2.4 179 12:24 15.03.2022
4820 Clouds 7 1026 96 10000 2.4 179 11:31 15.03.2022
4821 Clouds 6 1027 97 10000 2.46 188 09:45 15.03.2022
4822 Clouds 5 1027 97 10000 2.69 182 08:42 15.03.2022
4823 Clouds 4 1027 97 10000 2.45 175 07:52 15.03.2022
4824 Clouds 3 1027 97 10000 2.45 175 07:32 15.03.2022
4825 Clouds 2 1028 95 10000 2.78 211 03:41 15.03.2022
4826 Clouds 4 1028 92 10000 3.15 249 23:44 14.03.2022
4827 Clear 4 1028 92 10000 3.2 250 23:23 14.03.2022
4828 Clear 5 1028 90 10000 3.2 250 22:30 14.03.2022
4829 Clear 6 1028 89 10000 3.31 250 21:30 14.03.2022
4830 Clear 6 1028 88 10000 3.43 253 20:48 14.03.2022
4831 Clear 7 1027 87 10000 3.17 260 20:20 14.03.2022
4832 Clouds 8 1027 82 10000 3.08 274 18:55 14.03.2022
4833 Clouds 10 1025 82 10000 3.99 281 17:54 14.03.2022
4834 Clouds 10 1025 82 10000 5.17 279 17:23 14.03.2022
4835 Clouds 10 1024 92 10000 5.56 276 15:56 14.03.2022
4836 Clouds 9 1024 95 10000 5.6 273 14:41 14.03.2022
4837 Clouds 9 1023 96 10000 3.58 259 12:51 14.03.2022
4838 Clouds 9 1022 95 10000 3.79 224 10:54 14.03.2022
4839 Clouds 8 1022 94 10000 3.4 184 09:55 14.03.2022
4840 Clouds 8 1021 93 10000 3.22 170 09:22 14.03.2022
4841 Clouds 8 1021 92 10000 3.22 170 08:56 14.03.2022
4842 Clouds 7 1021 86 10000 3.75 173 07:34 14.03.2022
4843 Clouds 8 1020 79 10000 3.01 160 05:46 14.03.2022
4844 Clouds 8 1018 61 10000 2.92 168 01:58 14.03.2022
4845 Clouds 8 1017 59 10000 3.12 166 01:29 14.03.2022
4846 Clouds 8 1017 53 10000 3.92 139 22:52 13.03.2022
4847 Clouds 9 1017 52 10000 4.8 131 21:31 13.03.2022
4848 Clouds 10 1016 54 10000 5.15 122 20:56 13.03.2022
4849 Clouds 10 1016 54 10000 5.15 122 20:37 13.03.2022
4850 Clouds 10 1016 53 10000 4.75 114 20:19 13.03.2022
4851 Clouds 11 1016 54 10000 4.75 114 19:39 13.03.2022
4852 Clouds 11 1015 52 10000 4.08 109 19:18 13.03.2022
4853 Clouds 12 1016 52 10000 4.09 113 18:39 13.03.2022
4854 Clouds 13 1015 49 10000 4.01 120 17:47 13.03.2022
4855 Clouds 14 1015 46 10000 4.92 132 17:21 13.03.2022
4856 Clouds 14 1015 43 10000 4.92 132 16:43 13.03.2022
4857 Clouds 15 1015 42 10000 5.18 135 16:20 13.03.2022
4858 Clouds 14 1015 41 10000 5.18 135 15:33 13.03.2022
4859 Clouds 13 1015 49 10000 5.78 141 13:53 13.03.2022
4860 Clouds 12 1015 53 10000 5.75 140 13:19 13.03.2022
4861 Clouds 11 1016 61 10000 5.76 142 12:20 13.03.2022
4862 Clouds 11 1016 57 10000 5.76 142 11:36 13.03.2022
4863 Clouds 10 1016 55 10000 5.48 137 10:48 13.03.2022
4864 Clouds 9 1016 59 10000 4.97 134 10:25 13.03.2022
4865 Clouds 7 1016 66 10000 4.97 134 09:41 13.03.2022
4866 Clouds 6 1016 68 10000 4.15 123 08:47 13.03.2022
4867 Clouds 4 1016 69 10000 3.58 123 07:47 13.03.2022
4868 Clouds 4 1015 74 10000 4.18 125 05:55 13.03.2022
4869 Clouds 5 1016 72 10000 3.72 133 03:26 13.03.2022
4870 Clouds 6 1017 69 10000 3.91 123 00:30 13.03.2022
4871 Clouds 7 1018 70 10000 4.06 122 22:44 12.03.2022
4872 Clouds 9 1018 71 10000 4.42 124 20:59 12.03.2022
4873 Clouds 10 1018 69 10000 4.27 117 19:57 12.03.2022
4874 Clouds 10 1018 69 10000 4.27 117 19:57 12.03.2022
4875 Clouds 10 1018 69 10000 4.27 117 19:38 12.03.2022
4876 Clouds 12 1018 66 10000 3.43 132 18:29 12.03.2022
4877 Clouds 13 1018 65 10000 3.43 132 17:43 12.03.2022
4878 Clouds 13 1018 64 10000 4.18 168 16:25 12.03.2022
4879 Clouds 14 1018 63 10000 5.05 172 15:24 12.03.2022
4880 Clouds 14 1018 64 10000 5.05 172 14:52 12.03.2022
4881 Clouds 14 1018 63 10000 5.43 175 13:47 12.03.2022
4882 Clouds 13 1018 60 10000 6.33 175 12:25 12.03.2022
4883 Clouds 12 1018 59 10000 6.33 175 11:51 12.03.2022
4884 Clouds 11 1018 54 10000 6.35 166 11:19 12.03.2022
4885 Clouds 7 1017 55 10000 6.46 156 09:58 12.03.2022
4886 Clouds 6 1017 54 10000 6.46 156 09:39 12.03.2022
4887 Clouds 3 1017 58 10000 5.6 139 07:51 12.03.2022
4888 Clouds 4 1016 56 10000 7.06 131 05:20 12.03.2022
4889 Clouds 5 1017 55 10000 7.59 131 00:24 12.03.2022
4890 Clouds 5 1017 53 10000 7.77 131 23:28 11.03.2022
4891 Clouds 6 1017 52 10000 7.98 131 21:48 11.03.2022
4892 Clouds 7 1017 52 10000 8.22 133 20:58 11.03.2022
4893 Clouds 7 1017 52 10000 8.22 133 20:37 11.03.2022
4894 Clouds 7 1016 51 10000 8.63 131 19:54 11.03.2022
4895 Clouds 8 1016 50 10000 8.83 130 19:27 11.03.2022
4896 Clouds 10 1016 49 10000 8.71 132 17:38 11.03.2022
4897 Clouds 10 1016 48 10000 9.12 131 17:19 11.03.2022
4898 Clear 11 1016 39 10000 9.22 131 15:57 11.03.2022
4899 Clouds 11 1017 46 10000 8.96 135 14:22 11.03.2022
4900 Clear 10 1018 51 10000 9.2 137 13:21 11.03.2022
4901 Clear 9 1019 52 10000 9.22 137 12:23 11.03.2022
4902 Clear 8 1019 55 10000 9.22 137 11:56 11.03.2022
4903 Clear 6 1019 66 10000 8.3 127 10:24 11.03.2022
4904 Clear 4 1019 72 10000 8.3 127 09:32 11.03.2022
4905 Clear 3 1020 78 10000 7.47 122 08:25 11.03.2022
4906 Clear 2 1020 80 10000 7.47 122 07:46 11.03.2022
4907 Clouds 2 1020 81 10000 6.92 121 06:22 11.03.2022
4908 Clouds 3 1021 80 10000 6.65 118 04:24 11.03.2022
4909 Clouds 6 1023 72 10000 6.14 121 00:39 11.03.2022
4910 Clouds 7 1023 65 10000 6.3 125 22:32 10.03.2022
4911 Clouds 8 1023 64 10000 6.51 126 21:52 10.03.2022
4912 Clouds 8 1023 64 10000 6.61 124 21:24 10.03.2022
4913 Clouds 9 1023 60 10000 6.48 120 19:54 10.03.2022
4914 Clouds 10 1023 68 10000 5.46 115 18:56 10.03.2022
4915 Clouds 13 1023 64 10000 4.81 122 17:37 10.03.2022
4916 Clouds 14 1023 42 10000 5.47 132 16:42 10.03.2022
4917 Clouds 15 1024 39 10000 5.78 142 15:27 10.03.2022
4918 Clouds 14 1024 44 10000 6.15 146 13:41 10.03.2022
4919 Clouds 13 1024 46 10000 5.62 148 12:35 10.03.2022
4920 Clouds 11 1025 54 10000 4.97 146 11:26 10.03.2022
4921 Clouds 5 1025 71 10000 3.99 136 09:28 10.03.2022
4922 Clouds 1 1025 78 10000 3.63 136 07:47 10.03.2022
4923 Clear 1 1025 76 10000 3.57 143 05:30 10.03.2022
4924 Clear 2 1025 79 10000 3.67 146 01:59 10.03.2022
4925 Clouds 3 1025 76 10000 3.7 143 23:32 09.03.2022
4926 Clouds 4 1024 70 10000 3.78 137 22:20 09.03.2022
4927 Clouds 4 1024 70 10000 3.78 137 21:36 09.03.2022
4928 Clouds 5 1024 66 10000 3.87 130 20:31 09.03.2022
4929 Clouds 9 1024 53 10000 3.67 134 18:41 09.03.2022
4930 Clouds 12 1023 43 10000 3.46 141 17:28 09.03.2022
4931 Clouds 12 1023 39 10000 3.46 141 16:36 09.03.2022
4932 Clouds 13 1023 40 10000 4.22 153 15:32 09.03.2022
4933 Clouds 12 1023 43 10000 5.48 158 13:58 09.03.2022
4934 Clouds 11 1024 45 10000 5.2 159 12:59 09.03.2022
4935 Clear 10 1024 47 10000 4.94 162 12:20 09.03.2022
4936 Clear 10 1024 49 10000 4.94 162 11:45 09.03.2022
4937 Clear 8 1024 55 10000 4.88 161 10:49 09.03.2022
4938 Clear 4 1024 71 10000 3.8 152 09:22 09.03.2022
4939 Clear 2 1024 77 10000 3.8 152 08:42 09.03.2022
4940 Clear 0 1023 76 10000 3.52 153 04:49 09.03.2022
4941 Clear 2 1024 73 10000 3.72 146 00:55 09.03.2022
4942 Clear 3 1024 70 10000 3.87 144 23:37 08.03.2022
4943 Clear 4 1024 69 10000 4.15 135 22:45 08.03.2022
4944 Clear 5 1023 66 10000 4.24 132 21:43 08.03.2022
4945 Clear 5 1023 65 10000 4.29 127 21:18 08.03.2022
4946 Clear 6 1023 63 10000 4.29 124 19:59 08.03.2022
4947 Clear 7 1022 71 10000 4.18 120 18:53 08.03.2022
4948 Clear 9 1023 56 10000 4.37 122 17:51 08.03.2022
4949 Clear 10 1022 50 10000 5.29 131 16:37 08.03.2022
4950 Clear 10 1023 52 10000 5.96 135 14:24 08.03.2022
4951 Clear 9 1024 54 10000 5.52 139 13:22 08.03.2022
4952 Clouds 8 1024 54 10000 5.08 141 12:20 08.03.2022
4953 Clouds 8 1024 57 10000 5.08 141 11:41 08.03.2022
4954 Clear 6 1025 66 10000 4.29 146 10:27 08.03.2022
4955 Clear 0 1025 89 10000 3.72 143 08:30 08.03.2022
4956 Clear -1 1025 88 10000 3.25 137 05:49 08.03.2022
4957 Clear 0 1026 86 10000 3.2 132 01:49 08.03.2022
4958 Clear 1 1027 87 10000 2.94 119 22:41 07.03.2022
4959 Clear 2 1027 88 10000 2.99 115 21:36 07.03.2022
4960 Clear 2 1027 86 10000 3.05 106 20:55 07.03.2022
4961 Clear 2 1027 86 10000 3.06 98 20:29 07.03.2022
4962 Clear 3 1027 86 10000 3.06 98 19:48 07.03.2022
4963 Clear 5 1027 85 10000 3.28 86 18:48 07.03.2022
4964 Clear 5 1027 83 10000 3.17 75 18:28 07.03.2022
4965 Clear 8 1027 75 10000 2.56 74 16:56 07.03.2022
4966 Clear 8 1027 76 10000 2.56 74 16:37 07.03.2022
4967 Clear 8 1027 62 10000 2.59 76 14:41 07.03.2022
4968 Clear 7 1028 71 10000 2.15 102 12:34 07.03.2022
4969 Clear 6 1028 81 10000 1.96 103 11:21 07.03.2022
4970 Clear 4 1028 86 10000 1.57 93 10:26 07.03.2022
4971 Clear -2 1028 89 10000 0.36 10 07:42 07.03.2022
4972 Clear -1 1028 89 10000 0.73 58 01:23 07.03.2022
4973 Clear 0 1028 88 10000 1.38 68 00:20 07.03.2022
4974 Clear 1 1028 86 10000 1.32 52 23:22 06.03.2022
4975 Clear 1 1028 86 10000 1.58 50 22:26 06.03.2022
4976 Clear 2 1028 87 10000 1.84 47 21:22 06.03.2022
4977 Clear 3 1028 85 10000 2.21 44 20:29 06.03.2022
4978 Clear 3 1028 82 10000 2.21 44 19:39 06.03.2022
4979 Clouds 4 1027 81 10000 2.44 28 18:49 06.03.2022
4980 Clouds 5 1027 79 10000 2.5 32 17:46 06.03.2022
4981 Clouds 5 1027 78 10000 2.83 17 17:19 06.03.2022
4982 Clouds 6 1027 74 10000 3.73 12 16:28 06.03.2022
4983 Clouds 6 1027 73 10000 4.21 10 15:25 06.03.2022
4984 Clouds 6 1027 71 10000 4.21 10 14:42 06.03.2022
4985 Clouds 6 1027 70 10000 4.38 14 13:48 06.03.2022
4986 Clouds 5 1027 67 10000 4.52 20 12:40 06.03.2022
4987 Clouds 5 1028 66 10000 4.33 27 11:45 06.03.2022
4988 Clouds 4 1028 68 10000 4.08 39 10:40 06.03.2022
4989 Clouds 2 1028 75 10000 3.67 54 09:18 06.03.2022
4990 Clouds 0 1027 81 10000 3.17 46 08:28 06.03.2022
4991 Clouds -1 1027 85 10000 3.45 39 07:25 06.03.2022
4992 Clouds 1 1026 86 10000 3.43 51 02:45 06.03.2022
4993 Clear 0 1026 85 10000 3.13 55 00:36 06.03.2022
4994 Clear 0 1026 84 10000 3.26 56 00:18 06.03.2022
4995 Clear 0 1026 85 10000 3.38 54 23:19 05.03.2022
4996 Clear 0 1026 86 10000 3.38 54 22:34 05.03.2022
4997 Clear 1 1025 85 10000 3.63 56 21:29 05.03.2022
4998 Clear 2 1025 83 10000 3.63 56 20:38 05.03.2022
4999 Clear 3 1024 78 10000 3.94 56 19:22 05.03.2022
5000 Clear 4 1024 74 10000 3.94 56 18:39 05.03.2022
5001 Clear 5 1023 70 10000 3.86 57 17:35 05.03.2022
5002 Clear 7 1023 65 10000 4.71 86 16:19 05.03.2022
5003 Clear 7 1023 63 10000 4.75 90 15:20 05.03.2022
5004 Clear 7 1023 65 10000 4.75 90 14:36 05.03.2022
5005 Clear 6 1023 65 10000 4.73 95 13:44 05.03.2022
5006 Clear 6 1023 65 10000 4.94 104 12:46 05.03.2022
5007 Clear 4 1024 69 10000 5.43 108 11:21 05.03.2022
5008 Clear 3 1024 71 10000 5.43 108 10:53 05.03.2022
5009 Clear 1 1024 77 10000 5.32 110 09:37 05.03.2022
5010 Clear 0 1024 83 10000 4.8 109 08:46 05.03.2022
5011 Clear -2 1023 83 10000 3.51 102 07:23 05.03.2022
5012 Clear -2 1023 83 10000 3.51 102 07:23 05.03.2022
5013 Clear -2 1023 84 10000 3.76 106 05:39 05.03.2022
5014 Clear 0 1024 82 10000 3.55 113 00:51 05.03.2022
5015 Clear 0 1024 83 10000 3.62 111 23:30 04.03.2022
5016 Clear 1 1024 83 10000 3.56 110 22:40 04.03.2022
5017 Clear 1 1024 81 10000 3.6 110 21:45 04.03.2022
5018 Clear 2 1024 80 10000 3.78 114 20:48 04.03.2022
5019 Clear 3 1023 79 10000 3.7 115 20:18 04.03.2022
5020 Clear 3 1023 76 10000 3.71 115 19:35 04.03.2022
5021 Clear 5 1023 76 10000 3.57 110 18:36 04.03.2022
5022 Clear 6 1022 76 10000 3.49 112 17:30 04.03.2022
5023 Clear 7 1022 76 10000 4.4 117 16:36 04.03.2022
5024 Clear 7 1023 74 10000 5.41 118 15:27 04.03.2022
5025 Clear 6 1023 76 10000 5.35 118 13:53 04.03.2022
5026 Clear 5 1023 76 10000 5.5 117 12:54 04.03.2022
5027 Clear 4 1023 80 10000 5.56 116 11:38 04.03.2022
5028 Clear 3 1024 85 10000 5.26 116 10:42 04.03.2022
5029 Clear 1 1024 95 10000 4.58 110 09:28 04.03.2022
5030 Clear 0 1024 94 10000 3.6 105 08:34 04.03.2022
5031 Clear -1 1023 94 10000 3.43 104 07:23 04.03.2022
5032 Clear -1 1023 91 10000 3.12 103 03:43 04.03.2022
5033 Clear 1 1023 90 10000 3.6 99 00:23 04.03.2022
5034 Clear 2 1023 88 10000 3.7 94 22:21 03.03.2022
5035 Clear 2 1023 88 10000 3.7 94 21:40 03.03.2022
5036 Clear 3 1022 87 10000 3.81 92 21:18 03.03.2022
5037 Clear 4 1022 81 10000 3.88 90 19:50 03.03.2022
5038 Clear 5 1022 77 10000 4.01 85 18:53 03.03.2022
5039 Clear 6 1021 73 10000 3.68 80 18:22 03.03.2022
5040 Clear 8 1021 62 10000 4.36 87 17:28 03.03.2022
5041 Clear 9 1021 60 10000 4.7 92 16:22 03.03.2022
5042 Clear 9 1021 58 10000 5.16 97 15:21 03.03.2022
5043 Clear 9 1021 62 10000 5.16 97 14:42 03.03.2022
5044 Clear 8 1021 69 10000 5.09 105 13:19 03.03.2022
5045 Clear 7 1021 75 10000 5.61 102 11:54 03.03.2022
5046 Clear 5 1022 75 10000 5.37 102 10:42 03.03.2022
5047 Clear 1 1022 94 10000 4.52 100 08:57 03.03.2022
5048 Clear -1 1022 94 10000 3.84 94 07:48 03.03.2022
5049 Clouds -1 1022 94 10000 3.95 87 06:35 03.03.2022
5050 Clouds 1 1022 94 10000 3.35 96 02:23 03.03.2022
5051 Clear 1 1023 93 10000 3.16 90 23:31 02.03.2022
5052 Clear 1 1023 92 10000 3.16 88 22:52 02.03.2022
5053 Clear 2 1023 91 10000 3.16 91 21:34 02.03.2022
5054 Clear 3 1023 89 10000 3.06 88 20:53 02.03.2022
5055 Clear 3 1023 88 10000 3.11 83 20:24 02.03.2022
5056 Clear 4 1023 85 10000 3.11 83 19:36 02.03.2022
5057 Clear 5 1024 83 10000 3.44 75 18:48 02.03.2022
5058 Clear 6 1023 82 10000 3.44 70 18:19 02.03.2022
5059 Clear 7 1023 77 10000 3.44 70 17:34 02.03.2022
5060 Clear 8 1024 67 10000 3.87 76 16:51 02.03.2022
5061 Clear 9 1024 65 10000 4 77 14:59 02.03.2022
5062 Clear 9 1025 64 10000 3.94 80 13:30 02.03.2022
5063 Clear 8 1025 68 10000 4.06 77 12:45 02.03.2022
5064 Clear 8 1026 75 10000 4.02 82 11:59 02.03.2022
5065 Clear 7 1026 79 10000 4.16 81 11:25 02.03.2022
5066 Clear 5 1026 83 10000 4.16 81 10:30 02.03.2022
5067 Clear 4 1026 89 10000 4.09 81 09:31 02.03.2022
5068 Clear 1 1027 93 10000 3.32 68 07:59 02.03.2022
5069 Clear 1 1027 93 10000 3.32 70 07:23 02.03.2022
5070 Clear 3 1027 89 10000 3.27 64 03:56 02.03.2022
5071 Clouds 4 1028 88 10000 3.08 60 00:40 02.03.2022
5072 Clouds 5 1028 87 10000 3 71 22:53 01.03.2022
5073 Clouds 5 1028 86 10000 2.99 71 22:35 01.03.2022
5074 Clouds 5 1028 86 10000 3.09 69 21:26 01.03.2022
5075 Clouds 5 1028 85 10000 3.08 69 20:38 01.03.2022
5076 Clouds 5 1028 85 10000 2.95 70 20:19 01.03.2022
5077 Clouds 6 1028 80 10000 2.78 43 18:52 01.03.2022
5078 Clouds 6 1028 79 10000 2.18 24 18:22 01.03.2022
5079 Clouds 7 1028 76 10000 2.17 24 17:42 01.03.2022
5080 Clouds 8 1028 71 10000 0.86 12 16:36 01.03.2022
5081 Clouds 8 1027 70 10000 0.26 246 15:47 01.03.2022
5082 Clouds 8 1028 68 10000 1.73 228 14:54 01.03.2022
5083 Clouds 8 1028 68 10000 1.73 228 14:31 01.03.2022
5084 Clouds 8 1028 68 10000 2.84 197 13:26 01.03.2022
5085 Clouds 8 1028 70 10000 3.07 196 12:36 01.03.2022
5086 Clouds 6 1029 77 10000 3.27 199 11:35 01.03.2022
5087 Clouds 4 1028 82 10000 3.36 183 09:52 01.03.2022
5088 Clouds 1 1028 86 10000 3.02 177 08:25 01.03.2022
5089 Clouds 1 1028 85 10000 3.06 180 07:19 01.03.2022
5090 Clouds 1 1028 82 10000 3.84 165 03:27 01.03.2022
5091 Clouds 2 1029 83 10000 4.38 159 00:48 01.03.2022
5092 Clouds 3 1029 84 10000 4.54 157 23:47 28.02.2022
5093 Clouds 3 1029 82 10000 4.71 157 22:43 28.02.2022
5094 Clouds 4 1030 78 10000 4.99 152 21:48 28.02.2022
5095 Clouds 4 1030 74 10000 5.03 147 20:55 28.02.2022
5096 Clouds 5 1029 73 10000 4.58 145 19:51 28.02.2022
5097 Clouds 6 1029 72 10000 4.07 141 18:57 28.02.2022
5098 Clear 8 1029 68 10000 3.86 145 17:57 28.02.2022
5099 Clear 8 1029 67 10000 5.14 151 17:23 28.02.2022
5100 Clear 9 1029 60 10000 5.14 151 16:32 28.02.2022
5101 Clear 9 1030 58 10000 5.84 155 15:21 28.02.2022
5102 Clear 9 1030 61 10000 6.09 159 14:29 28.02.2022
5103 Clear 8 1031 64 10000 5.29 164 13:24 28.02.2022
5104 Clear 7 1031 66 10000 5.29 164 12:31 28.02.2022
5105 Clear 6 1032 72 10000 4.97 173 11:37 28.02.2022
5106 Clear 4 1032 79 10000 4.83 172 10:24 28.02.2022
5107 Clear 4 1032 81 10000 4.83 172 09:59 28.02.2022
5108 Clear 2 1032 84 10000 3.92 165 09:27 28.02.2022
5109 Clear 0 1031 89 10000 3.77 158 08:26 28.02.2022
5110 Clear 0 1031 89 10000 3.77 158 08:26 28.02.2022
5111 Clear 0 1031 88 10000 3.87 156 06:53 28.02.2022
5112 Clear 0 1032 88 10000 3.59 159 04:31 28.02.2022
5113 Clear 0 1032 87 10000 3.86 157 03:30 28.02.2022
5114 Clear 3 1033 80 10000 4.71 136 23:26 27.02.2022
5115 Clear 3 1033 78 10000 4.71 136 22:33 27.02.2022
5116 Clear 4 1033 78 10000 4.71 135 21:47 27.02.2022
5117 Clear 4 1032 77 10000 4.91 133 20:55 27.02.2022
5118 Clear 4 1032 76 10000 4.3 128 20:27 27.02.2022
5119 Clear 4 1032 74 10000 4.29 128 19:57 27.02.2022
5120 Clear 5 1032 71 10000 3.97 126 19:26 27.02.2022
5121 Clear 6 1032 72 10000 3.82 125 18:40 27.02.2022
5122 Clear 7 1032 72 10000 4.03 130 17:54 27.02.2022
5123 Clear 8 1032 70 10000 5.07 139 16:45 27.02.2022
5124 Clear 8 1032 68 10000 5.49 144 16:21 27.02.2022
5125 Clear 7 1033 69 10000 6.84 148 13:25 27.02.2022
5126 Clear 7 1033 71 10000 6.73 147 12:32 27.02.2022
5127 Clear 5 1034 80 10000 6.14 139 10:56 27.02.2022
5128 Clear 4 1034 80 10000 5.54 140 10:19 27.02.2022
5129 Clear 3 1034 84 10000 5.54 140 09:49 27.02.2022
5130 Clear 2 1034 90 10000 4.17 138 09:20 27.02.2022
5131 Clear 0 1034 94 10000 3.74 137 07:54 27.02.2022
5132 Clear 0 1034 93 10000 3.4 135 05:38 27.02.2022
5133 Clear 0 1034 90 10000 3.3 128 02:21 27.02.2022
5134 Clouds 1 1035 91 10000 3.33 122 23:23 26.02.2022
5135 Clouds 1 1034 90 10000 2.88 131 21:58 26.02.2022
5136 Clouds 2 1034 89 10000 2.41 142 21:18 26.02.2022
5137 Clouds 3 1034 87 10000 2.14 153 20:20 26.02.2022
5138 Clouds 3 1034 85 10000 2.14 153 19:50 26.02.2022
5139 Clouds 4 1034 83 10000 1.94 159 19:29 26.02.2022
5140 Clouds 7 1034 76 10000 1.73 145 17:52 26.02.2022
5141 Clouds 7 1034 74 10000 1.74 151 17:29 26.02.2022
5142 Clouds 8 1034 72 10000 2.02 168 16:19 26.02.2022
5143 Clouds 8 1034 69 10000 1.92 169 15:25 26.02.2022
5144 Clouds 8 1034 71 10000 1.93 169 14:57 26.02.2022
5145 Clouds 8 1034 71 10000 1.92 169 14:38 26.02.2022
5146 Clouds 8 1034 72 10000 1.52 165 13:40 26.02.2022
5147 Clear 8 1034 71 10000 1.19 213 12:52 26.02.2022
5148 Clear 6 1035 83 10000 1.74 227 11:38 26.02.2022
5149 Clear 6 1034 85 10000 1.66 238 10:59 26.02.2022
5150 Clear 2 1034 95 10000 1.79 277 09:22 26.02.2022
5151 Clear 0 1033 87 10000 2.26 287 08:21 26.02.2022
5152 Clear 1 1031 91 10000 3.21 307 04:22 26.02.2022
5153 Clear 4 1028 87 10000 5.59 311 23:50 25.02.2022
5154 Clear 4 1028 86 10000 6.8 310 22:31 25.02.2022
5155 Clear 4 1027 83 10000 7 305 21:30 25.02.2022
5156 Clear 4 1026 84 10000 6.78 307 20:47 25.02.2022
5157 Clear 5 1025 83 10000 7.03 311 20:25 25.02.2022
5158 Clouds 6 1022 85 10000 7.71 315 17:54 25.02.2022
5159 Clouds 7 1020 73 10000 8.72 313 16:48 25.02.2022
5160 Clouds 6 1019 87 10000 9.68 312 15:50 25.02.2022
5161 Clouds 6 1018 89 10000 9.8 302 15:23 25.02.2022
5162 Clouds 6 1018 89 10000 9.8 302 14:55 25.02.2022
5163 Rain 6 1017 88 10000 9.73 296 14:24 25.02.2022
5164 Clouds 6 1017 88 10000 9.73 296 13:30 25.02.2022
5165 Clouds 6 1015 84 10000 9.57 281 12:21 25.02.2022
5166 Clouds 6 1014 88 10000 9 281 11:22 25.02.2022
5167 Clouds 5 1013 89 10000 8.52 280 10:23 25.02.2022
5168 Clouds 5 1013 89 10000 8.52 280 10:23 25.02.2022
5169 Clouds 5 1013 90 10000 8.52 280 09:46 25.02.2022
5170 Clouds 4 1012 93 10000 7.75 261 08:41 25.02.2022
5171 Clouds 3 1011 90 1461 8.02 247 07:35 25.02.2022
5172 Clouds 3 1011 87 10000 8.52 241 05:43 25.02.2022
5173 Clouds 4 1011 87 10000 8.49 248 02:48 25.02.2022
5174 Clouds 3 1009 92 10000 8.3 264 22:48 24.02.2022
5175 Clouds 3 1008 93 10000 8.78 268 21:51 24.02.2022
5176 Clouds 3 1008 93 10000 8.78 268 21:31 24.02.2022
5177 Clouds 3 1007 94 10000 8.33 270 20:53 24.02.2022
5178 Clouds 3 1006 95 10000 7.96 261 19:38 24.02.2022
5179 Clouds 3 1004 95 10000 8.5 268 18:37 24.02.2022
5180 Clouds 3 1003 95 7809 8.67 283 18:18 24.02.2022
5181 Clouds 3 1003 95 7809 8.67 283 17:33 24.02.2022
5182 Clouds 3 999 94 7002 9.71 249 16:29 24.02.2022
5183 Clouds 6 999 91 7002 9.71 249 15:47 24.02.2022
5184 Clouds 8 999 89 10000 11.55 215 14:53 24.02.2022
5185 Clouds 9 1000 88 10000 10.89 203 14:24 24.02.2022
5186 Clouds 9 1000 80 10000 10.89 203 13:39 24.02.2022
5187 Clouds 9 1003 80 10000 9.66 204 12:33 24.02.2022
5188 Clouds 8 1005 85 10000 9 205 10:40 24.02.2022
5189 Clouds 7 1007 87 10000 7.79 206 08:58 24.02.2022
5190 Clouds 7 1007 86 10000 7.79 206 08:39 24.02.2022
5191 Clouds 7 1008 82 10000 7.8 211 05:52 24.02.2022
5192 Clouds 7 1012 81 10000 8.33 211 01:56 24.02.2022
5193 Clouds 7 1012 81 10000 8.33 211 01:56 24.02.2022
5194 Clouds 8 1015 79 10000 7.48 212 22:38 23.02.2022
5195 Clouds 8 1016 80 10000 7.09 206 21:40 23.02.2022
5196 Clouds 8 1016 76 10000 6.41 204 20:31 23.02.2022
5197 Clouds 8 1017 75 10000 6.29 210 19:46 23.02.2022
5198 Clouds 8 1017 78 10000 6.43 208 18:32 23.02.2022
5199 Clear 9 1018 76 10000 6.73 217 17:44 23.02.2022
5200 Clouds 10 1020 73 10000 7.72 230 14:44 23.02.2022
5201 Clear 9 1022 73 10000 7.89 239 12:45 23.02.2022
5202 Clear 9 1022 82 10000 7.84 242 11:59 23.02.2022
5203 Clear 7 1022 86 10000 7.32 242 10:35 23.02.2022
5204 Clear 5 1022 94 10000 5.99 242 08:59 23.02.2022
5205 Clear 5 1022 94 10000 5.99 242 08:59 23.02.2022
5206 Clear 4 1022 93 10000 5.98 252 08:23 23.02.2022
5207 Clear 4 1021 94 10000 6.59 262 06:53 23.02.2022
5208 Clouds 6 1017 90 10000 8.69 289 00:47 23.02.2022
5209 Clouds 6 1016 91 10000 9.57 292 23:39 22.02.2022
5210 Clouds 6 1015 90 10000 9.28 286 22:51 22.02.2022
5211 Clouds 6 1013 92 10000 8.54 289 21:50 22.02.2022
5212 Clouds 6 1013 92 10000 8.54 289 21:31 22.02.2022
5213 Clouds 7 1012 82 10000 9.26 292 20:59 22.02.2022
5214 Clouds 7 1012 90 10000 9.26 292 20:31 22.02.2022
5215 Clouds 7 1011 90 10000 9.07 292 19:50 22.02.2022
5216 Clouds 7 1011 91 10000 9.07 292 19:31 22.02.2022
5217 Clouds 8 1007 94 10000 10.78 257 18:23 22.02.2022
5218 Clouds 8 1007 96 7290 10.02 249 17:26 22.02.2022
5219 Clouds 8 1007 96 7290 10.02 249 16:41 22.02.2022
5220 Clouds 7 1007 95 10000 9.07 227 15:59 22.02.2022
5221 Clouds 7 1009 94 10000 8.81 214 14:52 22.02.2022
5222 Clouds 7 1012 90 10000 7.24 207 12:52 22.02.2022
5223 Clouds 6 1014 90 10000 5.77 228 10:53 22.02.2022
5224 Clouds 4 1014 93 10000 5.21 252 08:56 22.02.2022
5225 Clouds 4 1014 91 10000 6.23 285 07:27 22.02.2022
5226 Clouds 4 1014 89 10000 6.23 285 06:52 22.02.2022
5227 Clear 5 1013 84 10000 8.9 302 02:47 22.02.2022
5228 Clouds 6 1008 83 10000 11.71 316 23:18 21.02.2022
5229 Clouds 6 1006 84 10000 12.41 322 21:56 21.02.2022
5230 Clouds 6 1003 90 10000 12.9 313 20:38 21.02.2022
5231 Clouds 6 1003 90 10000 12.9 313 20:38 21.02.2022
5232 Clouds 6 1000 93 10000 11.05 305 18:47 21.02.2022
5233 Clouds 6 998 91 10000 9.77 300 17:41 21.02.2022
5234 Clouds 6 994 92 10000 10.61 333 15:36 21.02.2022
5235 Clouds 5 988 97 10000 6.11 274 14:22 21.02.2022
5236 Clouds 3 988 97 10000 6.11 274 13:30 21.02.2022
5237 Snow 2 989 95 51 9.47 214 12:24 21.02.2022
5238 Clouds 2 989 95 51 9.47 214 11:31 21.02.2022
5239 Clouds 4 991 91 126 10.3 240 10:23 21.02.2022
5240 Clouds 4 990 85 10000 12.56 266 05:40 21.02.2022
5241 Clouds 6 987 94 10000 13.68 268 00:30 21.02.2022
5242 Clouds 9 984 94 10000 14.14 269 22:30 20.02.2022
5243 Clouds 10 984 95 7373 14.88 224 21:43 20.02.2022
5244 Clouds 10 986 95 5225 13.85 223 21:19 20.02.2022
5245 Clouds 9 986 95 5225 13.85 223 20:42 20.02.2022
5246 Clouds 9 988 96 5790 13.02 224 19:48 20.02.2022
5247 Clouds 9 990 96 6346 11.17 222 18:55 20.02.2022
5248 Clouds 9 991 96 7769 10.6 224 18:34 20.02.2022
5249 Clouds 9 993 96 10000 10.68 232 17:55 20.02.2022
5250 Clouds 9 996 95 10000 11.06 243 16:18 20.02.2022
5251 Clouds 9 997 95 10000 11.21 242 14:53 20.02.2022
5252 Clouds 9 997 95 10000 11.57 240 13:58 20.02.2022
5253 Clouds 9 999 96 10000 12.06 243 12:42 20.02.2022
5254 Clouds 8 999 97 10000 11.89 241 11:30 20.02.2022
5255 Clouds 5 1001 97 9344 9.37 207 10:20 20.02.2022
5256 Clouds 4 1002 96 2471 8.24 186 09:24 20.02.2022
5257 Clouds 3 1007 96 10000 5.29 312 02:54 20.02.2022
5258 Clouds 4 1003 95 1440 5.66 325 00:31 20.02.2022
5259 Clouds 3 1002 95 425 2.71 294 23:32 19.02.2022
5260 Clouds 3 1002 94 113 6.98 178 22:23 19.02.2022
5261 Clouds 4 1002 94 113 6.98 178 21:45 19.02.2022
5262 -273 0 0 0 0 0 20:25 19.02.2022
5263 Clouds 4 1005 92 10000 5.57 194 20:25 19.02.2022
5264 Clouds 4 1005 91 10000 5.57 194 19:34 19.02.2022
5265 Clouds 5 1005 82 10000 6.29 212 18:39 19.02.2022
5266 Clouds 6 1006 80 10000 6.74 223 17:54 19.02.2022
5267 Clouds 6 1007 78 10000 7.98 233 16:47 19.02.2022
5268 Clouds 7 1007 76 10000 9.22 239 15:59 19.02.2022
5269 Clouds 7 1007 75 10000 9.8 247 14:53 19.02.2022
5270 Clear 7 1008 74 10000 9.9 251 13:55 19.02.2022
5271 Clouds 6 1008 84 10000 10.53 253 11:47 19.02.2022
5272 Clouds 5 1007 88 10000 10.54 258 10:48 19.02.2022
5273 Clouds 4 1005 92 10000 10.58 265 08:56 19.02.2022
5274 Clouds 3 1002 92 4175 9.73 265 06:48 19.02.2022
5275 Clouds 6 989 80 10000 20.32 256 00:38 19.02.2022
5276 Clouds 6 987 78 10000 18.65 248 22:24 18.02.2022
5277 Clouds 6 986 85 10000 18.42 254 21:21 18.02.2022
5278 Clouds 6 984 85 10000 18.21 257 20:18 18.02.2022
5279 Clouds 8 982 85 9818 17.53 241 18:51 18.02.2022
5280 Clouds 8 981 85 10000 18.01 228 18:29 18.02.2022
5281 Clouds 9 981 84 10000 18.01 228 17:56 18.02.2022
5282 Clouds 9 984 85 10000 13.54 224 16:19 18.02.2022
5283 Clouds 10 986 97 10000 13.09 211 14:19 18.02.2022
5284 Clouds 10 986 97 10000 13.09 211 13:45 18.02.2022
5285 Clouds 9 989 97 10000 11.71 204 12:48 18.02.2022
5286 Clouds 7 991 97 10000 10.34 191 11:57 18.02.2022
5287 Clouds 6 994 96 10000 10.32 173 10:42 18.02.2022
5288 Clouds 5 1003 94 10000 4.16 183 07:21 18.02.2022
5289 Clouds 4 1004 94 10000 4.73 181 06:35 18.02.2022
5290 Clouds 4 1005 93 10000 4.17 191 05:34 18.02.2022
5291 Clouds 6 1006 79 10000 9.47 272 22:20 17.02.2022
5292 Clouds 6 1006 77 10000 9.47 272 21:41 17.02.2022
5293 Clouds 6 1006 81 10000 10.1 272 20:44 17.02.2022
5294 Clouds 7 1006 80 10000 11.23 272 19:56 17.02.2022
5295 Clouds 7 1005 82 10000 11.88 274 19:26 17.02.2022
5296 Clouds 7 1003 81 10000 12.44 274 18:29 17.02.2022
5297 Clouds 7 1003 72 10000 12.44 274 17:45 17.02.2022
5298 Clouds 8 1001 78 10000 13.94 274 15:58 17.02.2022
5299 Clouds 8 1000 76 10000 14.11 275 14:30 17.02.2022
5300 Clouds 8 999 76 10000 14.08 276 13:47 17.02.2022
5301 Clouds 8 998 80 10000 14 280 11:52 17.02.2022
5302 Clouds 7 997 82 10000 14.12 280 10:57 17.02.2022
5303 Clouds 7 992 78 10000 16.04 279 07:56 17.02.2022
5304 Clouds 10 984 80 10000 14.6 265 00:20 17.02.2022
5305 Clouds 11 983 87 10000 14.45 266 22:38 16.02.2022
5306 Clouds 11 984 96 10000 13.91 235 20:24 16.02.2022
5307 Clouds 10 985 95 10000 12.9 233 19:23 16.02.2022
5308 Clouds 11 987 93 6500 12.46 235 18:35 16.02.2022
5309 Clouds 11 989 91 10000 11.18 237 17:27 16.02.2022
5310 Clouds 12 990 89 10000 11.32 242 15:24 16.02.2022
5311 Clouds 12 990 90 10000 11.86 247 13:47 16.02.2022
5312 Clouds 11 990 92 10000 12.26 249 12:31 16.02.2022
5313 Clouds 11 990 96 10000 11.24 246 11:46 16.02.2022
5314 Clouds 9 990 98 10000 10.53 240 10:35 16.02.2022
5315 Clouds 9 990 98 10000 11.2 227 09:54 16.02.2022
5316 Clouds 7 994 97 10000 6.97 208 06:44 16.02.2022
5317 Clouds 6 998 96 10000 4.72 195 03:41 16.02.2022
5318 Clouds 6 1001 95 10000 4.9 242 22:35 15.02.2022
5319 Clouds 6 1001 95 10000 5.84 266 21:52 15.02.2022
5320 Clouds 6 1001 95 10000 5.84 266 21:31 15.02.2022
5321 Clouds 6 1000 94 10000 11.39 228 20:58 15.02.2022
5322 Clouds 6 1000 93 10000 11.39 228 20:38 15.02.2022
5323 Clouds 6 1001 93 9976 10.78 210 19:48 15.02.2022
5324 Clouds 6 1001 92 8417 10.92 211 18:41 15.02.2022
5325 Clouds 7 1002 91 10000 10.72 208 18:18 15.02.2022
5326 Clouds 7 1002 87 10000 10.72 208 17:46 15.02.2022
5327 Clouds 8 1003 77 10000 10 203 16:30 15.02.2022
5328 Clouds 8 1005 73 10000 8.51 215 14:39 15.02.2022
5329 Clouds 8 1007 79 10000 8.41 227 13:26 15.02.2022
5330 Clouds 8 1007 87 10000 8.14 228 11:52 15.02.2022
5331 Clouds 7 1007 92 10000 7.59 231 10:57 15.02.2022
5332 Clouds 6 1007 93 10000 6 221 09:25 15.02.2022
5333 Clouds 6 1006 91 10000 5.84 232 06:48 15.02.2022
5334 Clouds 6 1002 90 10000 9.21 243 00:48 15.02.2022
5335 Clouds 7 1001 85 10000 9.05 217 22:20 14.02.2022
5336 Clear 7 1001 84 10000 8.65 216 21:24 14.02.2022
5337 Clear 7 1001 84 10000 8.28 214 20:24 14.02.2022
5338 Clear 7 1001 79 10000 8.28 214 19:30 14.02.2022
5339 Clouds 8 1000 77 10000 7.72 225 18:27 14.02.2022
5340 Clouds 9 1000 77 10000 7.72 225 17:43 14.02.2022
5341 Clouds 9 1000 77 10000 7.72 225 17:43 14.02.2022
5342 Clouds 9 999 78 10000 8.34 227 17:24 14.02.2022
5343 Clouds 10 998 78 10000 8.32 227 15:58 14.02.2022
5344 Clouds 10 998 85 10000 9.12 225 13:44 14.02.2022
5345 Clouds 10 998 86 10000 8.97 230 13:23 14.02.2022
5346 Clouds 10 998 85 10000 8.01 224 12:32 14.02.2022
5347 Clouds 9 997 90 10000 7.38 232 11:54 14.02.2022
5348 Clouds 10 996 82 10000 10.37 224 10:31 14.02.2022
5349 Clouds 10 995 78 10000 11.36 193 08:37 14.02.2022
5350 Clouds 9 995 78 10000 10.3 190 07:27 14.02.2022
5351 Clouds 8 1000 75 10000 9.89 195 23:45 13.02.2022
5352 Clouds 8 1001 76 10000 10 192 22:42 13.02.2022
5353 Clouds 8 1001 76 10000 10.08 190 22:23 13.02.2022
5354 Clouds 8 1001 80 10000 10.08 190 21:30 13.02.2022
5355 Clouds 7 1002 79 10000 9.88 187 20:33 13.02.2022
5356 Clouds 7 1003 76 10000 8.71 181 19:29 13.02.2022
5357 Clouds 7 1003 77 10000 8.71 181 18:46 13.02.2022
5358 Clouds 7 1004 79 10000 8.01 183 18:26 13.02.2022
5359 Clouds 7 1006 76 10000 7.83 188 15:54 13.02.2022
5360 Clouds 7 1007 73 10000 7.91 192 15:24 13.02.2022
5361 Clouds 7 1008 76 10000 8.04 194 14:22 13.02.2022
5362 Clouds 5 1009 80 10000 7.74 197 12:51 13.02.2022
5363 Clouds 4 1010 81 10000 7.91 199 11:44 13.02.2022
5364 Clouds 3 1011 82 10000 7.85 201 10:33 13.02.2022
5365 Clouds 2 1011 84 10000 7.52 202 09:46 13.02.2022
5366 Clouds 1 1012 85 10000 7.11 194 07:49 13.02.2022
5367 Clouds 3 1017 79 10000 7.45 201 00:35 13.02.2022
5368 Clouds 3 1018 80 10000 7.75 200 23:42 12.02.2022
5369 Clouds 2 1018 79 10000 7.88 196 22:33 12.02.2022
5370 Clouds 3 1019 79 10000 7.54 194 21:31 12.02.2022
5371 Clouds 3 1019 77 10000 7.39 193 20:47 12.02.2022
5372 Clouds 3 1020 76 10000 7.32 188 19:35 12.02.2022
5373 Clouds 3 1021 76 10000 7.07 187 18:53 12.02.2022
5374 Clouds 3 1021 76 10000 7.07 187 18:35 12.02.2022
5375 Clouds 5 1022 75 10000 7.02 192 17:20 12.02.2022
5376 Clouds 5 1022 70 10000 7.02 192 16:43 12.02.2022
5377 Clouds 6 1023 72 10000 7.05 194 15:51 12.02.2022
5378 Clouds 6 1024 70 10000 7.14 197 14:55 12.02.2022
5379 Clouds 6 1025 71 10000 7.15 200 14:24 12.02.2022
5380 Clouds 3 1027 83 10000 7.09 200 11:18 12.02.2022
5381 Clouds 2 1028 86 10000 6.53 200 10:23 12.02.2022
5382 Clouds 1 1028 90 10000 6.53 200 09:32 12.02.2022
5383 Clouds -1 1029 93 10000 5.91 198 08:45 12.02.2022
5384 Clouds -1 1030 94 10000 4.39 193 05:41 12.02.2022
5385 Clouds -1 1030 94 10000 4.11 195 04:36 12.02.2022
5386 Clear 0 1032 92 10000 3.45 208 02:19 12.02.2022
5387 Clear 1 1033 88 10000 2.88 238 23:20 11.02.2022
5388 Clear 1 1033 85 10000 2.59 252 22:20 11.02.2022
5389 Clear 1 1033 84 10000 2.64 274 21:18 11.02.2022
5390 Clear 2 1032 86 10000 2.61 290 20:21 11.02.2022
5391 Clouds 2 1032 86 10000 2.73 316 19:27 11.02.2022
5392 Clouds 3 1031 82 10000 4.04 316 18:29 11.02.2022
5393 Clouds 4 1031 80 10000 5.17 318 17:26 11.02.2022
5394 Clouds 5 1031 83 10000 5.17 318 16:37 11.02.2022
5395 Clouds 6 1029 74 10000 6.53 330 15:18 11.02.2022
5396 Clouds 6 1029 75 10000 6.53 330 14:37 11.02.2022
5397 Clouds 6 1028 73 10000 7.19 335 14:19 11.02.2022
5398 Clouds 6 1028 69 10000 7.19 335 13:40 11.02.2022
5399 Clouds 6 1027 79 10000 7.52 340 12:45 11.02.2022
5400 Clouds 4 1024 88 10000 10.14 358 10:49 11.02.2022
5401 Clouds 5 1021 88 10000 10.24 349 09:32 11.02.2022
5402 Clouds 5 1019 92 10000 7.91 338 08:31 11.02.2022
5403 Clouds 5 1016 94 10000 8.51 329 07:40 11.02.2022
5404 Clouds 4 1014 93 10000 7.71 263 05:34 11.02.2022
5405 Clear 3 1017 90 10000 5.99 216 02:21 11.02.2022
5406 Clouds 3 1018 91 10000 5.01 226 23:45 10.02.2022
5407 Clouds 4 1018 90 10000 4.99 240 22:25 10.02.2022
5408 Clouds 4 1018 89 10000 4.99 240 21:40 10.02.2022
5409 Clouds 4 1018 88 10000 5.15 243 20:50 10.02.2022
5410 Clouds 5 1018 88 10000 5.09 247 19:51 10.02.2022
5411 Clouds 5 1018 87 10000 5.05 251 19:22 10.02.2022
5412 Clouds 5 1018 86 10000 5.18 263 18:22 10.02.2022
5413 Clouds 6 1017 84 10000 5.63 267 17:21 10.02.2022
5414 Clouds 6 1017 81 10000 5.63 267 16:43 10.02.2022
5415 Clouds 7 1017 82 10000 5.68 271 15:40 10.02.2022
5416 Clouds 7 1017 82 10000 6.13 276 15:21 10.02.2022
5417 Clouds 8 1017 81 10000 6.13 276 14:35 10.02.2022
5418 Clouds 8 1017 80 10000 6.46 273 13:56 10.02.2022
5419 Clouds 8 1017 82 10000 5.67 269 13:19 10.02.2022
5420 Clouds 7 1017 89 10000 5.51 262 11:53 10.02.2022
5421 Clouds 7 1017 94 10000 5.51 262 11:32 10.02.2022
5422 Clouds 6 1017 97 10000 4.17 254 10:23 10.02.2022
5423 Clouds 6 1017 98 10000 4.17 254 09:44 10.02.2022
5424 Clouds 6 1017 98 10000 3.52 254 08:40 10.02.2022
5425 Clouds 6 1017 98 10000 3.53 275 06:33 10.02.2022
5426 Rain 7 1019 97 10000 1.86 209 03:21 10.02.2022
5427 Clouds 7 1020 97 10000 1.86 249 00:56 10.02.2022
5428 Clouds 7 1020 97 10000 2 253 00:38 10.02.2022
5429 Clouds 7 1020 96 10000 2.67 251 00:20 10.02.2022
5430 Clouds 7 1021 96 10000 2.87 236 22:54 09.02.2022
5431 Clouds 7 1021 96 10000 2.87 236 22:31 09.02.2022
5432 Clouds 7 1021 96 10000 3.37 232 21:47 09.02.2022
5433 Clouds 7 1021 95 10000 3.58 233 21:27 09.02.2022
5434 Clouds 7 1021 95 10000 3.58 233 20:44 09.02.2022
5435 Clouds 7 1021 95 10000 3.58 233 20:44 09.02.2022
5436 Clouds 7 1021 95 10000 3.82 240 20:22 09.02.2022
5437 Clouds 7 1021 94 10000 3.82 240 19:42 09.02.2022
5438 Clouds 8 1022 94 10000 4.28 248 18:38 09.02.2022
5439 Clouds 8 1021 94 10000 5.48 256 16:57 09.02.2022
5440 Clouds 9 1021 95 10000 6.26 256 16:20 09.02.2022
5441 Clouds 9 1021 96 10000 6.97 252 15:24 09.02.2022
5442 Clouds 9 1021 93 10000 7.8 247 12:53 09.02.2022
5443 Clouds 9 1021 95 10000 8.24 246 11:36 09.02.2022
5444 Clouds 9 1020 94 10000 8.49 243 10:35 09.02.2022
5445 Clouds 9 1020 91 10000 8.52 240 09:53 09.02.2022
5446 Clouds 9 1020 91 10000 8.35 235 09:22 09.02.2022
5447 Clouds 9 1020 91 10000 8.35 235 08:46 09.02.2022
5448 Clouds 8 1020 90 10000 8.16 234 06:52 09.02.2022
5449 Clouds 9 1021 90 10000 8.06 235 04:36 09.02.2022
5450 Clouds 9 1021 91 10000 7.93 232 03:49 09.02.2022
5451 Clouds 9 1022 96 10000 6.82 230 23:45 08.02.2022
5452 Clouds 9 1022 96 10000 6.89 233 23:19 08.02.2022
5453 Clouds 9 1022 96 10000 6.89 233 23:19 08.02.2022
5454 Clouds 9 1022 96 10000 6.89 233 22:38 08.02.2022
5455 Clouds 9 1022 96 10000 6.89 233 22:38 08.02.2022
5456 Clouds 9 1023 97 10000 6.86 234 22:20 08.02.2022
5457 Clouds 9 1023 97 10000 6.66 239 21:22 08.02.2022
5458 Clouds 9 1023 96 10000 6.66 239 20:58 08.02.2022
5459 Clouds 9 1023 96 10000 6.66 239 20:38 08.02.2022
5460 Clouds 9 1023 96 10000 6.81 248 19:28 08.02.2022
5461 Clouds 9 1022 96 10000 6.94 252 18:24 08.02.2022
5462 Clouds 9 1022 96 10000 6.94 252 17:30 08.02.2022
5463 Clouds 10 1022 94 10000 7.45 261 15:47 08.02.2022
5464 Clouds 10 1022 93 10000 8.12 262 15:28 08.02.2022
5465 Clouds 10 1021 89 10000 8.5 259 13:50 08.02.2022
5466 Clouds 10 1021 89 10000 8.9 255 12:25 08.02.2022
5467 Clouds 9 1021 89 10000 9.14 253 10:52 08.02.2022
5468 Clouds 9 1020 89 10000 9.18 252 09:50 08.02.2022
5469 Clouds 9 1020 91 10000 8.9 252 08:53 08.02.2022
5470 Clouds 9 1020 91 10000 8.9 252 08:53 08.02.2022
5471 Clouds 8 1020 96 10000 8.42 245 06:50 08.02.2022
5472 Clouds 7 1020 97 10000 7.77 240 04:40 08.02.2022
5473 Clouds 7 1020 97 10000 7.69 233 04:22 08.02.2022
5474 Clouds 6 1020 97 10000 7.69 233 03:36 08.02.2022
5475 Clouds 6 1021 96 10000 7.59 230 03:18 08.02.2022
5476 Clouds 6 1021 96 10000 7.59 230 02:59 08.02.2022
5477 Clouds 6 1021 96 10000 7.59 230 02:36 08.02.2022
5478 Clouds 5 1021 95 10000 7.43 227 02:18 08.02.2022
5479 Clouds 6 1021 94 10000 7.43 227 01:45 08.02.2022
5480 Clouds 6 1021 94 10000 7.43 227 01:45 08.02.2022
5481 Clouds 6 1021 93 10000 7.45 225 01:25 08.02.2022
5482 Clouds 6 1021 90 10000 7.45 225 00:55 08.02.2022
5483 Clouds 5 1021 89 10000 7.68 227 00:32 08.02.2022
5484 Clouds 5 1022 88 10000 7.07 222 23:45 07.02.2022
5485 Clouds 5 1022 88 10000 6.72 226 23:18 07.02.2022
5486 Clouds 5 1022 88 10000 6.72 226 22:59 07.02.2022
5487 Clouds 5 1023 87 10000 5.98 226 22:19 07.02.2022
5488 Clouds 5 1023 87 10000 5.98 226 21:51 07.02.2022
5489 Clouds 5 1023 87 10000 5.47 226 21:28 07.02.2022
5490 Clouds 5 1023 87 10000 5.47 226 20:52 07.02.2022
5491 Clouds 5 1023 88 10000 5.47 226 20:34 07.02.2022
5492 Clouds 5 1023 88 10000 5.61 238 19:47 07.02.2022
5493 Clouds 5 1023 88 10000 5.99 252 18:58 07.02.2022
5494 Clouds 6 1023 87 10000 6.32 268 17:38 07.02.2022
5495 Clouds 6 1022 86 10000 6.97 279 16:52 07.02.2022
5496 Clouds 7 1022 84 10000 8.19 287 15:48 07.02.2022
5497 Clear 7 1021 84 10000 8.96 292 14:41 07.02.2022
5498 Clear 7 1020 84 10000 10.36 296 13:27 07.02.2022
5499 Clear 7 1020 86 10000 10.36 296 12:37 07.02.2022
5500 Clear 7 1019 84 10000 10 298 11:55 07.02.2022
5501 Clear 6 1018 85 10000 9.82 299 11:26 07.02.2022
5502 Clear 6 1018 84 10000 9.82 299 10:45 07.02.2022
5503 Clear 6 1017 81 10000 9.28 305 10:26 07.02.2022
5504 Clear 6 1017 81 10000 9.28 305 09:52 07.02.2022
5505 Clear 5 1016 85 10000 8.8 313 09:18 07.02.2022
5506 Clear 5 1014 89 10000 9.82 317 07:59 07.02.2022
5507 Clouds 5 1012 74 10000 9.9 321 06:35 07.02.2022
5508 Clouds 5 1010 88 10000 10.56 322 05:47 07.02.2022
5509 Clouds 4 1004 87 10000 11.99 311 02:56 07.02.2022
5510 Clouds 3 1000 91 10000 11.19 301 00:33 07.02.2022
5511 Clouds 3 999 92 10000 10.7 299 23:41 06.02.2022
5512 Clouds 4 998 88 10000 10.23 305 22:47 06.02.2022
5513 Clouds 4 996 84 10000 10.79 306 21:51 06.02.2022
5514 Clouds 4 995 90 10000 9.96 300 21:26 06.02.2022
5515 Rain 4 995 93 10000 9.96 300 20:52 06.02.2022
5516 Clouds 4 994 92 10000 10.13 292 20:28 06.02.2022
5517 Clouds 4 994 91 10000 10.13 292 19:32 06.02.2022
5518 Clouds 4 994 91 10000 11.16 281 18:38 06.02.2022
5519 Clouds 4 993 89 10000 9.84 268 17:54 06.02.2022
5520 Clouds 5 993 92 10000 9.71 276 16:56 06.02.2022
5521 Rain 6 993 92 10000 9.71 276 16:38 06.02.2022
5522 Clouds 7 993 90 10000 9.35 276 15:47 06.02.2022
5523 Clouds 7 993 91 10000 9.21 280 15:26 06.02.2022
5524 Clouds 6 993 94 10000 9.21 280 14:33 06.02.2022
5525 Clouds 6 993 95 10000 7.29 288 13:25 06.02.2022
5526 Clouds 6 993 95 10000 7.37 298 12:51 06.02.2022
5527 Rain 8 995 96 3928 8.35 249 11:27 06.02.2022
5528 Rain 8 996 96 10000 10.85 251 10:30 06.02.2022
5529 Clouds 8 997 95 8517 9.47 250 08:49 06.02.2022
5530 Rain 7 998 95 8689 7.39 242 07:51 06.02.2022
5531 Rain 8 1000 94 10000 11.86 269 05:30 06.02.2022
5532 Rain 8 1000 94 10000 11.86 269 05:30 06.02.2022
5533 Rain 8 1000 94 10000 11.86 269 05:30 06.02.2022
5534 Rain 8 1003 94 10000 11.67 241 02:26 06.02.2022
5535 Rain 7 1003 94 10000 11.67 241 01:47 06.02.2022
5536 Rain 7 1005 95 10000 12.01 245 00:26 06.02.2022
5537 Rain 7 1007 94 10000 12.2 241 22:20 05.02.2022
5538 Rain 6 1008 94 8835 11.8 237 21:18 05.02.2022
5539 Rain 6 1009 93 10000 11.18 233 20:24 05.02.2022
5540 Rain 6 1009 93 10000 11.18 233 19:46 05.02.2022
5541 Rain 6 1010 92 10000 11.05 232 18:52 05.02.2022
5542 Clouds 6 1011 84 10000 10.69 233 17:39 05.02.2022
5543 Clouds 6 1011 84 10000 10.69 233 17:39 05.02.2022
5544 Clouds 7 1011 83 10000 10.31 234 16:48 05.02.2022
5545 Clouds 7 1012 82 10000 9.84 232 15:34 05.02.2022
5546 Clouds 7 1013 80 10000 9.42 234 14:55 05.02.2022
5547 Clouds 6 1014 84 10000 8.73 244 12:47 05.02.2022
5548 Clouds 6 1015 85 10000 7.88 248 12:22 05.02.2022
5549 Clouds 5 1015 87 10000 7.65 254 10:48 05.02.2022
5550 Clouds 4 1015 88 10000 7.11 254 09:53 05.02.2022
5551 Clouds 3 1015 89 10000 7.11 254 09:30 05.02.2022
5552 Clouds 3 1014 89 10000 7 265 07:51 05.02.2022
5553 Clouds 3 1014 88 10000 7.24 269 06:57 05.02.2022
5554 Clouds 4 1012 89 10000 8.69 281 04:29 05.02.2022
5555 Clouds 4 1009 93 10000 8.82 264 01:19 05.02.2022
5556 Clouds 4 1009 93 10000 8.73 267 00:53 05.02.2022
5557 Clouds 3 1009 94 10000 8.67 267 23:41 04.02.2022
5558 Clouds 3 1008 94 10000 8.48 265 23:23 04.02.2022
5559 Clouds 3 1007 93 10000 7.72 265 21:54 04.02.2022
5560 Clouds 3 1007 92 10000 7.72 265 21:36 04.02.2022
5561 Clouds 3 1007 93 10000 8.14 277 21:18 04.02.2022
5562 Clouds 3 1006 95 10000 7.76 284 19:39 04.02.2022
5563 Rain 3 1004 95 10000 6.89 290 17:40 04.02.2022
5564 Rain 5 1002 93 82 6.93 324 15:39 04.02.2022
5565 Rain 7 1000 90 5225 6.53 268 14:54 04.02.2022
5566 Clouds 9 1000 87 10000 10.02 223 13:31 04.02.2022
5567 Clouds 9 1001 88 10000 10.22 219 12:43 04.02.2022
5568 Clouds 8 1002 90 10000 10.01 220 11:41 04.02.2022
5569 Clouds 8 1003 90 10000 9.52 219 10:36 04.02.2022
5570 Clouds 7 1004 93 10000 8.89 218 08:36 04.02.2022
5571 Clouds 7 1005 93 10000 8.32 217 06:47 04.02.2022
5572 Clouds 6 1008 95 10000 6.56 216 02:44 04.02.2022
5573 Clouds 7 1008 95 10000 6.2 216 01:48 04.02.2022
5574 Clouds 7 1009 96 10000 5.13 227 23:29 03.02.2022
5575 Clouds 7 1009 96 10000 5.13 227 22:33 03.02.2022
5576 Clouds 7 1009 96 10000 5.09 227 21:49 03.02.2022
5577 Clouds 7 1009 96 10000 5.1 233 20:38 03.02.2022
5578 Clouds 7 1009 96 10000 5.35 236 20:18 03.02.2022
5579 Clouds 7 1009 96 10000 5.35 236 19:30 03.02.2022
5580 Clouds 7 1009 96 10000 5.47 242 18:38 03.02.2022
5581 Clouds 7 1009 95 10000 5.51 243 17:32 03.02.2022
5582 Clouds 7 1010 92 10000 6.11 228 16:26 03.02.2022
5583 Clouds 7 1010 94 10000 6.34 222 14:45 03.02.2022
5584 Clouds 7 1011 94 10000 6.96 225 12:58 03.02.2022
5585 Clouds 8 1012 96 10000 6.79 223 11:22 03.02.2022
5586 Clouds 8 1013 98 10000 5.98 217 08:37 03.02.2022
5587 Clouds 8 1016 98 10000 5.72 239 05:26 03.02.2022
5588 Clouds 6 1018 96 10000 3.71 209 00:32 03.02.2022
5589 Clouds 5 1018 94 10000 3.54 216 23:43 02.02.2022
5590 Clouds 5 1019 93 10000 3.32 233 22:19 02.02.2022
5591 Clouds 5 1019 94 10000 3.33 233 21:34 02.02.2022
5592 Clouds 4 1019 93 10000 3.35 238 20:49 02.02.2022
5593 Clouds 4 1019 90 10000 3.39 245 19:58 02.02.2022
5594 Clouds 4 1019 90 10000 3.51 256 19:27 02.02.2022
5595 Clouds 5 1019 90 10000 3.51 256 18:46 02.02.2022
5596 Clouds 6 1018 88 10000 3.64 261 17:57 02.02.2022
5597 Clouds 7 1018 86 10000 3.91 277 17:19 02.02.2022
5598 Clouds 7 1018 86 10000 3.91 277 16:42 02.02.2022
5599 Clouds 8 1017 81 10000 6.79 304 13:35 02.02.2022
5600 Clouds 8 1017 83 10000 7.89 306 12:25 02.02.2022
5601 Clouds 7 1017 86 10000 7.89 306 11:34 02.02.2022
5602 Clouds 7 1016 84 10000 8.08 309 10:31 02.02.2022
5603 Clouds 6 1013 84 10000 9.28 312 07:37 02.02.2022
5604 Clouds 7 1008 87 10000 11.99 303 22:52 01.02.2022
5605 Clouds 7 1008 87 10000 11.46 304 21:51 01.02.2022
5606 Clouds 7 1007 89 10000 11.34 306 20:35 01.02.2022
5607 Clouds 8 1005 90 10000 13.57 306 17:50 01.02.2022
5608 Clouds 8 1005 91 10000 12.63 292 16:40 01.02.2022
5609 Clouds 8 1005 96 10000 10.76 290 14:47 01.02.2022
5610 Clouds 7 1006 97 10000 9.36 280 12:45 01.02.2022
5611 Rain 6 1007 97 10000 9.46 262 11:34 01.02.2022
5612 Clouds 4 1015 89 10000 6.62 274 04:53 01.02.2022
5613 Clouds 4 1016 80 10000 6.98 323 23:51 31.01.2022
5614 Clouds 4 1016 81 10000 8.81 324 23:28 31.01.2022
5615 Rain 4 1016 92 10000 10.17 343 21:59 31.01.2022
5616 Clouds 4 1016 94 10000 10.17 343 21:32 31.01.2022
5617 Rain 4 1015 93 10000 6.09 327 20:33 31.01.2022
5618 Rain 4 1014 93 10000 4.24 332 19:45 31.01.2022
5619 Clouds 4 1011 91 10000 7.73 356 18:26 31.01.2022
5620 Clouds 4 1011 90 10000 7.73 356 17:43 31.01.2022
5621 Clouds 4 1009 92 10000 9.15 359 16:43 31.01.2022
5622 Clouds 5 1007 94 10000 8.8 342 15:43 31.01.2022
5623 Clouds 7 1004 90 10000 5.64 305 14:24 31.01.2022
5624 Clouds 7 1004 88 10000 5.59 318 12:39 31.01.2022
5625 Clouds 7 1003 90 10000 4.39 319 11:58 31.01.2022
5626 Clouds 5 1001 96 10000 3.07 330 10:52 31.01.2022
5627 Clouds 5 1001 96 10000 3.07 330 10:34 31.01.2022
5628 Clouds 5 999 96 9433 2.15 221 09:27 31.01.2022
5629 Clouds 4 999 95 9433 2.15 221 08:52 31.01.2022
5630 Clouds 4 999 95 9433 2.15 221 08:52 31.01.2022
5631 Clouds 4 1000 95 10000 6.06 254 08:20 31.01.2022
5632 Clouds 4 1002 95 10000 9.51 280 06:21 31.01.2022
5633 Rain 3 1003 96 1053 7.28 243 05:20 31.01.2022
5634 Clouds 4 1018 87 10000 5.05 204 23:20 30.01.2022
5635 Clouds 3 1018 87 10000 5.05 204 22:30 30.01.2022
5636 Clouds 3 1018 87 10000 5.05 204 22:30 30.01.2022
5637 Clouds 3 1020 89 10000 4.04 218 21:43 30.01.2022
5638 Clouds 3 1022 89 10000 3.88 230 21:20 30.01.2022
5639 Clouds 3 1021 89 10000 4.31 226 20:50 30.01.2022
5640 Clouds 3 1022 89 10000 3.71 242 20:29 30.01.2022
5641 Clouds 4 1022 87 10000 3.71 242 19:53 30.01.2022
5642 Clouds 4 1023 83 10000 4.06 269 18:44 30.01.2022
5643 Clouds 4 1024 82 10000 5.32 288 18:20 30.01.2022
5644 Clouds 5 1025 82 10000 6.69 296 17:28 30.01.2022
5645 Clouds 6 1025 77 10000 6.69 296 16:41 30.01.2022
5646 Clouds 6 1025 76 10000 7.41 303 16:22 30.01.2022
5647 Clouds 6 1025 75 10000 7.41 303 15:52 30.01.2022
5648 Clouds 6 1025 75 10000 7.41 303 15:32 30.01.2022
5649 Clouds 7 1026 71 10000 8.26 305 14:46 30.01.2022
5650 Clouds 7 1026 72 10000 8.55 307 13:36 30.01.2022
5651 Clear 7 1027 74 10000 8.88 308 12:40 30.01.2022
5652 Clear 6 1026 76 10000 10.78 311 10:38 30.01.2022
5653 Clear 6 1025 74 10000 11.44 312 09:56 30.01.2022
5654 Clear 6 1025 76 10000 11.53 313 09:21 30.01.2022
5655 Clear 6 1024 77 10000 11.47 315 07:56 30.01.2022
5656 Clouds 6 1020 85 10000 13.59 301 02:43 30.01.2022
5657 Clouds 6 1020 84 10000 13.85 298 01:50 30.01.2022
5658 Rain 7 1019 79 10000 13.55 296 23:45 29.01.2022
5659 Clouds 7 1018 78 10000 13.35 294 22:37 29.01.2022
5660 Clouds 7 1017 84 10000 13.38 295 21:27 29.01.2022
5661 Clouds 7 1017 83 10000 13.38 295 20:48 29.01.2022
5662 Clouds 8 1016 87 10000 13.38 294 19:47 29.01.2022
5663 Clouds 9 1015 72 10000 13.16 292 19:29 29.01.2022
5664 Clouds 9 1016 82 10000 13.74 292 18:39 29.01.2022
5665 Clouds 10 1014 80 10000 15.16 300 17:42 29.01.2022
5666 Clouds 11 1014 81 10000 15.67 282 16:42 29.01.2022
5667 Clouds 11 1015 85 10000 13.53 270 15:20 29.01.2022
5668 Clouds 11 1015 87 10000 13.31 264 13:47 29.01.2022
5669 Clouds 10 1016 87 10000 12.57 259 13:26 29.01.2022
5670 Clouds 10 1016 89 10000 12.57 259 12:42 29.01.2022
5671 Clouds 10 1016 90 10000 10.44 249 11:39 29.01.2022
5672 Clouds 9 1017 92 10000 10.89 256 10:31 29.01.2022
5673 Clouds 9 1018 94 10000 8.89 250 07:57 29.01.2022
5674 Clouds 7 1023 93 10000 8.12 232 01:38 29.01.2022
5675 Clouds 7 1024 92 10000 7.88 230 00:31 29.01.2022
5676 Clouds 6 1026 92 10000 7.24 226 23:29 28.01.2022
5677 Clouds 6 1026 92 10000 7.24 226 22:46 28.01.2022
5678 Clouds 6 1027 91 10000 6.79 221 22:18 28.01.2022
5679 Clouds 5 1028 89 10000 6.21 215 20:41 28.01.2022
5680 Clouds 5 1029 89 10000 5.43 207 19:56 28.01.2022
5681 Clouds 5 1029 88 10000 4.83 207 18:52 28.01.2022
5682 Clouds 5 1030 85 10000 3.92 219 17:52 28.01.2022
5683 Clouds 7 1031 79 10000 3.9 261 15:50 28.01.2022
5684 Clouds 7 1031 77 10000 4.29 277 14:50 28.01.2022
5685 Clouds 7 1032 76 10000 5.27 304 12:41 28.01.2022
5686 Clouds 7 1032 78 10000 5.26 306 11:43 28.01.2022
5687 Clear 6 1031 83 10000 6.26 316 10:26 28.01.2022
5688 Clear 5 1031 82 10000 6.26 316 09:46 28.01.2022
5689 Clear 5 1029 78 10000 7.35 320 07:41 28.01.2022
5690 Clouds 6 1028 81 10000 8.65 319 05:31 28.01.2022
5691 Clear 5 1026 83 10000 9.81 317 03:51 28.01.2022
5692 Clouds 5 1024 87 10000 10.25 313 02:25 28.01.2022
5693 Clouds 5 1024 85 10000 10.25 313 01:37 28.01.2022
5694 Clear 5 1024 86 10000 10.62 309 00:39 28.01.2022
5695 Clouds 5 1021 86 10000 10.58 306 22:18 27.01.2022
5696 Clouds 5 1021 88 10000 10.58 306 21:34 27.01.2022
5697 Clouds 5 1021 89 10000 10.62 306 20:59 27.01.2022
5698 Clouds 6 1020 92 10000 10.67 304 19:37 27.01.2022
5699 Clouds 7 1018 86 10000 10.77 299 18:18 27.01.2022
5700 Clouds 7 1018 89 10000 10.21 298 16:45 27.01.2022
5701 Clouds 9 1017 91 10000 9.81 290 13:57 27.01.2022
5702 Clouds 8 1017 93 10000 9.57 284 12:49 27.01.2022
5703 Clouds 8 1017 94 10000 9.34 287 11:53 27.01.2022
5704 Clouds 7 1016 97 10000 10.18 277 09:48 27.01.2022
5705 Clouds 6 1016 97 10000 9.78 268 08:40 27.01.2022
5706 Rain 6 1016 96 10000 9.93 258 07:31 27.01.2022
5707 Clouds 6 1018 88 10000 10.63 239 03:34 27.01.2022
5708 Clouds 6 1022 91 10000 9.72 247 00:23 27.01.2022
5709 Clouds 6 1024 92 10000 9.7 254 22:28 26.01.2022
5710 Clouds 6 1024 92 10000 9.7 254 21:44 26.01.2022
5711 Clouds 5 1024 93 10000 9.15 250 20:49 26.01.2022
5712 Clouds 5 1024 94 10000 9.15 250 20:31 26.01.2022
5713 Clouds 5 1025 94 10000 7.95 242 19:38 26.01.2022
5714 Clouds 5 1025 93 10000 7.27 241 18:47 26.01.2022
5715 Clouds 5 1026 93 10000 6.48 247 18:24 26.01.2022
5716 Clouds 5 1026 94 10000 6.48 247 17:33 26.01.2022
5717 Clouds 5 1027 94 10000 6.15 253 16:49 26.01.2022
5718 Clouds 5 1027 94 10000 6.32 254 16:22 26.01.2022
5719 Clouds 4 1027 96 10000 6.01 251 14:40 26.01.2022
5720 Clouds 4 1029 94 10000 5.45 255 12:22 26.01.2022
5721 Clouds 3 1029 95 10000 5.3 250 10:52 26.01.2022
5722 Clouds 3 1029 95 10000 5.3 250 10:52 26.01.2022
5723 Clouds 3 1029 94 10000 5.42 254 09:55 26.01.2022
5724 Clouds 3 1029 94 10000 5.42 254 09:36 26.01.2022
5725 Clouds 3 1029 95 10000 4.95 238 06:42 26.01.2022
5726 Clouds 3 1032 96 10000 3.67 252 00:24 26.01.2022
5727 Clouds 3 1032 96 10000 3.67 252 23:41 25.01.2022
5728 Clouds 3 1032 96 10000 3.56 252 22:48 25.01.2022
5729 Clouds 3 1032 96 10000 3.23 249 22:18 25.01.2022
5730 Clouds 4 1032 96 10000 3.07 250 21:27 25.01.2022
5731 Clouds 4 1032 96 10000 3.07 250 20:45 25.01.2022
5732 Clouds 4 1032 95 10000 2.94 255 19:57 25.01.2022
5733 Clouds 3 1032 95 10000 2.9 259 19:28 25.01.2022
5734 Clouds 4 1032 96 10000 2.75 268 17:56 25.01.2022
5735 Clouds 4 1032 95 10000 2.77 267 17:20 25.01.2022
5736 Clouds 4 1032 95 10000 2.77 267 16:34 25.01.2022
5737 Clouds 4 1032 95 10000 2.84 261 15:39 25.01.2022
5738 Clouds 4 1032 95 10000 2.94 255 15:19 25.01.2022
5739 Clouds 4 1032 95 10000 2.94 255 14:51 25.01.2022
5740 Clouds 4 1033 94 10000 2.08 271 12:21 25.01.2022
5741 Clouds 4 1033 92 10000 2.36 289 09:35 25.01.2022
5742 Clouds 4 1033 92 10000 2.42 293 07:52 25.01.2022
5743 Clouds 4 1033 91 10000 2.41 292 07:27 25.01.2022
5744 Clouds 4 1033 90 10000 3.27 297 05:26 25.01.2022
5745 Clouds 4 1034 89 10000 2.6 292 00:57 25.01.2022
5746 Clouds 4 1034 89 10000 2.64 287 23:36 24.01.2022
5747 Clouds 4 1034 88 10000 2.54 274 23:18 24.01.2022
5748 Clouds 4 1034 88 10000 2.54 274 22:42 24.01.2022
5749 Clouds 4 1034 88 10000 2.57 264 22:23 24.01.2022
5750 Clouds 4 1034 88 10000 2.57 264 21:42 24.01.2022
5751 Clouds 4 1034 87 10000 2.37 273 21:24 24.01.2022
5752 Clouds 4 1034 88 10000 2.5 275 20:27 24.01.2022
5753 Clouds 4 1034 88 10000 2.5 275 19:38 24.01.2022
5754 Clouds 4 1034 87 10000 2.54 274 18:50 24.01.2022
5755 Clouds 4 1034 87 10000 2.54 274 18:50 24.01.2022
5756 Clouds 4 1034 85 10000 2.56 272 17:42 24.01.2022
5757 Clouds 4 1033 84 10000 2.64 261 17:22 24.01.2022
5758 Clouds 5 1033 84 10000 2.64 261 16:31 24.01.2022
5759 Clouds 5 1033 83 10000 2.6 250 15:35 24.01.2022
5760 Clouds 5 1033 83 10000 2.81 240 14:19 24.01.2022
5761 Clouds 5 1034 83 10000 2.73 230 12:35 24.01.2022
5762 Clouds 5 1034 85 10000 2.82 225 11:42 24.01.2022
5763 Clouds 5 1034 90 10000 2.46 210 10:23 24.01.2022
5764 Clouds 5 1034 91 10000 2.46 210 09:46 24.01.2022
5765 Clouds 5 1034 91 10000 2.69 212 08:18 24.01.2022
5766 Clouds 5 1034 90 10000 3.06 214 02:29 24.01.2022
5767 Clear 5 1034 89 10000 3 213 01:27 24.01.2022
5768 Clear 5 1034 89 10000 3 213 01:27 24.01.2022
5769 Clear 5 1035 90 10000 2.97 220 00:32 24.01.2022
5770 Clear 5 1035 92 10000 2.84 223 23:46 23.01.2022
5771 Clear 5 1035 91 10000 2.84 227 22:21 23.01.2022
5772 Clear 6 1035 91 10000 2.84 227 21:42 23.01.2022
5773 Clear 6 1035 91 10000 2.87 229 21:23 23.01.2022
5774 Clear 6 1035 90 10000 2.93 226 20:28 23.01.2022
5775 Clouds 6 1034 89 10000 2.85 231 19:19 23.01.2022
5776 Clouds 6 1035 89 10000 3.05 217 18:41 23.01.2022
5777 Clouds 6 1034 90 10000 2.32 236 17:25 23.01.2022
5778 Clouds 6 1034 90 10000 2.15 236 16:18 23.01.2022
5779 Clouds 7 1034 89 10000 2.53 249 14:54 23.01.2022
5780 Clouds 7 1034 89 10000 2.91 255 14:19 23.01.2022
5781 Clouds 7 1035 88 10000 2.9 257 12:47 23.01.2022
5782 Clouds 7 1035 88 10000 2.79 256 12:21 23.01.2022
5783 Clouds 6 1035 95 10000 2.77 255 11:27 23.01.2022
5784 Clouds 6 1035 96 10000 2.77 255 10:59 23.01.2022
5785 Clouds 6 1035 97 10000 2.73 258 10:25 23.01.2022
5786 Clouds 5 1035 97 10000 2.73 258 09:37 23.01.2022
5787 Clouds 5 1034 97 10000 2.72 264 08:51 23.01.2022
5788 Clouds 6 1033 96 10000 2.98 277 05:37 23.01.2022
5789 Clouds 5 1033 96 10000 3.21 280 01:43 23.01.2022
5790 Clouds 5 1033 96 10000 3.19 286 01:23 23.01.2022
5791 Clouds 5 1033 97 10000 3.09 297 00:22 23.01.2022
5792 Clouds 5 1033 97 10000 3.09 299 23:19 22.01.2022
5793 Clouds 5 1033 97 10000 3.09 299 22:34 22.01.2022
5794 Clouds 5 1033 97 10000 3.09 299 22:34 22.01.2022
5795 Clouds 5 1033 97 10000 3.2 303 21:19 22.01.2022
5796 Clouds 6 1032 97 10000 3.1 300 19:49 22.01.2022
5797 Clouds 6 1032 97 10000 3.12 305 18:45 22.01.2022
5798 Clouds 6 1032 97 10000 3.44 307 17:56 22.01.2022
5799 Clouds 6 1032 97 10000 3.44 307 17:35 22.01.2022
5800 Clouds 6 1032 97 10000 3.98 306 16:55 22.01.2022
5801 Clouds 6 1031 98 10000 4.07 298 15:49 22.01.2022
5802 Clouds 7 1031 98 10000 4.16 298 14:57 22.01.2022
5803 Clouds 7 1031 98 10000 4.29 298 13:39 22.01.2022
5804 Clouds 7 1032 98 10000 4.27 299 12:48 22.01.2022
5805 Clouds 7 1032 98 10000 4.53 310 12:28 22.01.2022
5806 Clouds 6 1032 99 10000 5.12 320 10:56 22.01.2022
5807 Clouds 6 1031 99 10000 5.42 322 10:29 22.01.2022
5808 Clouds 6 1031 99 10000 5.42 322 09:58 22.01.2022
5809 Clouds 6 1031 98 10000 5.48 321 08:51 22.01.2022
5810 Clouds 6 1030 98 10000 5.64 321 07:38 22.01.2022
5811 Clouds 6 1029 98 10000 6.76 320 04:52 22.01.2022
5812 Clouds 7 1028 98 10000 7.33 319 01:35 22.01.2022
5813 Clouds 6 1028 97 10000 8.27 319 23:38 21.01.2022
5814 Clouds 6 1028 96 10000 8.69 311 22:28 21.01.2022
5815 Clouds 6 1028 96 10000 8.42 305 20:28 21.01.2022
5816 Clouds 6 1028 96 10000 8.65 303 18:40 21.01.2022
5817 Clouds 6 1027 96 10000 8.72 304 17:31 21.01.2022
5818 Clouds 6 1028 94 10000 8.47 303 15:42 21.01.2022
5819 Clouds 6 1030 93 10000 6.57 306 13:51 21.01.2022
5820 Clouds 6 1030 93 10000 6.57 306 13:51 21.01.2022
5821 Clouds 5 1030 83 10000 5.57 300 12:38 21.01.2022
5822 Clouds 5 1030 92 10000 5.68 316 11:28 21.01.2022
5823 Clouds 3 1030 92 10000 6.1 322 10:19 21.01.2022
5824 Clouds 3 1030 92 10000 6.15 327 08:25 21.01.2022
5825 Clouds 2 1029 93 10000 6.3 329 06:57 21.01.2022
5826 Clouds 2 1029 90 10000 7.07 340 23:54 20.01.2022
5827 Clouds 2 1029 92 10000 6.79 343 22:44 20.01.2022
5828 Clouds 2 1028 91 10000 7.9 346 21:47 20.01.2022
5829 Clouds 2 1028 89 10000 8.28 345 20:56 20.01.2022
5830 Clouds 3 1027 85 10000 9.06 341 19:21 20.01.2022
5831 Clouds 3 1027 89 10000 9.06 341 18:51 20.01.2022
5832 Clouds 2 1026 88 10000 10.3 338 17:31 20.01.2022
5833 Clouds 3 1025 87 10000 10.59 335 15:45 20.01.2022
5834 Clouds 3 1024 85 10000 10.98 332 15:25 20.01.2022
5835 Clouds 4 1024 84 10000 11.1 329 13:42 20.01.2022
5836 Clouds 4 1024 80 10000 11.27 327 12:43 20.01.2022
5837 Clouds 4 1024 82 10000 10.76 327 12:21 20.01.2022
5838 Clouds 3 1024 83 10000 10.65 329 10:55 20.01.2022
5839 Clouds 3 1023 85 10000 10.72 330 09:43 20.01.2022
5840 Clouds 2 1022 87 10000 10.93 327 08:36 20.01.2022
5841 Clouds 3 1021 89 10000 10.86 328 06:18 20.01.2022
5842 Clouds 5 1019 86 10000 7.04 307 23:52 19.01.2022
5843 Clouds 5 1019 81 10000 8.14 313 22:37 19.01.2022
5844 Clouds 5 1017 86 10000 10.14 322 21:26 19.01.2022
5845 Clouds 5 1017 89 10000 10.14 322 20:55 19.01.2022
5846 Clouds 6 1016 90 10000 8.63 312 20:24 19.01.2022
5847 Clouds 6 1016 96 10000 8.56 295 18:49 19.01.2022
5848 Clouds 6 1016 96 10000 8.56 295 18:49 19.01.2022
5849 Clouds 6 1015 97 10000 8.23 292 17:50 19.01.2022
5850 Clouds 5 1015 97 10000 9.77 295 17:18 19.01.2022
5851 Clouds 5 1016 92 10000 8.26 241 14:55 19.01.2022
5852 Clouds 5 1018 93 10000 7.54 234 13:20 19.01.2022
5853 Clouds 4 1020 93 10000 6.99 227 11:58 19.01.2022
5854 Clouds 4 1021 94 10000 6.06 218 11:22 19.01.2022
5855 Clouds 4 1022 96 10000 5.45 220 09:35 19.01.2022
5856 Clouds 4 1022 96 10000 5.45 220 09:35 19.01.2022
5857 Clouds 4 1024 96 10000 5.02 224 08:20 19.01.2022
5858 Clouds 3 1027 96 10000 4.75 212 05:19 19.01.2022
5859 Clouds 4 1033 95 10000 4.08 222 00:18 19.01.2022
5860 Clouds 4 1033 95 10000 4.1 215 23:18 18.01.2022
5861 Clouds 4 1034 96 10000 3.78 219 21:44 18.01.2022
5862 Clouds 4 1035 95 10000 3.4 234 20:22 18.01.2022
5863 Clouds 5 1035 95 10000 3.4 234 19:45 18.01.2022
5864 Clouds 5 1035 95 10000 3.38 234 19:25 18.01.2022
5865 Clouds 5 1035 95 10000 3.31 239 18:18 18.01.2022
5866 Clouds 5 1035 94 10000 3.31 239 17:31 18.01.2022
5867 Clouds 6 1036 92 10000 3.15 237 16:18 18.01.2022
5868 Clouds 7 1036 92 10000 3.13 239 15:25 18.01.2022
5869 Clouds 7 1037 91 10000 3.06 242 14:22 18.01.2022
5870 Clouds 7 1037 96 10000 3.67 248 11:31 18.01.2022
5871 Clouds 6 1037 96 10000 2.47 261 09:59 18.01.2022
5872 Clouds 6 1036 96 10000 2.76 287 08:29 18.01.2022
5873 Clouds 6 1036 96 10000 2.76 287 07:42 18.01.2022
5874 Clouds 7 1035 96 10000 4.32 303 00:38 18.01.2022
5875 Clouds 7 1035 94 10000 4.57 305 22:40 17.01.2022
5876 Clouds 7 1035 95 10000 4.73 308 21:42 17.01.2022
5877 Clouds 7 1034 95 10000 4.78 311 20:44 17.01.2022
5878 Clouds 6 1032 92 10000 5.54 326 18:46 17.01.2022
5879 Clouds 6 1032 91 10000 6.36 329 18:24 17.01.2022
5880 Clouds 7 1031 91 10000 7.4 330 17:22 17.01.2022
5881 Clouds 8 1030 88 10000 8.18 331 15:54 17.01.2022
5882 Clouds 8 1030 90 10000 9.12 327 14:58 17.01.2022
5883 Clouds 9 1030 91 10000 9.12 327 14:31 17.01.2022
5884 Clouds 9 1029 92 10000 10.17 318 13:18 17.01.2022
5885 Clouds 8 1028 92 10000 10.47 306 11:53 17.01.2022
5886 Clouds 8 1028 91 10000 10.31 304 10:52 17.01.2022
5887 Clouds 7 1027 92 10000 10.04 304 09:46 17.01.2022
5888 Clouds 7 1027 93 10000 9.54 303 08:43 17.01.2022
5889 Clouds 6 1026 93 10000 9.76 286 07:20 17.01.2022
5890 Clouds 6 1026 88 10000 8.03 292 00:59 17.01.2022
5891 Clouds 6 1026 86 10000 8.19 300 23:33 16.01.2022
5892 Clouds 7 1024 96 10000 6.66 300 20:51 16.01.2022
5893 Clouds 7 1023 97 10000 7.01 290 20:18 16.01.2022
5894 Clouds 6 1022 96 10000 7.09 280 18:45 16.01.2022
5895 Clouds 6 1022 95 10000 6.93 275 17:47 16.01.2022
5896 Clouds 7 1021 94 10000 6.69 271 16:53 16.01.2022
5897 Clouds 7 1021 93 10000 7.19 273 15:40 16.01.2022
5898 Clouds 6 1020 94 10000 7.03 273 14:29 16.01.2022
5899 Clouds 6 1020 97 10000 6.61 263 13:23 16.01.2022
5900 Clouds 6 1020 97 10000 6.12 268 11:58 16.01.2022
5901 Clouds 5 1020 97 10000 6.06 266 11:27 16.01.2022
5902 Clouds 4 1019 98 10000 5.64 244 10:27 16.01.2022
5903 Clouds 4 1019 98 10000 5.64 244 09:57 16.01.2022
5904 Clouds 3 1019 98 10000 5.54 234 09:23 16.01.2022
5905 Clouds 3 1019 98 10000 5.54 234 08:53 16.01.2022
5906 Clouds 2 1019 97 10000 4.98 227 05:52 16.01.2022
5907 Clouds 3 1022 97 10000 3.63 196 00:19 16.01.2022
5908 Clouds 4 1023 98 10000 3.54 188 22:49 15.01.2022
5909 Clouds 4 1024 98 10000 3.25 173 21:21 15.01.2022
5910 Clouds 4 1024 98 10000 3.25 173 21:21 15.01.2022
5911 Clouds 4 1024 98 10000 3.25 173 20:44 15.01.2022
5912 Clouds 4 1024 98 10000 3.24 167 20:21 15.01.2022
5913 Clouds 4 1025 97 10000 3.05 169 19:26 15.01.2022
5914 Clouds 4 1025 97 10000 2.93 171 17:58 15.01.2022
5915 Clouds 5 1026 97 10000 2.73 172 16:49 15.01.2022
5916 Clouds 5 1026 97 10000 2.28 174 14:36 15.01.2022
5917 Clear 5 1028 98 10000 2.11 181 12:39 15.01.2022
5918 Clear 5 1029 99 10000 1.82 177 11:21 15.01.2022
5919 Clear 4 1029 99 10000 1.85 173 09:46 15.01.2022
5920 Clouds 5 1031 98 10000 0.56 283 01:58 15.01.2022
5921 Clouds 6 1033 98 10000 2.01 335 23:20 14.01.2022
5922 Clouds 6 1033 98 10000 2.43 342 20:57 14.01.2022
5923 Clouds 6 1033 98 10000 2.51 322 20:24 14.01.2022
5924 Clouds 6 1033 98 10000 2.52 323 19:50 14.01.2022
5925 Clouds 7 1032 98 10000 2.88 305 18:38 14.01.2022
5926 Clouds 7 1033 97 10000 2.82 303 17:21 14.01.2022
5927 Clouds 7 1033 97 10000 2.82 303 16:40 14.01.2022
5928 Clouds 7 1033 96 10000 3.34 303 15:30 14.01.2022
5929 Clouds 7 1033 95 10000 4.35 296 14:25 14.01.2022
5930 Clear 7 1033 94 10000 4.54 289 12:48 14.01.2022
5931 Clear 7 1033 94 10000 4.3 278 11:52 14.01.2022
5932 Clear 7 1033 95 10000 4.09 273 10:30 14.01.2022
5933 Clear 6 1033 94 10000 4.46 273 08:52 14.01.2022
5934 Clear 6 1032 94 10000 4.88 276 07:30 14.01.2022
5935 Clear 6 1034 94 10000 5.03 263 02:20 14.01.2022
5936 Clouds 6 1034 95 10000 4.79 265 00:21 14.01.2022
5937 Clouds 6 1034 96 10000 4.93 255 21:47 13.01.2022
5938 Clouds 6 1035 96 10000 4.97 257 21:29 13.01.2022
5939 Clouds 6 1035 95 10000 5.07 259 19:45 13.01.2022
5940 Clouds 6 1035 96 10000 5.15 259 19:23 13.01.2022
5941 Clouds 6 1035 96 10000 5.15 259 18:37 13.01.2022
5942 Clear 7 1036 97 10000 5.28 263 16:52 13.01.2022
5943 Clear 7 1036 98 10000 5.59 264 15:39 13.01.2022
5944 Clear 7 1036 99 10000 6.03 265 15:20 13.01.2022
5945 Clouds 6 1036 100 10000 5.78 258 13:29 13.01.2022
5946 Clear 6 1037 100 10000 5.14 252 10:49 13.01.2022
5947 Clear 6 1037 100 10000 4.91 254 09:23 13.01.2022
5948 Clear 5 1037 99 10000 5.01 255 08:29 13.01.2022
5949 Clear 5 1037 100 10000 5.01 255 07:58 13.01.2022
5950 Clear 5 1037 99 10000 5.06 253 07:19 13.01.2022
5951 Clear 5 1037 99 10000 4.53 246 05:21 13.01.2022
5952 Clear 5 1037 99 10000 4.39 249 03:48 13.01.2022
5953 Clear 5 1037 99 10000 4.62 256 01:39 13.01.2022
5954 Clouds 5 1038 99 10000 3.99 246 23:54 12.01.2022
5955 Clouds 5 1038 99 10000 3.99 246 23:34 12.01.2022
5956 Clouds 5 1038 99 10000 4.04 244 22:32 12.01.2022
5957 Clouds 5 1038 99 10000 4.08 249 21:43 12.01.2022
5958 Clouds 5 1038 99 10000 4.08 244 21:19 12.01.2022
5959 Clouds 5 1038 99 10000 4.08 244 20:47 12.01.2022
5960 Clouds 4 1037 99 10000 4.14 250 18:52 12.01.2022
5961 Clouds 4 1037 99 10000 4.03 248 18:25 12.01.2022
5962 Clouds 4 1037 99 10000 3.95 247 16:57 12.01.2022
5963 Clouds 5 1037 99 10000 3.6 249 15:38 12.01.2022
5964 Clouds 5 1038 99 10000 3.51 262 14:39 12.01.2022
5965 Clouds 4 1037 80 10000 3.79 260 12:57 12.01.2022
5966 Clear 2 1037 89 10000 2.64 264 09:57 12.01.2022
5967 Clouds 2 1036 91 10000 2.7 300 07:58 12.01.2022
5968 Clouds 2 1036 91 10000 2.7 300 07:33 12.01.2022
5969 Clouds 3 1035 93 10000 2.87 310 04:54 12.01.2022
5970 Clouds 3 1033 97 10000 4.4 214 23:27 11.01.2022
5971 Clouds 3 1033 96 10000 4.4 214 22:40 11.01.2022
5972 Clouds 3 1033 96 10000 4.45 213 22:18 11.01.2022
5973 Clouds 3 1033 92 10000 4.34 215 20:40 11.01.2022
5974 Clouds 3 1033 90 10000 4.41 212 19:41 11.01.2022
5975 Clouds 3 1032 89 10000 3.99 202 18:22 11.01.2022
5976 Clouds 3 1032 89 10000 3.87 198 16:59 11.01.2022
5977 Clouds 3 1032 89 10000 3.87 198 16:35 11.01.2022
5978 Clouds 3 1032 93 10000 4.57 197 14:57 11.01.2022
5979 Clouds 3 1032 94 10000 4.57 197 14:39 11.01.2022
5980 Clouds 2 1032 96 10000 4.63 200 13:53 11.01.2022
5981 Clouds 2 1032 96 10000 4.63 200 13:31 11.01.2022
5982 Clouds 1 1032 98 10000 4.71 202 12:37 11.01.2022
5983 Clouds 0 1032 99 10000 4.77 192 10:52 11.01.2022
5984 Clouds -1 1032 99 10000 3.91 187 08:53 11.01.2022
5985 Clouds -1 1031 98 10000 3.55 188 06:22 11.01.2022
5986 Clear -1 1030 98 10000 3.23 193 00:30 11.01.2022
5987 Clear -1 1030 97 10000 3.17 197 23:41 10.01.2022
5988 Clear 0 1029 97 10000 3.16 198 22:51 10.01.2022
5989 Clear 0 1029 97 10000 3.09 189 22:18 10.01.2022
5990 Clear 0 1029 96 10000 3.09 189 21:48 10.01.2022
5991 Clear 0 1028 96 10000 2.86 189 21:19 10.01.2022
5992 Clear 0 1028 96 10000 2.86 189 20:56 10.01.2022
5993 Clear 1 1028 96 10000 2.48 192 20:26 10.01.2022
5994 Clear 1 1028 96 10000 2.48 192 19:41 10.01.2022
5995 Clear 1 1027 96 10000 2.14 194 19:20 10.01.2022
5996 Clear 2 1027 96 10000 2.14 194 18:48 10.01.2022
5997 Clear 3 1026 95 10000 1.89 195 17:40 10.01.2022
5998 Clear 3 1025 93 10000 1.65 205 16:41 10.01.2022
5999 Clear 5 1023 93 10000 1.71 229 15:20 10.01.2022
6000 Clear 5 1022 93 10000 1.93 233 13:41 10.01.2022
6001 Clouds 3 1021 98 10000 2.53 245 11:58 10.01.2022
6002 Clouds 3 1020 98 10000 2.03 228 11:25 10.01.2022
6003 Clouds 1 1019 91 10000 2.17 239 09:47 10.01.2022
6004 Clouds 0 1015 97 10000 2.2 267 06:47 10.01.2022
6005 Clouds 1 1014 97 10000 2.49 271 05:49 10.01.2022
6006 Clouds 3 1009 97 10000 3.27 273 01:30 10.01.2022
6007 Clouds 3 1008 96 10000 3.31 268 00:24 10.01.2022
6008 Clouds 3 1007 96 10000 3.5 269 23:29 09.01.2022
6009 Clouds 3 1007 96 10000 3.5 269 22:37 09.01.2022
6010 Clouds 3 1005 96 10000 3.58 267 21:46 09.01.2022
6011 Clouds 4 1004 95 10000 3.48 264 21:23 09.01.2022
6012 Clouds 3 1004 95 10000 3.48 264 20:51 09.01.2022
6013 Clouds 3 1004 95 10000 3.48 264 20:33 09.01.2022
6014 Clouds 4 1003 95 10000 3.61 265 19:44 09.01.2022
6015 Clouds 4 1002 95 10000 3.74 265 19:23 09.01.2022
6016 Clouds 4 1002 94 10000 3.74 265 18:52 09.01.2022
6017 Clouds 4 1002 94 10000 4.09 265 18:33 09.01.2022
6018 Clouds 5 1001 93 10000 4.4 267 17:40 09.01.2022
6019 Clouds 5 999 92 10000 4.87 271 17:20 09.01.2022
6020 Clouds 6 999 90 10000 5.55 273 15:58 09.01.2022
6021 Rain 6 999 90 10000 5.55 273 15:35 09.01.2022
6022 Clouds 7 998 90 10000 5.98 273 14:40 09.01.2022
6023 Clouds 7 997 90 10000 6.29 276 13:51 09.01.2022
6024 Clouds 7 997 90 10000 6.29 276 13:51 09.01.2022
6025 Clouds 6 996 90 10000 6.58 277 13:25 09.01.2022
6026 Clouds 6 995 92 10000 6.85 279 11:55 09.01.2022
6027 Clouds 5 994 91 10000 7.13 281 10:53 09.01.2022
6028 Clouds 5 993 93 10000 7.63 285 09:50 09.01.2022
6029 Clouds 5 992 94 10000 7.72 287 08:52 09.01.2022
6030 Rain 4 989 98 10000 6.59 308 05:54 09.01.2022
6031 Rain 3 988 97 4534 8.02 179 01:25 09.01.2022
6032 Rain 3 987 97 523 8.39 173 00:37 09.01.2022
6033 Rain 3 989 97 94 8.88 168 23:27 08.01.2022
6034 Rain 3 989 97 94 8.88 168 22:35 08.01.2022
6035 Rain 3 992 96 65 9.04 169 21:26 08.01.2022
6036 Rain 3 992 96 65 9.04 169 20:43 08.01.2022
6037 Rain 2 993 96 51 9.1 169 20:21 08.01.2022
6038 Clouds 2 995 95 40 8.92 165 18:46 08.01.2022
6039 Rain 2 998 94 398 8.43 169 17:24 08.01.2022
6040 Rain 3 998 94 398 8.43 169 16:40 08.01.2022
6041 Clouds 3 1002 93 10000 7.55 190 14:50 08.01.2022
6042 Clouds 3 1003 93 10000 7 195 13:56 08.01.2022
6043 Clouds 2 1006 96 10000 5.75 207 11:30 08.01.2022
6044 Clouds 1 1006 97 10000 5.28 211 10:33 08.01.2022
6045 Clouds 1 1007 97 10000 5.15 223 09:57 08.01.2022
6046 Clouds 0 1007 97 10000 5.15 223 09:30 08.01.2022
6047 Clouds 1 1007 96 10000 4.64 237 05:39 08.01.2022
6048 Clouds 1 1007 96 10000 4.89 226 00:59 08.01.2022
6049 Snow 2 1007 95 10000 5.12 221 23:30 07.01.2022
6050 Clouds 2 1007 94 10000 4.53 216 21:46 07.01.2022
6051 Clouds 3 1007 92 10000 4.8 226 20:26 07.01.2022
6052 Clouds 3 1006 91 10000 5.09 223 19:26 07.01.2022
6053 Clouds 3 1006 91 10000 4.09 220 18:46 07.01.2022
6054 Clouds 3 1006 91 10000 4.49 213 18:21 07.01.2022
6055 Clouds 3 1006 93 10000 4.53 215 17:23 07.01.2022
6056 Clouds 5 1006 89 10000 6.71 230 14:55 07.01.2022
6057 Clouds 5 1006 90 10000 7.06 230 13:52 07.01.2022
6058 Clouds 5 1007 89 10000 7.86 231 12:51 07.01.2022
6059 Clouds 4 1007 94 10000 7.44 215 11:22 07.01.2022
6060 Clouds 2 1009 94 61 8.14 197 04:25 07.01.2022
6061 Clouds 3 1010 92 10000 8.45 205 02:46 07.01.2022
6062 Clouds 3 1011 88 10000 8.18 201 01:48 07.01.2022
6063 Clouds 3 1011 88 10000 8.18 201 01:48 07.01.2022
6064 Clouds 3 1012 88 10000 7.87 199 01:25 07.01.2022
6065 Clouds 3 1011 88 10000 7.97 198 00:31 07.01.2022
6066 Clouds 3 1011 88 10000 7.97 198 00:31 07.01.2022
6067 Clouds 3 1013 91 10000 7.18 199 22:33 06.01.2022
6068 Clouds 3 1014 92 10000 5.93 200 20:51 06.01.2022
6069 Clouds 3 1014 92 10000 5.27 201 20:18 06.01.2022
6070 Clouds 3 1014 92 10000 5.27 201 19:38 06.01.2022
6071 Clouds 2 1016 91 10000 4.22 209 17:51 06.01.2022
6072 Clouds 3 1016 91 10000 3.82 205 17:27 06.01.2022
6073 Clouds 3 1016 89 10000 3.82 205 16:38 06.01.2022
6074 Clouds 5 1016 87 10000 3.73 212 15:44 06.01.2022
6075 Clouds 5 1016 86 10000 3.85 219 15:23 06.01.2022
6076 Clouds 5 1016 84 10000 3.99 228 14:20 06.01.2022
6077 Clouds 5 1016 82 10000 3.99 228 13:41 06.01.2022
6078 Clouds 5 1016 85 10000 3.82 273 12:28 06.01.2022
6079 Clouds 3 1016 89 10000 3.82 273 11:31 06.01.2022
6080 Clouds 2 1016 95 10000 3.33 278 10:59 06.01.2022
6081 Clear 2 1014 70 10000 3.8 321 06:59 06.01.2022
6082 Clouds 4 1010 89 10000 9.48 321 00:35 06.01.2022
6083 Clouds 4 1009 88 10000 9.34 322 23:34 05.01.2022
6084 Clouds 4 1008 85 10000 8.94 321 22:50 05.01.2022
6085 Clouds 4 1008 87 10000 8.54 315 22:29 05.01.2022
6086 Rain 4 1008 86 10000 8.54 315 21:44 05.01.2022
6087 Clouds 5 1007 86 10000 8.9 312 20:45 05.01.2022
6088 Clouds 5 1006 85 10000 9.12 312 19:53 05.01.2022
6089 Clouds 6 1004 85 10000 9.95 311 18:27 05.01.2022
6090 Clouds 6 1002 87 10000 10.22 314 17:23 05.01.2022
6091 Clouds 6 1001 91 10000 9.8 312 16:24 05.01.2022
6092 Clouds 6 1000 89 10000 9.99 313 15:20 05.01.2022
6093 Clear 7 999 85 10000 10.11 306 13:39 05.01.2022
6094 Clouds 7 998 85 10000 9.61 310 12:51 05.01.2022
6095 Clouds 4 995 94 10000 10.26 277 08:58 05.01.2022
6096 Rain 3 995 93 1475 9.92 244 07:34 05.01.2022
6097 Clouds 2 995 86 10000 10 254 03:33 05.01.2022
6098 Clouds 2 996 90 10000 6.41 251 00:44 05.01.2022
6099 Clouds 2 996 91 10000 5.95 260 23:27 04.01.2022
6100 Clouds 2 996 92 10000 5.95 260 22:40 04.01.2022
6101 Clouds 3 996 91 10000 5.13 263 21:18 04.01.2022
6102 Clouds 3 995 91 10000 4.93 267 19:19 04.01.2022
6103 Clouds 4 995 91 10000 4.35 259 17:44 04.01.2022
6104 Clouds 4 995 90 10000 4.26 265 16:42 04.01.2022
6105 Clouds 4 995 89 10000 4.5 274 16:23 04.01.2022
6106 Clouds 5 994 88 10000 4.35 281 14:53 04.01.2022
6107 Clouds 5 994 89 10000 4.35 281 14:34 04.01.2022
6108 Clouds 5 995 94 10000 5.52 320 13:27 04.01.2022
6109 Clouds 7 994 96 10000 5.32 302 10:41 04.01.2022
6110 Clouds 7 993 94 10000 5.55 230 09:20 04.01.2022
6111 Rain 8 994 96 10000 5.93 225 08:28 04.01.2022
6112 Clouds 8 997 95 10000 5.8 231 02:31 04.01.2022
6113 Clouds 8 999 94 10000 6.66 230 00:41 04.01.2022
6114 Clouds 8 1000 94 10000 6.75 231 23:19 03.01.2022
6115 Clouds 8 1001 94 10000 6.79 231 21:52 03.01.2022
6116 Clouds 8 1001 94 10000 6.79 231 21:32 03.01.2022
6117 Clouds 8 1002 92 10000 7.32 236 19:56 03.01.2022
6118 Clouds 9 1002 90 10000 7.48 239 18:54 03.01.2022
6119 Clouds 9 1003 89 10000 7.86 244 18:28 03.01.2022
6120 Clouds 9 1003 87 10000 8.57 248 16:58 03.01.2022
6121 Clouds 10 1004 85 10000 9.04 252 15:39 03.01.2022
6122 Clouds 10 1004 86 10000 9.57 248 14:30 03.01.2022
6123 Clouds 10 1005 86 10000 10.03 247 12:46 03.01.2022
6124 Clouds 10 1006 89 10000 9.92 244 11:35 03.01.2022
6125 Clouds 9 1006 89 10000 9.13 242 10:36 03.01.2022
6126 Clouds 9 1006 91 10000 9.44 242 08:47 03.01.2022
6127 Clouds 9 1006 91 10000 9.39 244 07:36 03.01.2022
6128 Rain 9 1004 96 10000 2.87 274 23:56 02.01.2022
6129 Clouds 9 1004 94 6967 2.65 209 23:22 02.01.2022
6130 Clouds 9 1004 95 6967 2.65 209 22:53 02.01.2022
6131 Clouds 9 1005 95 6125 7.37 227 21:42 02.01.2022
6132 Clouds 9 1006 94 10000 8.59 234 20:38 02.01.2022
6133 Clouds 9 1007 93 10000 7.12 234 20:18 02.01.2022
6134 Clouds 9 1007 93 10000 7.12 234 19:30 02.01.2022
6135 Clouds 10 1007 92 10000 7.15 235 18:46 02.01.2022
6136 Clouds 10 1007 92 10000 7.4 234 18:46 02.01.2022
6137 Clouds 10 1008 91 10000 6.78 238 17:54 02.01.2022
6138 Clouds 10 1008 91 10000 6.78 238 17:36 02.01.2022
6139 Clouds 10 1008 92 10000 7.83 249 17:18 02.01.2022
6140 Clouds 10 1007 90 10000 9.59 260 16:26 02.01.2022
6141 Clouds 11 1006 89 10000 11.5 258 14:34 02.01.2022
6142 Clouds 12 1006 95 10000 10.2 218 12:54 02.01.2022
6143 Clouds 11 1007 97 10000 9.09 211 12:22 02.01.2022
6144 Rain 12 1007 98 10000 9.09 211 11:32 02.01.2022
6145 Rain 11 1008 97 10000 8.99 215 10:49 02.01.2022
6146 Clouds 12 1009 98 8949 9.41 226 09:45 02.01.2022
6147 Rain 11 1012 97 10000 6.76 228 05:51 02.01.2022
6148 Clouds 11 1015 95 10000 6.45 215 01:48 02.01.2022
6149 Clouds 12 1017 93 10000 7.15 217 23:40 01.01.2022
6150 Clouds 12 1016 92 10000 6.1 211 22:58 01.01.2022
6151 Clouds 12 1017 92 10000 6.43 209 22:23 01.01.2022
6152 Clouds 12 1017 91 10000 6.43 209 21:44 01.01.2022
6153 Clouds 12 1018 91 10000 6.53 210 20:56 01.01.2022
6154 Clouds 12 1017 92 10000 6.76 205 19:59 01.01.2022
6155 Clouds 12 1017 92 10000 6.76 205 19:30 01.01.2022
6156 Clouds 12 1019 93 10000 6.61 201 18:20 01.01.2022
6157 Clouds 12 1019 93 10000 6.29 196 16:51 01.01.2022
6158 Clouds 12 1019 93 10000 5.87 196 16:29 01.01.2022
6159 Clouds 13 1019 93 10000 5.87 196 15:30 01.01.2022
6160 Clouds 12 1020 93 10000 5.33 202 14:21 01.01.2022
6161 Clouds 12 1021 96 10000 5.45 213 12:50 01.01.2022
6162 Clouds 12 1021 98 10000 5.43 209 11:59 01.01.2022
6163 Clouds 12 1021 98 10000 5.02 211 11:24 01.01.2022
6164 Clouds 11 1021 98 10000 5.02 211 10:43 01.01.2022
6165 Clouds 11 1021 98 10000 4.94 212 09:47 01.01.2022
6166 Clouds 11 1021 97 10000 4.96 227 08:27 01.01.2022
6167 Clouds 11 1021 97 10000 4.96 227 07:56 01.01.2022
6168 Clouds 11 1021 97 10000 4.96 227 07:37 01.01.2022
6169 Clouds 11 1020 97 10000 5.11 231 06:42 01.01.2022
6170 Clouds 10 1020 97 10000 5.5 235 04:38 01.01.2022
6171 Clouds 11 1020 96 10000 5.8 240 03:38 01.01.2022
6172 Clouds 12 1018 95 10000 6.89 247 23:53 31.12.2021
6173 Clouds 11 1018 95 10000 7.52 255 21:55 31.12.2021
6174 Clouds 11 1018 95 10000 7.52 255 21:32 31.12.2021
6175 Clouds 12 1016 95 10000 7.5 260 19:43 31.12.2021
6176 Clouds 12 1015 91 10000 8.26 255 18:47 31.12.2021
6177 Clouds 12 1015 96 10000 8.46 254 17:49 31.12.2021
6178 Clouds 12 1014 96 10000 8.82 252 17:22 31.12.2021
6179 Clouds 12 1014 96 10000 8.82 252 16:51 31.12.2021
6180 Clouds 11 1013 96 10000 9.02 254 16:18 31.12.2021
6181 Clouds 11 1013 96 10000 9.02 254 15:42 31.12.2021
6182 Rain 11 1012 96 5770 8.32 253 15:20 31.12.2021
6183 Rain 12 1012 96 5770 8.32 253 14:38 31.12.2021
6184 Clouds 12 1012 95 10000 9.25 245 13:45 31.12.2021
6185 Clouds 12 1012 95 10000 9.25 245 13:45 31.12.2021
6186 Clouds 12 1013 94 10000 9.63 244 12:50 31.12.2021
6187 Clouds 12 1013 93 10000 9.83 243 12:20 31.12.2021
6188 Rain 12 1013 92 10000 9.83 243 11:41 31.12.2021
6189 Clouds 13 1012 89 10000 9.54 239 10:50 31.12.2021
6190 Clouds 13 1012 89 10000 9.57 232 10:28 31.12.2021
6191 Clouds 13 1012 90 10000 9.57 232 09:34 31.12.2021
6192 Clouds 13 1011 90 10000 9.34 230 08:50 31.12.2021
6193 Clouds 13 1012 90 10000 9.65 234 07:55 31.12.2021
6194 Clouds 12 1012 92 10000 8.97 235 04:54 31.12.2021
6195 Clouds 12 1012 96 10000 9.31 236 23:18 30.12.2021
6196 Clouds 12 1012 97 10000 9.31 236 22:31 30.12.2021
6197 Clouds 12 1012 98 10000 8.92 235 21:39 30.12.2021
6198 Clouds 12 1012 97 10000 8.16 235 21:19 30.12.2021
6199 Clouds 12 1012 97 10000 8.16 235 20:39 30.12.2021
6200 Clouds 12 1012 97 10000 7.69 236 19:56 30.12.2021
6201 Clouds 12 1012 97 10000 7.69 236 19:31 30.12.2021
6202 Clouds 12 1012 98 10000 7.65 249 18:28 30.12.2021
6203 Clouds 12 1011 98 10000 8.04 252 16:53 30.12.2021
6204 Clouds 12 1011 99 10000 8.73 252 15:54 30.12.2021
6205 Clouds 12 1010 99 10000 9.29 249 15:21 30.12.2021
6206 Clouds 12 1010 99 10000 9.29 249 14:36 30.12.2021
6207 Clouds 12 1009 99 10000 9.69 244 13:26 30.12.2021
6208 Clouds 12 1009 100 10000 9.93 241 11:58 30.12.2021
6209 Clouds 11 1008 100 10000 9.2 240 10:40 30.12.2021
6210 Clouds 11 1008 100 6939 7.27 225 09:50 30.12.2021
6211 Clouds 11 1008 100 6939 7.27 225 09:50 30.12.2021
6212 Clouds 9 1008 100 10000 5.69 222 07:25 30.12.2021
6213 Clouds 8 1009 99 10000 5.35 226 06:38 30.12.2021
6214 Clouds 8 1008 99 10000 6.44 236 03:41 30.12.2021
6215 Clouds 8 1008 99 10000 6.19 238 02:35 30.12.2021
6216 Clouds 9 1006 99 10000 7.03 259 23:41 29.12.2021
6217 Clouds 9 1004 100 10000 6.53 268 22:59 29.12.2021
6218 Clouds 9 1003 100 10000 6.19 241 22:18 29.12.2021
6219 Clouds 8 1003 100 10000 6.2 207 21:27 29.12.2021
6220 Clouds 8 1003 100 10000 6.2 207 20:31 29.12.2021
6221 Clouds 7 1002 100 10000 6.47 182 19:44 29.12.2021
6222 Clouds 7 1003 100 10000 5.8 173 18:45 29.12.2021
6223 Clouds 7 1003 100 8417 5.53 173 17:54 29.12.2021
6224 Rain 7 1004 100 10000 4.9 172 17:27 29.12.2021
6225 Rain 7 1005 99 10000 4.03 172 16:24 29.12.2021
6226 Clouds 7 1005 99 10000 4.03 172 15:48 29.12.2021
6227 Clouds 7 1005 99 10000 3.58 220 14:19 29.12.2021
6228 Clouds 7 1005 100 10000 3.63 217 12:37 29.12.2021
6229 Clouds 6 1005 99 10000 2.3 221 11:43 29.12.2021
6230 Clouds 6 1005 99 10000 2.78 276 09:59 29.12.2021
6231 Clouds 6 1004 99 10000 3.48 281 07:52 29.12.2021
6232 Clouds 6 1002 99 10000 2.62 304 06:40 29.12.2021
6233 Clouds 6 1001 99 10000 2.5 316 06:22 29.12.2021
6234 Clouds 6 1001 99 10000 2.5 316 05:39 29.12.2021
6235 Clouds 5 998 99 10000 2.67 290 02:48 29.12.2021
6236 Clouds 5 995 99 10000 2.57 211 00:23 29.12.2021
6237 Clouds 5 995 99 10000 2.57 211 23:45 28.12.2021
6238 Clouds 5 994 99 10000 2.78 217 22:42 28.12.2021
6239 Clouds 5 993 99 10000 3.13 222 22:24 28.12.2021
6240 Clouds 5 993 99 10000 3.13 222 21:52 28.12.2021
6241 Clouds 5 992 98 10000 3.05 226 20:40 28.12.2021
6242 Clouds 6 991 98 10000 3.28 213 19:31 28.12.2021
6243 Clouds 6 991 98 10000 2.78 188 18:44 28.12.2021
6244 Clouds 6 990 98 10000 2 223 18:19 28.12.2021
6245 Clouds 7 989 98 10000 2.64 242 16:35 28.12.2021
6246 Clouds 7 988 99 8835 5.02 157 15:51 28.12.2021
6247 Clouds 7 988 99 6817 6.06 140 15:23 28.12.2021
6248 Clouds 7 988 98 6817 6.06 140 14:51 28.12.2021
6249 Clouds 7 989 99 10000 6.09 141 14:21 28.12.2021
6250 Rain 7 989 98 10000 6.09 141 13:51 28.12.2021
6251 Clouds 7 989 98 10000 6.09 141 13:51 28.12.2021
6252 Clouds 7 990 98 10000 5.95 148 13:28 28.12.2021
6253 Rain 6 990 98 10000 6.35 151 12:49 28.12.2021
6254 Clouds 6 991 99 10000 6.16 155 11:51 28.12.2021
6255 Clouds 4 992 98 10000 4.93 158 09:30 28.12.2021
6256 Clouds 4 993 98 10000 4.59 152 07:31 28.12.2021
6257 Clouds 3 997 96 10000 5.14 148 02:22 28.12.2021
6258 Clouds 3 998 96 10000 4.64 140 23:26 27.12.2021
6259 Clouds 2 998 95 10000 4.67 132 22:20 27.12.2021
6260 Clouds 2 999 95 10000 4.71 131 21:29 27.12.2021
6261 Clouds 2 999 95 10000 4.72 126 20:24 27.12.2021
6262 Clouds 1 999 95 10000 4.72 126 19:47 27.12.2021
6263 Clouds 1 999 95 10000 4.71 124 18:56 27.12.2021
6264 Clouds 1 1000 95 10000 4.52 124 17:50 27.12.2021
6265 Clouds 1 1000 96 10000 4.43 118 17:27 27.12.2021
6266 Clouds 1 1000 96 10000 4.24 117 15:54 27.12.2021
6267 Clouds 1 1000 95 10000 4.04 127 14:56 27.12.2021
6268 Clouds 1 1000 95 10000 4.04 125 14:21 27.12.2021
6269 Clouds 1 1001 93 10000 4.02 126 12:49 27.12.2021
6270 Clouds -1 1002 93 10000 4.52 129 10:37 27.12.2021
6271 Clouds -1 1001 93 10000 4.7 125 10:18 27.12.2021
6272 Clouds -1 1002 91 10000 4.7 123 08:43 27.12.2021
6273 Clouds -1 1002 90 10000 4.46 122 07:34 27.12.2021
6274 Clouds -1 1003 90 10000 4.46 116 06:27 27.12.2021
6275 Clouds -3 1004 86 10000 5.49 114 01:51 27.12.2021
6276 Clouds -3 1006 84 10000 5.04 114 23:49 26.12.2021
6277 Clouds -3 1006 83 10000 5.67 105 23:19 26.12.2021
6278 Clouds -3 1007 82 10000 5.63 105 21:37 26.12.2021
6279 Clear -3 1007 81 10000 5.87 109 19:55 26.12.2021
6280 Clear -3 1008 79 10000 6.19 105 18:46 26.12.2021
6281 Clear -3 1008 78 10000 6.1 105 18:22 26.12.2021
6282 Clear -2 1009 66 10000 6.08 107 15:53 26.12.2021
6283 Clear -2 1010 63 10000 6.57 104 13:51 26.12.2021
6284 Clear -2 1010 64 10000 6.57 104 13:32 26.12.2021
6285 Clear -2 1010 63 10000 6.39 103 12:37 26.12.2021
6286 Clear -2 1010 63 10000 6.39 103 12:37 26.12.2021
6287 Clear -3 1011 65 10000 6.44 101 11:56 26.12.2021
6288 Clear -6 1011 71 10000 6.16 97 09:42 26.12.2021
6289 Clear -7 1011 49 10000 5.83 93 08:50 26.12.2021
6290 Clear -7 1011 50 10000 5.34 92 08:27 26.12.2021
6291 Clear -7 1011 51 10000 5.07 95 06:47 26.12.2021
6292 Clear -7 1013 61 10000 4.26 94 00:45 26.12.2021
6293 Clear -6 1014 62 10000 4.06 101 23:49 25.12.2021
6294 Clear -6 1014 85 10000 3.93 103 23:26 25.12.2021
6295 Clear -5 1014 83 10000 3.83 104 22:22 25.12.2021
6296 Clear -5 1014 67 10000 3.74 102 20:48 25.12.2021
6297 Clear -4 1014 82 10000 3.71 93 19:21 25.12.2021
6298 Clear -4 1014 81 10000 3.81 95 18:54 25.12.2021
6299 Clear -4 1013 80 10000 3.63 90 17:28 25.12.2021
6300 Clear -3 1013 78 10000 3.71 88 16:18 25.12.2021
6301 Clear -2 1013 77 10000 4.11 89 14:38 25.12.2021
6302 Clear -2 1014 76 10000 5.18 97 12:48 25.12.2021
6303 Clear -3 1014 79 10000 5.29 99 11:45 25.12.2021
6304 Clear -5 1013 82 10000 4.57 94 09:50 25.12.2021
6305 Clear -5 1012 86 10000 4.76 86 08:19 25.12.2021
6306 Clear -3 1010 78 10000 5.4 85 02:22 25.12.2021
6307 Clouds -2 1010 87 10000 4.67 87 00:33 25.12.2021
6308 Clouds -2 1010 87 10000 4.67 82 23:38 24.12.2021
6309 Clouds 1 1008 98 10000 6.29 62 19:40 24.12.2021
6310 Clouds 1 1007 98 10000 6.43 59 19:22 24.12.2021
6311 Clouds 3 1005 98 9602 6.31 50 16:50 24.12.2021
6312 Clouds 4 1004 98 1645 6.97 39 16:21 24.12.2021
6313 Clouds 4 1004 99 1645 6.97 39 15:46 24.12.2021
6314 Clouds 5 1003 99 10000 3.88 1 14:47 24.12.2021
6315 Clouds 5 1003 99 10000 3.18 315 14:24 24.12.2021
6316 Clouds 5 1003 99 10000 3.18 315 13:39 24.12.2021
6317 Clouds 5 1002 99 10000 2.58 309 12:48 24.12.2021
6318 Clouds 5 1001 99 10000 3.21 353 11:58 24.12.2021
6319 Clouds 5 1001 99 10000 3.41 6 11:27 24.12.2021
6320 Clouds 5 1001 99 10000 3.41 6 10:53 24.12.2021
6321 Clouds 5 1000 99 10000 3.45 23 10:28 24.12.2021
6322 Clouds 6 999 99 10000 1.98 352 08:26 24.12.2021
6323 Clouds 6 999 99 10000 1.98 352 07:50 24.12.2021
6324 Clouds 6 999 99 1790 4.55 258 03:21 24.12.2021
6325 Clouds 5 1000 99 1179 5.83 252 00:19 24.12.2021
6326 Clouds 5 1000 98 743 6.61 246 23:23 23.12.2021
6327 Clouds 5 1000 98 743 6.61 246 23:23 23.12.2021
6328 Clouds 4 1000 99 743 6.61 246 22:40 23.12.2021
6329 Clouds 4 1000 99 1357 6.65 243 22:20 23.12.2021
6330 Clouds 4 1000 98 1357 6.65 243 21:34 23.12.2021
6331 Clouds 3 1001 98 10000 7 234 20:21 23.12.2021
6332 Clouds 2 1002 98 10000 6.66 226 19:27 23.12.2021
6333 Clouds 1 1003 97 10000 6.24 222 17:57 23.12.2021
6334 Snow 1 1004 97 10000 5.81 222 17:18 23.12.2021
6335 Snow 0 1004 97 10000 5.4 226 16:26 23.12.2021
6336 Snow 0 1004 96 10000 5.4 226 15:32 23.12.2021
6337 Snow 0 1005 96 10000 5.67 222 14:56 23.12.2021
6338 Snow 0 1005 96 10000 5.67 222 14:38 23.12.2021
6339 Snow 0 1007 95 6698 5.98 210 13:25 23.12.2021
6340 Snow 0 1008 90 10000 5.17 203 11:20 23.12.2021
6341 Snow 0 1009 89 10000 5.64 195 09:53 23.12.2021
6342 Snow 0 1009 90 10000 5.64 195 09:33 23.12.2021
6343 Clouds -1 1011 90 10000 4.85 191 08:25 23.12.2021
6344 Clouds -1 1013 91 10000 3.69 179 05:23 23.12.2021
6345 Clouds -2 1017 93 10000 3.62 181 00:40 23.12.2021
6346 Clouds -2 1019 93 10000 3.44 179 22:50 22.12.2021
6347 Clouds -2 1019 93 10000 3.5 177 21:59 22.12.2021
6348 Clouds -2 1019 93 10000 3.5 177 21:30 22.12.2021
6349 Clouds -2 1020 93 10000 3.45 176 20:59 22.12.2021
6350 Clouds -2 1020 93 10000 3.45 176 20:40 22.12.2021
6351 Clouds -2 1020 93 10000 3.42 176 19:50 22.12.2021
6352 Clouds -2 1021 93 10000 3.04 174 18:55 22.12.2021
6353 Clouds -2 1022 93 10000 3.24 177 17:38 22.12.2021
6354 Clouds -1 1023 91 10000 2.95 178 15:56 22.12.2021
6355 Clouds 0 1024 90 10000 2.96 196 14:28 22.12.2021
6356 Clouds -1 1024 91 10000 3.34 202 12:53 22.12.2021
6357 Clouds -1 1025 70 10000 3.19 208 11:48 22.12.2021
6358 Clouds -3 1025 81 10000 2.85 204 09:52 22.12.2021
6359 Clouds -3 1025 87 10000 2.95 205 08:23 22.12.2021
6360 Clouds -4 1026 91 10000 2.94 219 05:54 22.12.2021
6361 Clouds -4 1026 91 10000 2.94 219 05:36 22.12.2021
6362 Clouds -3 1026 92 10000 2.89 216 05:18 22.12.2021
6363 Clouds -4 1026 92 10000 2.89 216 04:40 22.12.2021
6364 Clouds -3 1026 96 10000 2.97 219 03:52 22.12.2021
6365 Clouds -3 1026 96 10000 2.97 219 03:31 22.12.2021
6366 Clouds -2 1026 96 10000 3.06 210 23:49 21.12.2021
6367 Clouds -2 1027 95 10000 2.97 212 22:41 21.12.2021
6368 Clouds -2 1026 95 10000 2.88 212 21:58 21.12.2021
6369 Clouds -2 1026 95 10000 2.88 212 21:33 21.12.2021
6370 Clouds -1 1026 94 10000 2.71 212 20:42 21.12.2021
6371 Clouds -1 1026 95 10000 2.47 210 20:18 21.12.2021
6372 Clouds -2 1026 94 10000 2.47 210 19:40 21.12.2021
6373 Clear -1 1026 93 10000 2.03 211 18:33 21.12.2021
6374 Clear -1 1026 92 10000 1.78 217 17:59 21.12.2021
6375 Clear -1 1026 92 10000 1.78 217 17:40 21.12.2021
6376 Clear 1 1026 87 10000 1.47 238 15:46 21.12.2021
6377 Clear 2 1026 86 10000 1.8 252 14:29 21.12.2021
6378 Clear 2 1026 85 10000 1.8 252 13:42 21.12.2021
6379 Clear 2 1026 88 10000 1.94 245 12:39 21.12.2021
6380 Clear 0 1027 77 10000 1.53 239 10:52 21.12.2021
6381 Clear -2 1027 82 10000 1.65 235 09:57 21.12.2021
6382 Clear -3 1027 85 10000 1.54 236 09:18 21.12.2021
6383 Clouds -2 1027 84 10000 1.36 234 07:45 21.12.2021
6384 Clouds -3 1027 84 10000 1.13 244 07:24 21.12.2021
6385 Clouds -1 1027 81 10000 0.89 159 04:37 21.12.2021
6386 Clouds -2 1028 80 10000 0.77 133 02:39 21.12.2021
6387 Clouds -1 1029 78 10000 1.64 88 23:57 20.12.2021
6388 Clouds -1 1029 78 10000 1.56 77 22:48 20.12.2021
6389 Clouds 0 1029 78 10000 1.28 66 22:27 20.12.2021
6390 Clouds 0 1029 77 10000 1.1 41 21:28 20.12.2021
6391 Clouds 0 1029 77 10000 1.1 41 20:57 20.12.2021
6392 Clouds 0 1029 77 10000 1.1 41 20:32 20.12.2021
6393 Clouds 0 1029 76 10000 1.11 12 19:39 20.12.2021
6394 Clouds 1 1028 75 10000 1.31 338 19:20 20.12.2021
6395 Clouds 0 1028 75 10000 1.31 338 18:49 20.12.2021
6396 Clear 1 1028 76 10000 1.2 21 17:52 20.12.2021
6397 Clear 2 1028 86 10000 1.42 2 16:56 20.12.2021
6398 Clear 2 1028 85 10000 1.42 2 16:36 20.12.2021
6399 Clear 4 1028 81 10000 1.36 335 15:47 20.12.2021
6400 Clear 5 1028 78 10000 1.11 321 14:41 20.12.2021
6401 Clear 5 1029 72 10000 0.71 297 12:44 20.12.2021
6402 Clear 4 1029 96 10000 0.04 49 11:18 20.12.2021
6403 Clear 0 1028 68 10000 0.46 108 09:47 20.12.2021
6404 Clear 0 1028 70 10000 0.96 87 08:57 20.12.2021
6405 Clear 0 1028 70 10000 0.96 87 08:38 20.12.2021
6406 Clear 1 1028 71 10000 1.51 78 07:46 20.12.2021
6407 Clear 1 1028 94 10000 1.68 61 06:47 20.12.2021
6408 Clear 3 1027 90 10000 2.99 49 03:41 20.12.2021
6409 Clouds 5 1027 85 10000 2.8 355 23:50 19.12.2021
6410 Clouds 6 1027 82 10000 4.2 3 22:44 19.12.2021
6411 Clouds 7 1027 85 10000 6.47 1 21:49 19.12.2021
6412 Clouds 7 1027 85 10000 7.5 358 21:26 19.12.2021
6413 Clouds 7 1027 84 10000 7.5 358 20:30 19.12.2021
6414 Clouds 7 1027 85 10000 6.5 359 19:46 19.12.2021
6415 Clouds 7 1026 85 10000 6.77 353 18:57 19.12.2021
6416 Clouds 8 1026 85 10000 7.6 348 18:27 19.12.2021
6417 Clouds 8 1026 89 10000 7.6 348 17:49 19.12.2021
6418 Clouds 8 1026 90 10000 7.94 336 17:18 19.12.2021
6419 Clouds 8 1026 91 10000 7.9 324 16:24 19.12.2021
6420 Clouds 8 1026 92 10000 7.93 321 15:28 19.12.2021
6421 Clouds 8 1026 91 10000 7.93 321 14:57 19.12.2021
6422 Clouds 8 1026 90 10000 7.93 321 14:36 19.12.2021
6423 Clouds 8 1028 91 10000 7.89 320 13:22 19.12.2021
6424 Clouds 8 1028 92 10000 7.89 320 12:33 19.12.2021
6425 Clouds 8 1028 94 10000 7.79 320 11:42 19.12.2021
6426 Clouds 8 1029 96 10000 7.32 321 10:53 19.12.2021
6427 Clouds 8 1029 96 10000 7.42 324 10:23 19.12.2021
6428 Clouds 8 1029 96 10000 7.42 324 10:23 19.12.2021
6429 Clouds 7 1030 96 10000 7.16 324 09:26 19.12.2021
6430 Clouds 7 1030 95 10000 6.97 326 07:50 19.12.2021
6431 Clouds 7 1031 96 10000 8.23 316 04:44 19.12.2021
6432 Clouds 8 1033 97 10000 7.65 306 00:56 19.12.2021
6433 Clouds 8 1034 97 10000 6.82 305 00:28 19.12.2021
6434 Clouds 7 1034 98 10000 6.42 306 22:32 18.12.2021
6435 Clouds 7 1035 98 10000 6.17 310 21:54 18.12.2021
6436 Clouds 7 1035 98 10000 6.17 310 21:35 18.12.2021
6437 Clouds 7 1035 98 10000 5.92 315 20:44 18.12.2021
6438 Clouds 7 1035 97 10000 6.12 317 19:54 18.12.2021
6439 Clouds 7 1036 97 10000 6.22 317 19:19 18.12.2021
6440 Clouds 8 1035 97 10000 4.99 302 18:20 18.12.2021
6441 Clouds 8 1035 96 10000 4.99 302 17:47 18.12.2021
6442 Clouds 8 1036 96 10000 5.17 303 16:25 18.12.2021
6443 Clouds 8 1036 97 10000 5.62 312 15:26 18.12.2021
6444 Clouds 9 1036 98 10000 5.62 312 14:32 18.12.2021
6445 Clouds 9 1038 99 10000 4.98 319 13:20 18.12.2021
6446 Clouds 8 1039 99 10000 4.5 314 11:21 18.12.2021
6447 Clouds 8 1039 100 10000 3.75 312 09:39 18.12.2021
6448 Clouds 8 1039 99 10000 3.06 318 08:46 18.12.2021
6449 Clouds 8 1039 99 10000 3.06 329 08:19 18.12.2021
6450 Clouds 7 1039 99 10000 2.63 334 02:51 18.12.2021
6451 Clouds 7 1039 99 10000 2.74 328 00:27 18.12.2021
6452 Clouds 7 1039 99 10000 2.74 328 23:44 17.12.2021
6453 Clouds 7 1040 99 10000 2.59 321 21:56 17.12.2021
6454 Clouds 7 1040 99 10000 2.59 321 21:56 17.12.2021
6455 Clouds 8 1040 96 10000 2.51 333 20:58 17.12.2021
6456 Clouds 8 1040 96 10000 2.51 333 20:38 17.12.2021
6457 Clouds 8 1040 99 10000 2.67 352 19:19 17.12.2021
6458 Clouds 8 1040 99 10000 2.79 346 18:38 17.12.2021
6459 Clouds 8 1040 99 10000 2.67 343 17:31 17.12.2021
6460 Clouds 8 1039 99 10000 2.78 328 16:46 17.12.2021
6461 Clouds 8 1039 99 10000 2.78 328 16:46 17.12.2021
6462 Clouds 9 1039 99 10000 2.86 314 16:22 17.12.2021
6463 Clouds 9 1039 99 10000 2.57 310 15:25 17.12.2021
6464 Clouds 9 1039 99 10000 2.57 310 14:40 17.12.2021
6465 Clouds 9 1039 99 10000 2.58 335 12:47 17.12.2021
6466 Clouds 9 1039 99 10000 3.03 342 11:46 17.12.2021
6467 Clouds 8 1039 99 10000 2.46 335 10:37 17.12.2021
6468 Clouds 8 1039 99 10000 2.17 336 09:33 17.12.2021
6469 Clouds 7 1039 99 10000 2.54 333 08:30 17.12.2021
6470 Clouds 8 1038 99 10000 2.47 296 06:22 17.12.2021
6471 Clouds 7 1038 99 10000 2.4 264 02:54 17.12.2021
6472 Clouds 8 1038 99 10000 2.43 241 23:40 16.12.2021
6473 Clouds 8 1038 99 10000 1.84 240 22:24 16.12.2021
6474 Clouds 8 1038 99 10000 1.84 240 22:24 16.12.2021
6475 Clouds 8 1038 99 10000 1.84 240 21:50 16.12.2021
6476 Clouds 8 1038 99 9793 1.69 240 21:25 16.12.2021
6477 Clouds 8 1038 99 9793 1.69 240 20:31 16.12.2021
6478 Clouds 8 1038 99 10000 1.18 266 19:44 16.12.2021
6479 Clouds 8 1038 98 10000 1.55 308 18:39 16.12.2021
6480 Clouds 8 1037 99 10000 1.72 293 17:57 16.12.2021
6481 Clouds 8 1037 99 10000 1.72 293 17:31 16.12.2021
6482 Clouds 8 1037 99 10000 1.79 289 16:22 16.12.2021
6483 Clouds 9 1036 98 10000 1.79 279 14:50 16.12.2021
6484 Clouds 9 1036 98 10000 1.96 290 13:29 16.12.2021
6485 Clouds 8 1035 98 10000 2.12 270 11:20 16.12.2021
6486 Clouds 8 1035 98 10000 2.12 270 10:59 16.12.2021
6487 Clouds 8 1035 98 10000 2.52 270 10:22 16.12.2021
6488 Clouds 7 1034 97 10000 2.66 287 08:25 16.12.2021
6489 Clouds 8 1033 96 10000 3.26 287 06:22 16.12.2021
6490 Clear 8 1032 96 10000 3.4 266 02:54 16.12.2021
6491 Clear 8 1031 96 10000 4.25 258 23:35 15.12.2021
6492 Clear 7 1030 96 10000 4.32 253 22:44 15.12.2021
6493 Clear 7 1030 94 10000 4.35 251 21:57 15.12.2021
6494 Clear 7 1030 94 10000 4.4 245 21:27 15.12.2021
6495 Clear 8 1029 91 10000 4.67 244 20:19 15.12.2021
6496 Clear 8 1029 90 10000 4.67 244 19:51 15.12.2021
6497 Clouds 9 1029 90 10000 4.97 240 18:39 15.12.2021
6498 Clouds 9 1029 88 10000 4.91 240 17:56 15.12.2021
6499 Clouds 9 1029 88 10000 4.91 240 17:37 15.12.2021
6500 Clouds 9 1029 91 10000 5.19 250 16:35 15.12.2021
6501 Clouds 10 1028 89 10000 6.11 260 15:47 15.12.2021
6502 Clouds 10 1028 89 10000 6.11 260 15:47 15.12.2021
6503 Clouds 10 1028 88 10000 6.21 258 15:28 15.12.2021
6504 Clouds 10 1027 88 10000 5.88 254 14:43 15.12.2021
6505 Clouds 11 1027 92 10000 5.88 244 12:52 15.12.2021
6506 Clouds 10 1027 96 10000 4.91 230 10:49 15.12.2021
6507 Clouds 10 1027 97 10000 5.19 230 09:28 15.12.2021
6508 Clouds 10 1026 97 10000 5.23 229 07:44 15.12.2021
6509 Clouds 10 1026 99 10000 5.21 229 02:40 15.12.2021
6510 Clouds 9 1026 99 10000 4.88 231 23:44 14.12.2021
6511 Clouds 9 1026 99 10000 4.78 237 22:49 14.12.2021
6512 Clouds 9 1026 99 10000 4.78 237 22:49 14.12.2021
6513 Clouds 9 1026 99 10000 4.78 237 22:30 14.12.2021
6514 Clouds 9 1026 99 10000 5.46 232 21:24 14.12.2021
6515 Clouds 9 1025 99 10000 5.03 222 19:44 14.12.2021
6516 Clouds 9 1025 98 10000 4.76 220 19:21 14.12.2021
6517 Clouds 9 1025 98 10000 4.25 223 18:34 14.12.2021
6518 Clouds 9 1025 98 10000 4.25 224 17:50 14.12.2021
6519 Clouds 9 1025 98 10000 3.97 226 16:43 14.12.2021
6520 Clouds 9 1025 98 10000 3.73 230 15:52 14.12.2021
6521 Clouds 9 1025 98 10000 3.66 243 13:33 14.12.2021
6522 Clouds 8 1024 97 10000 3.84 237 12:41 14.12.2021
6523 Clouds 8 1024 97 10000 4.23 236 11:24 14.12.2021
6524 Clouds 8 1024 97 10000 4.85 230 10:28 14.12.2021
6525 Clouds 8 1024 97 10000 4.85 230 09:53 14.12.2021
6526 Clouds 8 1024 96 10000 5.06 229 08:40 14.12.2021
6527 Clouds 8 1023 96 10000 5.41 226 08:20 14.12.2021
6528 Clouds 8 1023 94 10000 5.55 224 06:27 14.12.2021
6529 Clouds 8 1024 96 10000 5.11 217 23:40 13.12.2021
6530 Clouds 8 1025 97 10000 4.92 216 22:18 13.12.2021
6531 Clouds 9 1025 97 10000 4.92 216 21:34 13.12.2021
6532 Clouds 9 1025 97 10000 4.78 214 20:50 13.12.2021
6533 Clouds 9 1025 97 10000 4.78 212 20:20 13.12.2021
6534 Clouds 9 1025 97 10000 4.78 212 19:49 13.12.2021
6535 Clouds 9 1025 97 10000 4.92 214 17:27 13.12.2021
6536 Clouds 9 1025 96 10000 4.92 215 16:24 13.12.2021
6537 Clouds 10 1025 96 10000 4.92 215 15:43 13.12.2021
6538 Clouds 10 1025 94 10000 5.38 219 13:57 13.12.2021
6539 Clouds 10 1025 94 10000 5.38 219 13:36 13.12.2021
6540 Clouds 10 1025 96 10000 5.67 222 12:39 13.12.2021
6541 Clouds 10 1025 98 10000 5.3 220 11:50 13.12.2021
6542 Clouds 10 1024 98 10000 5.13 216 11:29 13.12.2021
6543 Clouds 9 1024 99 10000 5.38 211 10:21 13.12.2021
6544 Clouds 9 1024 99 10000 5.21 212 08:43 13.12.2021
6545 Clouds 9 1023 99 10000 4.86 214 06:54 13.12.2021
6546 Clouds 10 1023 99 10000 4.89 224 05:19 13.12.2021
6547 Clouds 10 1022 99 10000 4.6 230 23:55 12.12.2021
6548 Clouds 10 1021 100 10000 4.15 227 21:58 12.12.2021
6549 Clouds 9 1021 99 2522 3.78 221 20:50 12.12.2021
6550 Clouds 9 1021 99 2476 3.22 220 19:35 12.12.2021
6551 Clouds 9 1020 99 4672 2.98 236 18:22 12.12.2021
6552 Clouds 9 1019 99 3270 3.52 250 16:32 12.12.2021
6553 Clouds 9 1019 99 512 4.29 245 15:58 12.12.2021
6554 Clouds 9 1018 99 363 4.92 236 15:28 12.12.2021
6555 Clouds 8 1018 99 363 4.92 236 14:51 12.12.2021
6556 Clouds 8 1018 99 1137 5.25 229 14:19 12.12.2021
6557 Clouds 8 1018 99 10000 5.69 220 12:48 12.12.2021
6558 Clouds 7 1018 99 10000 6 221 11:59 12.12.2021
6559 Clouds 7 1018 99 10000 6 221 11:32 12.12.2021
6560 Clouds 6 1017 99 10000 6.77 215 10:44 12.12.2021
6561 Clouds 6 1017 99 10000 7.36 210 10:21 12.12.2021
6562 Clouds 5 1017 99 10000 7.54 213 08:48 12.12.2021
6563 Clouds 4 1017 98 10000 7.9 199 07:28 12.12.2021
6564 Clouds 4 1017 98 10000 7.58 186 05:56 12.12.2021
6565 Clouds 4 1017 98 10000 6.76 179 04:53 12.12.2021
6566 Clouds 3 1018 98 10000 5.07 202 01:26 12.12.2021
6567 Clouds 2 1018 98 10000 4.68 208 23:26 11.12.2021
6568 Clouds 1 1018 98 10000 4.12 214 22:21 11.12.2021
6569 Clouds 1 1018 97 10000 4.12 214 21:47 11.12.2021
6570 Clouds 1 1018 92 10000 3.91 238 20:20 11.12.2021
6571 Clouds 1 1017 96 10000 3.89 248 19:21 11.12.2021
6572 Clouds 1 1017 95 10000 3.72 237 18:49 11.12.2021
6573 Clouds 2 1016 95 10000 3.85 246 17:56 11.12.2021
6574 Clouds 3 1016 94 10000 4.02 244 16:39 11.12.2021
6575 Clouds 3 1015 93 10000 4.34 240 15:46 11.12.2021
6576 Clouds 3 1014 93 10000 5.07 241 14:54 11.12.2021
6577 Clouds 3 1014 90 10000 5.24 238 12:41 11.12.2021
6578 Clouds 1 1012 97 10000 3.87 227 11:18 11.12.2021
6579 Clouds 0 1012 87 10000 3.4 229 09:45 11.12.2021
6580 Clouds -2 1009 96 10000 2.7 240 05:36 11.12.2021
6581 Clouds -1 1004 91 10000 0.62 120 00:50 11.12.2021
6582 Clouds -1 1003 95 10000 0.64 77 23:45 10.12.2021
6583 Clouds -1 1003 95 10000 1.07 61 23:18 10.12.2021
6584 Clouds -1 1002 94 10000 1.34 64 21:52 10.12.2021
6585 Clouds -1 1001 94 10000 1.65 73 20:56 10.12.2021
6586 Clouds 0 999 93 10000 2.74 79 19:20 10.12.2021
6587 Clouds 1 997 92 10000 3.12 85 17:54 10.12.2021
6588 Clouds 2 997 89 10000 3.2 87 16:55 10.12.2021
6589 Clouds 3 996 87 10000 3.25 92 15:51 10.12.2021
6590 Clouds 4 995 86 10000 3.63 107 15:29 10.12.2021
6591 Clouds 4 995 86 10000 3.63 107 14:59 10.12.2021
6592 Clouds 5 995 85 10000 4.19 113 13:51 10.12.2021
6593 Clouds 5 995 85 10000 4.85 112 13:25 10.12.2021
6594 Clouds 5 995 86 10000 4.59 112 12:34 10.12.2021
6595 Clouds 4 995 90 10000 4.33 119 11:28 10.12.2021
6596 Clouds 3 995 93 10000 4.45 134 09:54 10.12.2021
6597 Clouds 3 995 93 10000 5.29 143 08:32 10.12.2021
6598 Clouds 4 995 94 10000 5.15 149 05:57 10.12.2021
6599 Clouds 4 997 95 10000 4.96 163 02:48 10.12.2021
6600 Clouds 4 999 96 10000 5.99 171 23:54 09.12.2021
6601 Clouds 4 999 96 10000 5.86 171 23:20 09.12.2021
6602 Clouds 4 1000 95 10000 5.73 170 22:24 09.12.2021
6603 Clouds 4 1000 95 10000 5.73 170 21:50 09.12.2021
6604 Clouds 4 1001 95 10000 5.71 172 20:44 09.12.2021
6605 Clouds 4 1001 95 10000 5.61 170 20:21 09.12.2021
6606 Clouds 4 1002 95 10000 5.58 179 19:21 09.12.2021
6607 Clouds 4 1002 95 10000 5.5 178 18:46 09.12.2021
6608 Clouds 3 1002 95 10000 5.45 186 17:52 09.12.2021
6609 Clouds 3 1002 95 10000 5.28 187 17:26 09.12.2021
6610 Clouds 3 1002 95 10000 5.28 187 16:54 09.12.2021
6611 Clouds 3 1002 95 10000 5.23 187 15:46 09.12.2021
6612 Clouds 3 1002 95 10000 5.35 185 14:48 09.12.2021
6613 Clouds 3 1002 94 10000 4.74 172 13:23 09.12.2021
6614 Clouds 3 1002 93 10000 4.74 172 12:42 09.12.2021
6615 Clouds 2 1003 96 10000 4 168 11:24 09.12.2021
6616 Clouds 1 1003 96 10000 3.8 164 09:44 09.12.2021
6617 Clouds 1 1002 96 10000 3.57 171 06:50 09.12.2021
6618 Clouds 1 1001 95 10000 3.7 159 03:43 09.12.2021
6619 Clouds 2 1002 93 10000 3.82 165 23:45 08.12.2021
6620 Clouds 2 1001 93 10000 3.63 157 23:21 08.12.2021
6621 Clouds 2 1001 93 10000 3.63 157 22:49 08.12.2021
6622 Clouds 3 1001 92 10000 3.42 150 21:46 08.12.2021
6623 Clouds 3 1001 92 10000 3.39 165 21:27 08.12.2021
6624 Clouds 3 1000 92 10000 3.8 182 20:18 08.12.2021
6625 Clouds 3 1000 91 10000 3.8 182 19:37 08.12.2021
6626 Clouds 4 1000 91 10000 4.38 167 18:53 08.12.2021
6627 Clouds 4 999 91 10000 4.23 162 17:52 08.12.2021
6628 Clouds 6 998 87 10000 5.9 176 15:58 08.12.2021
6629 Clouds 6 997 87 10000 6.25 179 15:29 08.12.2021
6630 Clouds 6 997 86 10000 6.25 179 14:50 08.12.2021
6631 Clouds 6 997 86 10000 5.69 179 12:39 08.12.2021
6632 Clouds 5 996 95 10000 6.17 180 10:32 08.12.2021
6633 Clouds 4 996 96 10000 6.16 182 09:31 08.12.2021
6634 Clouds 4 994 96 10000 6.71 172 07:34 08.12.2021
6635 Clouds 3 994 96 60 8.45 155 04:58 08.12.2021
6636 Clouds 3 997 88 10000 9.71 143 23:48 07.12.2021
6637 Clouds 3 998 89 10000 9.64 139 22:37 07.12.2021
6638 Clouds 3 1001 91 10000 8.24 146 21:24 07.12.2021
6639 Clouds 3 1002 94 10000 8.09<